ECMWFFLT1_sfc_thetae_000.txt.gz
Theta_e
329 327 327 327 326 326 326 326 325 325 326 325 326 327 329 329 329 327 329 327 327 326 326 326 329 333 334 334 333 333 334 335 335 336 336 335 336 335 334 334 334 336 337 337 337 337 338 340 339 338 338 338 339 339 339 340 340 341 342 343 343 342 343
327 327 327 326 325 325 325 325 323 324 326 325 326 328 328 329 328 327 327 326 327 326 326 326 333 331 332 333 332 333 333 334 336 338 336 334 335 334 333 333 334 334 334 335 335 336 337 338 339 338 338 339 338 339 340 340 341 341 341 342 343 343 344
326 327 326 325 325 325 325 322 322 325 326 325 327 326 328 329 328 327 327 328 326 327 325 325 331 330 331 331 331 332 331 332 333 333 332 332 332 332 333 333 333 334 334 335 335 335 337 337 338 338 337 338 338 338 339 339 340 340 340 340 341 340 342
326 326 326 325 325 325 324 323 324 325 325 326 327 327 327 329 328 326 326 326 326 328 326 327 327 330 331 331 331 330 331 332 331 332 332 331 331 332 332 333 333 333 333 334 335 336 337 337 336 336 338 336 336 337 337 337 338 339 339 339 340 340 341
325 325 324 323 323 323 322 322 323 324 325 325 326 329 328 329 327 326 326 327 325 326 325 326 329 330 332 331 330 331 332 331 331 330 330 330 332 331 331 331 332 332 333 333 335 336 335 334 335 335 335 335 335 335 336 337 337 338 338 338 337 338 337
323 323 322 322 323 322 322 323 324 324 324 325 325 327 328 328 327 327 326 329 330 329 327 327 328 329 329 328 329 329 329 328 329 330 330 330 330 330 330 331 331 331 332 333 334 334 335 334 334 334 334 334 335 334 335 335 336 337 338 337 336 336 336
324 323 322 322 323 322 322 323 324 324 324 325 327 329 329 327 327 327 326 325 328 327 326 326 327 327 328 329 328 329 327 327 327 328 328 328 329 330 329 329 332 331 331 333 332 334 334 334 334 333 334 334 335 334 334 334 335 336 337 335 335 336 336
324 322 322 322 322 322 322 323 323 323 324 325 326 326 328 328 327 326 326 325 325 325 325 326 327 327 328 328 329 327 327 326 327 327 327 327 327 328 328 328 329 330 331 331 332 333 334 334 334 335 334 334 335 335 335 335 335 335 336 334 335 335 336
322 323 322 322 322 321 321 322 323 323 324 324 326 327 327 328 327 327 326 326 325 324 325 326 327 327 328 328 327 327 326 325 326 326 326 326 327 327 328 328 329 330 330 330 331 333 334 334 335 334 333 333 335 335 335 335 335 335 335 335 334 333 334
319 320 321 321 321 321 321 321 321 322 324 324 325 326 327 327 327 326 326 326 325 324 325 326 327 328 328 327 327 327 326 326 326 325 325 326 327 327 328 328 328 330 330 330 332 332 334 335 335 333 332 333 334 334 333 334 334 334 334 333 333 333 335
318 320 320 319 319 319 319 320 320 322 324 325 326 326 326 326 326 326 326 325 325 326 325 325 327 328 328 327 327 327 326 326 326 326 326 326 327 328 329 328 328 330 330 330 330 332 333 335 335 333 332 332 332 332 333 334 333 330 330 331 332 332 333
318 318 319 319 318 318 319 320 322 322 324 325 325 326 326 326 326 326 326 325 326 326 325 324 326 327 328 327 326 325 325 326 326 326 326 327 328 329 329 329 329 329 330 330 330 331 333 334 334 334 333 332 331 331 331 330 330 330 330 330 332 333 333
318 318 319 318 318 318 319 319 321 322 323 324 324 325 326 326 326 326 325 326 326 325 325 325 325 325 325 324 323 323 324 325 325 326 325 327 328 329 329 329 329 329 329 330 331 331 332 334 335 336 333 332 331 330 330 330 329 329 331 333 333 331 330
323 318 318 317 317 317 319 320 321 321 322 322 323 325 325 325 326 326 326 326 326 325 325 326 326 325 324 323 322 322 323 324 324 325 326 327 329 330 329 329 328 328 329 330 329 331 331 332 333 333 334 333 333 333 333 330 329 330 331 332 331 330 328
318 317 317 317 317 318 319 319 321 321 321 322 324 324 324 324 324 323 324 324 325 325 325 326 325 325 324 323 322 322 323 324 325 326 327 329 329 329 328 328 327 328 328 329 330 331 332 333 332 331 332 333 334 332 332 331 330 331 330 328 328 328 326
317 317 317 317 318 318 319 320 321 321 322 323 323 323 324 324 324 324 325 325 326 325 325 324 324 324 323 322 322 323 324 324 325 326 326 326 327 328 328 327 327 328 328 329 330 330 331 331 331 331 332 333 332 331 331 330 329 326 320 320 327 325 324
317 317 317 318 318 318 319 320 321 321 322 323 323 323 324 325 325 325 324 324 324 323 324 323 323 323 322 323 323 324 324 323 324 325 325 326 326 327 327 326 326 327 327 328 329 329 329 331 330 330 332 333 332 330 329 329 329 322 320 322 321 323 324
318 317 317 317 318 319 319 320 320 320 322 323 323 323 323 323 324 323 323 323 323 323 323 322 322 322 323 323 323 323 323 324 324 324 325 325 325 325 325 326 326 326 327 328 328 329 330 329 329 330 330 332 331 329 328 327 323 320 320 322 319 318 325
318 318 318 318 318 320 319 320 320 321 322 323 323 323 324 325 323 323 323 323 323 323 322 322 322 322 322 323 323 323 323 324 323 323 324 324 324 324 325 325 325 326 327 327 328 329 328 328 329 329 330 332 330 327 326 325 322 320 318 319 317 320 324
318 319 318 318 319 320 320 320 321 322 323 323 324 325 326 327 324 325 325 325 324 322 321 322 322 322 322 323 323 323 323 323 323 323 323 324 323 324 324 324 325 326 326 328 328 327 326 327 328 329 329 331 332 330 327 326 322 318 318 316 315 317 324
317 318 317 317 318 320 320 320 321 322 322 323 324 325 325 324 325 326 324 323 322 322 322 321 322 322 322 322 323 323 322 323 322 322 322 323 323 323 323 324 325 325 326 327 327 327 327 327 327 328 330 331 331 331 332 330 319 316 316 314 313 314 322
316 317 317 318 319 320 319 319 321 322 323 326 326 326 324 325 325 325 324 323 322 323 322 323 322 322 322 321 322 323 323 322 322 322 322 322 322 323 324 324 324 324 326 329 328 328 328 328 327 327 328 329 330 332 331 329 319 316 314 313 313 316 327
317 317 319 320 320 321 321 321 322 323 326 325 325 325 325 325 326 325 325 323 323 323 323 322 321 322 322 324 324 324 324 323 322 322 322 323 322 322 323 323 324 325 328 327 327 327 326 325 326 327 328 328 330 331 330 329 323 316 312 311 312 316 327
318 319 320 320 320 321 321 321 323 325 326 324 324 325 326 326 326 325 324 324 323 322 322 321 322 322 323 322 323 323 323 323 322 322 323 322 322 322 323 324 325 325 328 327 326 326 326 326 326 327 328 329 330 331 330 327 323 315 312 310 312 312 326
316 317 318 319 319 319 320 321 322 324 326 324 323 324 326 326 325 324 324 325 324 322 321 322 322 322 322 322 323 323 323 322 322 322 322 322 322 322 323 324 325 328 328 326 325 325 325 327 326 324 324 327 328 330 331 327 323 318 314 310 310 316 325
314 316 317 318 320 321 322 323 324 324 323 323 324 325 325 325 324 326 325 325 323 322 322 324 325 326 325 324 323 323 323 323 326 326 324 323 322 322 323 326 328 327 325 324 324 324 326 325 323 321 322 325 328 329 329 329 330 329 315 310 309 311 319
316 318 318 318 320 328 321 322 323 323 324 324 325 325 325 325 324 325 328 327 323 323 324 325 325 324 324 323 323 323 323 323 323 323 323 323 322 324 327 326 324 324 323 322 323 323 323 323 322 321 321 322 326 328 329 331 331 331 319 313 309 310 312
316 317 319 324 327 327 320 321 321 322 323 324 325 325 324 325 325 326 325 325 324 325 326 324 323 323 323 322 323 323 324 324 323 323 323 325 326 324 323 323 323 322 322 321 321 321 321 321 322 320 320 321 323 326 328 330 332 331 324 318 311 308 309
316 317 317 318 322 330 323 320 321 321 322 323 322 323 325 325 326 326 326 323 324 325 324 323 323 322 322 322 322 323 325 324 324 325 324 324 325 324 323 322 321 321 320 319 319 319 318 319 319 319 318 319 320 322 325 328 330 326 328 318 312 308 308
317 318 318 319 321 324 329 321 321 322 322 320 320 321 324 325 325 326 325 323 325 323 323 323 322 322 321 323 323 323 324 324 325 323 322 322 323 322 322 320 320 320 318 318 318 317 317 317 318 318 318 317 317 320 323 325 328 327 324 324 317 311 307
317 317 317 318 318 325 329 322 320 320 321 319 320 320 323 323 324 326 325 324 325 324 323 323 322 321 321 321 321 322 323 322 320 320 320 319 321 320 321 320 320 320 318 318 316 315 315 316 317 317 317 317 316 319 320 322 326 327 326 324 323 317 312
315 316 316 317 319 325 327 322 320 319 320 319 319 320 324 322 322 324 324 322 324 325 322 322 322 321 322 321 321 320 320 318 318 318 318 319 319 319 319 318 320 319 318 317 316 315 315 315 316 317 317 317 317 317 318 321 324 325 325 323 322 320 317
314 314 315 316 318 326 321 319 318 318 320 321 319 320 322 322 322 324 324 324 324 323 322 322 323 323 323 321 321 321 317 315 315 317 317 316 317 317 319 319 318 316 318 318 316 316 316 316 317 317 316 317 316 317 318 319 323 324 321 319 317 317 317
312 312 312 314 319 325 319 319 318 319 320 320 319 319 321 321 322 323 324 324 324 323 321 323 324 322 320 320 319 319 317 316 324 326 318 316 316 318 317 317 318 317 317 318 317 316 315 315 316 315 315 315 315 315 316 319 320 320 314 314 313 313 314
310 311 312 315 320 322 318 318 319 319 319 320 319 319 319 320 321 322 322 323 323 320 321 323 326 327 323 319 315 314 324 321 319 320 318 317 316 317 317 317 318 318 318 316 316 315 315 314 313 315 313 312 313 314 315 317 319 316 303 307 303 304 308
311 312 313 315 320 318 318 321 318 318 318 319 319 317 318 319 320 319 321 321 320 320 321 324 324 321 319 318 316 316 316 317 318 315 317 315 316 316 317 323 311 314 318 318 311 302 298 301 310 308 307 308 313 315 315 315 314 300 294 294 294 294 294
312 312 313 316 316 314 313 314 322 318 319 319 318 317 318 318 318 318 319 319 319 319 320 318 321 321 317 319 318 319 321 319 317 315 314 314 314 315 316 317 318 304 300 308 308 300 293 294 295 297 301 306 308 310 307 302 297 295 293 293 293 293 293
310 312 315 315 314 314 316 316 318 318 319 318 317 317 316 317 318 318 319 319 319 319 319 318 319 317 316 316 316 320 323 321 318 319 317 316 314 314 316 316 316 319 302 298 299 296 294 295 296 296 297 298 300 302 310 305 298 294 293 293 293 293 293

ECMWFFLT1_sfc_thetae_003.txt.gz
Theta_e
342 342 343 344 343 341 341 340 340 340 342 343 343 343 342 344 345 344 344 343 341 341 343 342 341 344 343 346 346 348 348 348 349 346 345 344 343 342 341 340 339 340 340 339 340 340 342 344 343 343 343 344 343 343 343 343 343 344 346 346 346 346 344
339 340 341 342 342 341 341 340 340 340 341 341 342 345 343 344 344 343 343 343 342 341 341 343 343 343 346 345 348 348 346 347 347 347 346 345 345 343 341 340 339 339 340 341 340 342 342 342 342 341 341 341 341 341 341 342 343 342 341 343 343 344 342
339 340 341 341 340 340 340 339 339 339 341 339 340 342 342 344 345 344 343 342 343 342 342 342 342 343 344 345 345 345 345 345 344 343 341 339 339 340 341 341 341 341 340 341 342 341 342 342 343 342 341 340 340 340 340 341 341 340 340 340 342 339 341
338 339 341 342 342 341 340 339 338 338 340 339 340 341 344 347 347 347 345 343 341 342 340 341 341 343 343 343 344 344 343 344 345 343 340 340 339 340 340 341 341 341 340 340 341 341 342 342 342 342 342 341 341 340 339 339 339 339 340 341 340 340 340
339 340 341 340 339 339 338 337 337 338 338 338 342 345 347 346 346 344 344 345 343 341 341 341 343 344 346 344 344 343 343 343 344 342 341 340 341 341 340 338 339 340 340 341 342 342 341 341 341 341 341 341 339 338 338 338 338 340 339 339 338 338 337
337 338 339 339 338 337 337 337 336 336 337 337 339 342 343 342 341 338 341 343 342 342 343 343 343 344 343 345 343 342 343 343 343 342 341 341 341 340 340 339 338 339 338 340 341 341 341 341 341 341 340 340 339 338 339 338 338 338 338 338 337 337 335
337 338 339 338 338 337 337 336 335 335 338 339 340 342 341 339 339 338 339 340 342 341 341 340 342 342 341 343 343 341 340 339 341 340 341 341 341 341 341 341 340 339 340 341 341 341 341 341 341 342 341 340 339 339 339 338 338 338 338 338 337 336 337
338 338 339 338 337 336 336 337 336 336 337 338 337 336 337 339 340 339 338 337 338 337 337 337 340 341 341 343 342 342 341 341 342 341 341 341 342 342 341 341 340 340 340 340 341 342 340 341 342 342 342 341 341 340 339 339 340 340 339 337 335 335 335
339 340 339 336 336 336 336 337 337 336 337 337 338 340 342 342 339 340 340 339 339 338 338 336 338 341 342 341 342 342 342 343 341 342 342 341 342 341 339 340 341 341 339 339 339 340 341 340 340 341 342 341 341 340 340 339 339 339 338 336 335 334 334
337 338 337 335 336 335 337 337 338 337 337 337 339 340 341 342 342 341 340 338 338 337 339 339 338 338 340 340 340 341 342 341 341 341 340 339 340 340 340 339 340 342 340 340 340 339 340 341 341 341 340 339 340 339 340 338 338 336 336 337 336 335 334
336 337 335 334 334 335 336 335 335 336 337 338 340 340 342 342 342 341 342 339 337 337 338 339 340 339 339 340 338 338 341 339 340 339 339 340 337 338 337 335 336 340 341 340 339 340 340 340 341 340 340 337 339 340 340 338 336 335 336 336 338 337 334
334 334 334 334 335 335 333 335 336 337 338 339 339 340 342 343 342 342 342 342 341 339 340 339 339 338 338 337 336 337 337 337 338 338 339 339 339 339 339 340 342 342 340 341 339 340 340 341 341 341 340 340 341 342 341 338 337 336 335 335 334 334 334
332 332 333 333 334 334 335 336 335 336 338 338 339 341 342 342 341 341 342 343 341 341 341 341 341 340 338 337 336 337 337 336 336 339 338 340 340 342 341 340 338 337 338 338 338 337 338 340 341 341 341 341 341 341 340 338 337 335 334 335 335 334 332
330 331 332 333 334 334 333 334 336 336 337 337 338 341 341 341 341 342 342 342 342 341 339 339 341 340 339 339 339 338 336 336 338 340 341 340 342 342 343 342 342 342 341 340 338 337 338 339 340 341 341 341 341 341 341 339 336 335 335 336 335 332 330
328 328 330 331 332 333 334 335 335 336 336 337 339 339 340 340 340 341 342 343 343 340 340 342 341 340 339 339 338 338 339 339 340 341 341 341 342 342 342 342 342 342 341 340 340 339 340 341 341 340 340 341 341 340 340 338 335 334 334 332 332 330 328
327 328 329 330 332 332 335 336 336 336 337 338 338 339 339 339 340 340 341 341 340 341 341 342 340 339 339 338 338 339 340 341 342 341 341 341 340 341 341 340 341 340 339 339 339 340 341 342 342 340 339 339 340 339 338 338 335 329 317 319 328 329 327
328 328 329 331 332 332 334 336 336 336 336 337 338 339 340 340 341 342 340 340 340 341 342 341 339 339 338 338 339 340 341 342 341 341 340 340 340 340 340 340 339 339 339 339 340 341 341 341 340 339 339 339 338 338 336 336 335 322 319 321 320 325 328
328 328 329 330 332 332 334 334 334 335 335 337 339 340 340 340 341 341 340 341 341 340 340 340 338 337 338 339 340 341 341 340 341 340 339 339 339 340 340 339 338 338 339 339 340 340 341 340 340 340 340 339 339 338 336 336 328 320 319 320 319 318 327
329 329 330 331 332 333 333 332 333 335 336 339 339 339 340 341 340 340 341 343 343 342 339 337 336 338 338 339 340 340 340 340 339 339 339 339 339 340 339 338 338 338 339 338 339 339 340 340 339 339 340 340 339 337 336 336 328 321 318 319 317 318 323
330 330 331 331 333 333 333 334 334 336 337 340 340 339 341 341 341 342 344 344 344 340 339 338 338 338 337 339 340 340 341 340 339 338 338 339 339 338 338 338 337 338 338 338 339 339 339 340 340 340 340 340 339 338 337 336 326 319 318 316 315 316 322
330 330 330 331 333 333 334 335 336 337 337 338 338 340 340 340 341 343 342 342 339 339 339 338 338 337 337 337 339 340 339 339 339 338 338 339 338 337 337 337 338 338 338 337 337 338 339 339 339 338 338 338 338 339 338 337 323 319 315 313 312 314 320
330 330 330 332 333 334 334 335 335 335 337 338 339 338 338 339 339 340 340 340 338 339 338 338 337 337 338 337 338 338 339 339 339 339 338 338 338 337 336 337 338 337 338 338 338 340 341 341 340 338 337 337 338 338 338 339 322 316 314 313 313 315 330
330 331 332 334 334 335 337 338 337 337 340 339 339 339 338 338 339 340 340 338 337 338 337 336 336 336 338 337 338 338 339 339 338 338 338 337 336 336 335 336 335 336 339 337 337 337 338 339 338 339 337 337 338 339 339 339 330 315 312 313 311 316 332
331 332 334 334 336 336 337 337 337 339 338 339 339 339 340 341 339 340 339 338 338 337 336 336 335 337 338 338 339 339 339 339 338 337 336 337 336 335 335 335 336 337 338 336 335 335 336 337 338 339 339 336 335 334 335 334 330 316 311 311 313 314 330
329 330 333 333 331 333 333 335 336 337 338 339 338 340 341 341 339 338 338 338 337 337 336 336 337 338 338 339 340 340 339 338 338 337 336 336 336 336 334 335 335 336 337 335 335 336 338 338 338 337 337 334 334 334 333 333 329 319 313 312 312 320 333
329 330 331 334 334 336 338 338 336 335 336 336 338 341 341 340 338 337 337 337 337 337 336 338 339 341 341 340 340 339 339 339 338 338 338 337 338 337 336 336 336 335 334 334 334 333 334 337 336 335 333 333 335 332 335 333 334 336 318 313 311 313 327
331 331 331 330 331 334 335 336 336 336 337 338 340 341 340 338 337 337 338 339 339 337 338 340 342 342 341 340 339 338 338 338 338 338 339 339 336 336 335 337 334 334 334 331 330 333 334 334 333 332 333 333 333 333 332 332 332 334 320 315 312 312 315
327 327 330 332 334 335 334 333 335 336 337 340 340 339 338 338 337 337 338 339 338 339 340 342 342 341 340 339 338 338 338 338 339 340 338 340 338 337 337 336 333 331 332 331 332 332 331 331 331 332 332 333 332 333 334 334 331 333 327 319 313 311 310
329 329 328 329 331 334 332 333 333 334 335 336 335 336 337 337 337 337 338 337 339 341 343 342 340 339 338 338 337 337 337 338 339 340 338 332 329 330 330 332 330 331 332 332 331 330 328 328 329 328 327 328 331 335 335 336 336 327 331 320 313 310 309
331 332 331 330 330 333 333 334 335 335 336 334 335 336 337 337 336 337 337 337 341 343 340 339 338 338 336 336 337 337 337 336 336 336 332 331 330 330 331 328 328 326 329 328 328 328 327 327 328 327 325 324 325 330 332 335 335 330 324 327 318 312 308
330 330 330 330 328 332 335 333 334 334 335 335 335 337 338 337 336 338 337 341 343 339 339 339 338 336 336 336 336 336 336 335 334 333 333 331 331 328 331 328 326 325 326 327 325 326 326 326 326 326 325 326 326 328 330 332 333 333 332 323 320 313 309
329 329 329 328 330 330 332 334 334 332 332 334 334 335 337 338 338 338 340 341 340 340 339 337 336 336 334 335 335 334 334 332 331 332 330 330 330 331 330 327 325 324 326 327 325 325 325 323 324 323 324 324 324 325 327 330 333 334 334 329 325 321 315
331 331 331 331 331 331 331 332 330 331 331 332 333 332 333 336 338 340 341 339 338 337 337 336 336 334 334 333 332 333 333 331 329 327 327 328 328 328 328 328 327 326 324 325 325 324 324 323 323 322 322 322 323 324 326 328 330 332 327 325 325 326 324
329 328 328 327 327 329 331 331 331 331 332 332 334 333 333 334 336 336 338 335 333 334 336 335 334 332 331 329 331 330 328 328 324 327 327 326 326 325 327 330 325 325 324 324 324 323 322 323 323 322 322 322 322 323 324 325 327 323 313 313 313 313 316
328 329 328 329 330 331 332 333 331 332 332 332 334 332 332 333 332 331 333 333 335 336 335 333 331 331 329 328 327 325 327 325 325 324 324 326 328 327 329 327 324 325 327 324 323 321 320 322 321 320 319 319 320 320 321 322 322 316 303 305 300 302 306
328 327 327 327 329 332 332 331 332 331 331 331 330 330 330 331 330 329 328 331 332 333 333 332 329 327 325 324 323 321 321 324 323 324 323 322 322 324 325 321 303 315 327 320 307 302 300 301 315 313 313 314 319 318 314 314 313 303 297 294 293 294 293
328 328 327 328 328 329 329 329 329 328 328 329 329 329 329 329 329 332 331 333 332 331 331 329 327 325 323 323 322 322 324 323 323 323 323 323 323 323 321 322 316 296 300 308 307 302 296 296 297 298 302 308 312 313 308 305 300 296 295 295 294 293 292
326 327 327 327 328 328 327 327 327 327 327 329 330 330 331 330 331 333 331 333 332 331 331 329 326 325 323 322 323 326 324 323 324 324 322 322 323 324 322 323 324 314 298 296 300 300 298 297 296 295 296 297 300 306 313 305 299 296 297 296 296 294 293

ECMWFFLT1_sfc_thetae_006.txt.gz
Theta_e
344 346 346 346 348 349 351 352 352 351 350 348 347 346 346 346 348 347 345 346 346 345 345 344 343 343 343 343 344 344 344 345 345 342 342 342 342 342 341 341 341 342 341 340 341 341 342 344 344 343 344 344 344 343 344 344 344 345 345 345 346 346 346
343 345 344 345 347 349 352 354 353 351 350 348 346 348 346 348 347 344 345 347 346 345 344 344 343 343 343 343 344 345 344 344 343 344 342 343 343 343 342 342 342 342 342 342 341 342 342 341 342 342 342 342 342 344 343 343 344 343 342 343 343 344 345
344 345 344 344 347 349 352 353 352 350 350 347 345 346 346 348 347 346 346 346 346 346 345 345 344 344 344 344 343 345 345 343 342 341 340 339 339 339 342 343 342 341 341 342 342 340 341 341 342 344 342 342 343 346 343 342 342 341 342 342 343 343 343
345 345 344 346 349 349 350 351 350 348 347 346 345 346 348 349 348 347 347 345 345 345 344 345 345 344 345 345 344 344 344 344 343 341 340 340 339 340 341 342 342 342 340 340 340 340 342 343 343 343 343 343 343 342 341 341 341 341 342 341 341 343 343
347 347 344 344 345 347 348 346 346 345 343 343 346 349 350 350 346 346 347 345 345 345 345 346 345 345 346 344 343 343 343 342 342 342 341 340 341 341 341 341 341 341 340 341 341 341 342 342 341 342 342 343 342 340 340 340 340 340 340 340 339 340 339
345 346 343 343 345 347 347 344 342 340 340 341 345 348 348 346 343 342 345 346 346 345 347 347 345 346 344 346 344 344 344 342 342 342 340 341 340 339 339 340 340 340 340 340 340 340 340 341 341 341 341 339 339 340 340 340 339 339 340 341 339 338 336
345 346 344 344 345 345 345 342 339 339 341 343 346 349 346 342 341 340 342 344 343 345 345 345 345 345 345 344 344 343 342 341 342 341 340 340 340 340 340 340 341 340 340 342 341 341 340 340 341 342 342 343 343 343 343 342 340 341 342 341 339 339 339
346 346 346 344 343 343 342 343 340 340 342 344 345 344 342 341 341 339 341 341 341 340 341 342 344 345 345 344 343 342 342 341 340 340 340 338 338 339 339 339 339 340 341 340 340 341 340 342 341 342 342 342 343 344 345 344 342 341 342 341 340 341 341
347 348 347 344 343 343 343 344 342 342 344 345 346 345 344 343 340 341 342 341 341 340 339 337 340 344 346 343 342 342 342 341 340 339 339 338 337 336 334 334 336 338 339 338 338 340 340 340 340 341 343 344 344 345 345 345 344 341 339 340 341 339 339
347 348 349 346 346 344 345 346 346 346 347 348 347 346 344 344 345 343 342 340 339 339 341 341 340 340 344 343 341 341 341 341 341 339 336 334 336 335 334 333 335 336 336 337 337 337 340 341 342 342 343 344 345 345 345 344 343 342 341 341 340 338 336
347 349 350 348 347 346 348 347 347 348 348 349 348 347 347 348 346 344 344 341 336 337 340 342 343 342 341 340 339 340 340 340 339 336 336 335 333 334 333 332 332 334 335 336 336 338 339 340 342 344 345 344 344 344 344 343 343 343 343 342 340 339 338
348 349 350 350 348 347 347 348 350 350 349 349 348 347 349 349 348 346 345 344 340 337 339 340 342 341 340 337 337 339 339 339 338 336 335 335 334 334 335 335 335 334 332 333 332 334 335 337 337 343 343 344 344 344 344 345 345 345 344 341 340 339 338
347 349 350 348 348 348 348 350 350 350 350 349 347 348 349 349 347 345 346 346 342 341 341 343 343 343 340 338 336 337 339 337 336 336 335 335 335 335 334 333 332 331 331 331 331 331 332 335 337 339 344 344 345 344 343 344 344 345 344 342 339 337 336
345 347 349 348 348 347 347 349 350 350 349 348 347 349 349 348 346 346 348 345 342 342 341 341 344 343 341 339 338 338 338 337 336 336 336 336 337 336 335 335 335 335 335 334 331 330 331 332 335 337 341 342 343 344 346 345 345 345 344 342 338 337 335
342 343 345 346 346 347 347 347 349 350 349 348 348 348 348 346 346 348 349 343 344 341 341 344 344 343 341 339 339 339 340 338 337 337 336 336 336 336 336 336 336 335 335 334 334 333 334 336 336 338 340 342 343 345 345 344 343 344 343 338 336 336 334
340 341 342 343 345 346 347 348 349 349 350 349 348 348 347 347 348 348 346 342 342 344 342 344 345 344 341 339 339 340 340 338 338 337 337 336 336 337 337 336 335 333 333 333 332 333 335 338 339 339 339 338 339 343 344 344 344 338 327 328 334 334 334
339 340 341 343 345 345 347 348 349 350 349 349 348 349 346 347 348 348 340 339 339 342 343 343 344 343 342 340 340 340 340 339 338 338 336 337 336 337 338 338 335 334 333 333 334 336 338 339 338 337 337 338 339 341 342 343 343 330 325 324 324 333 334
337 339 340 342 343 345 346 346 348 348 348 348 348 347 346 347 347 346 340 340 339 339 341 343 343 341 342 341 341 341 340 338 338 337 336 336 337 338 339 339 335 334 334 333 333 335 336 335 336 338 339 340 339 339 341 341 336 325 323 324 324 325 334
337 339 340 341 342 343 345 345 347 348 347 347 345 345 346 348 345 344 342 342 342 342 340 342 340 341 341 340 340 341 340 339 337 336 336 337 337 339 340 340 335 333 332 331 333 334 334 335 335 336 338 339 338 337 337 338 331 323 322 323 322 322 327
337 339 340 341 342 343 345 346 347 347 347 346 346 343 343 344 343 343 343 342 343 341 343 342 340 340 339 340 340 340 340 339 337 336 336 337 338 339 340 338 333 333 332 331 333 333 333 334 334 337 338 336 335 336 337 338 329 323 322 320 319 320 324
337 339 340 341 342 343 345 347 348 346 344 345 341 341 343 344 346 345 342 341 339 341 344 342 340 339 339 339 340 340 339 338 337 337 337 338 339 341 339 335 333 333 332 331 331 331 332 333 334 335 335 334 332 332 332 332 326 323 321 319 316 317 321
337 338 339 340 342 343 346 346 345 345 346 343 342 342 342 345 342 338 339 339 338 341 341 340 339 338 339 339 339 339 339 337 337 338 339 339 340 339 336 333 332 332 333 334 332 333 333 334 334 335 336 335 333 331 331 330 322 321 320 318 316 317 331
335 338 340 342 343 344 349 348 347 347 349 347 346 344 339 341 340 339 338 337 337 339 337 336 337 338 338 338 338 337 337 337 336 336 337 337 337 338 335 331 331 331 333 333 332 330 329 330 329 332 334 334 333 330 331 333 326 317 316 315 315 318 334
336 339 340 341 345 347 349 348 347 350 346 346 346 343 343 342 340 340 339 337 337 335 334 334 336 337 337 337 337 338 338 338 337 336 335 336 336 335 333 330 331 332 335 332 330 329 329 328 330 332 333 331 331 329 331 329 325 312 311 310 313 320 334
336 338 341 343 344 346 346 347 349 347 348 348 345 344 346 346 341 340 339 338 336 334 333 334 336 336 336 337 337 338 338 337 337 336 335 335 334 334 332 332 332 333 336 334 330 330 332 330 330 331 333 330 328 330 327 329 325 312 310 310 313 322 337
339 340 342 345 346 348 349 350 349 349 348 346 346 348 348 347 342 340 338 336 336 334 333 335 337 337 337 337 337 339 339 338 338 338 336 335 335 336 335 337 335 334 335 333 330 329 330 330 330 329 329 330 330 328 328 330 332 330 311 310 310 313 335
340 342 343 342 342 345 347 348 348 346 347 347 349 347 348 347 344 340 340 340 338 335 335 338 339 338 338 340 339 339 339 339 337 337 336 336 335 338 338 336 333 333 333 330 330 332 332 331 330 329 330 330 330 332 332 331 330 329 318 314 312 313 317
339 339 341 342 344 344 346 345 346 347 345 349 350 349 350 350 348 345 344 341 339 339 338 340 340 341 344 343 341 340 338 338 338 338 336 337 342 340 337 335 335 332 332 331 332 332 331 332 330 329 328 329 328 330 332 332 332 332 324 316 313 311 312
339 339 339 341 342 343 342 343 343 343 344 343 345 349 350 349 347 346 345 343 344 342 340 342 344 348 345 342 339 339 338 338 337 337 338 340 341 337 335 335 334 332 333 332 332 330 330 330 331 329 327 327 328 329 332 332 332 327 332 320 315 312 311
341 340 340 337 338 341 339 342 344 343 344 340 343 347 348 346 345 345 344 344 346 346 346 349 349 346 341 339 337 336 335 335 337 339 340 339 338 336 335 334 334 332 333 332 330 329 328 329 330 329 327 326 327 328 330 330 334 328 324 330 319 311 307
339 339 338 337 334 340 340 339 342 343 344 347 348 348 347 346 344 344 342 345 347 349 349 348 344 339 337 336 335 335 335 335 336 336 337 338 336 335 333 332 332 330 332 331 329 329 328 328 328 326 327 326 326 327 329 331 332 331 328 324 323 315 308
341 341 341 341 342 341 341 342 343 343 344 346 346 345 344 345 343 342 343 345 347 350 346 342 339 336 335 335 334 334 335 333 332 335 336 336 334 333 332 332 330 328 328 328 327 328 328 327 327 327 328 327 327 327 326 327 331 334 334 327 324 321 317
340 340 339 338 342 341 339 338 336 337 337 338 343 343 339 341 342 343 343 345 347 343 341 339 337 335 335 333 332 335 334 332 328 327 331 335 333 331 331 330 329 328 327 327 326 326 326 327 328 327 327 327 326 327 329 328 330 329 326 325 324 325 324
340 339 340 343 343 339 338 338 336 336 338 339 342 343 341 338 339 342 343 342 337 337 339 336 334 332 334 334 332 331 331 331 326 326 327 329 330 327 327 330 330 328 327 326 327 327 326 327 326 326 327 325 323 324 324 324 324 323 318 317 317 317 318
340 342 341 341 340 342 343 343 342 341 338 340 339 338 339 339 337 338 342 338 336 340 334 333 333 332 333 332 331 330 330 328 330 330 328 328 330 329 330 332 331 329 330 326 326 326 325 325 325 326 325 323 325 323 322 321 320 317 306 306 301 303 309
340 340 340 341 343 343 342 341 340 339 338 338 337 337 337 338 338 336 334 336 338 337 334 335 330 329 328 329 328 327 327 328 326 328 327 326 325 328 328 309 301 311 328 323 310 303 300 305 320 317 321 323 324 321 317 314 313 302 296 295 294 294 293
337 336 337 338 339 338 338 338 337 338 337 336 336 336 335 335 335 336 334 337 337 335 336 335 331 328 327 328 326 326 328 326 326 328 330 329 326 325 325 326 317 299 299 307 307 301 296 295 296 298 303 315 320 315 306 305 299 295 294 294 294 293 294
337 336 335 334 334 336 335 334 335 335 335 335 335 334 335 333 335 335 334 336 335 335 336 334 331 328 327 327 328 331 330 326 326 327 325 326 327 327 325 325 319 315 300 297 300 299 296 295 295 295 297 298 304 309 316 305 298 294 294 294 294 294 294

ECMWFFLT1_sfc_thetae_009.txt.gz
Theta_e
337 337 342 343 343 343 346 348 351 352 355 354 351 346 347 346 348 350 348 349 349 350 349 347 346 342 341 342 344 343 343 344 346 343 342 342 343 342 341 340 340 340 340 341 342 343 344 346 346 345 345 345 344 344 344 345 345 344 344 344 343 343 344
338 337 340 343 344 345 347 348 355 353 355 353 349 347 347 347 349 348 348 349 351 349 347 346 345 341 342 343 344 343 343 345 345 344 343 342 342 343 342 341 341 342 343 343 344 344 345 344 344 344 344 344 343 344 344 343 343 343 342 342 342 343 344
339 338 340 343 344 343 343 352 354 355 355 351 347 345 345 348 351 349 348 348 350 348 347 345 343 343 343 343 343 343 346 344 344 344 343 341 341 339 340 341 343 342 343 344 344 342 343 343 344 344 344 343 343 344 344 342 342 341 341 341 341 341 342
340 340 341 344 347 348 351 352 351 354 353 350 345 345 347 351 352 349 348 349 349 347 346 345 344 344 344 343 343 344 345 345 344 342 342 341 340 341 340 341 343 343 342 341 341 341 342 343 343 342 343 343 343 342 342 342 341 340 341 341 340 341 341
340 341 340 343 345 347 345 348 353 355 353 349 346 348 350 352 350 348 349 350 348 347 347 346 345 345 346 345 344 344 345 345 345 344 343 342 341 340 340 340 340 342 341 341 342 342 343 342 341 341 341 342 341 340 339 340 339 340 339 340 340 339 337
339 341 341 343 345 344 346 350 348 353 350 346 345 346 350 349 346 344 346 348 348 348 348 348 346 347 345 346 344 343 344 345 343 344 342 342 342 340 339 339 339 340 340 341 341 341 341 341 341 341 341 339 338 339 340 340 340 339 339 340 341 339 337
340 343 343 344 344 347 351 352 352 351 349 344 345 347 348 346 343 342 344 345 345 347 346 346 346 346 345 346 346 344 345 344 344 344 343 343 342 340 340 341 340 339 341 342 341 341 340 340 341 342 341 341 342 341 343 342 342 342 340 340 339 339 340
341 343 346 346 347 346 346 351 350 349 346 344 344 343 343 344 342 341 343 343 343 343 343 342 345 346 347 346 344 344 345 344 343 343 343 342 341 340 339 339 338 341 342 339 340 341 339 340 339 340 340 340 341 342 343 344 343 342 340 338 337 338 340
342 347 347 346 346 343 343 349 349 346 344 344 345 345 344 344 341 341 343 343 342 341 342 341 345 348 349 347 345 344 343 343 342 342 342 340 339 337 337 335 337 337 337 338 338 340 339 338 339 340 341 342 342 344 345 345 344 344 343 341 340 341 340
343 349 350 347 344 341 343 342 345 345 343 344 345 346 344 343 343 342 341 340 340 339 340 340 339 343 347 347 345 343 343 343 342 341 339 337 338 337 336 334 334 335 336 335 334 334 339 339 339 339 339 339 341 344 346 345 345 345 344 341 341 341 341
345 352 352 347 344 345 346 344 343 344 344 347 347 346 346 344 343 342 341 339 337 338 339 340 341 339 343 346 344 342 342 341 341 340 340 338 334 335 334 332 332 334 334 335 336 337 336 337 338 338 338 336 342 345 346 345 343 342 342 341 340 340 340
348 352 352 352 347 343 340 345 344 345 346 347 347 347 347 347 344 342 342 340 338 338 340 341 342 341 341 341 340 340 341 341 341 339 338 337 336 335 336 335 334 334 333 332 332 333 332 333 334 335 336 337 337 345 346 346 345 344 343 341 339 340 340
346 352 353 352 350 347 348 348 344 345 347 347 348 348 346 345 344 343 344 341 338 338 338 341 342 344 342 340 337 338 339 339 340 339 337 337 337 338 336 334 333 333 334 334 333 333 332 332 334 335 335 336 336 340 343 343 344 344 343 343 343 342 341
348 350 354 353 351 349 348 347 347 348 348 349 350 348 347 348 347 345 345 340 338 337 337 339 343 344 343 341 338 338 337 338 339 338 338 337 339 337 337 336 337 337 337 337 335 332 332 331 332 333 334 335 337 340 343 342 341 341 341 341 342 341 339
343 346 351 352 352 352 350 349 349 351 352 352 351 349 349 349 349 349 347 341 341 338 339 343 344 345 344 342 340 339 340 340 340 339 338 337 338 338 338 337 338 337 337 337 336 334 333 334 333 334 335 336 339 342 343 341 338 340 340 341 342 341 338
338 341 346 351 353 353 353 353 354 354 353 352 350 348 348 349 349 347 343 339 338 341 341 344 345 346 344 340 340 341 341 341 342 340 339 338 338 339 338 337 337 338 338 336 335 335 335 336 336 334 335 337 337 340 340 339 339 340 334 336 340 337 335
335 339 342 349 354 353 354 354 356 356 353 351 349 350 349 348 348 344 339 336 337 341 343 344 346 345 344 341 341 341 342 342 341 341 339 339 339 338 338 338 339 340 339 337 336 336 336 335 334 333 333 335 337 337 338 338 339 330 328 328 330 334 335
333 338 341 344 350 354 354 354 356 355 353 351 350 350 349 349 346 342 340 336 337 340 342 344 344 344 345 343 342 341 340 340 340 340 339 339 339 339 339 339 339 340 340 336 335 335 335 333 333 334 335 337 337 338 337 337 335 324 325 327 326 330 334
332 334 339 345 348 352 353 353 355 356 355 352 350 350 349 345 340 339 339 339 341 343 344 342 340 343 344 344 342 341 341 341 340 339 339 339 339 339 339 340 339 341 340 336 335 335 334 334 334 334 335 336 337 338 337 336 326 323 324 325 324 325 329
336 337 340 344 347 350 353 354 354 356 356 355 354 350 349 343 339 339 341 339 343 343 344 343 341 343 343 343 341 340 340 340 340 338 339 339 339 339 339 339 340 341 338 335 335 334 333 333 335 336 335 336 336 333 334 334 327 321 322 323 322 323 326
339 339 341 345 347 349 352 354 355 355 355 354 352 351 342 339 337 339 340 341 341 342 343 341 342 342 343 342 341 340 339 339 338 338 338 339 339 339 339 341 342 340 336 333 333 333 335 335 335 334 334 336 334 335 334 333 323 318 320 319 319 320 324
337 340 341 345 348 349 351 352 353 353 354 354 352 345 342 339 339 340 340 341 341 343 343 342 342 342 342 339 339 339 339 338 338 338 339 338 339 338 339 341 342 338 336 334 333 335 334 333 332 333 332 333 335 334 333 333 324 319 318 318 318 320 332
336 341 344 347 348 349 353 354 354 352 354 352 347 343 342 341 340 341 340 339 339 342 340 340 341 341 340 339 338 338 338 338 338 338 337 337 336 336 336 338 340 337 335 333 334 333 331 332 332 334 333 333 333 332 332 331 328 320 315 315 317 321 335
339 343 345 346 350 350 352 353 354 354 351 348 345 343 342 341 341 342 341 340 339 339 339 338 340 341 340 338 339 338 339 339 339 338 337 337 334 334 335 336 338 335 335 333 333 330 330 332 332 333 333 332 332 331 329 328 325 317 313 312 314 320 332
338 342 346 347 347 349 351 354 355 352 350 346 342 342 344 344 341 339 339 340 338 338 337 339 340 339 339 340 340 339 339 339 339 338 337 335 334 334 334 335 336 336 336 335 334 332 333 332 332 332 333 331 331 332 330 329 326 319 316 314 314 319 331
342 344 347 348 350 353 355 354 353 350 346 342 343 345 346 342 340 340 339 338 338 337 337 339 340 341 341 341 340 339 339 340 340 339 337 335 334 335 335 335 335 336 335 335 334 331 329 330 331 331 331 332 331 330 331 332 333 330 317 313 313 315 326
346 346 347 346 350 352 353 352 351 347 345 345 347 346 345 342 341 340 342 343 342 340 339 341 342 342 342 342 339 338 339 340 339 338 337 337 335 334 334 337 339 338 336 333 332 332 331 332 333 332 333 332 331 330 332 332 330 330 318 314 311 312 316
345 346 347 349 351 351 351 349 351 347 342 345 349 348 344 344 344 343 344 343 342 344 343 343 343 342 342 341 339 338 339 340 341 339 337 338 337 336 335 338 339 337 334 333 332 333 334 335 334 332 331 332 331 332 333 333 333 333 327 318 312 310 311
345 345 345 349 349 351 348 347 346 341 341 343 344 343 342 343 344 345 345 343 345 346 346 344 342 342 342 341 338 340 340 340 339 339 338 337 336 336 336 337 339 338 336 335 333 333 332 333 332 331 331 331 331 332 333 336 335 327 330 321 313 310 311
345 345 346 344 344 347 345 345 345 344 344 339 340 341 342 344 344 346 347 346 349 349 348 346 343 343 341 340 341 341 341 338 339 339 339 336 337 338 338 336 336 336 336 336 333 331 330 330 331 330 329 329 329 330 331 334 336 331 325 328 320 312 307
344 344 341 338 341 345 345 346 346 343 342 341 342 343 345 348 349 349 349 351 351 350 348 346 344 342 343 345 344 342 340 340 338 338 335 338 339 336 335 335 337 334 335 335 334 332 330 329 331 329 329 328 328 333 332 332 333 332 330 322 322 316 311
341 339 337 338 340 343 340 340 343 344 342 344 349 352 352 352 351 348 349 351 350 350 349 348 347 346 345 344 341 340 339 338 336 336 336 336 336 335 333 333 333 331 332 332 331 331 330 328 328 328 328 327 329 329 330 329 330 330 333 328 325 321 318
341 341 342 344 345 343 341 339 337 339 342 345 348 347 345 348 347 348 348 347 346 347 349 349 346 345 343 340 338 337 337 336 332 332 333 336 334 333 332 332 332 331 331 331 331 329 328 326 327 326 325 330 321 324 332 329 330 329 326 325 324 324 323
343 343 345 347 344 343 341 339 337 336 336 337 343 346 344 341 340 342 344 340 341 341 345 345 343 340 339 337 336 335 336 334 332 330 327 327 329 329 331 331 329 327 329 331 329 327 327 327 326 327 324 326 324 325 327 326 326 325 320 318 317 317 317
345 346 345 341 340 342 341 340 341 344 343 344 342 341 340 341 336 333 337 339 339 341 340 339 339 338 337 335 334 334 335 332 332 332 330 332 333 333 330 330 333 333 332 328 325 325 324 326 326 324 324 324 326 326 324 325 323 316 301 305 300 303 309
341 340 341 343 345 347 347 346 345 343 342 340 341 341 341 341 340 337 330 331 337 339 339 338 335 333 330 332 330 329 331 332 329 331 329 329 330 329 319 307 300 308 327 324 309 302 299 306 318 317 321 325 324 322 320 317 314 299 295 294 293 293 294
340 340 340 342 342 342 342 342 341 341 340 340 340 339 337 339 337 337 333 337 337 337 337 336 335 331 328 329 329 329 330 329 329 330 330 330 329 328 327 323 316 298 296 303 304 300 296 295 296 299 303 314 322 312 302 303 299 294 293 293 293 292 292
338 337 338 339 340 340 339 338 339 339 338 338 338 336 337 334 336 335 333 336 337 337 337 336 334 331 329 330 329 335 332 330 330 329 327 327 327 328 327 329 324 317 299 296 298 298 295 295 295 296 297 298 303 309 316 306 299 294 294 293 293 293 293

ECMWFFLT1_sfc_thetae_012.txt.gz
Theta_e
333 334 339 340 340 340 343 345 347 350 354 356 356 355 351 351 353 352 351 353 352 351 352 353 353 353 351 351 350 351 350 348 349 348 346 351 347 345 344 344 345 345 347 346 346 349 348 350 349 348 349 349 348 349 349 349 348 346 348 348 347 346 345
332 333 335 337 337 339 342 347 348 348 353 355 356 354 348 350 351 350 351 353 352 351 352 352 352 350 349 350 351 350 348 348 348 348 349 349 349 348 347 346 344 346 347 348 350 350 349 347 347 348 347 347 347 348 347 348 348 347 346 347 346 347 345
334 334 335 336 336 337 343 346 347 349 350 353 354 349 346 349 350 350 351 350 351 352 352 351 351 348 347 349 349 348 347 347 348 347 344 344 344 343 345 347 344 346 347 347 347 346 347 347 348 348 347 346 346 347 347 346 347 346 346 346 345 343 344
335 335 336 340 340 341 342 345 348 349 354 353 353 347 347 350 351 352 351 350 351 351 350 349 349 347 347 348 347 348 349 349 348 347 345 347 344 345 345 346 347 346 347 346 346 344 345 346 345 346 346 346 345 346 345 345 345 345 346 345 346 343 345
337 341 340 341 341 342 341 344 344 349 353 354 354 348 348 351 351 351 351 351 350 349 349 349 345 348 348 349 346 347 348 349 348 348 347 347 348 347 343 342 342 343 347 345 347 348 349 347 344 344 344 345 343 343 344 344 343 346 344 345 343 344 344
341 342 341 340 340 343 342 345 345 346 347 350 352 347 347 348 347 346 348 351 351 350 349 349 348 349 348 347 348 347 350 350 350 350 348 347 348 345 343 343 342 343 339 344 345 346 346 346 344 343 341 340 340 341 342 343 343 343 344 344 343 343 342
335 339 340 339 341 344 346 344 347 349 351 354 352 348 345 345 346 345 346 347 347 348 346 345 347 347 348 348 348 349 347 346 347 345 345 345 345 345 345 345 345 342 342 345 345 345 343 343 344 345 343 341 343 342 343 344 344 345 345 344 343 343 343
337 339 345 342 340 342 344 347 350 350 348 347 345 345 343 346 346 344 344 345 345 344 342 342 345 348 349 350 349 347 347 346 345 346 347 345 346 345 344 344 344 346 347 342 344 346 342 344 344 344 344 341 342 343 343 344 345 343 343 344 342 341 340
338 348 345 339 341 341 344 350 351 350 348 347 343 343 344 346 345 342 343 344 344 343 343 343 343 347 350 349 349 348 348 348 346 346 346 345 344 339 338 338 341 341 340 340 341 346 346 344 343 345 344 342 342 343 343 343 343 344 343 344 343 342 342
343 349 347 343 343 346 349 348 350 351 347 346 345 344 343 345 345 343 343 343 341 342 343 343 344 344 348 349 347 347 347 347 347 344 340 338 340 337 337 336 337 338 342 342 339 340 345 344 342 342 343 342 342 342 342 344 345 344 342 341 341 340 340
339 353 354 350 352 352 349 349 350 351 350 346 344 346 348 347 344 342 344 342 339 341 342 343 346 345 346 347 344 344 346 343 343 342 342 340 335 335 334 333 333 339 337 339 339 340 341 345 347 345 344 341 342 342 341 341 344 340 339 340 341 341 339
344 348 350 352 354 353 348 351 356 356 351 347 345 345 348 347 345 343 345 344 342 340 342 341 341 346 346 344 344 346 343 344 343 341 341 340 339 338 338 337 339 335 333 340 335 341 337 340 341 340 342 343 342 341 342 344 342 340 338 338 339 341 341
343 347 346 345 353 351 351 351 350 350 350 348 348 348 347 346 345 343 346 345 342 342 343 343 342 346 343 343 343 344 343 342 343 343 340 343 342 342 338 334 333 332 335 335 335 333 334 335 337 341 340 340 341 342 342 343 343 342 340 339 338 338 338
343 344 346 349 352 351 349 347 349 349 349 348 349 348 347 348 346 345 346 343 342 342 341 341 344 343 344 344 346 345 343 342 344 343 345 344 347 343 343 341 342 343 343 340 336 334 335 333 335 336 337 338 338 340 341 342 344 342 340 339 337 336 334
334 333 342 341 350 352 353 348 346 346 347 348 348 348 348 347 347 349 345 345 344 340 345 344 343 344 344 346 346 346 346 346 344 345 345 344 344 343 343 343 343 343 342 342 340 338 336 336 336 337 338 338 338 340 341 343 340 340 340 339 337 336 335
324 331 337 344 347 349 349 348 349 347 347 347 348 349 347 347 347 346 344 342 340 346 346 346 345 344 345 344 345 346 345 346 346 346 346 343 342 343 343 341 342 340 341 341 339 340 340 341 340 335 334 336 338 339 339 337 334 339 334 333 338 337 336
330 330 335 343 350 351 353 355 353 350 348 348 349 350 348 348 348 345 337 337 337 344 342 345 346 346 346 346 346 346 345 345 345 345 344 343 342 343 342 342 342 342 342 342 342 342 342 339 338 333 334 334 334 335 338 336 336 330 327 328 331 335 338
332 337 341 343 347 350 351 350 352 350 349 349 350 351 349 349 347 342 338 338 339 338 341 340 345 345 347 347 347 346 345 344 345 344 343 343 343 343 343 342 342 342 342 342 341 342 342 338 338 338 337 336 335 336 339 338 333 324 325 327 328 332 337
333 335 341 345 350 351 351 347 348 350 350 350 351 351 351 350 344 343 342 341 341 339 336 339 344 346 347 347 346 345 344 345 344 343 343 343 343 343 343 343 342 342 341 340 342 342 341 341 338 337 339 338 339 337 337 338 332 324 324 324 325 326 329
331 331 334 336 339 344 349 349 348 352 355 355 352 351 351 345 341 341 342 342 341 339 340 343 344 347 347 347 346 345 344 343 343 342 342 343 343 343 343 342 341 341 340 341 343 341 339 338 337 338 339 340 338 338 337 337 331 324 322 321 322 323 327
337 338 340 342 345 342 351 356 357 354 356 346 342 345 347 341 339 341 341 342 339 338 343 345 345 346 346 346 346 345 344 343 342 342 342 343 343 343 342 342 342 342 341 340 340 339 340 338 339 339 337 337 337 338 336 336 326 321 320 318 317 319 324
329 332 336 341 348 354 360 357 359 356 357 352 348 349 343 340 339 339 340 338 335 337 344 346 345 344 345 345 345 344 343 342 341 342 342 342 342 342 341 342 343 342 344 343 339 338 337 338 338 336 335 336 335 333 334 332 321 318 318 316 316 318 327
328 333 338 347 344 350 362 362 360 358 361 357 351 344 342 339 339 337 335 334 334 339 343 345 344 343 344 344 344 343 343 341 341 341 342 342 341 341 340 342 342 343 345 341 338 335 335 336 334 335 335 334 335 335 335 333 328 319 316 315 315 320 332
331 335 343 344 354 352 360 360 359 362 358 356 348 343 342 340 336 335 334 332 333 339 341 342 342 343 344 344 344 344 343 343 342 342 342 341 340 340 341 340 341 341 344 340 336 333 332 334 334 334 335 334 333 329 331 331 327 314 313 315 315 320 329
331 337 344 346 348 350 352 358 359 356 360 355 347 345 343 340 339 336 335 334 335 339 340 342 343 343 344 345 346 345 344 343 343 342 341 341 340 339 339 340 340 342 344 339 336 335 337 335 333 332 333 330 329 335 331 330 325 315 319 316 314 322 330
343 343 346 351 350 355 358 360 360 357 355 353 351 347 344 340 340 339 338 338 339 339 342 343 344 346 347 347 346 345 344 343 344 344 341 341 342 343 341 341 339 338 337 338 336 334 335 334 332 330 330 329 330 329 332 330 332 332 318 315 313 315 328
340 342 347 345 348 352 355 356 357 354 354 354 353 345 342 341 339 339 342 344 342 342 343 346 348 349 349 349 345 344 344 343 344 343 342 342 342 341 340 339 338 339 339 336 335 336 335 334 332 330 331 331 332 331 332 330 331 330 317 316 313 313 318
333 334 340 348 353 353 353 351 355 353 350 354 350 344 341 341 342 343 346 346 345 347 352 355 353 351 350 349 346 345 344 342 343 343 343 344 346 344 344 343 343 340 337 337 336 335 333 333 333 331 329 330 329 329 327 329 331 331 324 320 316 311 312
341 339 339 350 351 352 350 351 350 347 346 343 343 348 349 348 349 350 350 349 352 353 356 357 354 354 351 349 347 346 346 345 345 344 344 342 343 342 338 340 339 340 339 338 333 335 332 330 325 325 327 328 327 327 329 329 329 327 330 322 316 311 309
343 341 344 350 350 350 349 352 350 344 341 341 345 347 346 347 352 351 352 352 349 351 352 355 352 351 351 350 347 346 346 345 345 345 344 344 342 338 335 336 336 334 332 334 332 329 329 327 328 330 328 325 326 327 328 329 328 328 326 327 319 311 305
341 342 342 341 345 350 349 348 350 341 341 341 341 340 346 347 345 339 346 350 356 352 351 348 349 350 350 350 348 348 344 343 339 336 339 336 338 336 335 333 333 330 330 331 328 326 328 330 328 328 328 328 324 326 329 331 331 332 330 323 322 316 312
343 341 337 338 349 351 347 345 341 341 340 348 353 354 355 352 348 345 349 350 351 352 350 350 347 342 341 344 346 343 343 338 336 338 336 336 337 336 334 332 332 331 333 331 329 329 332 330 328 328 327 328 328 327 329 330 331 330 331 327 323 319 315
343 339 337 334 347 346 342 340 339 338 338 346 349 348 347 347 347 351 352 350 346 348 349 349 350 347 347 347 343 340 337 334 333 333 336 337 335 338 336 333 335 331 330 330 331 334 333 330 329 329 326 328 330 327 327 327 327 326 320 319 319 318 318
340 341 345 344 346 343 335 337 334 338 342 346 345 347 342 341 341 344 344 341 339 337 346 348 347 346 346 345 343 341 340 337 337 337 334 332 333 332 333 336 334 331 329 329 331 331 329 327 328 326 324 328 324 326 326 325 324 313 309 312 312 314 315
338 339 339 341 344 347 341 338 335 341 340 343 345 344 342 339 333 330 338 339 338 341 340 343 343 344 340 338 339 338 341 338 335 336 335 334 332 320 315 315 323 328 321 314 315 318 320 322 322 322 321 321 325 324 323 321 316 310 302 305 300 303 308
335 334 336 338 342 345 347 347 346 344 342 341 342 341 341 338 338 332 326 333 337 340 341 341 340 337 335 333 333 333 334 334 332 332 332 330 338 325 314 306 299 307 321 315 306 301 301 306 314 314 319 321 315 315 315 311 309 299 294 293 293 293 294
334 334 340 344 346 346 345 345 344 342 341 341 341 339 338 338 335 336 334 340 340 337 339 337 337 335 331 331 328 332 332 334 331 332 335 329 330 332 322 316 309 296 297 302 301 298 294 294 295 299 304 315 313 307 303 303 298 294 294 293 293 293 292
339 340 342 342 342 342 341 341 341 340 339 340 340 338 339 333 334 337 331 338 336 336 339 334 340 336 332 331 330 339 338 331 333 331 331 330 331 330 330 323 318 312 297 295 298 297 294 294 294 295 296 298 304 309 313 305 299 294 294 294 293 293 293

ECMWFFLT1_sfc_thetae_015.txt.gz
Theta_e
331 332 331 332 332 333 334 335 338 340 343 350 351 352 353 353 352 351 349 347 345 344 343 343 343 343 342 341 341 339 339 339 338 340 341 337 340 338 336 338 336 335 335 336 338 338 340 343 340 341 342 342 341 341 341 342 340 343 339 339 339 339 337
329 331 332 332 333 334 334 336 337 340 345 350 351 352 352 351 350 349 348 346 345 343 343 343 344 343 342 340 342 339 337 339 341 344 341 345 343 340 336 335 334 335 336 337 338 340 341 340 340 341 341 341 340 340 340 340 340 339 338 337 336 335 336
328 330 332 332 334 335 335 336 339 342 347 350 351 351 350 349 349 348 347 345 344 343 343 342 343 343 341 340 339 338 337 337 340 339 336 336 338 337 337 337 337 333 335 339 338 338 341 340 340 339 339 338 339 339 340 339 339 339 338 337 337 335 334
327 329 332 333 334 337 337 338 341 344 349 350 351 351 349 348 348 347 347 345 344 342 342 342 343 341 339 340 337 338 337 338 339 339 337 336 336 340 338 336 335 334 336 336 341 341 340 337 337 338 345 339 338 338 339 338 337 337 337 337 335 335 335
327 330 333 333 333 336 337 338 342 344 348 350 351 351 348 348 347 346 346 346 344 342 343 342 343 338 339 339 339 340 338 338 338 340 339 339 340 339 334 335 334 335 337 338 337 339 338 337 337 337 337 337 337 336 337 337 337 337 336 336 334 335 335
328 329 332 332 333 334 338 339 343 345 347 349 350 349 347 347 346 345 345 346 344 344 344 342 340 338 337 338 339 340 340 341 338 339 337 338 338 336 333 332 332 332 335 334 338 336 338 336 335 335 335 335 335 335 335 336 337 337 336 336 336 336 336
329 329 333 332 332 333 337 339 342 344 347 349 351 349 346 346 345 345 345 345 344 343 342 340 338 337 337 338 338 339 340 339 340 339 339 339 337 336 335 335 339 334 333 334 335 336 335 334 335 335 336 335 335 335 334 335 335 337 337 336 336 336 336
331 333 335 333 333 333 335 339 340 343 346 349 350 346 344 345 344 344 344 344 345 344 342 340 337 338 337 338 339 338 339 339 338 339 337 336 337 336 336 336 335 335 335 333 333 336 335 335 336 337 336 335 334 334 335 335 335 337 337 336 336 335 338
332 333 335 334 334 334 335 337 340 342 346 348 347 345 343 343 343 343 343 344 345 343 341 340 338 340 339 338 338 339 337 339 338 337 338 336 337 337 337 337 335 336 335 334 334 336 336 335 336 335 335 334 334 333 334 336 336 336 335 335 335 335 335
332 331 334 335 335 337 337 338 338 341 346 347 347 343 342 342 342 342 342 344 344 342 340 339 340 341 340 339 338 339 339 338 339 339 338 337 337 336 336 335 334 336 334 333 332 332 334 336 335 335 334 334 334 334 334 335 336 336 336 335 333 333 333
337 337 334 334 333 334 336 340 340 341 344 346 346 344 341 341 341 341 341 343 343 342 341 339 341 340 340 340 339 339 339 338 339 338 336 335 335 335 334 333 332 333 332 332 331 332 331 334 335 332 332 334 333 333 333 334 336 336 334 334 334 335 335
338 335 333 332 339 335 335 340 343 344 343 344 344 343 341 341 342 341 341 341 342 341 340 340 341 340 340 340 339 338 338 338 338 336 335 335 335 334 332 332 331 329 330 331 331 331 332 331 332 334 331 333 334 334 333 333 336 334 334 334 334 335 334
336 335 336 332 341 338 338 341 343 344 344 344 343 341 340 341 342 340 340 340 341 341 340 340 340 340 340 339 338 337 336 337 336 336 335 336 334 334 333 332 329 329 332 332 332 331 330 330 329 330 331 332 333 334 334 335 337 334 332 333 333 333 332
342 335 336 335 343 340 339 341 343 344 343 343 342 341 339 340 342 340 339 339 338 340 339 341 340 340 340 339 339 337 337 337 337 336 336 336 336 335 333 332 332 333 334 334 330 330 329 330 330 330 332 331 331 331 332 331 335 334 334 332 332 332 331
335 335 336 337 342 341 340 341 343 344 344 343 342 340 340 340 340 339 339 339 337 339 338 340 340 340 340 339 339 338 337 337 337 337 336 337 335 334 333 333 332 333 333 331 332 335 332 332 331 330 330 330 331 331 332 335 332 332 331 333 333 332 330
333 333 335 335 339 342 342 343 344 345 345 343 341 340 340 341 340 339 339 338 337 338 336 340 340 340 340 338 339 338 337 337 338 337 336 335 333 332 331 331 331 332 332 332 333 332 334 333 333 332 331 329 329 332 334 333 333 336 336 335 335 331 332
324 327 335 336 338 340 341 343 344 345 345 343 342 341 341 341 341 339 339 338 337 336 335 337 337 337 337 336 337 337 337 337 336 336 335 334 333 332 333 332 333 333 332 332 333 334 334 335 333 331 330 329 328 327 331 332 334 332 329 329 332 332 330
329 332 333 335 339 341 340 341 342 343 344 344 343 343 341 341 340 339 337 334 335 335 337 336 335 336 337 337 336 335 335 334 335 334 334 333 332 332 332 333 333 332 332 333 333 334 335 334 333 332 331 331 329 329 332 332 334 326 326 327 327 330 330
329 329 329 336 339 342 342 341 341 343 343 344 344 344 343 342 339 333 332 333 333 336 337 340 338 338 337 337 336 337 335 335 335 333 333 333 332 332 333 332 332 332 333 333 335 335 334 334 334 332 331 331 329 330 334 333 332 325 324 324 324 325 327
326 328 330 331 340 344 345 344 343 345 345 343 344 345 343 338 332 332 333 334 335 335 335 337 338 337 336 337 339 338 336 335 334 334 333 334 333 333 333 333 332 333 333 334 335 335 335 334 332 331 330 330 329 330 330 330 330 325 322 321 321 322 325
330 330 329 330 334 339 345 345 344 344 344 344 344 341 334 332 333 332 332 332 332 333 334 336 336 336 338 339 339 338 336 335 334 334 334 334 334 334 333 333 333 333 334 334 333 334 333 332 330 330 330 331 332 330 332 334 329 323 321 318 317 318 322
326 329 329 329 328 332 340 345 344 344 343 345 343 336 334 333 333 331 330 331 331 333 333 334 335 338 340 339 338 337 336 335 334 334 334 334 333 333 333 333 333 333 334 335 334 334 333 332 332 330 329 329 330 330 330 332 326 322 320 318 317 319 323
324 326 327 330 334 341 349 348 345 347 343 343 340 334 333 334 333 330 330 331 332 332 333 333 334 339 338 337 338 338 337 335 334 333 333 334 333 333 333 333 333 333 335 335 335 334 333 331 330 330 329 328 329 328 327 329 320 315 316 316 315 318 323
331 338 340 342 346 352 352 355 352 347 342 341 338 334 333 332 332 331 330 331 330 328 330 330 333 338 338 338 340 339 338 336 335 334 334 334 334 333 333 334 334 335 337 335 334 333 332 331 327 329 328 327 326 328 327 326 321 315 314 313 315 320 321
337 339 343 344 346 348 350 352 353 347 343 341 335 333 332 332 330 328 328 330 329 329 328 328 332 338 338 339 340 340 339 338 336 335 334 334 334 334 334 334 334 335 336 336 335 333 330 329 327 328 327 329 329 330 329 328 323 312 312 312 312 317 322
337 341 342 344 348 351 351 351 351 347 343 338 333 333 332 330 327 326 326 327 327 327 326 328 333 339 339 339 339 340 339 338 337 335 334 334 334 335 335 335 334 334 334 334 333 330 327 325 327 326 326 326 328 328 328 329 328 327 314 312 311 315 321
339 340 340 341 346 352 350 349 349 344 340 336 333 332 331 329 325 324 327 328 327 327 328 331 335 339 339 339 340 339 339 337 337 335 335 334 332 332 335 335 333 333 333 333 331 328 325 325 326 326 324 325 327 328 327 329 328 325 313 310 311 313 316
334 335 335 347 348 347 348 347 350 343 340 336 333 332 330 328 326 326 327 328 329 330 332 334 339 340 339 339 339 339 338 337 337 336 333 333 333 331 332 335 336 335 332 331 330 326 323 324 324 323 322 324 327 325 324 328 331 328 321 315 312 310 311
333 332 332 342 344 348 348 345 340 339 338 336 333 331 330 329 328 328 330 329 331 335 337 340 342 341 341 340 339 338 337 334 334 334 334 332 332 331 333 331 329 327 329 329 328 325 323 322 322 321 322 324 324 323 324 323 325 326 326 316 311 308 308
339 340 340 342 343 338 337 334 334 334 337 337 335 333 332 332 332 332 332 333 340 342 344 343 343 342 341 340 339 338 334 333 334 334 334 334 331 330 330 329 326 326 325 326 325 321 320 320 321 322 322 320 320 323 323 322 322 325 326 323 313 308 306
337 336 337 337 337 336 336 336 334 334 334 336 336 336 336 336 336 340 340 343 344 344 344 344 344 343 343 341 339 334 333 332 332 333 332 331 331 329 329 326 325 323 325 328 324 321 319 319 320 321 321 321 320 319 320 322 324 325 326 323 320 312 309
334 334 335 335 335 336 338 338 336 334 332 335 337 338 340 339 341 341 342 346 346 344 344 343 340 337 337 339 338 335 333 330 331 330 328 330 331 328 326 325 327 326 325 324 322 322 320 320 321 321 321 322 322 321 321 323 323 319 317 319 318 316 313
334 335 334 333 335 338 335 334 334 333 333 335 342 342 343 344 344 344 344 344 345 345 344 343 340 339 338 338 335 333 331 329 328 326 325 326 331 328 328 326 327 326 324 323 322 320 320 321 322 323 322 321 321 320 320 319 316 311 310 311 310 311 313
331 331 333 334 333 334 332 332 330 330 330 333 341 342 344 344 343 344 343 343 343 342 343 342 342 341 339 337 334 331 331 328 336 329 327 329 325 324 326 328 327 325 321 320 320 320 321 321 323 320 320 319 319 319 320 318 312 307 305 306 306 306 308
331 331 331 332 333 333 330 329 329 330 331 332 338 339 338 339 341 342 339 337 336 337 339 340 341 341 340 339 337 335 335 332 334 330 326 316 312 309 308 309 316 315 310 310 309 314 317 319 316 316 316 319 315 316 318 315 309 308 304 306 302 301 302
331 331 331 333 336 336 335 333 330 331 332 332 335 335 330 326 327 332 334 335 336 336 339 340 339 337 334 332 332 333 331 328 328 329 325 316 311 308 307 305 297 304 312 309 307 303 301 306 312 312 314 309 307 309 309 308 308 301 295 294 293 293 294
331 331 331 333 334 334 334 333 333 329 327 328 330 330 330 329 331 332 335 336 336 337 336 335 332 330 330 328 327 327 328 327 327 327 326 322 315 313 310 308 306 295 296 302 302 298 294 295 297 301 308 311 306 305 304 303 299 295 294 293 293 293 292
333 334 336 338 336 333 331 330 328 327 326 326 328 330 331 330 331 331 331 331 332 333 332 334 332 329 329 325 324 329 330 326 327 328 326 326 323 317 314 309 307 306 296 294 297 295 293 293 294 295 297 302 307 306 307 302 298 295 294 294 294 294 293

ECMWFFLT1_sfc_thetae_018.txt.gz
Theta_e
333 333 335 336 336 337 337 337 339 341 342 343 346 347 349 351 352 352 352 352 351 349 346 344 341 338 336 334 334 336 333 334 333 331 331 333 333 335 333 332 331 331 331 329 331 333 336 338 337 336 337 338 336 337 336 339 338 341 336 336 336 336 333
331 333 334 335 335 335 335 337 338 341 342 343 345 347 349 350 351 351 352 351 350 348 345 343 341 337 336 336 335 335 334 335 335 339 334 337 339 333 333 333 332 331 332 333 333 334 335 337 337 336 338 339 337 336 336 337 337 336 336 334 334 332 333
329 332 333 333 333 333 334 336 338 340 341 344 346 347 348 350 351 351 351 350 349 347 345 342 341 338 336 336 336 333 333 333 335 337 334 335 335 333 333 333 331 331 333 333 333 336 339 335 336 337 335 335 335 335 336 335 337 336 335 334 334 334 330
328 331 333 333 333 333 334 336 338 340 342 344 346 347 348 350 351 352 351 350 348 346 342 341 340 339 337 336 337 334 332 333 334 335 333 333 333 333 333 332 333 332 331 332 336 337 338 336 335 333 343 335 334 334 334 335 334 334 334 333 333 333 332
328 330 331 331 331 331 332 334 338 339 341 345 347 348 349 351 351 351 350 350 348 345 343 341 341 340 339 337 338 336 333 332 334 334 333 332 333 335 334 333 331 330 330 331 333 338 336 334 331 333 333 333 333 333 334 333 333 334 333 332 332 332 332
326 328 329 330 330 331 332 334 337 339 341 344 346 348 349 350 351 350 350 348 347 346 343 341 339 340 338 337 336 336 334 333 335 335 334 333 333 333 331 331 331 331 330 332 336 335 335 333 332 333 333 333 333 333 332 331 332 333 333 332 332 332 333
326 328 329 329 330 331 332 333 336 338 341 345 348 349 350 350 350 350 349 347 346 343 341 340 339 339 338 337 335 336 333 333 334 335 335 335 334 333 330 331 332 328 329 331 332 333 333 333 333 333 332 331 333 332 331 331 332 333 332 332 332 332 333
326 328 329 329 330 332 332 333 334 337 340 344 347 348 349 349 349 348 347 347 345 344 341 340 339 338 337 337 335 335 333 333 333 335 334 334 334 333 332 331 332 332 331 330 331 332 332 332 332 332 332 332 331 332 332 332 332 332 332 333 332 332 334
326 328 329 330 330 332 334 333 334 336 339 342 345 347 348 348 348 347 346 346 344 343 341 341 339 338 336 336 334 334 334 335 335 334 333 333 332 333 333 332 332 333 332 331 331 332 332 332 331 331 332 332 332 331 331 331 331 331 332 332 332 332 332
325 326 329 331 331 332 334 335 335 336 338 342 344 346 346 347 347 346 346 345 344 342 342 341 339 337 335 334 334 334 335 335 335 334 334 333 332 332 332 333 333 334 333 332 332 332 333 333 332 331 331 331 331 331 330 330 331 331 332 333 332 332 332
326 327 329 330 330 331 333 334 335 337 339 341 344 346 346 345 345 344 344 344 343 342 342 341 339 337 335 334 334 334 334 334 334 333 333 332 333 333 333 333 334 334 333 332 331 331 330 332 333 331 330 331 330 330 330 330 330 330 332 333 333 332 331
326 328 330 329 329 329 330 333 335 337 339 342 344 345 345 344 344 343 343 343 343 342 340 340 339 338 334 334 334 334 333 334 334 333 333 333 333 334 335 334 333 331 332 332 330 329 329 328 330 332 329 329 330 330 330 329 329 331 332 333 333 332 331
327 328 330 330 330 330 330 331 333 336 339 342 344 345 345 344 343 342 342 342 343 342 340 338 337 336 334 334 334 335 334 334 334 334 334 335 334 334 334 333 332 331 328 330 327 328 327 327 326 330 328 327 329 330 330 330 330 330 331 331 330 330 330
335 328 329 330 330 329 329 330 332 334 337 341 343 345 345 344 343 342 341 341 342 341 339 337 336 336 336 336 334 334 335 335 335 335 335 335 334 333 333 333 331 329 328 330 327 327 326 326 326 326 329 328 328 329 328 327 327 328 330 331 330 330 330
329 328 328 328 330 330 330 331 332 334 336 340 343 343 343 342 341 341 341 341 342 341 338 337 335 334 335 336 335 334 335 336 335 335 335 335 334 333 332 332 331 329 329 331 328 329 327 328 328 327 326 326 328 328 328 328 329 331 332 331 330 330 329
328 328 328 328 330 332 331 331 334 336 336 338 341 343 342 341 340 340 339 338 338 338 338 337 336 335 335 335 336 336 336 335 336 335 335 334 334 333 333 332 331 329 328 329 328 328 330 328 328 328 328 327 327 326 328 330 331 336 335 333 332 329 330
327 328 329 329 331 334 334 333 334 337 338 338 340 342 342 340 340 338 337 335 336 337 338 336 335 335 335 335 336 336 335 335 335 334 333 334 334 333 333 331 330 329 328 327 327 328 328 330 328 329 330 329 327 326 327 329 331 331 328 329 333 333 329
327 328 329 330 330 333 335 336 335 337 339 340 340 341 341 339 336 334 333 335 336 336 335 336 336 336 336 336 336 336 335 335 335 334 334 333 333 333 331 330 328 327 327 327 327 328 328 329 329 329 329 329 328 327 328 327 331 326 327 328 329 332 332
324 326 327 329 331 333 335 337 338 339 341 341 342 341 341 337 335 334 334 334 335 336 336 336 337 336 337 337 336 336 335 334 335 335 334 334 333 333 331 329 328 328 327 327 328 328 328 329 329 329 329 329 328 329 329 329 329 326 325 326 326 326 328
322 324 326 329 331 333 335 337 339 341 343 343 343 343 340 337 335 336 336 335 335 335 335 335 337 337 337 336 336 337 336 334 334 333 334 334 333 332 330 329 328 328 328 329 328 328 329 329 329 330 329 329 328 328 329 329 329 325 323 323 322 323 325
319 323 325 329 332 335 336 338 338 339 340 341 340 338 336 334 335 334 335 334 333 333 334 335 337 337 335 334 334 335 334 334 334 332 332 332 332 330 329 329 328 328 329 330 329 329 330 331 329 328 329 328 328 328 328 331 325 322 320 318 318 319 323
321 322 322 325 328 335 337 339 339 339 339 342 338 336 335 334 334 333 333 334 333 333 334 335 336 335 333 332 331 334 333 331 330 331 331 330 330 329 329 328 328 328 329 330 329 329 330 329 328 326 326 327 326 327 327 328 318 319 318 318 317 320 323
323 324 324 325 325 326 337 341 342 340 340 338 337 334 333 332 333 332 331 331 331 333 333 333 333 333 333 333 333 335 334 331 329 330 331 330 330 329 330 329 329 329 330 329 329 330 330 328 326 326 326 327 327 325 324 325 321 316 317 317 316 318 320
322 324 324 326 334 339 340 340 342 342 339 336 334 333 332 331 331 330 329 330 332 332 331 332 331 332 333 334 334 335 333 333 332 332 332 331 330 330 330 330 330 331 334 331 330 330 330 327 325 326 327 327 326 326 323 323 322 316 313 314 315 320 320
333 335 335 341 346 346 344 341 342 340 336 334 332 331 331 330 330 329 329 329 330 331 330 330 330 332 333 334 334 334 333 334 334 333 332 331 331 331 331 331 331 332 333 332 330 328 326 328 325 325 326 327 327 330 327 323 322 317 312 312 312 316 317
337 338 339 341 344 346 345 342 340 335 333 333 332 331 329 329 329 328 327 328 329 329 329 329 330 331 334 335 335 335 335 335 335 334 333 332 332 331 330 331 331 330 330 327 327 327 325 327 326 325 325 325 326 326 326 324 324 325 314 310 310 313 319
336 337 339 344 347 349 342 340 338 336 334 332 331 329 329 328 327 326 326 327 327 327 328 329 330 330 333 336 336 336 336 336 335 334 334 333 332 333 333 332 330 328 329 328 327 324 323 323 324 325 323 323 324 324 324 325 324 325 314 310 310 312 316
334 339 345 346 347 346 344 341 338 336 332 331 330 329 328 327 326 324 325 326 326 327 329 329 329 330 331 333 335 336 337 337 336 336 335 333 332 331 330 330 330 329 327 326 324 323 322 322 323 322 321 321 323 323 322 325 330 324 317 311 309 309 310
327 333 339 341 341 343 343 338 337 334 331 331 331 329 328 328 327 326 327 326 328 328 328 329 329 329 331 335 336 337 337 337 337 335 334 332 332 329 327 327 326 325 325 324 323 322 320 320 321 320 320 320 320 320 321 318 323 325 325 313 307 306 307
334 336 335 336 336 336 339 336 335 333 332 331 330 329 328 327 327 327 326 326 330 328 329 329 329 330 332 335 336 337 336 335 336 333 332 331 329 329 327 325 323 323 323 322 322 320 320 317 318 318 318 318 319 319 318 318 319 324 325 317 308 305 304
331 331 331 332 334 334 335 335 333 332 330 329 329 329 328 327 327 327 325 327 330 329 329 330 330 331 333 335 335 334 332 333 332 332 331 330 329 327 325 323 323 320 320 321 319 319 319 316 318 317 317 317 318 316 315 317 320 320 321 317 311 307 307
329 329 330 331 331 333 333 333 332 330 329 328 329 329 329 328 329 329 329 331 332 331 331 331 331 332 334 335 333 331 331 330 330 329 329 329 328 327 326 324 323 321 320 320 320 319 318 315 316 317 318 318 317 316 315 317 314 310 311 317 315 314 312
327 327 327 328 331 334 331 331 330 329 330 328 330 330 331 331 332 333 334 335 335 335 335 335 336 337 336 333 331 329 329 329 327 326 326 326 324 324 324 323 323 322 321 321 320 319 318 319 320 319 317 318 317 316 318 316 309 306 306 306 306 307 309
325 326 326 327 330 331 329 329 328 329 329 328 329 331 333 334 334 335 335 336 340 340 339 338 337 335 332 330 329 328 328 327 334 327 324 324 323 321 322 321 322 322 321 321 320 319 319 319 319 317 318 317 318 315 317 312 308 306 304 303 305 304 302
325 325 325 327 327 330 328 328 329 328 328 328 329 330 330 334 339 341 340 338 336 334 331 330 332 329 331 331 329 329 330 329 331 324 322 313 309 306 305 306 312 314 308 307 306 310 315 317 314 315 313 315 312 316 319 315 309 308 305 305 302 301 300
326 325 326 326 328 328 329 329 329 328 326 325 326 327 329 330 332 334 335 335 335 336 335 336 336 336 333 331 330 330 329 329 327 323 317 313 310 308 307 304 297 301 309 308 307 302 298 305 311 312 309 306 304 308 310 308 307 298 295 294 293 293 294
326 326 327 330 328 327 327 328 329 327 324 324 326 327 328 329 331 332 335 335 336 337 337 337 336 336 334 333 332 330 329 328 325 319 315 313 311 311 309 307 305 295 295 300 301 297 294 294 299 304 307 310 305 304 302 301 297 295 294 293 293 293 292
327 327 329 331 329 329 328 327 327 325 324 323 324 325 326 328 330 331 332 332 333 336 335 334 332 328 327 328 330 331 329 326 325 319 314 313 312 311 311 309 307 306 298 295 296 295 292 292 293 295 297 300 304 305 305 300 296 293 294 294 293 293 292

ECMWFFLT1_sfc_thetae_021.txt.gz
Theta_e
330 332 334 335 336 338 339 340 342 343 344 345 346 347 349 350 351 351 351 351 351 350 350 350 350 349 347 344 338 333 331 330 332 331 329 328 330 330 330 330 330 329 330 327 327 331 334 335 334 334 334 335 334 334 333 336 335 338 333 333 333 332 331
328 330 333 335 335 337 338 340 342 343 344 344 345 347 349 349 350 350 350 350 351 351 350 350 350 348 346 342 338 333 330 330 333 336 331 332 335 332 332 331 329 329 329 328 329 331 332 334 334 332 334 336 334 332 333 333 333 332 332 331 330 330 330
327 329 332 334 335 336 337 339 341 343 343 344 345 346 347 348 350 350 350 350 350 350 350 349 349 346 344 339 335 333 331 331 332 332 329 331 332 331 331 331 330 330 330 329 330 332 334 333 333 332 332 333 333 332 331 331 333 333 332 331 330 332 329
326 328 331 334 336 337 337 338 340 342 343 344 344 346 347 348 350 351 351 350 350 349 348 348 348 345 341 336 334 333 331 331 332 331 330 332 332 331 331 329 330 329 330 330 332 333 336 334 333 332 341 332 331 331 330 332 332 332 332 331 330 330 330
325 328 331 332 334 335 336 337 338 340 342 344 344 346 347 348 350 350 351 351 351 350 350 348 348 345 341 338 335 334 332 331 331 332 331 332 333 332 330 330 329 329 330 330 330 335 334 333 331 331 332 332 331 330 331 331 331 332 331 330 330 330 330
324 327 329 331 333 334 335 336 338 339 341 342 343 344 346 347 349 349 350 351 350 351 350 347 345 343 338 337 336 333 332 331 332 332 331 332 331 331 330 330 330 330 328 328 332 333 333 332 331 331 330 331 332 331 330 330 331 330 330 329 330 330 330
324 326 329 331 332 333 334 335 336 338 340 342 343 344 345 346 347 349 350 350 350 349 348 346 345 342 339 337 335 334 330 330 331 331 331 331 331 331 331 331 333 330 330 329 330 332 331 331 331 330 331 331 332 330 330 330 330 330 330 329 329 329 329
324 326 328 331 332 333 333 334 335 337 339 340 341 342 343 345 347 348 348 349 349 349 348 346 343 341 339 336 334 333 331 330 331 332 332 331 331 332 331 330 331 330 329 328 329 331 332 331 331 331 331 330 329 330 330 329 329 329 329 330 329 329 331
325 326 328 330 331 332 332 333 334 336 337 338 339 341 343 344 346 347 348 349 349 348 347 346 344 341 338 337 336 334 333 331 331 333 332 331 331 332 331 330 330 330 329 328 329 331 330 330 330 331 330 329 330 329 329 329 329 329 329 329 329 329 330
323 325 327 329 331 331 332 332 332 333 335 337 338 340 342 344 345 347 348 348 348 347 346 345 342 339 338 337 336 335 333 332 332 332 332 332 332 332 331 331 330 332 330 330 330 329 331 330 329 329 329 329 330 329 329 329 329 329 329 329 329 329 330
324 325 326 326 328 329 329 329 329 332 334 336 338 340 342 344 345 346 347 348 348 347 346 343 340 338 338 337 336 334 333 332 332 332 332 332 332 332 332 331 331 332 332 331 330 330 329 331 330 329 328 329 329 329 328 329 328 328 328 329 330 330 330
324 324 325 326 327 326 327 329 330 331 333 335 337 339 342 343 345 346 347 347 348 347 344 340 338 338 338 337 336 334 333 332 332 332 332 332 332 332 332 332 331 331 333 332 330 330 330 329 329 331 329 329 329 328 328 328 328 328 328 328 329 330 330
323 324 324 325 327 327 328 329 329 330 331 334 336 338 341 343 344 345 346 346 347 346 342 338 337 337 337 336 336 334 333 333 333 333 333 333 332 332 332 331 332 331 331 333 332 330 329 328 327 330 330 329 328 328 328 328 327 327 326 328 329 329 329
329 323 324 325 326 326 326 328 330 330 331 332 334 337 340 343 345 345 345 345 345 342 338 337 336 336 336 335 335 333 332 334 333 333 333 333 333 332 333 332 332 332 332 332 330 329 327 327 326 327 330 327 326 327 328 327 325 324 326 328 328 328 327
322 322 323 324 325 326 326 327 329 330 331 332 334 336 338 342 343 344 343 343 341 338 336 337 336 335 335 334 333 333 334 334 334 334 333 334 332 332 332 332 332 332 332 331 330 329 327 326 326 325 326 326 326 326 327 327 326 327 327 327 327 327 327
322 323 323 324 325 326 326 327 328 330 332 332 334 335 338 340 342 342 342 341 339 336 336 336 336 335 333 331 332 333 334 334 334 333 333 333 332 332 332 332 332 333 332 330 329 327 327 326 326 326 326 326 326 326 327 327 328 332 332 332 330 328 328
322 323 323 324 326 326 327 327 328 328 330 332 334 336 338 341 341 341 341 339 337 335 335 336 336 335 331 330 333 333 334 333 332 333 332 333 333 332 332 333 333 332 331 329 328 327 328 328 326 327 327 327 327 327 327 328 329 330 327 329 332 332 327
322 322 323 324 326 326 326 327 327 327 329 331 334 336 338 340 339 339 339 338 337 336 336 336 336 333 331 330 333 334 333 333 333 333 333 333 332 333 333 333 332 331 330 329 327 327 327 328 327 327 328 328 328 327 328 328 330 325 326 327 328 331 331
321 322 324 324 325 327 327 329 329 328 330 331 333 335 339 340 338 338 339 338 338 336 335 335 335 332 330 333 333 333 333 333 333 333 333 332 334 334 334 333 332 330 329 328 327 327 327 327 328 327 327 328 327 328 329 328 329 324 324 324 324 326 328
321 323 324 325 326 328 328 330 334 335 335 335 336 337 340 340 339 339 340 339 337 335 334 334 331 332 333 333 333 334 333 333 333 334 333 334 334 334 333 332 331 330 328 328 327 326 326 327 327 328 327 328 328 329 328 327 327 323 322 321 321 323 325
320 323 324 325 325 327 329 331 332 333 334 336 338 338 338 338 338 336 336 336 336 335 333 332 332 332 333 333 333 333 333 334 334 334 334 334 334 333 332 332 331 329 328 327 327 327 327 327 328 328 329 329 329 327 327 327 325 322 322 320 318 319 324
320 322 322 323 325 326 328 330 331 333 334 338 339 338 337 337 337 336 335 335 335 333 333 332 332 331 332 332 333 332 333 334 334 334 334 333 332 331 330 331 330 329 327 328 327 328 328 328 328 328 328 328 327 326 326 326 323 320 319 318 317 320 323
319 321 321 322 324 325 328 330 332 334 334 337 338 337 336 335 336 335 333 333 333 333 332 332 331 331 332 332 332 333 333 333 334 333 333 332 330 329 329 329 329 327 329 328 327 327 327 328 328 329 328 327 326 325 325 325 323 317 315 315 316 318 319
320 320 320 321 323 325 327 332 335 336 337 337 336 336 335 334 334 333 332 332 332 332 331 331 331 332 332 332 331 333 334 334 334 333 332 330 329 329 329 329 328 327 331 328 327 327 328 328 327 326 326 326 326 326 324 324 322 317 313 313 315 319 317
319 321 323 326 326 329 331 333 335 336 334 332 331 329 332 333 332 332 330 331 331 331 331 331 331 332 332 331 333 334 334 334 333 331 330 328 328 329 328 328 328 329 331 329 328 328 328 329 326 324 323 324 325 330 328 324 321 318 314 313 313 316 316
328 332 334 337 338 339 337 339 337 332 332 331 330 329 331 331 331 331 330 330 332 331 331 332 333 334 333 332 333 334 333 334 333 330 327 326 327 329 329 329 330 329 329 330 330 328 325 326 325 323 323 325 326 326 325 324 323 324 318 312 310 313 318
333 337 340 341 341 343 338 335 334 333 332 331 329 329 330 331 330 330 330 331 330 330 331 332 334 333 332 331 333 334 333 332 330 329 329 329 329 330 331 331 330 329 329 329 325 324 322 322 323 323 322 321 322 323 323 324 323 323 318 313 310 311 316
339 340 342 341 342 338 336 333 331 330 329 328 329 329 330 330 330 329 329 329 329 329 330 330 331 331 331 331 331 333 332 331 331 332 332 332 332 330 330 330 331 330 329 326 324 323 322 321 322 319 319 319 320 321 321 323 328 322 321 315 309 308 311
331 334 336 336 337 338 337 333 330 328 328 328 329 328 328 329 329 328 327 326 326 329 329 329 330 330 330 331 332 331 331 331 333 334 334 333 333 331 330 329 328 326 326 325 323 322 320 319 319 319 319 318 319 318 319 318 320 325 323 315 307 307 308
329 331 332 335 336 336 336 332 330 328 328 328 327 327 327 328 328 327 325 324 327 328 329 328 328 328 329 330 331 333 333 334 335 335 334 334 332 331 330 327 326 325 324 323 323 320 318 317 318 317 317 318 318 317 317 317 316 321 324 319 309 305 304
327 328 329 329 331 333 333 331 329 328 327 326 326 325 326 326 327 328 324 324 328 328 327 327 328 327 327 328 329 332 333 333 334 335 333 332 331 329 328 326 324 322 321 322 320 319 318 317 318 318 317 316 317 314 313 316 320 321 323 317 311 306 303
325 325 328 329 329 331 330 331 330 328 327 326 327 326 328 326 327 328 324 326 329 327 327 327 327 327 326 327 328 331 333 332 331 331 331 330 329 329 327 325 324 322 320 320 320 319 318 317 317 318 317 315 314 314 312 316 316 313 313 317 315 312 310
325 326 326 327 330 331 329 329 328 327 327 326 327 327 327 326 327 327 328 328 328 328 327 327 327 328 327 327 330 331 331 331 329 328 327 326 325 326 326 323 323 322 321 320 319 318 317 317 318 317 316 316 314 315 318 316 310 306 304 303 304 305 307
325 324 324 326 330 330 329 329 328 328 327 327 327 327 328 327 327 329 331 333 331 329 328 329 328 328 328 330 331 330 330 329 336 330 325 325 324 323 322 322 322 321 320 320 319 318 317 318 318 317 317 316 314 315 317 313 307 307 304 302 305 303 301
324 324 326 328 329 330 329 328 329 328 327 327 327 327 328 328 330 333 332 333 333 332 331 332 334 331 330 329 328 328 331 328 331 326 324 317 311 306 306 309 313 315 308 306 305 310 317 317 314 316 312 317 316 318 318 316 313 309 304 305 303 302 300
325 324 324 324 326 326 326 327 327 327 326 325 326 328 328 330 332 334 334 333 332 332 332 332 331 330 328 327 327 327 328 328 326 323 319 314 310 308 306 303 297 300 309 306 305 301 298 306 311 312 308 304 303 308 314 314 309 298 294 294 293 293 294
325 325 324 325 324 323 324 325 327 325 324 324 326 327 328 330 332 332 333 332 331 331 330 328 327 328 328 328 327 327 328 326 322 319 316 314 313 312 309 305 303 294 295 300 300 297 295 297 299 303 306 309 302 302 302 301 296 294 294 293 293 293 292
324 324 325 326 325 325 324 324 324 324 324 323 325 327 327 329 330 331 332 331 331 331 330 329 329 328 328 328 328 329 329 325 323 318 315 313 313 312 310 308 306 305 297 294 295 294 293 294 294 296 298 301 303 302 302 298 294 293 294 293 293 293 293

ECMWFFLT1_sfc_thetae_024.txt.gz
Theta_e
327 328 330 332 332 334 336 338 340 341 342 343 344 345 347 348 349 350 349 350 350 349 350 350 351 350 350 350 349 348 346 342 339 335 334 331 332 332 331 332 333 332 332 332 332 335 337 339 339 339 338 339 339 338 338 341 340 341 339 339 339 338 337
326 328 330 331 332 334 336 338 340 341 342 343 344 345 347 348 349 349 350 350 350 350 350 350 351 350 350 350 348 346 343 339 338 338 334 333 335 332 333 333 333 332 332 333 332 334 338 338 338 337 337 340 340 338 338 339 340 340 339 337 337 336 337
325 327 329 331 332 333 335 338 340 341 343 344 344 345 347 348 349 350 350 350 350 350 351 350 351 351 350 350 347 343 341 337 337 336 332 331 333 332 333 333 333 332 332 332 332 333 338 337 337 337 337 337 339 338 337 337 339 338 338 337 337 337 335
325 327 329 331 333 335 336 338 339 341 343 344 345 345 346 348 350 350 351 350 350 350 349 350 350 350 350 349 346 342 338 336 336 335 333 332 333 333 333 333 332 333 332 332 333 334 338 337 337 336 342 336 337 338 336 336 336 337 337 337 336 336 336
324 327 328 330 332 333 335 337 339 340 342 344 345 347 347 348 350 350 351 351 351 350 351 351 351 351 350 349 346 342 338 335 334 334 333 332 334 333 333 332 332 332 333 332 333 337 337 337 336 336 337 337 336 336 336 335 335 336 336 336 336 336 335
322 325 327 329 332 333 335 337 339 340 342 343 344 345 347 348 349 349 350 351 351 351 351 351 350 351 349 348 346 343 338 335 334 334 332 333 333 332 332 332 332 332 331 332 335 335 335 336 336 336 335 336 336 335 335 335 335 335 336 335 335 335 335
322 324 326 328 331 333 335 336 338 340 342 344 345 346 347 347 348 349 350 350 350 350 350 350 350 350 349 347 344 342 337 334 333 333 333 333 333 333 332 333 334 332 333 334 332 334 334 334 335 335 335 335 336 335 335 334 334 334 334 334 334 334 334
323 324 326 328 330 333 334 336 337 339 342 343 343 344 345 346 347 348 349 350 350 350 350 349 349 349 348 345 342 340 338 335 333 333 333 333 333 333 332 332 333 333 333 332 332 333 333 334 335 336 334 334 333 334 334 334 334 334 334 334 333 334 334
323 325 326 328 329 332 334 336 337 338 340 341 342 343 344 345 346 347 348 349 350 350 350 350 350 349 347 343 340 339 337 334 333 333 332 332 332 332 332 332 333 334 332 332 331 333 333 334 334 335 334 333 334 333 333 333 333 333 333 333 333 333 334
322 323 325 328 330 331 333 335 336 337 338 339 340 342 342 344 345 346 348 349 349 349 350 350 350 348 345 342 340 338 335 333 333 332 332 331 332 332 332 332 333 334 332 332 332 331 333 334 334 334 334 333 333 333 333 333 332 333 333 333 333 333 333
322 324 325 326 328 330 331 332 333 335 337 338 339 341 342 343 344 345 346 348 348 349 350 350 350 346 343 341 339 338 335 333 333 332 332 332 332 332 332 332 332 333 332 332 331 331 331 334 334 333 332 332 332 332 332 332 333 332 332 333 333 333 333
322 323 323 325 326 328 329 331 333 334 335 337 338 339 340 342 343 344 345 347 348 349 349 349 348 345 342 339 339 337 335 333 333 333 334 333 332 333 333 333 332 331 333 332 330 331 331 331 331 333 331 332 332 332 332 332 332 332 332 332 332 332 332
322 322 323 323 326 328 329 329 330 332 334 335 337 338 339 340 342 343 344 345 347 348 349 348 345 344 342 339 339 338 335 334 334 334 334 334 334 334 333 333 332 331 331 333 331 331 331 331 331 332 332 332 332 332 332 332 332 331 331 331 332 332 332
329 322 323 323 324 325 327 328 329 330 332 333 335 337 338 340 341 342 343 344 346 347 347 345 343 342 341 340 339 338 336 335 334 334 334 334 334 333 333 332 332 332 332 333 332 332 332 331 331 331 332 332 333 333 333 331 330 330 331 331 331 331 332
321 321 321 322 323 325 326 327 328 329 330 332 334 335 337 338 340 342 343 345 346 347 346 344 342 341 340 339 339 335 334 334 335 335 335 335 333 333 332 332 332 332 332 333 333 333 332 332 331 330 329 331 331 330 331 330 330 331 331 331 331 331 331
320 321 321 321 322 324 325 327 328 329 329 330 331 333 335 337 339 341 343 344 345 346 345 342 341 340 340 338 336 334 335 336 335 334 334 334 332 332 332 332 332 332 332 333 333 333 333 331 330 329 329 329 330 329 330 330 331 333 331 330 332 330 331
319 321 321 322 323 324 325 326 327 328 329 329 330 332 334 336 339 341 343 344 345 345 344 342 340 340 339 336 334 334 336 336 335 334 334 333 333 333 332 332 333 333 333 333 332 332 331 331 328 328 328 328 328 328 329 330 331 329 326 327 330 334 332
319 320 321 321 323 324 325 325 326 326 328 330 331 332 333 335 338 341 342 343 344 344 342 340 340 339 338 335 334 334 335 335 335 333 333 334 333 334 333 333 333 333 333 333 332 332 331 330 329 328 328 328 329 329 330 330 330 325 325 327 327 330 334
319 320 321 322 323 325 325 326 326 327 327 329 331 332 334 337 338 340 342 343 343 341 339 339 338 338 337 335 334 334 334 333 332 332 332 333 334 334 334 333 333 333 332 332 332 331 330 329 329 328 329 329 329 329 330 331 328 324 324 324 324 325 329
320 321 321 322 324 325 325 327 328 328 329 330 332 334 336 339 339 341 342 343 341 339 338 338 337 337 335 334 334 333 333 329 329 328 329 333 333 333 333 332 332 332 333 333 332 330 329 329 329 329 329 329 329 330 331 331 328 323 322 322 321 322 326
319 322 323 323 324 325 327 330 331 331 331 331 333 334 337 339 340 341 341 340 338 338 337 337 337 335 334 333 334 333 331 328 327 327 329 331 332 333 332 332 332 331 331 331 330 329 329 329 329 329 330 330 331 330 330 331 326 321 320 318 318 319 324
320 323 323 325 326 327 328 330 332 333 334 336 336 335 337 338 340 340 339 339 338 337 337 336 335 334 333 333 333 332 329 328 327 327 329 330 332 332 332 331 329 326 325 328 329 330 330 330 330 329 330 331 331 330 330 332 324 320 319 318 318 320 328
322 325 326 327 329 330 331 331 333 334 336 337 337 336 336 338 339 338 337 337 337 336 336 335 334 333 332 332 333 331 329 328 327 327 328 331 332 332 331 329 326 325 329 330 329 328 328 328 329 330 330 330 331 330 330 331 326 318 316 316 316 320 327
322 324 325 326 324 326 329 331 333 336 336 337 336 336 336 337 337 336 335 335 335 335 334 334 333 333 332 332 332 332 330 329 328 327 329 330 331 331 331 329 327 329 332 330 328 328 328 329 330 330 331 331 330 330 330 330 326 318 313 313 315 321 326
320 321 323 323 323 327 332 334 336 336 336 336 334 333 334 336 336 335 334 334 334 334 333 333 333 333 332 332 332 332 331 330 330 329 329 331 332 332 331 329 328 330 331 330 330 329 330 331 330 330 330 331 331 332 331 330 326 315 313 312 313 319 324
329 335 337 337 335 335 337 338 337 334 334 333 332 331 334 335 335 334 334 333 334 333 333 333 333 334 334 333 332 332 331 332 331 331 332 332 333 333 332 330 330 330 330 331 331 331 330 331 330 329 329 329 331 331 332 331 329 327 314 312 309 313 325
338 338 338 338 339 340 335 333 334 334 333 332 330 331 333 334 333 333 334 333 332 332 333 334 334 334 334 334 333 332 331 332 332 332 333 334 334 334 333 331 330 330 330 331 331 330 329 329 329 329 328 328 329 328 328 329 328 327 315 310 309 311 318
340 340 340 342 341 337 334 332 331 331 330 328 330 331 332 333 333 333 332 331 331 332 333 334 334 335 334 333 332 332 332 332 333 333 333 335 334 331 330 331 332 331 331 332 331 329 329 328 328 327 325 324 325 326 326 328 329 328 319 312 308 308 312
334 335 336 337 338 339 334 330 329 329 328 329 329 330 331 332 332 331 331 330 330 331 333 334 334 334 334 332 332 333 333 334 334 334 333 333 332 331 330 332 332 332 332 330 329 329 327 326 325 324 323 324 323 325 325 323 325 324 326 313 306 305 308
328 330 331 334 335 334 333 329 328 328 328 328 328 328 329 331 331 330 329 328 329 331 333 333 333 333 332 332 332 333 333 334 334 334 333 333 332 332 331 331 331 331 331 330 329 327 325 323 323 322 323 323 324 323 323 321 320 321 323 318 308 305 304
327 328 328 329 332 334 332 331 328 327 327 327 328 328 328 329 330 331 328 327 330 331 331 332 332 332 332 331 332 332 333 333 333 333 333 333 333 331 331 330 330 329 328 328 327 326 325 322 322 322 323 323 322 321 320 321 322 323 324 319 312 306 303
328 328 329 329 330 332 331 330 329 327 327 327 327 327 329 328 330 330 327 329 331 330 330 331 331 331 331 331 331 332 333 332 333 334 334 334 333 332 332 331 330 329 327 326 325 325 324 322 322 322 321 321 321 320 318 320 320 319 320 319 314 309 306
326 326 325 327 328 332 329 329 327 327 329 328 327 327 328 327 329 329 328 330 330 329 330 330 330 331 330 330 331 332 333 333 333 333 333 333 332 332 332 331 329 328 326 326 325 323 322 322 322 322 321 321 320 320 320 319 316 315 313 311 313 313 313
326 326 324 325 328 330 328 328 327 329 328 328 327 328 328 328 329 329 329 330 329 329 329 330 329 329 328 328 329 331 333 333 337 334 332 331 330 328 327 326 327 326 326 324 324 323 322 322 323 322 322 321 318 318 319 317 314 314 312 309 311 311 308
324 324 324 327 328 331 327 328 329 328 329 328 327 327 327 328 330 332 331 330 330 329 328 328 331 329 328 328 329 330 333 332 336 332 327 319 312 307 306 310 317 320 313 310 311 318 323 323 321 322 321 322 320 320 319 318 317 317 307 312 306 308 307
324 324 324 326 327 327 327 330 329 328 328 326 326 327 327 328 329 333 335 334 332 329 328 329 330 329 328 329 329 329 332 330 329 326 322 317 313 309 305 302 296 302 312 310 306 302 299 307 321 321 318 314 309 313 319 319 319 300 296 295 294 295 296
326 326 327 327 327 327 327 327 329 328 328 326 327 327 328 328 330 332 333 334 334 332 330 330 329 329 329 329 329 329 330 328 326 324 320 317 315 313 309 307 303 294 295 300 300 297 295 297 299 303 308 313 308 305 302 301 296 294 293 293 293 293 293
327 326 326 327 326 325 326 327 327 327 327 325 326 328 328 329 330 332 333 333 333 333 332 331 330 328 327 328 329 330 329 327 325 320 317 316 315 314 313 311 308 305 296 293 294 295 294 294 295 296 298 301 305 304 304 297 293 293 293 294 293 293 292

ECMWFFLT1_sfc_thetae_027.txt.gz
Theta_e
334 335 338 340 340 339 341 344 346 346 348 348 349 348 348 350 352 355 354 355 355 356 359 360 360 360 360 361 362 363 362 361 361 359 357 356 355 353 350 348 348 349 348 347 347 347 349 351 352 351 352 352 350 350 350 350 350 348 348 349 348 347 346
332 333 335 338 339 340 342 345 347 347 348 348 349 350 349 351 353 353 354 356 356 356 358 359 360 360 361 362 362 363 362 361 360 359 358 356 353 353 351 349 348 349 349 349 349 350 351 351 351 351 350 351 349 350 349 350 350 349 347 348 347 346 347
332 333 335 337 338 340 343 344 347 347 349 348 349 349 350 353 354 354 355 355 356 357 359 360 360 360 361 362 362 362 362 361 359 358 356 353 351 349 350 350 349 348 348 350 350 349 350 350 351 351 350 349 348 349 350 349 349 349 349 349 347 346 346
333 333 335 339 341 343 343 344 346 346 348 348 349 350 352 355 356 356 357 357 357 358 358 359 360 360 361 361 361 362 361 361 359 357 355 353 350 349 348 348 349 349 348 347 348 348 349 350 350 350 350 348 348 348 348 348 348 349 348 348 346 346 346
334 335 335 337 338 340 341 343 345 347 347 349 351 353 354 355 355 356 358 358 357 357 358 359 359 361 361 362 361 361 360 358 358 357 355 352 351 349 347 345 346 346 347 348 348 348 349 349 348 348 348 349 347 348 348 348 348 349 347 348 346 346 344
333 335 336 336 337 339 341 342 343 345 346 348 350 352 353 354 354 353 355 357 358 359 361 361 361 361 360 361 361 361 360 358 357 356 353 351 350 347 346 346 345 345 346 347 346 347 348 348 347 347 346 345 345 345 346 347 346 347 346 347 345 344 343
333 335 335 337 338 339 340 341 342 344 347 349 351 353 352 351 352 353 354 355 357 358 359 359 360 361 360 361 360 359 358 356 355 353 351 349 348 347 347 347 347 346 347 348 346 347 346 347 347 348 347 346 346 345 346 347 345 347 347 346 345 345 345
334 334 337 338 338 339 340 342 343 345 347 350 350 350 350 351 352 353 354 354 356 356 357 357 359 360 361 361 359 357 356 352 351 351 349 347 346 346 346 346 346 347 347 345 346 346 344 346 346 346 346 345 346 347 347 347 347 345 346 345 344 343 344
334 337 336 336 338 338 340 343 344 346 348 350 350 351 351 352 352 353 354 355 356 356 357 357 359 361 362 359 357 356 353 351 349 348 347 346 344 342 342 343 345 345 344 343 342 344 344 344 344 345 346 345 346 347 347 347 347 346 345 345 344 343 342
335 336 337 337 339 339 342 344 347 349 350 350 351 352 352 353 353 354 354 355 355 356 357 358 359 360 360 357 356 355 354 349 348 346 344 343 343 342 342 341 343 343 342 342 341 340 342 343 343 344 345 344 345 346 345 345 345 346 346 345 345 344 343
334 337 338 337 339 341 343 343 345 347 349 351 351 351 353 353 353 353 354 355 355 356 358 359 360 359 359 358 354 352 352 348 345 344 344 344 343 343 341 341 341 342 341 340 339 341 340 340 342 343 343 342 343 344 344 344 344 345 345 345 345 344 343
335 336 338 339 341 342 341 345 347 348 349 350 350 351 353 354 354 354 355 356 356 356 358 358 359 359 358 357 353 352 351 348 345 344 344 344 343 342 341 341 341 341 340 340 338 338 338 339 340 341 342 342 343 344 343 344 344 345 345 344 344 343 342
334 336 337 336 340 342 346 345 345 347 349 349 349 351 352 352 353 353 355 356 356 357 358 359 359 359 358 356 352 351 350 348 345 344 343 344 343 343 342 340 340 339 337 338 338 337 337 337 339 340 341 342 341 341 341 341 342 343 343 343 343 342 341
333 334 336 339 339 340 341 344 347 347 348 348 349 351 351 352 353 353 355 354 355 356 357 358 359 359 358 355 352 351 349 347 344 345 344 345 346 344 343 342 340 339 338 338 338 336 337 337 338 339 340 341 341 341 340 340 340 341 342 341 342 342 341
330 331 334 334 338 342 343 342 345 346 347 348 349 349 350 351 352 354 355 355 356 355 356 359 359 359 357 355 351 350 350 347 346 346 346 346 343 341 341 341 340 338 339 339 338 338 337 338 339 338 339 340 340 339 338 338 338 339 340 341 342 342 342
330 331 332 333 337 339 342 343 345 346 347 348 348 349 349 350 352 352 352 352 354 355 357 360 359 358 356 353 351 351 349 346 346 345 345 345 342 341 342 341 338 336 336 336 337 337 337 338 339 337 338 339 340 340 339 338 339 337 332 334 342 344 343
331 331 332 335 339 339 342 343 345 346 346 347 347 348 348 350 351 352 350 353 354 356 359 359 358 357 355 352 352 351 348 346 344 343 343 346 344 340 339 337 336 335 335 335 336 338 339 340 337 335 336 336 336 337 338 338 339 331 327 327 331 340 342
331 333 333 335 337 338 340 341 343 344 344 345 347 348 349 350 350 350 350 353 354 355 357 356 356 354 355 354 353 350 347 345 344 343 342 343 338 335 333 335 336 336 336 336 337 339 340 337 336 336 335 334 334 335 337 339 333 326 326 327 327 332 340
333 333 335 337 337 338 338 339 341 344 343 345 345 346 348 350 348 350 352 352 355 357 356 354 354 354 354 353 351 349 346 344 344 342 341 340 337 335 334 334 335 334 335 337 339 340 339 338 337 336 337 336 336 336 337 339 332 325 324 325 325 326 332
333 334 334 335 336 337 340 341 341 343 344 346 346 346 346 348 349 351 354 355 357 356 355 355 354 354 353 352 350 348 345 344 343 341 339 338 338 337 338 336 333 331 333 337 339 339 338 338 338 336 336 337 338 338 339 339 331 324 322 322 322 324 328
334 333 335 337 337 337 340 341 343 344 344 344 345 346 346 347 349 352 353 355 354 355 354 354 353 353 352 349 348 347 344 342 341 340 339 339 338 338 338 336 331 331 334 336 337 339 338 338 336 335 336 337 338 337 338 339 328 323 321 319 319 321 327
331 333 335 336 339 341 342 340 342 340 343 346 348 347 346 347 348 350 352 354 353 353 353 353 352 352 351 348 346 345 344 342 341 340 338 337 335 333 334 334 333 332 334 336 338 340 339 338 337 337 337 338 338 337 338 338 325 322 320 319 318 321 334
333 334 337 339 339 341 347 346 347 348 351 347 346 346 346 349 349 350 351 351 351 352 351 351 350 350 349 347 346 344 343 342 340 339 336 334 333 332 331 332 334 335 338 337 339 340 339 339 338 340 339 340 340 339 340 340 330 320 318 317 317 322 338
333 336 339 340 346 345 347 349 350 350 349 348 347 348 349 350 351 351 350 350 350 349 349 349 348 349 348 347 346 344 343 341 340 338 335 334 332 331 331 333 336 336 339 339 338 337 338 339 339 340 340 339 339 338 340 340 334 319 315 315 316 325 339
333 335 338 339 341 343 345 348 351 351 352 351 349 349 350 351 351 350 349 349 347 347 347 347 348 348 346 346 346 344 341 339 339 339 335 333 332 333 333 334 335 338 340 338 339 338 339 338 337 337 339 339 339 336 337 340 333 314 314 314 314 325 337
339 339 341 345 348 350 352 351 351 353 353 353 352 350 351 350 350 350 348 346 347 346 346 347 348 348 348 347 345 344 341 339 339 339 335 333 333 333 333 334 336 338 338 338 338 338 337 337 336 338 340 341 340 340 339 339 343 334 313 312 311 317 335
346 346 345 344 345 347 350 352 352 351 351 350 348 348 349 350 350 348 348 348 346 346 347 348 349 348 346 346 344 343 341 339 338 337 335 334 334 335 334 335 336 336 337 337 338 338 339 340 340 340 341 341 341 340 341 340 340 335 311 310 310 313 321
345 345 346 346 347 347 347 346 346 345 343 346 346 346 347 350 350 347 347 346 346 348 349 348 348 347 346 344 343 342 340 339 338 337 335 336 337 337 336 338 339 339 339 339 340 339 340 341 341 341 340 339 338 336 336 334 333 339 318 311 309 309 313
347 346 347 348 346 346 347 346 344 342 342 342 344 345 346 349 348 346 346 346 347 348 347 347 346 346 344 343 342 341 340 338 337 335 334 334 337 338 337 339 339 339 340 341 340 339 339 340 340 338 333 332 332 332 331 334 335 327 332 311 307 306 309
345 345 343 344 346 346 347 346 345 342 341 341 342 343 345 348 347 345 345 346 346 346 346 346 345 345 343 341 341 340 339 338 337 336 336 337 339 338 337 339 339 340 341 341 339 339 339 340 335 331 329 328 328 330 332 332 334 327 325 321 308 305 305
342 344 346 347 347 348 349 348 347 344 341 340 341 342 343 345 347 345 345 345 344 344 344 344 344 342 342 341 340 340 340 339 338 337 338 340 340 338 337 338 339 339 341 340 339 339 337 333 331 330 332 330 329 331 332 332 331 330 326 319 312 307 304
341 343 345 346 347 346 347 346 346 345 342 339 339 340 341 342 344 344 345 343 343 344 344 344 342 341 340 341 340 339 340 338 337 339 339 340 340 340 339 339 339 337 339 339 338 338 336 333 333 332 331 330 331 331 331 331 330 329 326 320 316 311 307
338 339 341 342 343 346 347 348 344 342 343 341 337 337 337 339 340 343 342 341 342 343 344 343 341 340 340 339 340 341 340 339 337 337 337 338 338 339 339 338 338 338 338 338 337 336 336 336 331 329 328 328 331 332 331 330 328 327 325 325 324 323 316
339 338 337 337 339 341 343 345 344 342 341 341 339 338 338 338 339 340 340 339 339 340 342 341 340 339 339 339 339 338 339 338 337 337 337 337 337 336 336 337 338 338 337 337 337 336 336 334 330 328 328 328 330 330 329 326 325 325 326 326 327 326 325
339 339 340 342 342 342 343 343 342 341 341 340 339 339 338 339 339 340 340 340 340 340 340 341 339 339 340 339 339 338 338 338 338 337 337 337 332 321 316 321 335 337 337 329 336 340 335 330 329 330 331 332 332 330 328 327 325 327 319 327 314 324 325
339 338 337 338 339 341 341 340 341 340 340 340 339 339 339 339 339 339 338 340 339 339 339 339 338 336 336 337 336 336 336 337 337 337 335 331 326 318 311 303 295 301 321 325 310 305 303 311 331 333 334 332 332 328 330 330 330 305 300 297 297 297 297
336 337 337 338 339 340 340 339 339 339 339 340 339 340 339 339 338 339 338 338 339 337 337 338 336 335 335 335 335 334 336 335 336 336 330 325 323 323 320 316 308 294 293 299 301 299 296 299 303 309 317 327 323 312 300 302 298 296 295 294 294 294 293
331 334 336 338 338 339 340 340 339 339 338 339 339 340 340 338 338 338 337 339 339 338 338 338 336 335 335 334 334 335 335 334 333 331 328 327 328 326 325 321 316 312 297 292 295 296 294 295 296 299 302 307 312 311 311 300 294 293 294 294 293 293 292

ECMWFFLT1_sfc_thetae_030.txt.gz
Theta_e
343 344 345 345 346 347 348 349 351 351 353 355 356 357 356 358 359 361 362 364 364 365 368 369 369 369 369 369 370 371 370 369 369 367 366 365 364 363 362 361 361 360 357 354 354 351 352 352 352 351 351 350 350 350 351 351 351 350 350 350 349 348 349
340 341 343 344 346 347 349 351 353 352 353 354 356 358 356 358 359 359 361 364 365 365 367 368 369 369 369 369 370 371 371 370 370 369 368 367 366 365 364 363 362 361 360 357 356 354 354 353 352 351 349 350 350 351 350 352 351 351 349 349 348 347 347
339 341 342 344 345 346 350 351 352 353 355 354 355 355 356 358 360 360 362 363 365 365 367 369 369 368 369 370 369 370 371 371 370 369 367 365 366 365 365 365 364 361 360 359 357 355 355 353 353 351 350 350 350 351 351 351 351 350 350 350 347 346 346
339 340 342 345 348 350 350 351 352 352 353 354 355 355 357 359 361 361 362 363 364 365 365 367 368 368 369 369 370 370 370 371 370 369 367 366 367 367 365 365 364 362 359 358 357 355 353 352 351 350 350 351 350 350 350 349 349 350 350 349 346 346 347
339 340 341 343 345 348 350 350 351 353 352 353 356 358 359 359 360 361 362 363 363 364 365 366 367 368 369 370 368 369 370 371 370 369 368 367 368 367 364 362 362 361 359 358 357 354 352 351 349 349 349 350 349 349 349 349 348 349 349 348 346 346 345
338 340 341 341 343 346 349 350 351 351 352 352 354 357 357 357 358 358 360 363 363 364 366 367 368 368 368 369 368 369 370 371 371 371 369 368 367 365 363 363 361 360 357 357 354 353 351 349 347 348 348 347 346 345 346 347 347 347 348 348 346 346 345
339 342 341 342 344 345 347 349 350 351 353 353 355 357 356 355 356 357 358 360 361 363 364 364 366 367 368 368 369 369 370 369 370 370 368 367 364 362 363 363 362 359 358 356 352 350 348 347 348 349 349 348 347 344 345 346 346 347 347 347 347 346 345
342 343 344 344 344 345 346 349 350 351 353 354 353 354 354 355 356 356 357 358 360 360 361 361 364 367 368 368 368 368 369 369 370 369 366 364 363 361 361 362 360 359 357 355 353 350 347 346 347 349 349 346 346 346 345 346 347 345 346 345 344 344 343
342 345 344 343 344 343 345 349 350 350 353 354 354 355 356 356 355 356 357 358 360 359 360 361 363 366 369 368 369 368 369 369 368 366 364 361 360 358 359 360 360 358 355 353 351 350 347 347 348 350 348 345 346 346 344 345 345 345 344 343 343 342 342
343 345 346 344 345 342 345 349 351 352 353 354 355 356 356 356 357 357 357 357 359 359 360 361 362 365 368 368 367 368 370 368 367 363 360 357 358 357 359 358 358 356 355 351 349 347 348 349 349 350 349 345 343 342 342 344 344 344 344 344 343 343 342
341 346 347 345 345 345 347 348 351 352 354 356 356 356 358 358 357 357 358 357 357 359 360 362 363 364 367 367 366 367 368 366 364 361 358 357 356 357 357 357 356 356 354 351 348 348 349 349 350 349 347 342 342 342 343 344 344 345 343 344 345 344 343
345 346 346 345 345 345 346 351 353 354 356 357 357 357 359 359 358 357 358 359 359 359 361 361 362 363 365 366 365 366 366 365 362 359 358 357 356 357 358 357 357 354 353 350 347 348 347 349 346 345 344 343 343 342 343 344 345 345 345 343 343 343 343
344 344 346 344 346 347 350 353 354 356 358 358 357 358 359 359 358 358 360 361 360 361 362 364 364 365 366 367 365 364 364 364 360 359 358 357 358 358 357 356 353 352 350 347 345 345 342 342 344 344 343 343 344 344 344 345 345 345 345 345 344 343 344
345 343 344 345 347 348 350 354 356 357 359 358 357 359 359 359 359 360 361 361 361 361 361 362 365 366 367 367 365 364 364 363 360 360 359 357 359 358 357 356 354 353 350 346 344 340 340 341 341 343 344 344 344 344 344 345 345 348 347 345 344 345 344
340 339 343 343 348 349 351 352 356 357 357 357 358 359 359 359 360 362 363 363 363 361 362 366 367 367 367 367 365 364 366 364 361 360 359 357 358 358 357 354 354 352 349 348 345 342 342 341 344 344 343 344 344 343 345 345 344 344 345 344 344 344 342
339 339 340 343 347 348 351 353 356 356 357 358 357 358 358 358 361 361 361 362 362 363 364 366 367 367 367 366 364 364 365 362 361 358 356 356 356 357 356 354 353 352 351 349 346 343 341 341 344 343 342 342 343 344 345 344 344 341 335 337 342 342 342
340 339 340 345 349 349 351 352 355 356 356 356 356 358 358 360 361 362 361 362 363 364 365 366 367 368 366 364 363 363 363 362 361 359 355 355 355 357 356 353 352 352 350 348 347 345 346 344 343 340 340 338 340 343 344 343 342 333 328 329 331 339 341
340 342 341 344 347 349 350 350 354 355 355 356 358 360 360 361 362 361 360 362 363 364 364 365 366 366 366 364 364 362 362 360 359 356 354 354 354 355 355 353 352 351 350 346 344 344 342 342 343 341 338 336 340 343 343 343 336 327 327 328 328 331 341
341 343 344 346 348 349 349 349 353 355 355 357 358 359 361 363 361 362 362 363 364 366 364 363 364 366 366 365 364 363 360 358 356 355 355 354 353 355 354 353 351 350 348 345 345 346 344 342 342 342 342 343 344 342 341 342 331 325 325 326 326 326 332
341 342 344 345 348 349 350 351 352 354 355 359 360 361 361 363 362 363 363 364 365 365 365 365 365 366 366 366 363 361 361 357 354 354 353 353 353 353 351 351 349 349 348 346 346 344 342 341 341 343 343 343 343 342 341 341 330 324 323 323 323 324 329
343 344 345 346 349 348 352 352 352 355 356 357 359 360 360 360 362 363 363 364 364 365 364 365 364 364 365 364 362 360 358 356 354 354 353 352 352 352 351 349 349 348 346 344 342 340 340 339 341 342 343 342 342 342 341 339 326 322 321 320 320 322 327
342 341 343 346 349 349 350 349 352 353 356 358 358 357 358 359 360 361 362 364 363 363 364 364 363 363 364 363 361 359 359 356 354 354 353 351 351 349 349 349 348 347 346 344 342 340 343 342 338 341 340 341 342 339 339 336 323 321 320 319 319 322 336
338 341 342 345 346 347 353 354 355 356 358 356 355 353 353 355 357 361 361 361 360 363 362 362 361 362 363 360 360 357 357 355 353 352 352 351 349 348 348 349 347 346 344 340 339 336 335 334 335 342 339 336 338 340 339 336 328 319 319 319 318 323 338
338 340 341 346 352 353 354 353 353 356 352 353 352 353 355 356 358 360 361 359 360 361 360 360 360 361 362 361 360 358 356 355 353 351 351 350 348 348 348 348 347 342 338 335 333 332 334 336 338 340 336 333 336 338 339 337 330 317 317 317 316 326 339
341 343 347 347 347 347 348 351 353 353 355 355 353 355 357 358 360 360 359 358 357 357 358 358 360 360 361 361 360 357 355 354 353 352 350 349 348 347 348 348 345 338 334 332 331 331 334 334 338 338 336 337 337 339 338 337 333 317 316 314 315 326 340
341 342 344 348 349 353 358 359 357 354 354 355 358 360 360 360 359 359 356 355 357 356 357 358 360 361 363 362 359 356 354 353 352 352 350 350 349 349 349 347 341 336 333 332 330 329 331 335 337 336 338 338 339 338 339 339 340 341 314 313 313 319 340
348 348 346 347 351 354 358 356 354 353 355 360 359 357 358 357 357 357 359 359 357 357 357 360 362 362 361 361 357 354 354 353 352 350 349 350 349 349 348 342 337 335 335 333 331 331 332 337 337 337 339 338 337 338 340 342 343 345 312 312 312 316 326
345 347 350 352 352 351 351 354 359 359 358 360 358 357 358 359 359 359 360 358 357 358 359 361 362 362 361 359 356 353 352 351 350 349 349 350 349 347 342 339 337 336 336 335 336 336 337 338 338 337 336 337 340 343 343 344 340 343 317 312 310 312 317
348 348 349 352 354 354 352 352 352 353 355 356 359 360 361 362 360 359 358 357 359 360 361 360 360 360 359 357 354 351 351 351 349 348 348 349 348 344 339 337 337 338 338 339 339 339 339 338 339 338 339 343 344 348 347 344 342 331 336 312 309 308 312
346 347 347 347 350 352 353 354 354 354 356 357 360 361 361 360 356 357 358 359 361 360 359 359 358 357 354 353 351 351 351 350 348 347 347 347 347 343 339 337 338 339 341 340 339 338 337 338 338 338 339 341 342 341 341 341 340 332 329 321 310 306 307
349 349 349 350 351 354 355 354 354 353 354 356 358 359 359 359 357 358 358 357 358 357 356 356 355 353 351 350 349 350 350 348 347 347 346 345 344 342 338 338 340 340 341 340 339 338 336 335 337 337 339 338 338 339 338 338 338 336 324 318 313 307 305
351 352 354 356 358 357 356 356 356 354 352 353 355 355 358 359 359 358 356 355 355 356 356 353 351 350 348 348 347 347 348 347 345 345 344 344 343 342 340 339 340 339 339 338 338 338 337 336 336 336 335 335 338 338 336 337 336 333 325 322 317 313 308
346 349 352 354 356 355 354 353 349 348 349 349 351 352 352 355 357 356 354 353 353 353 354 351 349 347 347 347 346 347 347 346 343 342 342 343 342 341 340 339 340 340 339 339 337 336 336 337 336 336 335 339 339 338 337 335 333 333 330 328 327 327 320
345 346 348 351 351 351 351 350 349 348 347 346 348 350 350 351 352 352 351 350 350 352 352 349 348 346 346 346 345 345 344 344 343 342 341 340 339 338 339 341 341 339 338 337 338 336 336 336 335 335 335 336 337 335 335 333 331 332 333 334 331 332 331
346 347 348 348 350 351 349 349 347 346 345 346 349 350 351 351 350 351 352 351 352 351 350 348 345 347 347 346 345 344 344 343 342 340 340 340 341 324 315 315 329 338 339 342 342 340 338 337 336 336 337 336 336 333 331 331 331 334 323 337 314 334 332
345 345 345 347 347 349 349 349 349 347 347 348 351 351 350 350 350 350 349 350 349 349 347 346 344 344 343 343 342 341 341 341 341 342 340 339 329 323 315 305 296 299 318 327 312 308 308 318 338 337 339 338 337 334 333 333 336 308 301 301 299 294 295
342 342 343 345 345 346 347 348 348 348 348 349 350 350 349 348 347 348 346 348 348 347 346 345 342 341 340 340 339 339 340 340 340 341 341 338 333 329 325 322 313 297 294 299 304 301 300 303 303 308 322 336 328 315 305 307 303 299 298 296 294 293 293
342 342 342 343 345 347 347 347 347 347 346 348 349 347 348 345 346 347 345 347 346 346 346 344 342 340 339 339 339 341 341 342 341 339 337 338 337 332 327 323 320 313 298 293 296 297 295 295 298 300 304 311 318 318 319 304 297 297 296 295 294 294 293

ECMWFFLT1_sfc_thetae_033.txt.gz
Theta_e
341 338 337 342 348 346 346 349 351 349 350 352 354 355 353 354 357 361 362 366 368 370 372 373 371 370 370 370 370 369 369 367 367 366 366 365 364 363 361 359 359 359 356 353 355 354 356 355 353 352 354 352 350 350 352 352 350 348 347 348 347 347 347
338 336 336 341 346 348 348 349 351 350 350 352 353 356 354 355 357 359 361 366 369 370 372 373 373 372 372 371 371 371 370 369 368 367 367 367 366 365 363 363 360 360 360 358 357 357 356 353 352 352 351 351 349 351 350 351 351 349 347 347 347 347 346
334 339 340 343 347 348 350 349 351 352 352 351 353 353 354 358 359 360 362 364 368 370 373 373 373 372 372 373 371 372 371 370 368 368 367 364 365 363 365 364 362 360 360 360 359 355 355 355 354 352 351 350 348 350 350 351 351 349 349 348 346 345 345
332 335 342 346 349 352 352 351 351 352 352 353 353 356 358 361 361 361 362 366 368 370 370 373 373 372 373 372 371 371 371 371 369 368 367 366 365 366 364 364 364 362 360 359 357 354 353 354 353 352 351 351 350 351 350 349 348 350 349 348 347 346 345
336 340 342 345 346 349 351 351 352 353 352 354 356 361 361 360 362 362 363 367 368 369 370 372 371 372 373 374 372 371 371 372 370 369 369 367 368 367 365 362 362 361 359 360 358 356 355 353 353 351 350 351 351 350 349 349 348 348 348 347 346 345 344
333 338 340 344 346 348 350 352 353 353 353 353 356 359 360 361 361 361 362 366 367 368 371 372 372 372 372 372 371 370 372 373 373 372 370 369 368 365 365 365 362 363 359 360 357 355 354 353 352 351 348 347 347 346 347 347 346 347 349 348 347 345 342
331 335 340 345 347 348 349 352 353 354 354 354 356 360 360 359 360 359 360 363 364 367 367 368 369 371 372 372 372 372 372 371 372 371 370 369 368 367 367 367 366 363 361 362 358 356 354 352 350 350 349 348 348 347 346 348 348 348 349 349 347 348 347
330 332 343 346 346 348 349 352 353 354 355 354 353 357 358 358 358 357 358 360 363 363 364 364 367 371 372 373 372 371 371 372 372 371 371 369 369 368 367 367 365 365 364 360 359 358 355 353 348 349 349 348 348 348 346 350 350 346 347 346 345 346 344
331 340 345 344 346 345 349 352 353 354 356 356 355 357 357 357 355 356 357 359 362 361 363 362 365 369 373 371 372 371 372 371 372 372 370 369 368 366 365 364 364 364 362 359 358 359 356 351 348 349 349 349 349 347 348 348 348 347 346 346 345 345 343
343 348 349 346 346 344 348 351 355 358 357 358 358 360 358 357 357 356 356 357 360 360 361 361 364 367 371 371 371 372 372 371 371 370 368 366 367 365 364 362 362 363 362 359 357 357 355 352 348 348 350 348 349 347 344 346 347 346 346 345 344 344 343
334 345 352 348 347 347 349 350 354 359 360 362 362 358 361 359 357 356 357 358 358 359 361 361 363 366 370 370 368 369 371 370 369 369 368 367 365 365 362 360 360 362 360 359 358 357 353 351 348 349 350 347 346 346 346 346 345 345 343 343 344 344 343
346 349 353 351 350 349 348 356 359 362 363 364 359 358 363 363 359 358 359 359 358 359 361 361 362 364 368 369 367 368 369 370 368 368 369 368 365 363 362 359 361 361 361 362 358 356 352 348 346 349 350 348 348 347 346 345 345 346 344 342 344 345 343
348 352 354 350 350 350 355 359 359 359 362 360 358 360 361 359 359 359 362 361 358 360 361 364 364 369 369 369 367 367 369 369 369 369 369 369 366 364 361 360 360 360 359 359 358 355 350 347 348 351 350 347 345 344 344 343 345 346 346 344 344 344 343
354 352 353 351 350 350 351 355 359 359 360 360 359 361 361 362 360 361 362 361 360 360 361 363 366 370 370 369 368 369 369 370 370 371 370 369 368 365 362 362 362 362 361 359 355 353 350 347 348 350 349 344 343 343 343 345 346 347 346 345 345 343 341
347 349 350 348 350 352 353 353 359 360 360 361 360 360 362 361 362 364 364 363 364 360 362 367 370 368 368 370 369 370 371 372 372 372 370 368 367 365 364 363 363 363 362 360 357 354 351 349 349 347 344 344 343 344 344 345 344 344 345 343 343 342 343
343 344 347 348 351 351 355 356 360 362 362 362 360 361 361 363 363 362 363 363 361 365 367 369 369 368 369 369 370 371 373 373 373 371 370 368 366 366 365 364 364 362 362 360 357 355 352 351 345 344 341 342 342 343 343 344 343 341 335 339 344 344 343
328 330 333 344 354 353 356 357 361 363 361 361 361 362 363 364 365 364 362 364 364 367 368 367 369 368 368 369 371 373 373 372 372 370 368 367 366 367 365 364 363 363 362 360 359 356 353 348 344 342 339 341 342 344 344 343 344 332 330 332 336 343 344
326 330 330 333 343 355 357 357 361 362 361 361 361 363 364 365 364 364 364 365 365 363 365 368 368 368 369 372 373 372 372 371 371 369 367 365 364 363 363 363 362 362 362 359 357 355 351 345 344 341 342 343 340 339 339 339 336 327 329 330 331 338 343
326 327 330 340 345 355 356 356 359 363 363 364 362 362 364 366 364 365 365 367 368 368 366 368 369 370 371 372 373 372 371 371 369 367 366 364 363 363 360 360 360 359 358 356 356 354 349 347 345 343 339 339 341 338 338 343 331 326 326 328 327 328 336
326 327 327 328 336 340 357 358 358 362 363 365 365 364 365 368 366 367 368 369 370 368 369 369 370 371 372 372 371 371 370 368 366 366 364 364 363 361 361 359 359 358 357 356 356 351 345 344 340 338 342 341 340 340 340 345 328 324 323 324 324 325 331
330 331 331 337 345 339 353 360 360 363 363 363 363 364 364 366 368 368 369 370 369 369 369 369 370 372 372 371 371 370 369 367 365 363 364 363 361 360 359 358 358 358 358 356 354 351 347 343 342 341 341 341 341 339 338 343 323 322 321 321 320 323 328
327 327 327 334 347 354 359 358 359 361 362 362 362 363 365 365 367 367 369 370 369 368 368 369 370 371 372 370 370 369 367 366 364 361 362 360 359 358 357 357 358 356 357 356 353 351 347 343 339 337 341 342 339 340 341 340 321 321 320 319 320 322 337
325 326 328 342 341 353 364 362 362 363 364 363 364 363 364 366 367 368 368 368 368 368 368 369 368 370 371 369 370 369 368 366 363 360 360 359 357 356 355 355 355 356 357 354 352 349 347 344 340 345 345 344 344 338 338 339 325 319 318 318 319 324 339
331 333 336 342 354 358 365 363 363 364 361 363 363 363 366 366 368 368 368 367 368 368 368 367 368 370 371 370 370 369 368 366 363 359 358 359 357 355 353 354 355 355 355 351 349 347 347 346 343 345 344 341 337 334 335 333 329 316 316 316 317 327 337
330 330 338 348 352 357 359 360 361 361 363 365 362 363 366 367 368 367 366 366 365 365 365 365 366 367 369 369 369 368 366 363 361 359 356 355 355 354 353 354 354 354 353 350 350 348 347 344 342 342 341 336 333 333 329 329 333 314 316 315 315 328 340
336 332 337 347 350 357 360 361 362 362 362 360 363 365 366 365 367 366 364 361 362 361 362 364 365 369 370 370 368 367 364 362 361 358 355 354 355 355 355 355 353 352 348 348 346 342 342 340 337 338 339 337 336 334 330 332 338 327 315 314 313 320 340
339 337 342 348 352 357 360 362 362 360 361 362 362 360 362 365 364 362 361 362 362 361 363 366 369 369 370 368 367 365 362 360 359 356 354 355 354 355 352 351 351 348 346 345 342 339 337 335 335 336 337 337 336 334 333 333 336 337 313 312 312 316 326
342 347 352 352 356 356 358 357 358 357 355 358 358 360 363 365 363 360 362 361 361 364 365 368 369 370 369 366 364 362 359 358 358 356 354 355 356 354 352 352 352 349 345 344 342 336 335 334 335 335 336 338 337 335 336 338 339 350 317 313 311 312 316
348 347 347 352 353 356 355 354 353 354 359 359 361 364 364 364 361 362 361 361 363 365 367 368 368 367 365 363 362 359 358 357 355 353 354 354 354 353 351 350 348 347 345 342 338 334 332 332 333 335 336 338 339 340 340 344 344 332 329 311 310 309 312
350 353 358 357 356 355 353 356 359 358 358 359 362 363 365 365 361 361 362 362 365 366 366 366 364 364 362 360 360 358 357 355 353 353 353 352 353 353 350 346 345 344 342 339 336 334 333 333 333 335 336 336 336 337 338 346 344 332 328 322 311 309 308
352 351 350 349 350 356 358 358 359 359 360 362 364 364 364 363 362 362 361 363 365 363 363 362 360 358 357 358 358 356 355 353 352 351 351 351 351 349 347 346 345 342 341 339 338 337 336 336 336 337 337 336 336 338 341 340 341 337 325 318 313 309 307
354 356 356 356 358 358 359 358 358 358 358 359 360 362 364 365 364 361 360 362 361 363 361 358 357 356 356 356 355 354 353 351 350 351 350 351 351 348 347 345 342 340 339 339 339 339 339 338 336 336 336 335 339 337 336 338 339 335 329 322 318 315 310
351 353 354 354 355 354 354 353 352 354 356 357 359 358 359 360 359 360 361 361 360 360 359 358 356 355 354 354 353 353 351 349 348 347 348 348 347 347 345 343 341 341 340 340 339 340 339 338 337 335 335 335 335 338 339 341 339 335 332 332 330 330 322
353 352 352 353 354 354 354 353 353 354 354 354 358 359 357 356 357 358 358 356 356 356 356 354 353 352 352 350 350 349 348 347 347 347 345 345 344 343 344 343 343 342 342 341 341 340 338 338 336 336 335 334 337 339 336 335 337 335 333 331 330 328 327
351 352 352 353 354 355 354 355 353 354 353 353 355 355 355 355 355 355 357 357 357 355 353 350 349 350 350 349 347 345 347 347 348 345 345 340 327 320 316 319 331 342 345 342 343 345 340 339 336 337 336 335 336 336 335 335 335 336 324 334 321 328 329
346 348 349 351 350 352 352 353 352 350 349 351 353 353 353 353 353 354 354 355 354 354 351 349 348 348 346 345 344 344 343 344 344 344 343 334 327 323 317 305 297 305 333 336 316 306 302 319 337 337 338 336 341 341 337 336 338 313 306 300 297 298 299
343 343 345 348 349 349 350 352 352 352 352 351 351 351 351 351 350 351 351 354 354 353 352 350 347 345 344 344 342 341 342 342 342 343 344 335 330 329 327 325 318 297 294 302 304 301 298 299 312 319 325 339 339 322 306 309 303 300 299 297 296 295 296
343 344 344 346 347 347 347 348 349 349 349 351 350 349 349 347 349 351 350 353 353 354 353 352 348 346 344 342 341 344 346 344 344 345 341 335 333 331 329 326 324 321 302 295 298 299 296 297 297 302 306 313 322 321 319 305 301 299 298 297 296 295 294

ECMWFFLT1_sfc_thetae_036.txt.gz
Theta_e
337 338 339 340 343 343 344 348 348 347 350 353 354 355 355 357 358 360 361 365 366 368 369 368 367 367 367 367 369 369 368 368 368 367 367 367 366 365 364 363 361 361 358 357 355 358 358 361 358 356 355 355 353 354 353 355 353 353 352 351 352 350 347
336 337 336 337 341 343 343 345 349 350 350 353 354 355 354 356 358 359 361 365 367 368 369 368 367 368 367 368 368 369 368 368 368 368 368 368 368 368 365 364 362 361 361 357 358 360 357 359 357 356 354 353 352 354 352 353 352 352 349 349 351 352 349
333 333 335 336 338 342 345 346 349 347 350 352 353 354 354 356 358 360 361 364 367 369 369 368 368 367 369 369 368 368 368 368 368 367 366 366 367 364 365 366 363 361 361 360 360 357 358 356 357 356 354 351 350 352 352 351 352 351 351 348 350 350 351
334 337 337 339 342 346 345 344 345 351 351 351 351 352 355 358 358 360 361 364 366 368 368 369 368 368 369 369 368 368 368 368 368 366 365 366 366 366 365 365 363 362 360 360 359 356 355 355 354 354 355 351 351 351 350 350 349 350 353 348 350 349 351
339 338 337 339 339 343 344 345 347 351 351 350 351 355 357 358 358 360 362 364 364 366 369 370 367 369 369 369 368 368 368 369 368 366 365 366 368 367 365 361 362 359 360 360 360 357 356 355 352 353 352 352 350 350 350 350 348 350 350 351 348 348 347
338 340 340 338 337 340 344 345 345 348 350 350 351 355 356 356 355 355 359 363 365 367 370 371 371 370 368 368 368 368 369 370 369 368 367 367 367 366 364 363 362 361 359 360 360 358 356 354 352 351 349 349 347 347 348 348 348 348 349 351 350 346 345
336 338 339 340 341 341 343 344 343 347 351 352 352 355 356 354 353 353 355 359 362 366 367 369 370 370 368 369 369 369 369 369 369 368 368 368 367 366 365 365 364 362 361 362 359 357 355 353 352 351 350 348 347 347 346 348 348 347 349 348 347 349 346
333 333 340 340 341 340 343 348 350 350 351 353 351 351 353 354 353 352 353 355 359 363 366 367 369 370 368 370 370 369 369 369 369 368 367 366 366 366 366 365 364 364 363 361 361 358 354 353 353 351 350 347 348 348 348 349 349 348 347 347 346 345 345
333 338 342 340 340 340 343 347 351 351 352 353 352 353 353 353 352 352 353 355 359 362 365 367 369 370 370 370 369 369 369 370 369 368 367 365 365 363 363 365 366 366 363 361 360 358 355 353 352 352 350 347 348 349 348 349 347 347 347 347 346 343 344
334 338 342 341 339 337 342 346 351 354 355 354 354 354 354 355 354 353 355 356 358 361 365 366 368 369 370 369 369 369 369 369 370 367 364 362 364 362 362 362 365 365 364 361 360 357 356 355 353 352 350 347 347 349 347 348 347 347 347 347 345 343 343
336 341 341 340 342 343 346 345 349 354 356 355 355 356 357 358 358 356 356 356 357 360 364 364 366 367 368 368 365 366 368 368 368 367 366 364 364 363 362 362 364 364 363 361 359 358 356 355 353 351 350 347 347 347 346 346 348 347 345 346 345 344 344
339 341 344 344 349 348 346 347 351 357 360 359 357 357 359 359 359 358 358 357 358 359 361 362 363 366 368 368 367 367 368 367 366 366 366 365 364 363 363 362 364 364 363 362 359 359 356 355 351 350 348 348 349 347 346 346 347 347 345 345 345 345 345
348 346 350 349 351 349 350 357 358 357 361 360 358 358 360 359 359 358 359 357 357 359 360 362 361 365 369 368 364 367 368 367 366 367 367 366 365 365 364 362 363 362 361 361 359 357 356 355 351 349 349 348 350 347 346 346 347 346 345 344 343 344 344
356 350 352 355 356 357 355 362 362 360 361 362 360 359 360 360 359 358 358 356 355 358 359 361 362 365 369 368 366 366 367 368 366 367 368 368 367 366 365 363 362 363 362 361 359 356 356 354 351 349 348 348 349 348 346 345 346 346 345 343 342 343 344
351 349 352 352 355 357 358 361 365 364 363 364 362 359 360 360 360 360 361 359 356 355 358 362 363 365 367 368 367 367 369 370 369 368 369 369 368 367 367 366 364 364 363 361 359 358 356 355 351 348 348 349 349 347 346 345 345 345 344 341 341 343 344
338 341 349 350 354 356 359 362 367 366 366 366 363 361 360 360 361 360 360 360 358 358 360 364 363 365 367 368 368 369 371 371 370 369 369 369 369 368 367 366 365 363 363 362 360 359 358 355 350 347 348 349 347 346 346 345 345 340 334 337 341 342 343
331 331 345 353 357 356 358 360 365 366 365 365 363 363 361 362 363 362 359 362 360 361 363 365 365 365 367 367 369 371 372 372 371 371 370 370 370 370 368 366 365 364 365 364 362 360 359 357 349 347 348 348 346 344 344 343 342 330 330 331 336 342 343
328 330 336 348 354 352 355 357 361 363 363 363 364 365 363 365 365 363 360 362 361 361 366 366 365 365 367 369 371 372 372 372 372 371 371 371 370 370 369 367 366 365 365 365 363 361 360 357 351 349 350 348 344 341 341 341 335 326 329 331 331 338 342
330 337 339 348 353 354 354 353 357 362 361 362 363 364 364 366 365 364 363 364 364 364 366 366 365 367 368 370 372 372 373 373 372 372 372 371 371 370 369 367 366 366 365 363 364 363 359 355 353 350 349 346 343 341 340 341 331 325 327 328 329 331 339
328 329 333 347 353 356 355 356 358 362 363 364 365 364 364 365 366 366 367 368 368 365 367 368 368 368 368 372 373 373 374 374 373 372 371 371 370 369 367 366 364 363 362 362 363 362 359 355 352 349 346 344 342 341 341 341 328 324 324 325 326 329 336
339 347 342 341 355 353 358 361 363 367 366 366 365 365 364 366 367 369 368 369 367 366 367 368 369 369 370 372 373 374 374 374 372 370 370 369 368 367 365 364 363 362 361 360 360 361 358 355 350 346 344 343 342 340 336 338 324 321 322 322 323 326 333
326 327 329 335 345 362 362 361 363 364 367 365 366 363 363 365 365 368 368 370 368 365 367 370 370 370 371 372 373 373 373 372 371 369 368 367 366 364 363 362 362 361 362 360 360 359 355 351 348 344 342 341 340 337 335 339 321 321 321 321 322 324 337
323 327 328 334 333 343 365 365 364 366 369 368 365 363 363 364 365 367 368 367 366 366 368 370 370 370 370 371 372 372 373 372 370 368 367 366 363 362 361 361 360 361 363 359 358 354 349 347 344 342 340 339 339 338 336 342 323 319 318 319 320 324 336
323 325 328 329 332 332 365 367 366 368 368 368 366 364 365 366 367 368 367 366 366 365 367 369 370 371 372 372 372 372 372 371 369 367 366 364 362 361 360 360 360 361 362 358 356 353 349 346 344 342 341 340 339 338 338 341 324 315 315 317 317 326 334
323 324 326 329 333 331 343 365 364 368 368 367 364 365 367 367 368 368 367 367 364 363 364 366 369 371 371 372 373 372 371 369 367 365 363 362 360 359 359 358 358 359 359 357 357 354 353 348 344 342 341 340 340 337 338 340 327 314 316 315 315 326 336
339 331 329 333 335 370 377 371 369 367 365 365 365 366 369 368 369 367 367 364 363 363 365 367 370 372 373 373 373 371 369 367 364 363 360 358 359 359 359 357 356 357 356 355 355 353 351 348 345 342 342 342 342 341 338 339 336 324 314 313 313 320 337
340 338 339 332 334 362 369 368 368 365 363 365 368 366 367 367 367 367 367 367 365 365 366 370 373 373 373 372 369 368 366 365 363 361 359 359 358 358 356 355 355 355 355 353 352 350 350 348 346 345 343 342 337 336 338 339 340 330 313 312 313 316 325
343 344 335 335 350 362 365 361 366 365 362 370 368 365 366 369 368 367 368 367 366 368 369 372 373 372 371 369 366 365 364 363 363 361 359 359 358 357 356 357 357 354 353 351 347 344 343 343 342 341 340 338 335 333 333 331 329 337 316 313 311 313 316
350 346 350 363 363 361 359 359 361 359 361 363 364 367 369 369 367 366 366 366 368 370 371 371 371 370 368 366 365 363 362 361 359 358 357 357 357 356 355 355 355 352 352 349 346 342 340 340 339 338 337 337 337 334 331 330 329 324 328 314 311 310 313
351 350 348 356 358 358 357 361 363 363 366 364 366 368 369 368 364 363 364 366 369 370 369 369 368 368 366 362 361 359 358 357 357 357 357 357 356 356 355 353 354 351 349 349 344 340 340 339 338 335 334 334 334 336 336 334 333 327 324 322 312 310 310
350 349 352 358 355 360 361 362 363 363 363 366 368 369 368 367 363 363 364 367 368 367 366 366 365 363 360 359 357 356 355 355 355 355 356 356 354 354 353 351 350 347 346 344 340 339 338 337 336 334 333 333 333 335 337 346 341 335 326 320 314 311 309
347 353 356 356 359 363 361 362 362 361 362 364 366 365 365 367 366 362 363 366 366 367 365 363 361 359 358 357 356 354 354 352 351 352 352 353 354 354 352 348 346 344 343 341 339 339 337 336 334 334 334 334 335 337 340 341 339 333 327 322 318 315 311
338 337 338 345 358 362 361 360 357 358 359 360 364 365 365 363 363 363 364 363 363 363 363 360 359 357 356 355 354 354 352 350 348 348 349 351 351 352 351 349 347 345 342 341 339 338 338 336 336 335 334 334 337 340 339 339 336 334 330 329 326 324 317
335 339 339 338 340 341 345 347 353 353 355 355 359 360 360 360 359 360 361 359 359 359 359 357 356 355 354 353 353 352 352 350 350 347 345 346 347 347 347 347 346 343 342 340 339 338 338 338 337 336 335 335 337 338 337 337 335 333 332 331 331 329 326
335 336 336 336 337 341 339 340 340 341 344 348 354 356 357 357 357 358 359 359 360 360 357 355 355 354 353 352 350 349 350 348 348 347 344 335 327 318 315 319 333 342 346 344 334 339 343 341 340 339 338 337 336 336 336 336 334 335 325 333 323 329 330
336 336 337 339 340 344 344 341 345 346 347 353 355 355 355 356 357 358 357 358 357 356 354 352 350 349 346 346 345 344 345 346 344 344 340 335 328 322 314 305 300 306 321 326 312 306 299 307 339 342 340 342 342 342 337 336 337 316 310 309 309 306 308
334 335 335 337 340 340 343 345 348 349 349 350 352 353 354 354 353 353 353 354 355 353 352 351 349 346 344 344 342 341 344 344 343 342 340 336 334 331 325 321 313 297 297 302 303 299 297 297 299 315 324 335 333 321 311 311 307 305 304 302 300 298 298
338 339 340 343 345 345 346 346 346 347 348 350 350 349 351 349 351 354 352 353 352 353 354 352 350 346 343 343 344 343 346 345 345 340 338 337 336 335 333 330 325 319 302 297 299 299 297 297 299 302 306 311 316 317 316 307 301 299 298 297 296 296 296

ECMWFFLT1_sfc_thetae_039.txt.gz
Theta_e
331 331 332 335 335 336 337 339 340 340 342 345 346 347 349 350 351 354 355 357 357 357 358 358 359 359 359 358 359 360 360 360 360 359 357 357 356 355 354 353 354 352 352 351 350 351 349 350 348 345 345 345 343 344 342 342 341 347 343 344 343 342 340
330 331 332 334 335 336 338 339 340 341 342 344 347 348 349 350 352 353 355 358 358 358 358 359 359 359 359 360 360 360 359 360 360 360 359 357 357 357 357 355 355 353 352 350 350 350 349 349 348 345 343 346 344 344 344 343 341 343 341 343 342 340 340
330 330 332 334 335 335 339 340 340 341 343 344 347 348 349 351 352 353 355 357 358 359 360 359 359 359 360 360 360 360 360 360 360 359 359 358 357 357 358 356 355 354 353 351 351 349 351 349 347 345 343 343 344 343 344 344 343 343 340 341 342 340 338
330 331 333 334 336 337 339 341 341 341 342 345 347 349 349 351 352 353 356 358 358 359 359 360 360 359 359 359 360 360 360 360 360 360 360 360 359 359 358 356 355 354 352 349 351 350 351 350 347 346 349 342 344 343 343 344 343 342 341 339 339 341 339
331 333 333 333 333 335 338 341 342 342 342 344 347 349 350 351 353 353 355 358 359 359 361 361 361 360 360 360 361 362 360 359 360 360 360 361 360 360 358 356 355 353 352 350 350 350 348 349 347 346 345 342 344 344 343 343 343 343 341 339 338 340 339
330 331 332 333 333 335 338 340 343 344 343 343 346 348 350 351 353 353 354 357 359 361 362 362 361 361 359 360 361 361 361 360 360 360 360 360 360 359 358 356 355 353 353 350 350 350 348 348 347 346 344 342 343 344 344 342 342 342 342 339 339 339 339
329 331 332 333 333 334 336 339 341 344 345 345 347 349 350 351 352 352 354 355 358 359 360 361 361 361 360 361 360 360 360 359 359 360 360 360 360 359 358 357 355 354 354 352 350 349 348 347 346 346 345 342 343 343 343 342 341 342 342 339 338 339 338
329 330 331 332 333 334 335 338 339 342 344 345 346 349 349 350 351 352 352 354 357 359 360 361 362 361 360 361 361 360 360 360 360 360 360 359 360 359 358 357 356 355 354 352 351 349 348 347 346 346 345 343 342 342 342 343 341 341 340 342 339 338 340
329 330 331 332 333 334 335 337 339 340 342 343 345 347 349 349 350 351 352 353 356 358 360 362 362 362 361 361 360 360 360 360 360 360 359 358 359 359 359 358 357 356 354 353 352 350 349 347 346 345 345 343 342 341 342 342 342 342 340 341 340 338 339
328 329 331 333 333 334 335 338 339 338 340 343 344 345 347 349 350 351 351 353 354 356 359 361 363 363 362 361 360 361 360 360 360 360 359 358 358 359 359 359 358 357 355 354 353 351 349 348 346 345 344 343 342 341 341 342 342 341 340 340 340 339 338
330 330 331 332 333 333 335 337 338 338 340 342 345 346 348 349 349 350 350 351 353 355 359 361 363 363 362 361 360 360 360 359 360 359 359 358 358 359 360 359 359 358 356 355 354 353 350 348 347 345 344 343 342 341 341 341 341 341 340 340 341 339 338
331 332 333 333 334 333 334 336 338 339 341 345 346 346 347 348 349 350 350 350 352 354 357 360 362 364 363 362 360 359 359 359 359 359 359 358 358 359 359 359 359 358 358 356 355 353 351 348 347 346 344 343 342 342 342 342 341 341 340 340 341 339 338
330 331 332 333 333 334 336 337 339 341 343 346 346 347 348 349 349 350 349 349 351 353 356 359 361 363 363 362 360 359 359 359 359 359 359 359 358 359 359 358 359 359 358 358 356 354 352 349 347 347 345 344 342 342 342 342 342 341 341 340 340 340 338
335 329 332 333 333 333 335 338 341 343 346 346 347 347 348 349 350 350 349 349 350 352 355 359 361 362 363 362 360 359 359 359 360 360 360 359 358 358 358 358 358 359 359 358 356 355 353 350 348 347 347 345 343 343 343 342 341 341 340 340 341 341 339
328 330 332 331 331 333 335 336 338 341 346 348 348 347 348 349 349 350 350 350 350 352 354 359 360 361 363 362 360 359 359 360 360 360 360 359 358 358 358 357 357 358 359 358 357 356 354 352 349 347 346 345 344 343 343 342 341 342 340 340 340 340 339
329 331 332 333 334 335 337 338 339 341 344 348 348 347 349 349 349 350 350 350 351 351 354 358 359 360 361 361 360 359 359 359 359 360 360 360 358 358 358 358 357 358 358 358 357 356 354 352 350 348 346 344 343 343 343 342 342 339 332 335 340 339 339
336 334 336 340 338 339 338 339 340 342 345 349 350 349 350 351 351 351 352 352 352 352 354 357 358 358 359 360 361 360 359 359 359 359 359 360 359 359 358 358 358 357 358 358 357 356 354 353 350 348 346 344 343 343 342 342 342 330 328 330 333 338 338
340 340 341 343 345 345 346 352 351 348 347 351 352 351 351 352 352 352 352 353 352 352 354 355 356 356 357 360 361 360 359 359 359 358 358 359 359 359 358 358 358 357 357 357 356 356 354 352 350 349 346 345 343 342 343 341 334 326 327 329 330 335 338
339 341 341 342 343 345 347 352 354 353 352 352 354 353 352 353 353 352 353 353 354 353 353 354 355 355 356 359 361 361 360 360 359 358 358 358 359 359 359 358 358 356 356 356 356 355 353 352 349 347 346 344 343 342 342 341 330 326 326 328 328 329 335
327 330 339 342 343 343 344 347 353 355 354 354 355 355 355 355 355 355 355 354 354 352 352 352 354 355 355 357 360 361 361 360 360 359 358 358 359 360 359 358 358 357 357 357 355 354 353 352 348 346 345 344 343 342 342 342 328 324 324 325 326 327 332
327 331 326 331 340 343 343 344 348 353 354 354 355 356 355 355 356 356 355 355 354 353 351 352 353 354 355 356 359 361 361 361 360 360 359 359 360 361 360 359 358 357 357 357 356 354 353 352 347 345 344 345 344 343 341 342 325 322 321 322 322 325 330
322 326 333 336 342 344 344 344 346 350 353 356 356 356 355 355 356 356 356 356 356 354 352 352 353 354 355 356 358 360 361 362 361 361 361 361 361 361 360 359 357 356 356 356 356 356 355 353 350 346 344 344 344 342 340 340 322 320 320 320 321 324 333
318 321 323 333 343 345 347 347 347 349 353 355 356 356 356 356 357 357 356 356 356 355 353 353 354 355 356 356 359 361 363 363 363 362 362 362 361 360 359 358 357 356 355 354 354 354 354 352 349 346 344 343 342 340 339 338 322 318 317 318 320 323 334
315 315 318 327 337 340 346 349 349 350 353 355 355 357 357 357 357 357 356 355 356 355 354 354 355 357 357 358 360 362 364 364 364 363 362 361 360 359 359 358 357 356 356 354 352 349 349 346 343 342 342 341 340 340 337 336 322 316 315 317 318 325 334
319 317 317 318 319 334 345 350 351 352 354 355 355 357 357 357 357 357 356 355 356 356 354 355 357 359 359 360 363 365 366 366 365 363 362 360 359 359 357 356 356 355 355 353 352 347 343 342 340 339 339 340 340 336 336 335 323 313 315 316 316 325 335
327 332 334 331 323 320 330 351 352 351 354 355 356 358 357 357 357 356 356 356 356 356 355 355 358 361 362 364 366 367 366 366 363 362 361 359 358 357 356 355 354 354 354 352 351 348 344 341 340 337 336 337 337 337 336 336 330 320 314 314 314 320 335
332 333 337 342 339 348 330 341 352 353 356 358 358 358 357 357 357 355 355 356 356 355 356 357 362 364 366 367 367 366 365 365 363 361 360 359 357 356 354 354 353 354 353 352 350 348 344 341 339 338 336 336 336 336 336 338 333 324 313 312 313 317 325
344 347 343 352 352 351 350 347 350 354 357 359 359 358 358 357 356 355 356 356 355 356 358 362 365 366 367 366 365 364 363 362 361 361 359 357 355 353 352 352 352 352 351 349 346 345 343 341 339 337 336 336 336 337 337 338 330 329 314 313 312 314 319
340 342 346 347 346 348 349 349 351 354 358 360 361 360 359 358 356 355 356 356 357 359 362 366 367 367 366 364 363 361 360 359 357 357 356 354 353 352 349 349 350 350 348 344 342 341 340 340 338 337 335 333 333 334 333 336 334 325 321 312 311 311 315
340 339 340 342 343 344 343 339 338 338 340 344 353 359 360 360 357 356 356 357 360 363 365 366 367 366 363 361 360 359 357 356 355 354 353 351 350 349 348 347 348 347 344 341 340 337 336 335 335 335 333 331 330 329 329 329 331 324 319 316 311 310 311
337 337 338 337 336 338 340 341 341 341 339 339 337 336 346 358 358 355 356 360 363 363 365 365 365 362 360 359 357 355 354 353 352 351 350 350 349 347 347 346 346 344 342 340 338 337 335 333 333 333 332 331 330 329 329 330 328 327 322 317 314 311 310
336 336 337 336 335 336 337 338 338 338 337 338 338 337 336 338 345 354 360 363 363 365 365 363 360 358 356 354 353 352 351 350 349 349 349 349 348 347 346 345 344 342 339 337 336 336 335 334 332 331 331 330 331 331 332 332 329 328 326 323 318 315 312
334 335 334 333 333 334 334 335 335 335 337 337 339 340 339 342 340 340 349 363 364 364 362 359 355 352 351 351 350 350 349 348 347 347 347 347 346 345 344 342 340 338 336 336 334 333 331 332 331 330 330 330 330 331 332 334 333 330 326 324 321 318 316
332 334 336 336 336 334 334 334 334 334 335 336 338 339 341 343 344 344 346 353 360 360 357 352 351 350 350 349 348 346 346 345 351 347 344 343 344 343 342 340 339 337 336 335 334 333 332 332 331 330 330 329 330 331 334 334 331 327 325 322 320 319 317
331 331 332 334 335 336 335 335 336 336 335 335 337 338 339 340 341 345 347 353 356 356 353 349 347 348 347 346 345 343 343 343 341 334 326 318 311 306 304 310 329 336 327 319 319 334 336 333 332 332 332 332 331 331 333 333 330 328 320 325 317 320 321
331 331 332 334 333 333 334 338 338 338 337 337 338 339 340 340 340 347 349 347 350 350 346 345 346 346 345 345 344 342 342 339 335 330 326 322 319 315 312 307 298 302 322 320 312 305 302 316 334 338 336 337 332 332 335 334 332 312 309 308 308 310 312
330 330 331 334 333 332 332 333 337 335 332 332 333 336 337 338 342 345 348 349 346 345 345 345 344 343 342 342 341 340 340 337 334 330 327 324 322 321 320 318 313 299 296 302 304 300 297 299 300 310 325 332 327 316 316 314 308 306 306 306 306 307 305
327 331 333 335 335 333 333 334 333 335 333 335 337 338 339 342 344 345 346 348 348 346 344 343 342 340 340 340 340 339 338 337 334 331 329 327 325 324 321 319 317 316 302 296 298 298 295 295 300 308 311 313 315 316 318 310 303 301 300 299 299 299 299

ECMWFFLT1_sfc_thetae_042.txt.gz
Theta_e
328 329 329 330 330 331 333 334 334 335 336 338 339 339 342 344 347 350 350 350 351 351 353 353 353 354 354 354 355 355 355 354 354 353 354 353 353 351 351 350 350 351 351 351 350 351 351 352 351 351 349 347 344 343 341 341 341 340 339 339 338 338 337
328 329 329 330 331 331 332 334 335 335 337 339 339 340 342 344 346 349 350 351 351 351 353 354 354 353 354 354 355 355 354 354 355 355 355 354 354 353 353 352 351 351 351 351 350 351 350 350 350 349 348 346 342 341 339 338 340 339 338 338 338 337 337
327 329 329 330 331 331 332 333 335 336 337 339 340 341 341 343 346 348 350 351 351 352 353 354 355 354 354 354 354 354 355 355 355 355 354 354 354 354 354 353 352 351 351 351 350 350 350 349 349 347 346 344 341 340 338 337 340 340 338 339 338 337 336
328 328 330 331 331 333 333 334 335 336 337 339 341 341 342 344 346 348 350 352 351 352 352 354 355 355 355 354 354 354 354 355 356 356 356 355 354 355 354 353 352 351 350 350 350 351 350 349 347 345 349 343 341 340 338 337 338 340 339 339 337 337 337
328 329 330 331 331 332 333 334 335 336 336 339 341 343 344 345 346 348 350 352 353 352 353 354 356 356 356 356 355 355 355 355 356 357 357 356 355 355 354 352 352 351 350 350 350 350 349 348 346 343 344 342 340 340 339 338 337 339 338 339 337 337 336
327 328 329 330 331 332 333 334 335 337 337 338 340 342 344 345 347 347 349 351 353 354 354 355 355 356 355 356 356 356 356 356 357 357 357 357 355 354 354 353 352 351 350 349 350 349 349 347 346 343 341 341 340 340 340 339 338 339 337 337 337 337 336
326 328 329 329 331 333 333 334 336 337 338 339 341 344 345 346 347 348 350 351 353 353 353 354 355 356 356 357 356 356 355 355 356 356 357 357 356 355 355 354 353 352 351 350 349 348 348 347 346 343 342 340 341 339 339 339 338 339 337 336 336 337 337
327 327 329 330 331 333 334 335 336 337 339 340 341 343 344 346 347 348 349 351 353 354 354 354 355 355 356 356 357 356 356 356 357 357 357 357 357 356 355 355 353 353 352 350 349 348 347 347 346 344 342 339 340 339 339 339 339 339 338 335 335 335 337
327 329 329 330 331 332 333 335 337 338 338 339 340 343 344 346 347 348 349 351 353 354 355 356 356 357 357 356 356 356 357 357 357 357 357 356 356 356 356 355 354 353 352 350 349 349 347 347 345 344 343 340 339 340 339 339 339 339 339 336 334 334 335
326 327 329 331 332 333 333 335 336 338 338 338 340 342 344 345 347 348 349 351 353 354 355 357 357 358 357 357 356 357 357 357 358 357 357 356 356 356 357 356 355 354 352 351 350 348 347 347 345 344 343 341 340 339 339 339 339 339 339 338 336 334 334
326 328 329 330 331 331 332 333 335 338 339 338 340 342 344 345 346 347 348 350 352 354 356 357 359 358 358 357 356 356 356 357 357 356 356 356 356 356 357 357 356 355 353 351 350 348 347 346 346 344 343 342 340 339 339 340 339 338 338 338 338 336 335
327 327 328 329 330 331 330 332 335 337 339 339 340 342 344 345 346 347 348 350 352 354 356 357 359 359 358 357 356 356 356 356 357 356 356 356 356 356 357 357 356 355 354 352 350 348 347 346 345 344 343 342 341 340 340 340 340 339 338 338 338 338 336
327 327 328 329 330 331 331 331 334 336 339 340 340 342 344 345 346 347 348 349 351 353 356 357 358 358 358 357 357 356 356 356 356 357 356 356 356 356 357 357 357 356 354 353 352 349 347 346 345 345 344 343 342 340 340 340 340 340 339 338 338 338 337
333 326 327 329 329 329 329 331 333 335 337 339 340 342 343 345 346 347 347 348 350 352 354 357 357 358 358 357 356 356 356 356 357 357 357 357 357 356 356 357 357 356 355 354 352 351 349 347 345 345 344 343 342 342 341 340 339 339 339 339 337 337 337
324 325 326 327 328 328 329 330 332 334 335 337 339 340 342 344 345 346 347 348 349 351 353 356 356 357 357 357 356 356 357 357 357 357 357 357 356 356 355 356 356 356 356 354 353 352 351 349 347 345 344 343 342 342 341 340 340 340 340 339 338 337 337
325 325 325 326 327 328 329 331 333 334 335 336 338 339 341 343 344 346 346 347 348 350 352 354 355 356 357 357 357 357 357 357 357 357 357 356 356 355 355 355 356 356 355 355 354 353 352 350 348 346 344 343 342 341 341 341 341 336 330 333 339 338 338
324 326 326 326 327 328 330 331 332 334 335 335 337 339 341 343 344 346 347 347 348 349 351 353 354 355 356 356 357 358 357 357 357 357 356 356 356 356 355 355 355 355 355 355 354 354 353 351 349 347 346 344 343 341 341 341 341 329 326 329 332 338 338
323 325 326 326 327 328 329 331 332 334 335 336 338 340 341 343 344 345 346 347 347 349 351 352 353 354 355 357 358 358 357 357 356 356 356 356 355 355 355 355 354 354 354 354 354 354 354 352 350 348 347 346 344 343 342 341 333 325 325 327 329 333 339
324 325 326 328 328 329 331 332 334 335 337 339 340 342 343 344 344 345 347 347 348 349 349 351 352 353 354 356 357 358 358 357 356 356 355 355 356 356 355 354 354 353 353 353 354 354 353 352 351 349 348 346 344 343 343 342 331 325 324 326 327 329 335
327 328 329 330 331 332 333 335 336 338 340 342 343 344 345 346 346 347 348 349 349 348 348 349 351 352 354 355 357 358 358 357 357 356 355 356 356 355 355 354 353 353 354 354 354 354 353 352 351 350 348 347 345 344 344 343 329 323 322 324 325 327 331
329 329 331 332 332 333 334 336 338 339 340 342 345 346 346 346 347 348 348 349 348 348 348 348 349 351 353 354 357 358 358 357 357 356 356 356 355 355 354 354 353 353 353 354 354 353 353 352 351 350 349 348 347 345 344 344 325 320 321 322 323 324 328
326 328 327 330 334 335 335 336 337 339 340 343 345 347 348 347 348 348 348 349 349 348 348 348 349 350 352 353 355 357 358 357 356 356 356 355 355 355 354 354 354 353 354 353 354 354 354 354 353 351 349 349 347 345 343 344 321 319 320 321 322 324 332
318 320 323 323 332 337 339 340 340 341 342 343 344 347 349 349 349 349 349 348 349 348 348 348 348 349 351 353 354 356 358 358 357 356 355 355 354 354 354 354 354 354 355 353 353 353 353 353 353 352 350 348 347 345 343 342 322 318 318 320 321 322 333
334 324 317 322 327 331 337 341 342 343 346 346 346 347 349 350 350 349 348 348 349 348 348 347 347 349 350 352 353 355 357 358 357 356 355 355 354 354 354 355 355 355 355 354 353 352 353 353 353 352 350 348 346 345 343 342 323 316 316 318 319 324 334
340 340 335 323 321 329 335 338 340 343 345 346 348 350 350 350 350 350 349 349 349 349 348 348 348 349 350 351 353 355 357 358 358 357 356 355 354 354 354 355 355 355 355 355 354 353 353 352 352 349 347 346 346 339 342 342 325 314 317 317 316 324 335
337 339 342 345 345 334 330 339 341 342 341 344 347 351 352 351 350 349 349 349 350 349 348 349 349 350 351 352 353 355 356 358 357 357 357 356 355 356 356 356 356 355 355 354 354 353 351 350 348 345 343 343 344 343 342 342 331 322 315 315 314 319 335
337 338 338 340 341 344 341 329 335 341 343 343 345 348 350 352 351 350 349 350 350 349 350 351 351 351 351 352 353 354 356 357 358 357 358 358 357 357 357 357 356 355 354 352 350 347 345 344 343 342 340 340 342 342 341 341 332 325 314 313 312 316 325
335 336 339 339 341 339 340 342 341 340 344 346 349 351 351 350 348 348 348 349 350 351 353 353 352 351 351 352 353 354 356 357 358 359 359 359 358 357 357 357 356 355 354 351 348 345 342 340 339 339 337 337 339 339 338 336 328 328 314 313 311 314 319
333 333 334 335 335 338 341 338 339 339 340 344 346 349 351 350 348 348 348 348 350 353 353 353 353 353 353 353 354 355 357 358 358 358 360 359 358 357 355 355 354 353 352 349 347 344 341 339 338 336 334 332 332 333 335 334 330 322 319 312 311 311 314
334 333 333 333 334 335 339 338 338 338 340 342 342 343 345 350 348 347 347 349 351 354 355 354 356 357 356 355 356 357 358 359 359 360 359 358 357 356 354 353 353 351 350 348 347 344 341 338 336 334 332 331 330 332 333 334 332 322 318 318 312 311 311
333 334 333 332 332 334 335 335 335 337 337 338 339 341 342 344 346 344 348 347 350 355 358 359 359 359 358 358 358 358 360 359 359 359 358 357 356 353 352 351 351 348 347 346 344 343 340 335 334 333 331 330 329 328 326 330 331 329 322 319 315 311 310
332 333 334 334 333 333 334 334 336 337 336 337 339 339 339 342 344 345 344 344 347 350 353 357 359 358 358 359 359 359 359 358 357 357 355 355 354 353 352 350 349 346 343 342 339 338 336 333 333 332 330 329 327 326 325 326 327 327 322 320 316 314 311
330 331 331 332 333 334 333 333 334 335 335 335 337 339 340 340 339 338 338 341 347 350 353 354 355 355 355 357 357 357 357 356 353 352 352 351 349 348 347 346 343 341 338 338 337 335 334 333 332 332 331 330 327 326 326 325 325 324 322 320 318 319 317
330 330 331 332 333 335 335 334 333 334 334 335 337 338 339 340 341 341 341 343 345 347 347 350 351 352 352 352 350 350 350 350 353 349 346 345 345 344 342 341 340 339 337 337 336 334 332 331 331 330 330 328 328 328 327 326 324 324 323 322 321 320 319
328 330 331 332 333 335 333 332 331 331 331 332 334 335 335 338 341 341 340 341 342 343 344 343 341 345 346 344 344 339 337 336 332 327 321 316 312 309 316 335 339 332 322 320 329 338 335 333 331 331 331 331 330 329 328 328 327 326 318 323 316 319 319
325 328 331 333 333 332 332 331 330 330 330 331 333 333 333 335 339 342 345 342 345 345 342 340 339 339 339 338 337 336 334 332 330 329 326 324 321 317 312 304 300 313 329 323 312 310 318 322 332 333 332 332 332 333 331 330 331 318 310 307 306 306 309
324 327 330 333 332 330 330 330 332 331 331 332 334 334 335 336 339 340 342 341 341 343 343 340 337 336 336 335 334 332 331 331 329 328 327 326 325 322 318 316 311 297 296 303 305 301 297 299 308 317 321 331 329 321 317 322 314 308 305 303 302 302 302
325 326 328 331 333 333 331 331 330 330 331 332 333 333 334 337 339 338 341 341 341 340 338 338 336 334 334 334 334 333 331 331 330 329 328 328 328 326 324 321 316 313 301 296 298 297 295 294 297 307 311 315 320 319 316 308 304 303 301 300 300 300 300

ECMWFFLT1_sfc_thetae_045.txt.gz
Theta_e
324 325 326 328 329 330 330 331 331 331 332 333 334 336 338 341 342 343 343 344 345 345 347 349 350 351 351 351 351 351 352 351 351 350 350 350 350 350 349 349 350 352 353 353 353 354 354 354 354 354 353 351 350 349 346 346 343 341 339 337 335 334 333
323 324 325 327 328 329 330 331 332 332 332 333 334 335 337 340 342 343 343 344 345 345 347 349 350 350 351 351 351 351 351 351 351 352 351 350 350 350 351 350 350 351 353 353 353 354 354 353 354 353 352 351 349 348 346 345 343 340 338 336 334 333 333
323 324 325 326 327 329 330 331 332 332 332 333 334 335 336 339 342 343 343 344 344 345 346 348 350 350 351 351 351 351 351 351 351 351 350 350 350 350 350 351 350 350 352 353 353 353 354 352 352 353 352 349 348 346 345 344 343 340 338 336 335 334 333
324 324 325 326 327 329 330 331 332 333 333 333 334 335 336 338 342 344 344 344 344 346 345 347 349 351 351 351 351 351 351 351 351 351 351 351 351 351 350 350 350 349 350 351 352 352 353 352 351 351 354 349 347 345 343 342 341 340 338 337 335 335 334
324 325 325 325 326 328 329 330 332 333 333 334 335 337 337 338 341 344 345 345 345 345 347 347 349 351 352 352 352 352 352 351 351 351 351 352 352 352 351 350 350 349 350 350 351 351 351 350 350 350 350 349 346 344 342 340 339 340 338 336 335 335 334
324 325 325 326 326 328 329 330 332 333 333 333 334 335 337 338 340 342 345 346 346 347 348 348 348 350 350 351 352 352 352 352 352 352 352 352 352 351 351 351 350 350 349 349 351 350 350 350 349 349 348 348 347 344 341 339 337 338 338 336 336 335 334
324 325 326 327 327 328 329 330 331 333 334 335 335 336 338 338 339 341 344 345 347 346 347 348 349 349 350 351 352 352 351 352 352 352 353 352 352 352 352 352 352 351 350 350 349 349 349 349 348 348 347 347 346 344 341 338 336 336 337 336 335 334 334
324 325 326 327 328 329 329 330 331 333 334 335 335 335 337 338 339 340 343 345 347 347 347 348 349 350 351 351 351 351 351 352 353 353 353 353 352 352 352 352 352 352 351 349 349 349 349 348 348 347 346 345 344 343 342 339 337 335 336 336 335 334 335
324 326 327 328 329 329 330 331 331 332 333 334 334 335 337 338 339 340 342 344 346 347 347 349 350 351 352 352 351 351 352 352 352 353 353 352 353 352 353 353 353 353 351 350 349 349 349 348 347 347 345 344 343 342 341 340 338 336 335 335 335 334 334
323 324 326 328 329 330 330 331 332 332 332 333 334 335 337 338 339 340 342 344 346 347 348 349 350 351 352 352 352 352 352 352 352 353 353 352 353 353 353 353 353 354 352 351 350 348 349 348 347 346 344 343 342 341 340 339 338 337 336 335 335 334 334
323 324 326 327 328 329 330 330 330 331 332 333 334 335 337 339 339 340 341 343 345 347 349 350 351 351 352 352 352 352 352 352 352 352 352 353 353 353 354 354 354 354 353 351 350 349 348 347 347 346 344 343 341 340 340 339 338 337 337 336 335 334 334
322 323 324 326 327 328 329 330 331 332 332 334 334 335 337 339 340 341 342 343 345 346 348 350 351 351 352 352 352 352 352 352 352 352 352 353 353 353 354 354 354 353 353 352 350 349 348 347 346 346 344 344 342 341 340 339 338 337 337 337 336 334 333
322 323 324 325 327 328 329 329 330 332 333 334 335 336 337 339 340 341 342 343 345 347 348 350 351 351 351 352 352 352 352 353 353 353 353 353 353 354 354 354 354 354 353 353 352 350 348 347 346 346 345 344 343 341 340 339 338 338 337 337 336 335 333
328 323 324 325 326 326 327 328 330 332 333 334 335 336 338 340 341 341 342 343 345 347 349 350 351 351 351 352 352 352 352 353 354 354 354 354 354 354 354 355 354 354 354 353 351 350 349 347 346 345 345 344 343 342 341 339 339 338 337 337 337 336 334
320 322 322 323 324 326 327 327 329 331 333 334 335 336 337 339 340 342 343 344 345 347 349 351 351 351 352 352 351 352 353 354 354 355 355 355 354 354 354 354 354 355 354 353 352 351 350 349 347 345 344 344 343 342 341 340 339 339 338 337 336 336 335
320 322 322 324 325 326 327 328 329 331 333 334 335 336 337 339 340 341 342 344 345 347 349 351 351 352 352 352 352 353 353 354 354 355 355 355 354 354 354 354 354 354 354 353 353 352 351 349 347 346 344 343 342 342 342 341 341 336 329 332 337 336 336
321 322 323 324 325 326 327 328 329 331 332 334 335 336 337 339 341 342 343 344 345 347 349 351 351 352 352 352 353 354 354 354 354 354 354 354 355 354 354 354 354 354 354 353 353 352 351 350 347 346 345 343 342 342 342 342 341 329 326 327 330 336 336
321 322 323 324 324 325 327 328 328 329 331 333 335 337 337 339 340 342 343 344 345 347 349 351 352 352 352 353 354 354 354 354 354 354 354 354 354 354 354 354 353 353 353 353 352 352 352 350 348 347 346 345 343 342 342 342 333 326 325 326 327 331 338
320 322 323 324 324 326 327 328 329 330 331 333 335 337 338 340 340 341 343 344 346 347 348 350 351 352 352 353 354 354 355 354 354 354 354 354 354 354 354 353 353 352 352 352 353 353 351 350 349 348 347 345 343 342 343 342 331 325 323 325 325 327 333
318 320 324 324 324 325 326 328 329 330 331 333 335 338 340 341 341 342 344 345 346 346 347 348 350 351 352 353 354 355 355 355 354 354 354 354 354 354 353 353 352 352 353 353 353 352 351 351 349 349 347 346 345 344 344 343 330 323 321 322 323 326 329
323 323 321 322 324 325 326 327 329 330 331 333 335 337 339 340 341 342 343 344 344 346 346 347 348 350 351 352 353 355 355 355 354 354 354 354 354 353 353 352 352 352 352 352 352 351 351 351 350 350 349 348 347 345 344 345 328 321 320 319 320 323 326
327 319 325 325 324 325 326 327 329 330 331 335 336 337 338 339 341 341 342 344 345 345 346 346 347 348 350 351 352 354 355 355 354 354 354 354 353 353 352 352 352 351 352 352 352 352 352 352 352 350 349 349 348 346 345 346 325 320 319 318 319 322 332
335 333 328 323 326 330 331 331 332 332 335 336 337 337 338 339 340 341 342 342 344 344 345 345 345 346 348 350 351 353 354 355 355 354 354 354 353 352 352 352 352 352 352 351 351 351 351 351 351 351 351 350 349 347 346 346 328 319 317 317 318 322 334
336 336 337 337 336 334 331 332 333 335 336 335 337 338 339 340 340 340 341 342 343 343 344 344 344 346 347 349 350 352 354 355 355 354 354 353 353 353 353 353 353 353 352 351 350 350 350 351 351 351 351 350 349 349 347 347 330 315 315 315 316 324 335
335 336 336 336 337 337 338 333 333 335 337 335 336 338 341 342 341 341 341 342 343 344 343 343 344 345 346 348 350 352 354 355 355 355 354 354 354 354 353 353 353 353 353 352 352 351 351 351 351 351 351 351 351 341 346 348 333 314 315 314 315 324 336
332 333 335 336 337 337 337 337 334 336 337 338 339 340 342 344 343 342 342 342 343 343 343 344 345 346 347 348 349 352 353 355 355 355 355 354 355 355 354 354 354 353 352 352 352 351 351 350 350 350 350 351 350 349 347 348 344 321 314 313 314 318 335
332 332 332 334 335 339 337 337 336 333 335 336 339 344 344 345 344 343 343 343 343 343 344 346 347 347 347 348 349 350 352 354 356 355 356 356 355 355 355 355 354 353 352 352 352 351 350 350 350 350 350 350 350 349 348 348 343 322 312 312 314 316 323
332 333 333 334 337 336 337 337 337 338 339 340 341 343 346 345 344 344 344 343 343 345 347 347 347 347 347 347 348 349 351 353 355 356 356 356 356 354 354 355 355 354 353 353 351 350 349 349 348 349 349 348 348 348 347 344 333 326 314 314 313 314 316
331 332 331 332 332 335 337 335 335 336 336 338 340 340 341 344 345 344 344 344 345 348 348 348 348 348 347 347 347 348 350 352 353 354 356 356 355 355 354 354 354 353 353 352 351 350 349 348 348 347 346 343 341 341 341 339 332 322 321 314 312 312 313
332 333 333 334 334 335 337 336 335 335 336 337 337 338 337 340 343 344 344 345 348 348 348 349 349 349 347 346 347 348 349 350 352 354 355 355 355 354 354 353 353 353 352 352 350 349 348 347 346 345 342 338 335 335 336 334 333 322 319 319 312 311 310
331 332 333 333 334 335 336 335 335 336 337 337 337 337 337 337 339 340 344 343 345 346 349 350 350 349 348 347 347 347 349 350 351 352 354 355 355 353 353 352 352 351 352 351 350 349 347 345 343 342 339 336 334 333 333 332 331 327 322 318 314 311 310
332 332 333 334 334 334 335 336 336 336 336 336 336 338 338 338 336 335 335 338 341 343 347 349 349 349 349 348 348 348 349 349 350 351 353 354 355 354 354 353 352 351 350 349 349 347 346 341 339 339 336 335 333 332 332 331 330 327 325 321 317 315 312
330 332 332 332 334 334 333 334 334 335 335 333 334 335 338 340 340 339 338 338 340 343 344 347 349 349 349 349 350 349 349 349 350 351 353 354 354 355 354 353 353 351 348 349 348 346 343 339 338 336 334 333 331 331 331 331 331 327 324 322 320 319 316
329 331 332 333 332 332 330 330 331 331 332 331 331 332 335 338 340 341 339 340 341 342 342 344 345 349 351 351 351 350 351 351 353 353 352 353 354 353 353 352 353 350 348 348 347 344 341 339 337 335 334 332 330 329 330 329 328 326 322 319 319 318 316
330 331 331 331 331 332 331 330 330 330 331 331 331 331 334 335 337 339 339 339 339 338 339 340 340 342 345 346 347 350 350 351 351 352 352 352 351 345 348 351 349 348 343 334 337 341 341 339 338 337 336 333 330 329 328 327 326 327 317 321 315 317 318
329 330 331 332 332 332 332 333 333 332 333 333 333 333 334 334 336 337 338 338 339 338 339 339 339 339 340 340 342 345 347 349 351 351 350 344 323 316 311 309 313 333 341 329 325 328 325 324 337 337 336 333 332 332 330 327 329 314 308 306 306 306 309
326 328 330 332 333 333 333 333 334 333 333 333 335 336 336 336 337 337 338 336 336 337 336 336 336 337 337 337 337 336 341 346 349 349 346 333 328 325 319 314 305 298 303 308 315 316 315 313 314 318 323 331 329 319 312 315 308 304 304 303 303 303 303
324 325 327 327 327 328 328 329 330 331 331 333 334 335 336 337 338 336 337 336 334 334 332 332 332 331 331 332 332 330 329 331 335 342 338 331 329 327 325 319 313 307 298 302 304 302 302 304 305 308 311 315 319 319 316 306 302 301 301 301 301 301 301

ECMWFFLT1_sfc_thetae_048.txt.gz
Theta_e
326 327 329 330 330 331 332 333 333 333 333 334 334 336 338 340 342 344 344 345 345 345 347 348 349 350 350 350 351 352 352 352 351 350 350 350 350 350 349 350 351 351 353 352 353 354 356 357 357 358 358 358 357 355 353 351 350 349 346 344 342 341 339
323 325 327 329 329 330 332 333 333 333 333 333 334 335 337 339 341 342 343 344 345 345 346 347 349 349 350 350 351 351 351 351 352 352 351 350 351 351 351 351 350 351 352 354 354 356 356 356 357 357 357 357 356 356 353 351 349 348 345 343 341 339 338
322 324 326 327 328 329 331 332 333 333 333 333 334 334 336 338 341 342 343 344 344 345 346 347 349 349 350 351 351 351 351 351 351 351 350 350 350 350 351 351 351 351 352 354 355 355 356 356 357 357 357 356 356 355 353 351 349 347 346 343 341 340 338
321 322 324 327 328 330 331 332 332 333 333 333 333 334 335 337 340 342 343 344 344 345 345 346 348 349 350 350 350 351 351 351 352 351 351 351 350 351 351 351 351 351 351 352 354 355 356 356 355 356 357 356 355 354 352 351 349 347 345 343 341 340 339
321 322 323 324 326 327 329 330 331 332 332 333 334 335 336 337 339 341 342 344 344 344 345 346 347 349 350 351 351 351 351 351 351 352 352 352 352 352 350 350 350 350 351 352 354 355 355 355 355 355 355 355 354 353 351 350 349 347 345 343 341 340 339
321 321 322 323 325 326 328 330 331 332 332 332 333 334 335 336 338 339 341 343 344 345 346 346 347 349 349 350 351 351 352 352 352 352 352 352 352 351 350 350 350 351 350 351 354 354 355 354 354 354 354 354 353 352 350 349 348 346 345 343 342 341 339
321 322 322 323 324 326 327 329 331 332 333 333 334 335 335 335 336 338 340 341 343 343 344 345 346 348 349 350 351 351 351 351 351 351 352 352 352 351 351 351 351 351 351 352 352 353 353 353 353 353 353 353 353 351 349 348 346 345 344 343 341 341 340
322 322 323 324 324 325 326 328 330 331 333 334 333 333 334 335 336 337 339 341 342 343 343 344 345 347 349 350 350 350 351 351 352 352 352 351 351 351 351 351 351 351 352 351 351 352 352 353 353 353 352 352 352 351 349 347 346 343 343 342 341 340 340
321 323 324 324 325 325 326 328 329 331 332 332 333 333 333 334 335 336 338 340 341 342 343 344 345 347 349 349 350 350 351 351 351 351 351 351 351 351 351 352 352 352 351 351 351 352 352 352 352 352 352 351 351 351 349 347 345 343 342 342 341 341 340
321 322 323 325 326 326 327 327 329 330 331 332 332 333 333 334 335 336 337 339 341 342 343 344 345 347 348 349 349 350 351 351 351 351 351 350 351 350 351 352 352 353 352 351 351 350 351 352 351 351 351 350 350 350 349 347 345 343 341 341 341 341 340
319 322 323 324 325 326 327 327 327 329 330 332 332 333 333 334 335 336 337 338 340 342 344 344 346 346 347 348 348 349 350 350 351 351 351 351 351 351 351 352 352 353 352 352 351 351 351 351 351 350 350 349 349 349 348 347 346 343 341 341 341 341 340
318 320 322 323 325 326 326 327 328 329 330 331 332 333 334 334 335 336 337 338 340 341 343 344 346 346 347 347 347 348 349 350 350 350 351 351 351 351 352 352 352 352 353 353 352 351 351 350 350 350 349 349 349 349 348 347 346 344 343 341 340 340 340
318 320 321 322 325 326 327 327 328 329 330 330 331 333 334 334 335 336 337 338 340 342 343 345 346 347 347 347 347 348 348 349 350 351 351 352 352 353 353 352 353 353 352 353 353 351 350 350 350 350 349 349 349 348 347 347 345 344 343 342 340 339 339
326 321 321 324 325 326 326 327 328 329 329 330 331 333 334 335 336 336 337 337 339 341 343 345 346 347 347 348 348 348 348 349 350 351 352 352 353 353 353 353 353 353 354 354 353 352 351 350 349 350 350 349 348 348 347 346 345 344 343 343 341 340 338
313 316 319 320 323 325 326 327 328 329 329 330 331 332 333 334 336 337 338 339 340 341 342 345 346 347 347 347 348 348 350 350 351 352 352 352 353 353 353 353 354 354 354 354 353 353 352 352 350 349 349 349 348 348 347 345 344 343 343 342 341 341 339
310 313 316 319 321 324 326 327 329 329 330 331 331 332 333 334 335 336 337 338 339 341 343 345 346 346 347 347 348 349 350 351 352 352 352 352 352 352 353 353 354 354 353 353 353 353 353 352 351 350 348 348 347 347 346 345 344 338 330 332 341 341 340
310 312 315 318 321 323 326 327 328 329 330 331 332 332 333 334 335 337 338 339 340 341 343 345 346 346 347 347 348 350 351 351 352 352 352 352 352 353 353 353 354 354 353 353 353 353 353 353 351 350 349 348 347 346 346 345 344 330 327 327 330 339 341
311 313 315 318 321 323 325 326 327 329 330 331 332 333 334 335 335 337 337 339 340 342 344 345 345 346 347 348 349 350 350 351 352 352 352 353 352 353 353 353 353 353 353 353 353 353 353 352 351 350 350 348 348 346 346 346 334 327 326 326 326 330 341
313 314 318 321 322 324 324 325 327 329 331 332 333 333 334 336 336 337 338 340 341 343 344 344 345 346 347 348 349 350 351 351 351 352 352 353 353 353 353 353 353 353 353 352 354 354 352 352 351 351 350 349 347 346 347 346 334 327 324 325 325 326 332
314 315 317 320 322 323 325 327 328 330 331 333 334 335 336 337 337 338 340 341 343 343 344 345 345 346 347 348 349 350 351 351 351 351 352 353 353 354 353 353 352 353 353 354 354 353 352 352 351 351 350 349 348 347 347 347 333 325 322 323 323 324 328
322 325 322 321 321 322 325 327 328 330 330 332 334 336 337 337 338 340 341 342 343 344 344 345 346 347 347 348 349 351 351 351 351 351 352 353 353 353 353 353 353 353 353 353 353 353 352 352 351 351 351 350 349 348 347 347 331 322 320 319 320 322 324
330 332 331 331 326 323 324 326 327 328 329 334 339 336 337 337 339 340 341 343 343 343 344 345 346 347 348 349 350 351 351 352 351 352 352 353 353 353 353 353 353 353 354 354 354 354 354 354 353 352 351 351 350 348 347 348 327 321 319 318 319 320 331
333 333 333 334 335 331 328 327 328 329 332 332 334 335 337 338 340 341 341 342 342 344 344 345 345 346 348 349 350 351 352 353 352 352 352 353 352 352 353 353 353 354 355 353 353 353 353 353 353 353 352 351 350 349 348 349 331 319 317 317 317 320 335
334 334 334 334 336 337 337 335 333 333 332 332 333 335 337 339 340 340 340 342 343 343 344 344 345 346 348 349 351 352 353 354 353 352 352 353 352 352 353 354 354 354 355 353 352 352 353 353 353 354 353 352 351 350 349 349 333 316 316 316 316 323 336
332 333 333 334 335 336 337 337 335 334 335 333 333 334 337 338 340 340 340 341 342 343 343 343 344 346 347 349 351 352 354 354 355 354 354 353 353 353 353 353 354 355 355 354 354 353 354 353 353 353 353 353 352 340 346 350 336 315 316 314 314 324 338
331 331 332 334 336 338 339 338 337 336 335 335 337 338 337 337 339 340 339 340 341 341 342 343 345 347 348 349 351 352 354 355 355 355 354 354 354 354 354 355 355 354 354 354 354 353 353 353 352 352 352 353 352 351 349 350 349 327 314 313 313 317 338
332 333 332 334 335 339 337 338 337 337 337 338 339 341 340 338 338 338 340 340 340 341 342 344 346 347 348 349 350 351 353 354 355 355 355 355 355 355 355 355 354 354 354 353 353 353 352 352 352 351 352 352 352 352 352 351 351 337 313 312 312 314 325
333 334 335 336 337 336 337 337 337 337 337 338 338 340 344 342 339 339 339 339 339 341 344 350 350 348 348 348 348 350 351 353 354 355 355 356 356 355 354 356 356 355 355 354 353 352 351 351 350 351 351 352 352 352 352 348 339 341 314 313 311 313 317
331 331 332 333 334 336 337 335 335 335 336 337 338 338 339 343 343 342 341 339 342 346 349 347 347 347 347 347 347 348 350 352 353 353 355 355 355 354 354 355 355 355 355 354 353 352 351 351 350 350 349 349 351 352 352 352 346 327 323 313 311 311 313
333 334 334 335 335 336 337 335 335 335 335 336 337 338 338 339 341 342 342 341 341 344 348 349 347 347 346 345 346 347 349 350 352 353 354 355 355 355 354 354 354 354 354 354 352 351 350 350 350 349 348 347 348 349 350 351 350 326 319 319 312 311 311
332 333 333 333 333 335 336 335 334 334 334 334 336 338 339 339 338 338 338 338 340 344 345 348 348 347 346 346 346 346 348 349 350 352 353 354 354 353 353 354 354 353 354 353 352 351 349 349 349 348 347 347 346 347 347 347 345 333 323 318 313 312 311
332 332 332 332 332 332 333 334 334 334 334 334 335 337 339 340 339 338 338 339 340 343 345 347 348 348 347 347 347 347 348 348 348 350 351 353 354 354 354 354 353 353 353 352 351 351 350 349 348 347 348 347 347 346 345 343 341 334 326 321 317 316 313
330 330 330 330 332 333 332 333 333 334 334 333 334 336 337 338 339 339 339 339 341 343 344 346 347 348 348 348 348 349 348 347 347 348 349 351 353 354 354 354 354 353 350 351 351 351 350 349 348 347 347 347 347 346 342 338 335 333 328 326 323 323 320
329 330 331 332 333 334 334 333 333 333 333 333 334 335 336 336 337 337 338 338 340 341 343 343 345 346 347 348 350 350 350 349 349 349 348 349 351 351 353 354 354 353 351 350 351 351 349 349 347 346 347 346 346 341 336 333 332 330 328 326 325 323 321
330 331 331 331 333 334 333 333 333 333 334 334 335 335 335 336 337 337 337 336 337 339 340 340 341 344 345 346 347 348 349 350 350 349 349 349 350 351 353 353 353 352 352 354 355 353 352 350 350 348 349 348 343 338 334 333 332 331 321 326 319 321 322
329 330 330 332 332 332 333 334 333 332 332 333 334 335 336 336 337 337 338 336 335 338 339 339 338 339 340 340 342 342 344 346 348 349 348 349 348 348 347 332 316 331 352 353 339 333 330 331 348 350 349 345 342 341 337 335 336 318 311 309 308 308 311
324 324 326 328 328 328 329 330 331 331 331 331 332 333 335 336 337 337 337 335 334 333 333 333 334 332 332 333 333 333 334 334 334 334 337 339 338 340 340 343 339 313 304 308 323 325 318 315 321 323 328 339 338 330 326 319 310 306 305 303 303 305 306
323 323 323 324 324 326 326 327 328 329 329 330 331 332 333 335 336 336 337 336 335 333 332 331 331 329 330 331 332 332 331 331 331 330 331 332 333 333 333 334 334 334 310 302 308 317 315 313 311 312 314 318 323 321 319 308 304 302 303 304 303 303 303

ECMWFFLT1_sfc_thetae_051.txt.gz
Theta_e
337 337 339 340 340 340 341 343 345 344 346 347 347 347 348 350 352 354 355 356 356 356 358 359 358 359 358 359 360 361 360 360 360 358 358 358 359 359 360 360 360 361 361 361 363 363 366 368 368 368 367 367 365 364 363 364 364 365 364 363 361 360 359
335 336 337 339 339 340 342 344 345 344 345 346 346 347 347 349 352 353 353 356 357 356 358 358 358 358 358 359 360 361 360 360 360 359 359 359 360 361 361 361 361 362 363 363 363 366 367 368 368 367 367 366 365 365 363 364 363 365 363 362 360 359 358
334 335 336 338 338 339 342 343 344 344 345 344 345 346 346 349 352 352 354 355 356 357 358 358 358 358 359 359 360 360 360 360 360 359 358 357 358 357 360 361 362 361 362 364 365 365 366 366 368 368 367 366 364 363 363 363 362 362 364 363 360 358 357
333 334 335 338 340 341 342 342 343 343 344 344 344 345 346 350 351 354 354 354 355 356 356 357 357 357 358 359 359 360 360 361 360 359 358 358 358 359 359 360 361 361 361 361 362 363 364 365 366 367 367 366 366 364 363 363 362 362 362 362 359 359 357
332 334 335 336 338 339 340 341 342 343 342 343 344 347 348 348 349 351 352 354 354 355 355 356 356 358 359 359 358 359 359 360 360 360 360 360 361 361 360 358 359 359 359 361 363 364 364 365 364 365 366 366 365 363 361 362 362 362 361 361 360 358 356
329 332 333 334 335 337 339 340 341 342 342 342 343 344 345 345 346 346 349 352 353 354 356 357 357 357 358 358 358 359 360 361 362 362 361 361 361 360 359 359 358 359 358 360 361 363 364 364 363 364 364 363 362 362 362 361 361 361 361 360 359 358 356
330 332 332 333 335 336 337 339 340 341 342 342 343 344 344 344 344 345 347 349 351 353 354 354 355 356 358 358 358 359 359 359 360 360 361 361 361 360 360 360 360 359 360 362 361 362 361 362 363 364 364 363 362 362 362 362 362 363 360 359 359 358 357
332 332 334 334 334 335 336 339 340 341 342 343 342 342 342 342 343 344 345 347 349 350 351 352 353 356 357 358 358 358 359 359 360 360 360 360 360 360 359 360 360 361 362 360 362 362 361 362 363 364 364 363 363 364 363 363 363 363 362 359 359 357 356
330 336 335 332 333 333 335 338 339 340 342 343 342 342 342 342 342 343 345 346 348 349 350 351 353 355 358 358 358 358 359 359 359 359 360 359 359 358 358 359 360 361 360 360 360 362 361 362 362 363 364 363 364 365 365 364 364 364 362 360 360 357 356
330 334 338 334 334 332 335 337 341 343 343 343 343 344 343 342 343 343 344 345 347 348 349 351 352 354 357 357 357 358 359 359 359 358 357 357 358 357 358 358 359 360 360 359 359 359 361 362 363 364 364 363 363 364 365 364 363 362 361 360 360 359 357
331 337 338 335 336 336 337 336 338 340 341 343 343 343 344 343 343 342 344 345 345 347 349 351 353 353 354 355 354 355 357 357 358 357 357 356 357 357 357 357 358 359 359 359 358 359 361 361 363 363 363 361 362 363 363 363 363 362 360 360 359 359 357
332 334 338 338 340 339 336 338 340 340 342 343 344 343 343 344 344 342 344 344 345 346 348 350 351 353 353 353 353 354 356 357 357 356 357 357 357 357 357 357 358 358 359 359 358 359 359 360 360 361 362 362 362 363 363 364 363 362 361 359 358 357 357
329 333 335 334 339 340 341 342 340 340 342 342 341 343 343 343 343 343 345 345 345 346 348 351 352 354 354 353 352 354 355 356 356 357 357 358 358 358 358 357 357 358 358 359 358 358 358 358 360 360 361 362 362 361 362 363 363 362 361 360 358 357 356
327 326 331 335 338 340 340 340 340 341 343 342 342 344 343 344 343 345 345 344 345 346 348 350 353 356 355 353 353 355 356 356 357 358 359 359 360 359 359 358 358 359 360 360 358 357 358 357 358 360 360 361 361 362 362 363 362 362 362 360 358 356 355
326 326 330 331 337 340 341 340 342 341 343 343 342 342 343 343 343 345 346 347 347 345 347 351 352 353 352 353 353 356 358 358 359 360 360 360 360 359 359 359 359 360 360 360 359 358 358 359 358 359 359 360 360 361 361 360 360 361 360 359 358 356 354
322 324 326 330 336 338 342 342 343 345 345 344 343 343 342 343 344 344 344 345 345 348 349 353 353 354 353 354 355 357 358 360 360 360 361 360 360 360 360 359 360 359 360 360 360 360 360 360 360 358 358 358 359 360 359 359 360 348 336 340 357 357 354
323 324 325 329 334 337 340 342 343 345 345 345 344 344 343 343 345 344 342 345 346 348 350 350 352 352 353 353 354 356 358 358 359 360 359 359 359 360 360 360 360 360 361 360 360 360 361 360 359 358 358 358 358 358 358 358 356 336 330 331 335 352 355
328 330 328 328 329 332 336 338 341 342 343 342 342 344 345 343 345 344 343 345 346 347 349 349 351 351 354 354 357 358 358 357 358 359 359 360 360 360 361 360 360 360 360 360 360 360 361 360 360 360 359 358 358 357 358 358 340 331 328 328 328 335 354
331 328 328 330 331 333 331 332 337 343 342 342 342 342 343 345 343 345 346 347 347 350 349 349 349 353 353 355 356 357 358 359 359 359 359 359 359 360 361 360 360 360 360 359 360 361 360 360 360 359 360 359 358 357 357 358 337 329 326 326 326 327 339
332 331 331 333 333 332 335 338 337 339 341 345 345 343 343 345 345 348 349 349 352 351 349 349 349 353 354 356 357 358 358 359 358 357 358 359 360 360 360 359 359 359 359 360 360 359 359 359 360 360 360 359 359 358 358 358 337 326 324 324 323 324 333
340 343 343 344 344 341 338 338 341 341 343 343 343 344 344 345 345 348 352 351 351 353 351 351 353 351 354 355 357 358 358 359 358 358 359 360 360 360 359 359 359 359 359 359 359 359 358 357 359 359 359 359 358 359 357 357 332 324 322 321 320 321 327
340 340 340 342 342 343 346 344 339 338 341 343 343 342 343 344 345 348 351 352 350 350 351 352 353 352 355 356 356 357 358 358 358 359 360 359 359 359 358 359 360 359 360 359 359 360 359 359 360 359 358 359 358 357 356 358 329 323 321 319 318 320 338
338 340 339 340 340 341 345 347 346 343 345 345 344 343 343 345 346 349 349 348 347 351 352 353 353 353 355 354 356 357 359 359 359 359 359 359 359 359 358 359 359 361 362 359 359 358 358 358 359 360 360 359 358 357 357 358 336 321 318 317 317 323 342
338 340 339 339 341 343 346 347 348 348 341 343 345 344 347 347 348 352 353 351 350 351 351 350 351 353 355 354 357 359 360 360 360 359 359 359 358 358 358 359 361 361 361 359 358 357 358 359 358 359 360 359 357 358 357 357 339 317 316 316 315 327 344
339 338 339 340 340 341 343 346 348 347 343 344 343 347 350 349 351 352 350 350 346 347 347 349 352 353 354 356 359 359 359 359 359 358 358 358 359 359 359 359 360 361 361 360 360 359 360 359 358 358 359 360 359 343 352 358 341 317 317 315 314 329 347
337 337 339 341 342 343 344 347 351 349 346 346 353 350 351 349 351 351 350 347 348 347 349 351 354 356 358 360 359 358 359 359 359 359 358 359 359 360 360 362 361 361 361 360 360 359 360 358 357 357 358 358 358 358 358 358 360 334 315 314 313 320 347
337 337 338 340 341 343 344 344 344 344 346 348 352 348 348 350 350 351 353 353 351 351 352 355 357 358 359 360 359 359 360 360 360 359 359 360 360 361 361 361 361 361 361 360 360 360 359 358 357 356 358 358 358 358 358 358 359 345 313 313 313 316 330
337 338 340 341 342 342 343 343 344 344 344 348 350 350 348 351 352 354 353 352 351 354 355 357 359 361 361 360 359 358 358 358 361 361 360 362 363 362 361 362 362 361 361 359 359 359 357 359 358 358 357 358 358 358 358 352 341 360 316 314 311 314 320
336 336 337 339 340 341 342 341 341 341 343 346 350 354 352 350 352 352 353 352 357 359 356 357 357 359 359 359 358 360 359 361 362 361 362 363 364 362 361 363 362 362 362 361 360 359 358 358 357 356 357 357 357 359 360 361 355 335 329 313 311 311 316
336 336 337 338 339 340 341 340 340 340 343 345 348 352 357 356 352 352 353 353 355 361 360 357 356 359 358 358 358 358 359 360 361 362 363 363 363 362 362 362 362 362 361 360 359 357 357 357 357 356 355 355 355 357 359 362 362 335 323 320 311 311 313
334 335 335 336 337 339 340 339 339 340 341 343 344 346 349 354 355 354 350 349 353 358 362 361 358 357 357 357 357 359 359 360 361 362 363 363 363 362 361 362 363 359 361 360 359 357 356 355 356 355 354 354 354 355 358 360 360 359 332 318 313 312 312
335 336 336 337 338 339 340 340 340 340 339 340 343 343 344 345 346 344 342 346 349 353 357 362 360 358 357 357 358 358 358 357 358 360 361 362 362 362 363 362 361 359 359 359 357 357 356 356 356 355 355 354 354 355 357 359 359 357 340 322 316 315 313
334 336 336 337 338 340 340 341 339 338 338 338 341 343 343 345 344 344 345 346 348 351 355 359 360 361 359 357 357 358 358 357 354 356 358 361 360 361 361 361 360 359 357 358 358 358 357 356 355 354 354 353 354 356 357 357 356 356 346 333 327 327 323
334 335 337 339 340 341 340 340 339 338 338 338 339 341 341 341 342 344 345 346 347 349 352 352 354 359 360 361 360 360 359 358 354 353 355 355 356 355 356 358 359 358 358 357 357 357 356 356 354 353 353 354 354 355 355 355 354 353 342 336 332 330 328
335 337 338 338 339 340 339 338 338 338 338 338 340 340 340 339 341 341 342 343 346 349 349 348 349 350 350 351 352 352 354 357 358 359 358 359 359 358 360 359 358 358 359 363 364 362 359 357 357 356 359 358 357 355 355 354 352 352 333 338 326 328 329
335 336 337 338 338 339 339 339 339 338 338 338 340 340 339 339 340 340 341 342 344 348 347 347 347 346 348 349 350 351 351 350 348 349 347 346 348 350 352 344 326 334 344 345 331 322 316 314 343 355 359 359 358 358 357 355 356 334 317 313 311 313 315
334 334 335 336 336 336 337 338 339 339 338 339 340 340 341 340 341 342 343 342 342 342 342 344 341 341 343 343 343 341 346 345 345 346 344 342 343 344 341 342 343 319 313 318 321 316 310 310 310 310 314 331 352 352 333 335 330 314 309 309 309 310 310
333 334 335 336 336 336 336 336 337 337 338 339 340 340 341 341 342 343 343 345 344 343 341 340 339 339 339 340 341 340 343 345 344 344 342 342 343 343 343 342 342 345 326 313 309 308 307 306 305 306 309 313 319 333 350 323 309 308 308 307 309 309 308

ECMWFFLT1_sfc_thetae_054.txt.gz
Theta_e
341 343 345 347 348 348 349 351 355 353 354 356 357 358 358 359 360 362 362 363 364 365 366 366 365 364 364 363 365 366 366 366 366 365 364 365 364 364 365 365 365 365 363 363 366 366 369 370 369 371 372 374 372 371 370 370 367 367 368 369 368 367 366
336 339 342 345 347 348 350 352 354 354 355 356 357 359 358 359 360 361 362 364 365 365 366 366 366 365 364 364 365 368 367 366 366 366 366 366 366 366 366 367 366 367 367 366 366 369 370 371 371 371 372 374 373 372 370 370 369 368 366 368 366 366 365
335 337 341 344 346 348 351 351 354 354 356 355 356 357 358 359 361 362 362 362 364 365 367 365 366 364 365 365 365 366 367 367 367 366 365 363 365 364 367 368 368 366 367 368 368 368 371 371 373 373 373 372 371 372 371 370 369 367 367 368 367 365 365
335 337 341 345 348 350 351 352 353 353 354 355 356 357 358 361 362 362 362 363 364 364 365 365 366 365 366 366 366 367 368 368 367 366 365 365 365 366 366 367 368 367 366 367 367 367 368 371 372 373 373 372 372 372 371 369 368 368 367 367 364 366 365
336 339 340 342 345 348 349 350 351 353 353 354 356 358 359 360 360 361 362 363 363 364 364 365 364 366 366 367 366 366 368 368 368 367 367 366 367 368 366 364 365 366 365 366 368 368 369 370 370 372 372 372 371 371 371 370 368 369 368 367 364 363 362
333 338 339 341 344 346 347 349 351 352 352 352 354 357 357 358 358 358 360 362 363 364 365 366 366 366 365 366 366 366 369 369 370 370 368 368 367 366 365 366 365 366 364 366 366 367 369 369 368 369 369 370 368 368 370 369 368 367 368 366 364 362 360
332 338 340 342 344 345 347 349 350 351 353 352 353 356 356 356 356 357 358 360 361 362 362 363 364 365 366 366 366 367 367 367 369 368 368 368 367 367 366 367 367 365 366 368 366 367 368 368 369 369 369 368 369 368 369 370 368 368 368 366 365 364 363
331 337 342 343 343 343 345 349 350 351 352 353 352 352 353 354 355 355 357 358 359 360 361 361 362 365 365 367 365 366 367 368 368 368 369 368 367 367 366 367 366 367 368 367 368 369 367 369 369 369 369 368 369 370 369 370 370 367 368 367 365 364 362
333 340 342 341 342 341 344 348 350 350 352 352 351 352 352 353 353 354 356 356 358 358 359 359 362 364 366 366 366 366 367 367 367 368 368 367 366 365 365 366 368 369 367 365 366 369 368 368 369 370 370 369 369 371 370 370 369 368 368 367 367 365 362
332 341 345 343 344 341 344 345 349 351 350 351 352 353 352 352 353 354 354 354 356 356 357 359 360 362 365 365 365 366 367 367 366 366 365 365 365 365 365 365 366 368 367 366 365 365 369 369 369 370 371 370 370 370 371 370 369 368 368 368 368 366 364
336 342 345 341 341 342 343 342 346 350 352 355 353 351 353 352 352 352 352 353 353 354 356 358 360 361 363 364 363 363 365 365 365 364 365 364 364 364 364 364 364 366 367 366 365 365 368 369 370 370 371 369 370 370 370 370 370 369 368 369 369 367 365
342 342 345 344 343 342 340 345 348 352 353 354 352 351 353 354 352 351 352 353 353 354 356 357 358 360 362 362 361 362 363 365 364 363 364 364 363 363 363 364 364 364 366 366 365 366 365 368 368 368 370 371 371 371 371 372 371 370 369 367 368 369 368
332 338 345 343 345 345 347 347 348 351 354 352 351 352 352 352 351 351 353 353 353 354 356 358 359 361 361 362 361 361 362 363 363 363 364 364 364 363 363 363 362 363 364 365 366 365 364 364 367 368 369 371 371 370 371 372 371 370 371 370 369 369 368
342 337 339 344 346 346 347 349 350 352 355 353 351 352 352 352 351 352 352 352 353 353 354 356 359 361 361 361 361 362 361 364 364 364 365 365 367 366 364 363 363 364 365 365 365 364 364 363 365 368 368 369 371 371 371 372 371 371 372 371 369 368 368
330 334 337 339 345 349 350 350 352 353 352 352 350 350 350 350 351 353 354 353 354 352 353 357 359 360 359 361 362 362 364 365 365 366 365 365 367 366 365 365 366 365 365 366 366 365 365 365 364 367 368 369 370 371 370 369 370 371 370 369 368 368 366
323 322 331 340 344 346 351 352 353 355 354 355 350 350 349 350 352 351 352 352 352 354 355 357 359 360 361 361 362 363 365 365 367 367 367 366 365 367 366 365 365 365 365 365 366 368 367 367 366 365 366 367 368 369 369 369 370 357 342 348 368 368 366
322 323 324 332 348 346 349 352 353 355 356 355 353 351 351 352 352 352 350 352 353 355 355 355 359 360 361 361 363 364 366 367 366 367 366 367 366 368 367 366 366 366 367 366 367 367 368 367 365 364 364 366 367 367 368 368 366 339 335 337 342 362 366
322 324 325 326 342 345 349 350 351 351 353 354 354 354 353 354 352 352 351 352 353 353 352 353 357 360 362 362 364 365 366 366 367 367 367 367 367 368 368 367 366 366 367 366 366 368 368 366 365 366 365 365 366 366 367 368 346 332 332 334 335 344 365
322 323 324 335 347 350 345 342 346 353 350 350 352 352 352 354 351 354 354 354 356 356 352 352 355 361 363 362 365 365 366 367 367 367 367 367 368 368 369 368 366 366 366 365 367 367 367 367 366 366 366 365 365 365 365 367 339 330 329 331 332 334 347
322 323 323 328 340 340 346 349 347 345 348 353 353 351 353 355 352 354 356 355 356 356 356 355 355 359 361 361 363 365 366 367 367 366 367 368 368 368 368 367 366 366 365 366 367 367 366 367 366 367 367 366 366 366 366 367 338 328 326 327 328 331 339
327 333 339 342 351 348 353 357 356 355 351 349 349 352 352 351 351 354 357 354 354 357 356 354 356 357 360 361 363 365 365 366 366 366 367 368 368 368 367 367 367 366 365 364 364 365 366 366 366 366 367 367 366 366 365 365 332 325 323 323 324 327 333
326 329 334 343 351 358 362 360 359 357 355 352 349 349 352 351 351 351 356 356 356 356 355 356 357 356 360 362 362 363 365 365 365 365 366 366 366 366 365 366 367 366 366 365 364 366 367 368 367 366 367 367 367 365 364 365 329 322 321 321 322 324 347
327 340 349 355 353 352 357 360 359 360 361 357 351 349 350 351 351 352 355 354 353 356 356 356 357 357 360 361 362 362 364 365 364 364 364 365 365 365 364 365 366 367 368 365 364 363 365 366 366 367 366 366 366 364 363 365 340 319 319 319 319 327 353
344 348 348 350 354 353 356 358 359 360 359 358 353 351 351 350 352 354 356 355 354 354 355 354 355 357 360 361 362 363 365 365 365 364 364 365 364 364 364 364 366 366 367 365 363 362 363 365 366 367 367 365 364 362 363 364 342 316 317 317 317 330 353
344 346 351 351 351 352 353 357 359 359 360 360 351 352 352 352 353 354 355 355 350 351 352 353 355 356 357 361 363 364 365 364 364 364 363 364 363 363 364 364 365 366 367 366 366 364 365 364 365 366 367 364 362 346 357 363 343 315 317 315 315 332 356
350 349 350 351 352 354 355 356 359 358 354 353 353 353 354 351 352 356 355 351 349 350 352 354 356 359 360 362 363 363 364 364 365 365 363 364 365 366 365 366 365 365 365 366 365 365 364 363 364 364 365 365 364 363 361 361 365 337 314 314 314 321 353
349 347 348 348 350 350 354 355 355 355 357 361 361 355 353 353 354 356 356 355 352 351 353 357 360 361 362 363 363 363 364 364 365 364 364 365 365 366 365 366 365 365 365 364 365 365 364 364 364 363 365 364 365 364 364 363 363 354 312 314 313 317 331
347 347 347 348 347 350 354 354 356 355 353 355 355 353 352 354 355 357 356 355 353 355 356 359 362 364 364 365 364 362 363 364 365 366 365 366 367 367 365 366 366 366 366 364 365 366 365 366 364 361 361 361 361 363 362 357 344 364 316 314 312 315 320
346 345 346 347 348 349 350 353 353 354 356 357 358 356 357 357 357 358 358 356 357 359 361 363 364 366 365 366 364 364 363 365 365 365 366 366 366 366 366 367 366 366 367 367 366 365 364 363 362 361 359 360 360 362 364 366 362 337 334 314 312 312 316
344 344 345 346 346 348 349 350 352 353 355 358 364 361 357 359 358 358 358 362 367 366 366 366 365 366 364 364 364 363 363 364 365 368 367 366 366 366 367 366 366 366 366 366 364 361 361 361 360 360 359 358 358 361 361 366 365 342 326 325 311 312 313
342 343 344 345 345 349 351 350 350 351 353 355 359 363 365 362 362 363 361 363 365 363 361 362 362 363 362 363 363 363 364 364 365 365 364 364 364 365 365 366 367 364 364 364 362 360 359 359 360 358 359 359 358 360 362 363 363 364 340 320 314 312 312
341 343 344 346 347 349 351 352 352 352 353 354 357 358 359 360 360 357 357 361 365 368 366 363 361 360 360 361 361 361 362 362 362 365 367 367 366 367 366 366 364 362 362 361 360 361 361 360 358 358 359 358 359 359 360 362 363 364 362 327 318 316 314
342 344 345 345 346 347 350 351 350 349 349 350 353 355 356 357 356 357 358 359 361 365 367 367 364 361 361 361 361 363 363 362 360 361 363 367 364 362 362 362 362 362 360 360 360 361 360 360 360 359 357 357 358 359 360 361 361 362 364 343 335 332 329
343 344 346 347 347 347 349 349 348 347 347 347 349 350 351 352 354 356 358 359 361 364 365 364 365 364 365 364 364 363 363 363 358 360 360 359 360 358 358 360 361 359 359 360 360 360 359 359 358 358 358 358 358 358 359 359 361 361 361 355 345 341 341
343 343 345 345 346 346 346 346 345 345 345 344 347 348 349 350 351 353 355 357 360 361 361 359 358 362 363 363 363 362 364 363 361 358 358 359 362 361 363 364 366 367 367 369 370 367 365 365 363 362 364 362 360 360 359 359 358 361 339 362 330 338 341
342 342 342 343 344 345 344 344 344 343 343 344 345 346 347 347 348 350 352 356 358 358 356 356 357 358 358 359 359 360 359 360 360 361 360 360 360 361 360 340 326 346 360 361 340 323 314 319 347 353 350 351 356 362 360 360 362 332 321 318 316 317 320
340 340 342 342 342 342 342 342 343 343 343 344 344 345 345 345 346 347 349 352 353 353 353 353 351 351 351 352 352 351 353 352 354 355 355 354 352 352 349 348 349 311 305 317 318 313 305 303 303 303 307 327 336 336 323 318 314 311 312 310 308 310 313
341 341 342 342 341 341 341 341 342 341 341 342 343 344 345 345 346 347 347 349 350 351 351 351 350 349 348 348 348 349 349 348 346 346 346 346 346 347 344 342 345 351 319 307 318 313 304 302 301 300 300 301 306 312 326 317 309 305 304 306 308 308 309

ECMWFFLT1_sfc_thetae_057.txt.gz
Theta_e
335 339 344 348 349 349 351 354 356 355 357 358 359 357 358 358 360 363 364 366 366 367 368 368 367 368 366 366 366 366 366 367 367 365 363 362 362 362 363 366 367 367 362 361 364 364 366 367 366 366 368 371 371 370 370 371 371 370 371 372 370 367 366
334 335 339 345 348 349 352 356 357 356 357 359 360 359 358 360 362 362 364 367 367 368 368 369 368 368 368 367 366 367 367 367 367 367 365 364 364 364 364 366 367 368 367 364 363 367 367 367 366 366 368 369 371 372 370 371 372 371 368 371 370 369 367
333 334 337 342 347 349 352 355 357 357 359 358 360 359 359 362 363 363 365 367 368 370 369 369 370 368 368 367 367 367 367 367 367 366 364 361 363 360 364 366 367 366 367 367 365 364 368 368 370 368 368 369 370 372 371 370 371 370 368 370 370 369 368
332 333 336 342 348 352 353 354 357 357 358 359 360 361 362 363 363 364 366 367 367 369 369 369 368 367 367 367 367 367 368 368 367 365 364 363 363 364 363 364 367 367 366 367 364 363 364 369 369 370 371 370 370 371 371 369 368 370 368 369 368 369 369
333 333 334 339 345 350 351 353 355 358 358 359 361 363 363 363 364 365 366 367 367 367 368 368 366 367 368 368 366 367 367 368 367 366 366 364 366 366 365 362 364 366 366 366 368 366 367 368 368 370 370 371 371 371 370 369 368 370 369 369 367 367 367
329 333 333 337 342 348 351 352 354 356 357 358 359 362 362 363 363 363 365 366 366 368 369 369 368 368 367 367 366 366 368 369 369 369 367 367 366 364 365 365 363 365 364 365 366 367 367 367 368 369 369 369 369 366 368 370 368 367 370 369 368 365 364
329 334 334 335 339 345 350 353 353 356 358 358 359 362 362 362 362 363 364 364 366 366 366 366 367 367 368 368 367 367 367 367 368 368 368 366 368 366 366 366 367 364 366 367 366 367 367 368 369 369 371 370 370 367 368 370 368 368 369 369 368 366 365
332 334 337 338 339 342 348 353 353 354 357 358 358 359 361 361 362 362 362 363 364 364 364 364 365 367 369 369 366 366 367 367 368 368 370 368 367 366 365 367 367 367 367 366 367 368 366 369 368 369 370 370 371 371 368 370 371 367 368 369 368 367 364
330 336 337 336 339 339 344 352 354 354 357 357 357 359 360 360 360 360 362 363 363 362 363 363 365 366 369 368 367 367 367 367 367 369 369 366 366 364 364 365 368 369 367 365 366 369 368 368 369 371 371 371 371 372 370 371 371 370 369 369 369 366 364
330 334 337 338 338 336 340 346 354 357 357 357 358 359 359 360 361 361 361 361 362 361 363 363 364 365 368 369 367 368 368 368 368 367 367 365 365 364 364 363 366 368 368 366 365 365 369 370 371 372 372 370 370 371 372 370 370 371 369 369 369 368 366
329 337 339 338 341 341 342 344 352 358 358 363 361 356 359 359 359 360 360 361 361 361 363 364 364 364 367 367 364 365 367 367 366 367 367 364 363 362 362 361 361 366 367 367 364 363 368 370 371 372 373 369 369 370 371 370 371 371 369 368 369 369 367
336 342 347 346 345 344 345 355 358 361 362 363 357 356 360 362 359 359 360 361 361 361 362 363 363 364 366 366 363 365 367 368 366 365 365 363 362 360 360 359 360 362 366 367 365 364 362 369 370 370 372 373 371 371 372 373 372 372 371 368 368 369 368
338 342 346 342 345 345 352 358 358 359 362 358 356 356 356 357 358 358 361 361 361 362 363 364 364 367 366 367 364 365 367 366 365 364 364 364 362 361 359 359 358 359 362 366 366 364 362 363 369 370 372 373 372 371 372 373 373 373 372 370 369 369 369
342 338 343 346 347 347 348 351 355 358 360 357 355 356 356 356 356 359 360 359 360 360 361 362 365 369 368 367 366 367 366 367 367 366 366 366 369 364 361 360 360 361 362 365 367 365 363 361 365 370 371 372 373 373 374 375 373 373 374 372 369 369 370
326 331 338 343 350 352 351 349 354 355 356 356 354 355 355 355 356 360 361 360 361 359 360 364 368 368 365 368 368 368 370 370 369 369 368 367 369 366 363 362 363 364 364 366 366 366 365 364 362 368 370 372 373 373 373 373 373 374 372 372 371 370 369
324 324 330 337 345 349 355 354 357 357 358 360 356 356 354 355 358 357 357 358 358 361 362 365 367 367 367 367 368 370 372 372 372 371 371 368 368 371 368 363 364 363 363 365 365 368 369 369 366 364 368 370 372 373 373 373 374 361 346 352 371 371 368
324 328 328 333 345 345 350 352 356 359 360 361 359 357 356 357 357 357 356 357 358 364 363 360 367 364 364 366 369 371 373 373 372 372 372 372 371 373 372 369 367 369 370 369 368 370 374 369 366 364 365 369 370 371 372 372 371 344 337 340 346 366 370
324 326 326 327 334 347 349 350 353 359 360 358 359 358 357 360 357 357 356 357 357 357 357 358 359 362 365 366 370 372 372 372 373 372 372 372 373 373 373 370 369 370 370 368 367 371 368 368 368 369 366 367 369 370 371 372 352 335 335 337 338 347 371
324 324 326 330 330 333 336 339 346 358 355 357 358 357 357 358 356 360 359 360 362 362 357 355 356 362 366 366 369 371 372 372 372 372 372 372 372 373 374 372 371 369 368 367 369 369 370 372 368 369 368 367 369 369 370 372 345 333 332 335 335 336 351
324 324 326 327 328 328 334 339 343 340 345 356 358 357 358 359 355 359 361 360 362 361 361 362 359 362 364 367 369 370 372 372 372 372 372 373 373 372 372 372 371 368 368 369 369 369 370 369 370 371 371 369 370 370 370 371 343 330 329 331 331 333 342
327 328 329 330 332 331 338 344 357 354 350 345 347 355 357 358 356 359 362 361 360 362 364 360 361 364 366 366 368 370 371 372 371 371 372 373 373 372 371 371 372 370 368 367 368 369 370 369 370 370 371 369 367 367 367 369 337 327 326 327 327 330 335
328 328 327 329 333 359 365 357 359 354 358 358 353 351 353 355 358 358 360 361 358 359 360 362 363 362 364 367 367 369 371 371 371 371 372 372 372 371 370 371 372 371 370 368 367 369 370 371 370 369 369 370 369 365 365 366 331 324 325 325 325 327 350
326 328 329 332 335 350 366 366 362 359 363 364 361 353 351 351 354 358 358 358 357 359 360 361 361 360 364 366 368 369 371 371 370 370 370 371 370 370 369 369 371 371 371 368 367 366 367 369 369 371 370 370 370 368 367 367 340 320 322 323 322 329 357
327 330 330 339 356 357 360 360 359 360 361 360 362 361 356 351 356 363 362 361 360 358 359 358 357 358 362 367 369 370 371 371 370 369 369 370 369 369 369 369 371 371 372 368 365 363 365 368 369 371 370 368 368 368 369 368 345 317 319 320 319 332 358
330 343 356 357 355 352 354 361 365 364 364 366 363 365 362 357 357 360 358 358 356 355 356 357 358 359 361 366 369 370 369 369 369 369 369 370 370 369 369 369 370 371 371 369 368 366 367 366 367 369 370 369 368 355 363 368 348 316 318 317 318 332 360
357 354 353 353 354 360 361 362 363 361 362 359 361 366 365 356 356 360 356 355 356 354 355 359 361 362 364 367 369 370 369 369 371 370 369 369 370 370 369 371 370 370 369 369 368 367 366 364 365 366 367 369 369 368 368 367 371 339 316 316 316 321 357
350 350 349 349 352 356 355 357 361 360 362 368 370 364 361 355 354 357 359 360 359 357 357 362 363 365 367 367 367 368 369 369 369 369 368 369 369 369 368 369 368 367 368 367 367 367 367 366 365 364 366 366 369 369 369 369 367 358 314 315 314 316 331
350 351 353 357 356 355 354 357 362 363 360 362 362 363 360 358 358 359 360 360 359 360 359 363 365 366 367 367 367 366 367 367 370 370 368 370 370 370 368 369 369 368 368 366 368 368 367 369 367 365 364 365 365 368 368 364 349 370 317 315 312 315 318
350 349 350 351 354 357 353 357 360 361 362 364 362 359 360 360 358 360 361 360 363 363 363 363 365 366 367 367 367 368 368 369 369 368 368 368 369 370 368 369 368 369 370 369 368 367 367 367 366 364 362 363 364 367 368 370 368 339 340 314 313 312 315
350 349 349 349 350 354 353 357 358 358 361 361 366 362 361 361 360 362 363 362 366 364 363 366 366 368 367 367 367 366 366 366 367 369 369 369 370 369 370 369 369 369 369 369 367 365 365 365 365 364 362 361 359 362 362 372 368 349 330 326 311 312 312
346 346 347 349 349 353 355 355 356 357 357 360 364 365 363 363 362 363 361 364 365 364 363 365 367 367 366 366 366 366 365 365 367 368 368 369 369 368 367 369 370 367 369 369 366 365 363 362 362 362 362 361 360 362 366 365 367 364 344 321 314 312 311
344 347 347 349 352 352 353 354 355 356 355 356 359 362 364 367 367 363 365 368 368 369 369 369 369 368 367 367 367 365 366 365 365 367 368 369 369 369 368 368 366 365 366 364 362 361 361 361 360 359 360 360 361 361 362 367 365 368 363 330 320 315 313
346 348 349 350 351 352 353 354 353 353 352 353 357 358 359 363 364 364 365 366 368 367 368 368 367 365 366 366 365 367 366 365 363 365 367 368 365 365 365 364 363 363 362 363 361 362 361 361 360 360 358 359 360 360 364 363 363 365 365 365 346 338 331
346 348 350 350 351 353 353 352 352 351 352 352 355 356 357 358 359 360 362 362 365 368 368 364 363 363 364 365 365 364 365 364 364 364 363 364 364 362 361 361 362 361 362 360 360 359 360 360 359 358 359 359 359 360 361 361 362 363 360 354 350 352 349
347 347 348 350 350 351 351 349 349 350 350 350 353 355 356 358 360 362 364 365 367 368 367 365 363 367 367 365 365 364 365 365 365 364 363 362 365 366 357 363 363 369 365 361 360 365 369 370 369 366 367 366 364 363 362 363 364 356 311 322 312 323 338
346 346 346 348 349 349 349 349 349 349 348 349 351 352 353 355 357 359 360 363 366 369 367 365 366 366 365 365 365 364 363 364 362 363 360 359 363 361 350 327 312 333 363 351 324 311 310 320 343 337 341 346 349 350 345 346 342 311 304 303 302 301 304
344 345 346 347 347 347 346 346 347 347 347 348 349 349 349 350 352 354 357 359 361 364 363 363 361 360 361 361 361 358 362 361 363 365 366 366 364 365 355 346 343 306 306 319 319 310 302 299 299 303 311 333 340 336 321 317 309 303 301 299 299 298 298
346 346 346 347 345 345 345 345 345 345 346 347 348 348 348 347 349 352 353 356 358 359 359 358 355 354 354 354 355 354 358 358 359 360 359 358 359 357 355 347 340 341 317 303 310 304 299 298 297 297 299 303 311 321 334 320 308 302 300 299 298 298 298

ECMWFFLT1_sfc_thetae_060.txt.gz
Theta_e
336 338 340 340 341 343 344 347 350 349 352 355 356 355 355 356 358 360 361 362 362 361 362 363 363 364 363 363 364 364 365 364 364 364 363 362 362 363 366 367 365 365 364 365 365 364 367 368 367 366 368 370 370 370 371 369 370 370 371 372 372 370 366
331 338 338 340 341 342 345 348 348 347 355 357 356 356 356 356 359 360 361 363 363 362 362 364 364 364 364 364 364 364 364 364 365 365 364 363 363 364 366 369 368 368 367 366 367 368 369 367 368 367 367 369 369 370 370 371 370 370 369 371 370 371 368
331 331 337 338 338 341 343 347 352 353 355 355 356 355 355 358 360 361 362 363 363 364 364 363 364 364 364 365 364 364 363 364 365 365 363 361 363 359 363 367 369 369 368 368 369 369 368 368 368 370 368 368 368 371 370 370 371 370 371 372 370 369 368
332 330 340 341 341 341 342 343 351 353 354 356 356 355 357 360 361 363 364 364 363 365 364 364 364 364 366 365 364 363 363 364 364 363 361 362 362 361 361 363 367 367 368 366 365 366 364 366 367 367 370 368 368 370 371 369 369 371 371 372 370 369 369
336 335 335 335 337 341 343 346 349 355 355 357 358 359 359 361 360 362 364 365 366 364 365 365 363 366 366 365 363 363 364 364 364 363 362 363 364 362 360 358 362 363 364 367 367 365 366 367 366 366 367 369 369 371 371 370 370 371 370 370 369 368 369
334 334 336 338 338 341 343 344 352 355 355 356 358 358 357 358 358 359 362 365 366 367 368 367 366 367 366 365 365 365 365 364 364 365 363 363 364 362 359 359 359 360 360 365 367 366 365 368 366 367 366 366 366 367 369 370 369 370 370 369 368 366 366
334 335 336 339 338 340 346 350 353 355 356 357 359 360 358 357 357 358 361 364 365 365 365 365 365 364 365 366 364 366 364 364 364 364 364 364 363 362 361 360 360 361 361 365 365 367 364 364 366 368 368 365 364 365 367 369 368 368 369 368 366 367 367
336 335 336 338 339 343 346 349 352 355 357 358 358 358 358 358 357 358 360 363 364 364 365 365 365 366 366 367 364 363 364 363 364 364 363 362 362 361 361 362 361 362 365 364 366 367 365 364 363 367 369 368 367 367 368 370 369 367 368 367 366 366 366
336 337 336 338 337 336 343 348 350 354 358 358 357 359 359 358 358 358 360 362 364 364 364 364 365 366 367 366 364 363 363 364 364 363 361 359 359 357 357 361 363 363 364 363 363 366 366 366 364 365 368 368 369 369 369 370 369 368 367 367 367 366 364
335 335 336 335 337 335 338 344 352 356 358 359 359 361 360 360 360 360 360 361 363 363 364 365 365 364 366 365 364 364 364 364 364 360 359 359 360 358 356 358 360 363 363 363 362 363 365 367 367 368 368 368 369 370 369 369 369 368 367 367 368 367 365
333 337 338 335 339 338 344 346 351 356 358 359 360 360 361 361 361 360 360 361 361 362 364 365 366 365 364 363 362 362 363 362 363 364 362 361 359 358 357 357 359 361 360 360 359 363 365 366 368 369 369 367 368 370 370 369 369 368 366 367 368 368 367
338 338 340 340 344 340 342 346 353 358 359 360 360 359 362 363 362 360 361 362 363 363 364 364 364 363 365 365 363 362 362 362 361 361 361 361 360 358 359 357 357 360 362 363 360 360 362 366 365 368 369 368 368 370 371 370 370 369 368 366 367 368 367
345 345 341 341 349 342 342 347 358 359 361 361 358 358 362 362 361 361 363 363 363 364 364 366 365 365 366 366 362 363 362 363 361 361 362 363 361 359 359 358 357 357 360 363 362 358 356 363 366 366 370 370 369 368 370 370 370 370 370 368 367 368 368
344 337 344 349 350 357 362 350 359 362 362 360 357 358 359 361 361 362 365 363 363 362 363 363 365 366 366 366 364 363 362 364 362 362 363 363 363 362 361 359 358 358 360 364 363 360 359 359 365 367 368 370 370 370 370 371 371 371 371 370 369 368 368
330 331 337 339 357 364 364 365 364 364 362 361 359 358 359 359 361 363 366 365 364 362 363 365 366 367 366 366 365 364 364 365 365 364 363 363 364 363 361 361 361 360 360 363 364 363 362 360 360 366 367 369 371 370 370 369 370 370 370 370 369 368 366
326 328 330 339 346 350 361 363 368 367 367 364 360 361 357 359 362 363 363 364 364 364 365 367 367 367 366 366 367 367 367 367 367 366 365 364 365 364 362 362 361 360 359 360 364 365 366 363 360 361 367 367 370 372 371 369 370 359 347 352 368 368 366
324 327 335 338 352 348 359 362 364 368 368 367 364 363 360 360 362 364 359 362 362 365 367 368 368 367 366 366 368 369 369 368 368 368 366 366 365 366 363 362 362 361 361 361 362 364 367 366 364 359 361 367 368 370 370 369 368 346 338 340 346 363 366
326 332 332 333 341 345 356 356 359 361 362 361 361 364 362 363 362 362 358 362 362 363 365 364 368 367 367 368 370 371 370 369 370 369 368 367 365 366 365 363 361 361 362 362 362 364 367 367 366 364 360 365 368 368 369 369 352 337 336 337 339 347 366
327 328 335 345 351 352 346 347 350 360 356 357 359 357 358 363 360 360 361 362 364 364 361 361 362 369 368 368 370 371 371 371 370 369 369 368 366 367 367 365 362 361 361 361 362 363 365 367 367 366 365 363 367 368 369 370 347 334 333 335 335 337 350
323 324 325 328 332 337 345 351 354 357 357 362 362 355 357 360 360 363 365 366 367 364 363 362 361 368 369 369 371 372 372 372 371 370 370 370 369 368 368 367 363 361 361 362 364 364 364 365 367 367 367 365 366 368 369 370 347 331 330 331 332 334 341
327 333 337 341 341 337 356 357 362 361 359 354 357 362 359 360 361 366 368 366 367 366 364 363 362 364 370 368 371 373 373 373 372 371 371 372 371 369 369 369 368 365 362 361 363 363 363 364 365 367 367 367 365 366 368 369 342 328 327 328 328 330 334
324 324 326 333 348 361 364 357 359 352 366 361 351 347 359 359 357 361 366 366 365 365 364 363 363 362 369 368 369 371 373 373 373 373 372 372 372 370 369 371 370 367 366 363 362 365 367 368 366 365 366 368 367 364 364 366 336 327 326 326 326 328 344
323 327 333 343 341 364 368 364 360 359 362 362 357 353 356 357 358 361 363 363 359 363 364 363 362 361 366 367 368 370 372 373 373 373 373 372 371 370 370 371 371 371 369 365 365 365 366 366 366 367 367 367 368 366 364 364 342 323 323 323 324 328 350
349 342 349 352 359 356 363 365 364 363 360 357 356 358 362 356 366 364 363 363 362 361 362 361 361 362 365 368 369 370 372 374 374 372 372 373 371 370 371 372 371 371 371 367 364 363 365 366 367 368 369 367 367 367 366 367 348 319 319 320 322 331 353
347 345 348 354 355 357 359 360 362 359 357 358 356 362 365 363 364 373 364 363 357 356 357 359 361 362 362 368 371 371 372 374 374 373 372 372 372 371 371 371 371 372 373 368 366 363 366 367 367 368 369 367 366 355 363 367 353 319 318 318 319 329 355
350 350 350 353 352 351 355 357 357 359 361 360 363 361 362 361 362 367 368 360 357 356 357 360 362 364 365 370 372 372 372 373 374 373 371 371 373 373 372 372 370 371 371 370 367 365 364 365 366 368 368 367 366 366 366 367 368 346 316 316 316 320 352
351 351 350 349 349 360 356 354 356 358 360 362 365 369 368 364 363 363 368 367 361 358 358 364 368 369 367 369 371 371 371 372 374 373 372 372 371 372 371 370 369 369 370 368 367 366 365 364 363 364 367 368 369 368 368 368 368 359 316 314 315 316 329
349 350 349 351 353 356 355 354 358 360 361 366 365 363 361 369 369 368 370 368 363 365 367 373 372 371 369 369 370 370 371 371 373 373 371 372 374 373 371 371 371 370 370 368 369 369 368 366 364 363 363 366 368 369 370 367 352 370 322 315 313 315 316
349 348 347 348 349 353 352 351 354 357 360 360 362 366 365 367 367 368 371 367 369 372 372 376 373 372 371 370 370 371 372 372 372 371 371 372 373 373 371 372 371 370 371 370 370 370 368 368 367 365 364 366 367 369 370 373 368 342 344 315 313 312 314
348 346 346 346 346 348 351 353 358 359 360 358 362 367 368 367 367 368 369 369 376 376 374 378 378 373 371 369 369 370 370 371 371 372 371 373 373 372 371 371 371 371 371 371 369 369 368 368 368 366 364 364 365 368 370 378 373 353 334 327 311 312 312
345 345 345 346 345 350 350 351 354 355 358 360 362 367 368 367 367 366 364 370 375 376 373 374 377 372 369 369 369 370 370 371 371 372 372 373 372 371 370 370 370 369 371 371 369 368 367 367 367 367 366 366 365 367 371 371 377 368 344 323 314 312 311
344 345 346 348 350 351 352 353 355 356 355 357 360 365 367 366 368 362 366 372 374 375 373 373 374 371 369 369 369 369 368 369 368 372 370 372 371 372 371 370 368 367 370 369 367 367 368 368 365 365 364 364 364 365 365 370 373 371 363 331 320 316 311
344 345 346 348 351 352 354 354 353 353 353 354 357 361 363 364 368 370 372 371 368 372 373 376 373 370 370 370 368 369 368 367 364 365 368 371 368 370 370 369 368 368 368 368 366 366 365 365 363 361 360 360 364 364 367 367 373 363 347 348 348 343 334
344 347 350 351 351 352 353 353 352 352 353 352 356 359 358 360 362 363 365 365 367 369 374 372 372 369 370 371 370 368 368 368 367 366 362 364 363 363 363 364 365 365 368 364 364 363 362 360 359 358 359 360 361 364 366 367 344 325 330 327 327 332 339
345 347 350 351 352 352 351 350 350 350 350 351 355 357 359 359 361 360 361 363 370 375 368 369 368 370 370 369 368 370 370 370 370 367 363 362 348 340 335 349 363 363 344 337 344 365 372 368 360 356 357 354 351 354 355 343 330 324 310 316 309 319 323
346 347 348 350 350 350 349 350 350 349 349 351 354 354 356 358 360 362 364 369 372 370 371 368 368 368 368 368 370 369 368 368 366 365 362 356 349 343 337 323 311 333 342 332 318 313 315 324 344 348 353 342 335 338 338 331 327 306 300 299 300 300 302
344 346 347 348 348 347 347 348 348 348 348 349 351 351 353 356 357 361 363 367 369 371 370 370 370 368 366 367 366 363 364 363 366 368 371 359 353 345 336 333 326 303 305 315 314 307 302 301 304 309 319 340 335 325 312 312 305 301 299 298 299 298 299
346 347 347 348 347 347 346 345 346 346 347 348 349 349 351 350 353 358 357 362 364 369 368 367 365 363 361 360 363 364 368 370 368 366 365 362 356 348 341 338 336 332 308 300 305 304 301 301 301 303 306 312 322 334 336 320 310 301 300 301 300 300 299

ECMWFFLT1_sfc_thetae_063.txt.gz
Theta_e
335 335 336 338 338 340 341 342 342 342 343 346 347 349 351 351 352 353 353 353 353 352 353 354 355 353 352 352 353 354 354 354 355 355 355 355 356 357 356 356 355 356 356 357 358 358 358 359 359 359 361 362 361 362 362 362 361 361 361 363 360 361 358
334 335 336 338 339 340 341 342 342 342 342 346 348 349 351 351 352 353 353 353 353 353 353 354 355 354 353 353 354 354 354 354 355 357 356 356 357 358 358 356 355 356 357 358 359 360 361 361 359 359 361 362 362 362 363 361 361 361 360 362 361 359 358
335 335 335 337 338 339 340 341 342 342 342 345 348 349 351 352 353 353 353 353 353 353 354 354 355 355 354 354 354 354 354 355 355 355 355 355 356 357 359 358 356 355 358 358 359 360 362 361 360 359 361 361 362 362 363 362 361 361 361 361 362 360 358
333 333 333 336 338 340 341 341 341 342 343 345 348 349 350 352 353 354 354 354 353 353 353 354 355 355 355 354 354 355 355 355 355 355 356 356 356 356 359 359 358 357 357 359 360 361 363 362 360 360 364 361 361 362 362 362 361 361 361 362 361 361 360
332 333 334 335 337 338 340 341 341 342 343 346 348 349 351 353 354 355 355 355 355 354 354 355 356 356 356 356 355 356 356 355 355 356 356 356 357 356 356 359 360 359 358 359 361 361 360 360 360 360 360 360 361 362 362 362 362 361 361 362 361 361 361
331 332 333 335 337 338 340 342 343 343 344 347 349 349 351 353 354 354 356 356 355 356 356 356 356 356 355 356 356 356 357 357 357 356 356 356 356 355 354 356 361 361 361 360 361 361 360 360 360 359 360 360 361 361 362 361 362 362 361 362 362 361 361
332 332 333 335 336 337 339 341 343 344 346 347 349 351 352 353 353 354 356 356 357 355 355 355 356 356 356 357 357 356 356 356 357 357 357 356 356 355 354 354 356 361 362 362 361 360 360 359 359 358 359 361 361 361 362 362 361 362 362 362 362 362 362
333 331 333 334 336 338 339 341 343 344 345 349 351 351 351 353 353 354 355 356 357 357 356 356 356 356 356 357 357 356 356 356 357 357 357 356 355 355 354 354 354 356 359 360 361 360 358 359 360 359 358 359 361 361 362 363 362 362 363 362 361 361 362
333 332 333 334 335 337 338 340 342 345 345 346 351 352 352 353 353 353 355 356 357 357 357 357 357 357 357 357 357 356 357 357 356 356 356 355 355 355 355 354 353 354 355 357 360 361 359 357 360 360 359 358 359 360 361 363 363 363 363 362 361 360 361
332 333 333 334 335 336 337 338 340 343 346 348 351 352 352 353 353 354 355 356 357 357 358 358 358 358 357 357 357 357 357 356 356 355 355 354 355 354 355 355 354 354 354 355 357 360 361 359 357 359 360 359 358 358 359 362 363 363 362 362 361 360 359
331 332 333 333 334 334 336 338 340 341 344 348 351 353 353 353 353 354 354 356 357 359 360 360 360 358 358 357 357 357 356 356 356 355 354 354 354 354 355 355 354 354 354 355 355 357 359 360 358 357 360 361 359 358 358 360 363 362 362 362 362 361 360
329 332 332 332 333 334 335 339 342 346 347 349 352 353 353 353 353 354 354 355 358 360 361 361 362 360 358 358 357 356 356 356 355 355 354 354 354 354 355 354 354 354 354 355 355 356 358 359 359 357 356 360 362 361 360 360 362 362 362 361 361 361 360
329 330 332 332 333 335 339 343 345 349 350 351 352 353 354 354 354 354 354 354 357 360 361 362 362 361 359 358 357 356 356 355 355 355 354 354 354 354 354 353 353 354 354 355 355 356 357 358 359 359 357 357 360 362 362 361 362 362 362 361 361 361 360
338 330 332 333 333 336 339 342 344 349 351 352 352 353 355 355 355 355 354 354 357 360 362 363 362 361 360 358 357 356 356 356 356 355 355 354 354 353 353 353 352 352 355 355 354 354 355 357 358 359 360 359 359 360 363 363 362 362 362 362 361 361 361
329 329 330 331 330 335 338 340 343 348 351 352 353 353 355 356 356 356 356 356 357 359 361 362 362 361 360 359 357 356 356 356 356 355 355 355 353 352 352 352 351 352 353 354 354 355 354 356 358 358 359 361 360 360 361 363 363 363 362 362 361 360 360
329 330 336 332 330 334 337 340 343 348 351 352 352 353 355 356 356 356 356 357 357 358 360 362 361 360 360 359 358 357 357 356 355 355 355 355 354 353 353 353 352 351 352 354 354 353 353 353 356 358 358 359 361 361 361 362 364 356 345 349 361 361 360
331 336 342 340 338 340 341 344 347 349 351 352 352 352 354 356 357 357 358 358 358 358 359 361 360 360 360 359 360 359 358 356 355 355 354 355 355 355 354 353 353 352 351 353 355 354 354 353 352 355 358 358 359 361 361 362 361 344 337 338 343 358 361
330 333 339 344 348 352 353 354 354 353 353 353 353 352 353 355 357 357 357 358 359 359 360 360 360 360 359 360 361 361 359 357 356 355 354 354 355 355 354 354 353 352 351 352 354 356 356 355 353 353 357 359 359 361 362 362 349 337 334 335 335 343 361
327 330 335 339 344 348 351 354 356 356 355 355 354 353 354 355 356 356 357 358 360 360 359 359 360 360 360 360 361 361 360 359 357 356 355 354 355 355 355 353 353 352 352 351 353 356 356 356 355 354 355 359 359 359 361 362 345 335 332 333 333 334 346
329 332 337 340 342 343 344 347 352 355 356 356 356 357 356 356 355 357 358 359 360 359 359 358 359 360 360 360 360 361 361 360 358 357 357 356 355 355 355 354 352 353 353 353 353 353 356 357 357 356 354 356 359 360 361 362 347 333 330 330 330 332 337
318 329 337 338 338 345 342 341 347 351 352 353 355 354 354 355 356 357 356 358 358 358 358 358 357 359 360 360 361 361 362 361 359 358 358 358 357 356 356 355 354 353 353 353 352 352 353 356 357 357 357 356 357 360 361 363 342 330 328 327 327 329 333
327 320 325 342 351 350 349 352 353 356 356 357 356 353 353 352 355 357 356 358 358 357 357 357 356 357 361 360 361 362 362 362 360 360 359 359 359 357 356 356 356 354 353 353 353 353 353 354 357 358 358 358 356 356 359 363 337 329 327 326 326 327 343
348 349 350 352 355 354 352 351 351 354 354 350 351 352 353 352 353 356 356 356 357 357 356 356 355 355 361 361 361 362 363 363 362 361 361 361 360 358 357 357 357 356 355 352 352 352 353 353 354 357 359 359 358 356 356 360 343 328 325 324 324 328 348
347 346 346 346 346 350 353 354 354 356 356 355 355 354 354 357 354 352 354 354 354 356 356 355 354 355 357 362 362 363 364 364 363 362 362 361 361 360 359 359 359 359 357 354 352 352 353 354 355 356 357 358 359 359 357 357 345 324 324 322 322 331 351
345 344 345 348 348 347 350 352 355 355 352 347 346 348 350 356 357 355 353 355 354 354 355 355 354 354 354 359 363 364 365 365 365 364 363 362 362 362 361 360 360 361 361 358 355 353 354 355 355 356 357 358 359 353 357 359 349 322 320 320 320 330 352
343 343 342 344 352 351 350 352 353 354 352 356 356 358 355 352 354 358 357 354 354 352 352 354 355 355 355 358 363 364 366 366 366 365 364 364 364 364 364 363 363 363 362 361 359 356 355 356 357 356 357 358 358 359 359 359 360 344 315 316 316 320 348
344 344 343 345 350 356 349 349 353 354 355 356 358 357 357 360 358 352 356 357 353 351 352 353 355 357 356 359 363 364 365 366 367 366 366 366 366 366 365 365 364 364 364 363 362 359 357 357 358 358 359 359 360 360 360 361 360 354 314 313 314 317 327
343 343 344 345 350 351 346 349 349 352 353 355 357 359 360 358 354 357 354 355 356 354 353 355 357 358 357 359 363 363 364 365 367 368 367 367 367 366 365 365 366 365 364 364 362 360 358 357 356 358 359 360 361 361 361 361 351 362 320 314 312 314 316
341 340 341 341 341 346 347 345 351 354 354 355 355 357 360 359 356 357 358 357 358 359 358 359 359 359 358 359 362 363 363 364 366 367 368 367 367 366 365 365 365 364 364 363 362 360 358 357 356 356 355 357 361 362 362 363 359 341 339 313 312 311 313
340 340 342 344 344 344 349 346 350 349 352 357 356 357 359 359 356 356 357 358 362 363 362 365 361 360 358 357 360 363 363 364 366 367 367 366 366 365 364 364 364 363 363 363 362 360 359 358 357 356 354 354 356 360 362 363 364 348 336 328 313 313 312
339 340 341 342 347 351 350 348 348 348 351 352 353 356 359 361 357 356 355 359 364 363 363 367 363 360 358 357 359 362 364 365 366 366 366 366 366 364 364 363 364 362 362 362 362 361 360 359 358 357 355 355 355 356 358 363 367 346 327 318 315 313 312
340 341 343 345 347 348 348 349 350 351 351 352 353 355 362 358 356 356 359 364 365 364 362 367 364 360 358 358 360 362 365 365 365 365 365 365 366 366 365 364 363 362 362 362 362 361 360 359 359 358 357 356 357 357 359 361 348 338 334 327 319 316 312
340 341 344 344 348 352 348 348 349 349 350 350 351 352 355 356 357 356 358 361 363 363 362 363 363 361 360 359 360 362 363 363 363 364 364 364 365 366 366 365 364 362 360 362 362 361 360 360 358 357 357 357 357 358 354 333 331 329 327 329 335 332 323
339 340 344 346 348 349 348 347 347 346 346 347 349 351 354 357 357 359 359 361 363 365 365 363 362 361 360 360 361 360 361 360 372 366 363 363 364 365 365 364 362 361 361 361 361 360 359 360 358 357 357 357 358 355 332 326 324 322 322 321 323 323 327
339 340 342 344 345 350 345 345 346 345 346 345 346 348 350 353 356 359 361 364 365 366 361 360 361 362 361 361 360 359 360 360 361 360 352 338 328 319 314 319 352 354 338 331 332 358 361 358 353 347 346 348 347 337 329 325 323 321 313 316 311 320 324
338 340 343 345 346 345 344 347 345 343 343 344 346 347 348 349 351 356 359 362 365 365 359 358 359 359 360 361 360 360 360 360 358 350 343 337 332 328 323 314 302 309 329 325 318 314 325 330 343 339 332 328 327 331 328 325 324 309 301 301 301 300 303
338 339 342 345 344 344 342 342 344 343 343 343 345 345 347 347 350 351 352 356 359 361 360 358 357 357 359 360 361 357 360 360 355 344 340 336 333 330 326 322 318 303 300 308 312 310 306 306 308 312 319 328 325 319 313 313 304 298 298 298 299 301 300
338 340 343 344 344 342 340 340 342 342 341 342 344 346 345 347 349 351 351 354 356 357 355 352 350 349 350 353 353 355 358 357 348 342 337 334 333 330 326 324 322 321 308 301 305 307 305 305 305 306 309 313 317 320 315 304 298 297 296 297 297 298 298

ECMWFFLT1_sfc_thetae_066.txt.gz
Theta_e
334 335 336 338 338 338 337 338 338 339 339 340 342 343 344 345 346 347 347 347 347 347 348 349 349 349 348 348 349 350 350 350 350 349 348 351 351 348 348 351 349 349 352 353 353 354 355 356 357 356 358 360 360 361 361 362 361 361 360 358 357 356 355
333 334 336 338 338 338 338 338 339 340 340 341 342 344 345 345 346 346 347 347 347 348 348 349 349 348 348 348 349 350 350 350 350 351 350 349 352 352 350 351 352 350 352 354 355 355 356 355 357 356 357 359 359 360 361 361 361 360 359 358 356 356 355
333 334 335 337 338 338 338 339 339 340 341 341 343 344 345 346 347 347 348 348 347 348 349 349 350 348 349 349 348 349 350 350 350 350 350 349 349 353 353 352 353 352 352 354 355 356 357 355 356 357 357 358 358 359 360 360 360 360 358 358 357 356 355
333 334 335 337 338 339 339 339 340 340 342 342 343 344 345 346 348 349 349 349 348 348 348 349 350 349 349 348 348 348 349 350 350 350 351 351 349 351 354 353 352 354 353 354 356 357 358 356 356 356 360 357 358 358 359 360 360 359 358 357 358 357 356
333 334 335 336 337 338 338 339 340 340 341 343 344 346 346 348 349 350 350 350 350 348 349 350 351 351 350 349 349 349 350 350 351 351 351 352 352 351 353 354 353 352 354 355 356 357 357 357 356 355 357 357 357 358 358 359 359 359 358 357 356 357 356
332 333 334 335 336 337 339 340 340 341 341 343 344 345 347 348 349 350 350 351 350 351 350 350 351 352 350 350 350 350 350 351 351 352 352 352 352 352 352 354 354 353 353 355 357 357 358 357 357 356 356 357 358 358 358 359 359 358 358 357 356 357 357
332 333 334 335 336 337 338 340 341 341 342 343 345 347 348 348 349 350 351 351 351 350 350 350 351 351 352 351 350 350 350 350 351 351 352 352 353 353 353 354 356 355 354 354 356 357 358 358 357 357 356 357 357 358 358 358 358 358 358 357 356 356 357
332 333 334 335 336 337 338 340 341 342 342 343 344 346 347 349 350 350 350 351 351 352 351 351 351 351 352 352 352 350 350 351 351 352 352 352 352 353 353 354 356 356 355 353 354 357 357 358 358 358 357 356 356 357 358 358 358 358 358 356 356 356 357
332 333 334 334 335 337 338 339 341 341 341 341 343 345 347 349 349 350 351 351 352 351 351 352 352 352 352 353 352 351 351 352 352 352 351 351 351 352 353 353 354 357 356 354 354 356 357 357 357 358 357 357 357 357 357 358 358 358 358 357 356 356 357
332 332 333 334 336 337 338 339 340 340 340 340 341 344 346 348 350 351 351 352 352 351 352 352 353 353 352 352 352 353 352 352 352 352 352 351 351 351 352 353 353 356 358 357 356 355 357 357 356 356 356 356 356 356 357 357 358 358 358 358 357 356 356
331 332 332 333 334 335 337 338 338 339 340 340 341 343 345 347 349 350 351 352 352 352 353 353 354 353 353 352 352 352 352 352 352 352 352 352 352 351 352 352 352 353 355 358 358 357 356 357 357 356 356 355 355 356 357 357 358 358 358 358 359 358 357
330 331 331 332 333 334 335 337 339 339 339 341 342 343 344 346 348 349 351 352 353 353 353 353 354 354 353 353 352 352 352 352 352 352 352 353 353 352 352 352 352 352 352 354 357 358 358 357 356 357 356 356 355 355 357 358 358 358 358 358 359 358 358
329 330 331 332 333 334 336 336 338 339 340 341 343 344 345 346 347 349 350 351 353 354 354 354 354 353 353 353 352 352 352 352 352 353 353 353 353 354 353 353 353 352 351 352 353 355 357 358 356 356 357 357 356 355 356 357 358 359 359 359 359 359 358
336 329 331 332 333 333 334 335 337 339 340 341 344 345 346 347 348 349 349 350 352 354 355 355 355 354 353 353 352 352 352 353 353 353 353 353 354 353 353 353 353 352 352 352 351 351 353 356 357 357 356 356 357 357 356 355 356 357 359 359 359 359 359
328 328 329 330 331 332 333 334 336 338 340 342 344 346 347 347 348 349 350 351 353 354 355 356 355 354 354 353 352 352 353 354 354 354 354 354 353 353 353 353 352 353 352 351 351 352 351 353 356 357 356 355 355 357 358 357 356 356 357 358 359 359 358
328 328 329 329 330 331 332 334 336 338 340 342 344 347 348 348 349 350 350 351 352 354 356 357 356 355 354 353 353 353 354 354 354 354 354 353 352 352 352 352 352 352 352 351 351 351 351 351 352 354 356 355 354 355 357 358 358 351 341 344 358 359 359
328 328 329 329 329 330 331 334 336 338 339 341 344 347 349 350 350 351 351 352 352 353 356 357 357 356 355 355 355 355 354 354 354 354 353 353 353 352 352 351 351 351 351 351 351 350 350 351 351 352 354 355 355 354 354 356 358 342 335 335 339 355 358
327 327 328 329 329 330 331 335 337 339 340 341 344 347 350 351 351 351 351 352 352 354 356 358 358 357 357 357 357 356 355 354 354 354 353 353 352 352 352 351 350 350 350 349 350 351 351 350 350 351 353 354 354 355 355 355 344 336 334 334 333 340 358
326 327 328 328 329 332 334 337 339 342 343 344 345 347 350 353 352 352 352 353 353 355 356 357 358 358 357 358 358 357 356 355 354 354 353 353 353 353 352 351 350 349 348 348 349 350 350 349 350 350 352 353 353 354 355 355 341 333 331 332 331 331 342
331 331 329 329 331 333 335 338 341 344 347 348 349 350 351 354 354 354 355 355 355 354 355 356 357 358 358 358 358 358 357 356 355 354 354 353 353 353 352 351 349 349 349 349 348 348 349 350 349 349 349 351 353 353 355 356 343 332 328 328 329 330 335
334 336 336 336 336 337 339 342 344 346 347 349 351 351 352 353 355 355 355 355 355 355 354 355 356 357 358 358 358 359 358 357 356 354 354 353 353 352 352 351 350 350 349 349 348 347 348 349 349 349 349 349 351 353 353 355 339 329 326 325 325 328 330
341 344 344 344 342 343 346 348 349 350 349 352 354 352 352 353 355 355 355 356 356 356 355 355 355 356 357 358 358 359 358 358 356 355 354 353 352 351 351 351 351 350 350 350 349 349 349 350 351 350 349 349 349 350 351 355 335 328 325 324 324 326 340
340 340 341 343 346 346 348 349 349 351 353 351 352 352 353 354 355 355 355 355 356 356 356 355 355 355 357 358 358 359 359 359 358 356 355 354 353 351 351 351 351 352 352 350 349 349 348 349 351 352 351 351 350 349 350 353 341 326 323 323 323 325 344
345 345 345 345 346 348 350 351 351 349 344 345 347 350 352 351 354 354 354 354 355 355 355 355 355 355 356 357 358 359 359 359 359 357 356 355 353 352 352 352 353 352 353 350 349 349 349 349 350 352 354 353 352 351 350 351 344 325 321 321 321 329 347
340 342 344 345 345 346 348 351 354 354 354 353 352 352 347 350 349 351 352 353 354 354 354 354 355 355 355 357 359 359 360 360 360 359 357 356 355 355 353 352 352 353 353 352 351 350 350 350 350 350 352 354 355 348 350 352 345 325 321 319 319 328 347
338 339 341 344 345 345 347 350 350 350 351 351 352 353 354 351 351 350 348 350 350 352 353 354 355 356 356 358 359 360 360 360 360 359 358 357 357 357 356 355 354 354 353 353 352 351 350 350 350 349 350 352 354 356 355 354 355 339 319 318 317 320 346
340 340 340 343 346 351 345 348 349 349 350 349 350 352 356 355 353 349 353 350 348 349 351 353 354 354 354 356 360 360 360 361 360 360 360 359 358 358 358 357 356 355 354 354 353 352 351 350 350 350 350 351 352 353 354 356 356 346 316 316 316 318 328
341 343 345 346 351 349 344 346 347 346 350 351 352 353 353 352 352 350 348 349 349 350 351 350 351 353 352 354 359 360 361 361 361 361 361 360 360 358 358 359 358 357 356 355 354 353 351 350 349 349 350 351 352 353 353 355 350 355 318 316 315 316 317
340 341 342 344 345 349 347 344 345 345 345 351 350 351 352 353 350 349 349 347 351 354 354 351 352 353 353 353 357 359 361 361 361 361 362 361 361 360 359 359 359 358 357 356 355 354 353 352 351 350 350 351 353 353 354 355 354 340 337 316 314 314 314
341 342 343 345 347 347 347 345 346 347 347 348 350 351 354 353 352 352 351 350 353 354 356 354 352 353 353 353 355 358 360 361 362 363 363 362 361 361 360 359 360 359 359 358 357 356 354 353 352 351 350 351 352 355 356 357 357 343 333 327 313 312 313
340 341 342 343 345 348 346 345 345 346 346 347 348 349 352 352 350 352 350 352 356 357 356 356 353 352 352 352 354 357 359 360 362 363 363 363 363 361 360 360 360 359 359 359 358 357 356 355 354 352 351 350 351 352 354 358 359 344 328 327 316 312 310
338 341 342 343 344 346 344 344 345 345 345 345 346 348 353 351 351 350 352 355 358 359 356 357 354 352 352 352 354 357 359 359 361 363 363 363 364 363 362 361 361 360 359 359 359 358 357 355 354 353 353 351 350 352 354 343 337 333 330 325 321 317 312
335 338 339 340 344 345 342 343 343 343 343 343 344 346 349 349 350 352 354 358 360 361 354 355 355 354 352 352 354 356 359 359 360 361 362 362 363 363 363 363 362 360 357 359 359 357 357 356 354 353 352 351 351 351 340 331 328 328 330 333 329 326 320
333 336 338 340 342 343 341 342 340 341 340 341 342 343 345 346 347 350 352 355 359 361 357 356 353 353 352 353 354 356 359 358 367 363 360 360 362 361 361 362 362 360 358 358 358 357 357 356 355 353 354 353 353 342 330 325 324 324 326 328 331 331 331
332 334 337 339 340 343 340 341 341 339 338 340 340 341 342 344 346 349 350 352 355 358 353 354 355 354 353 353 355 356 358 358 362 359 346 326 316 311 309 310 315 336 350 336 340 360 360 358 358 356 357 357 351 336 329 325 323 322 315 321 318 324 323
330 332 334 337 340 339 339 341 340 338 338 338 339 340 341 342 345 348 350 352 354 356 351 353 352 351 353 354 355 355 356 357 356 348 339 331 325 320 318 313 302 305 319 326 320 314 329 340 356 356 348 336 329 333 336 330 325 308 300 300 300 302 303
330 332 334 337 339 339 338 338 341 340 338 338 339 340 341 342 344 345 347 350 353 354 352 350 350 350 351 353 354 353 355 353 348 342 336 332 328 327 326 325 319 303 301 308 309 304 300 302 307 317 328 336 326 318 313 312 304 299 299 298 298 297 297
330 332 333 334 337 338 338 338 338 337 336 337 339 339 339 341 343 344 345 347 349 349 347 347 347 344 344 347 351 351 348 345 341 337 334 331 330 330 329 327 325 323 308 301 304 304 302 302 303 304 307 311 316 316 313 305 300 298 298 298 298 297 295

ECMWFFLT1_sfc_thetae_069.txt.gz
Theta_e
330 331 332 334 334 335 335 335 335 336 337 338 339 340 341 343 344 345 345 346 346 346 347 348 349 349 349 349 349 350 350 349 349 348 348 348 348 346 346 346 345 346 349 350 351 352 354 355 355 355 355 356 358 358 358 358 358 359 358 358 357 355 354
328 330 332 333 334 334 335 336 336 336 337 338 338 339 341 342 343 344 345 345 346 346 347 348 349 349 349 349 349 349 349 349 349 350 349 348 349 347 347 347 347 345 348 350 351 353 353 354 355 355 355 356 357 358 358 358 358 358 358 357 356 354 354
328 330 332 333 334 334 335 335 336 336 337 338 339 339 340 342 343 344 344 345 345 346 347 348 349 349 349 349 348 349 349 348 348 349 348 347 348 348 347 347 348 347 347 349 351 352 354 353 354 355 355 355 356 357 358 358 358 358 357 357 356 355 353
328 330 332 334 334 335 336 336 336 336 337 338 339 339 340 342 343 344 345 345 345 346 345 347 348 348 349 348 348 348 348 348 348 348 349 348 348 350 348 346 348 349 347 349 351 353 354 354 354 354 358 354 355 356 357 358 358 358 357 356 355 355 354
328 330 332 333 334 335 335 336 336 336 337 338 339 341 341 343 344 344 345 346 346 346 346 347 348 349 349 349 348 349 349 348 348 348 349 349 348 349 349 347 347 349 349 349 351 353 353 353 353 353 354 355 354 355 356 357 357 358 357 356 355 355 354
327 329 331 333 334 335 336 336 337 337 337 338 338 340 341 342 344 344 345 346 345 347 347 347 347 349 348 348 348 348 348 349 349 349 349 349 348 347 349 350 349 349 350 350 352 352 353 353 353 353 353 354 354 355 355 356 357 357 357 356 355 355 354
327 329 331 333 335 336 336 337 337 338 338 339 340 341 342 342 343 344 345 345 346 345 346 346 347 348 348 348 348 348 347 347 348 348 349 349 349 348 348 350 351 350 350 351 351 352 353 353 353 353 353 354 354 354 354 355 355 356 356 355 354 354 355
328 329 331 333 335 336 337 338 338 338 339 339 339 340 341 343 343 344 344 345 346 346 346 346 347 347 348 348 348 347 347 347 348 349 349 348 348 348 348 348 350 352 351 350 352 353 353 353 354 354 353 353 353 354 354 355 355 356 356 355 354 354 355
329 330 331 333 334 336 337 338 338 338 338 338 339 340 341 342 343 344 344 345 346 346 346 347 347 348 348 348 347 347 347 348 348 348 348 348 348 348 349 349 349 352 352 351 351 353 354 354 354 354 353 353 353 353 354 355 355 355 355 355 354 354 354
328 330 331 333 335 336 337 338 338 338 338 338 339 339 341 342 343 344 345 346 346 346 346 347 348 349 349 348 347 347 347 347 348 348 348 348 348 348 349 350 350 352 352 352 352 351 354 355 354 354 354 353 353 353 354 354 355 355 355 355 355 354 354
328 330 331 332 333 335 336 337 337 338 338 338 339 340 341 342 343 344 345 346 346 347 348 348 348 348 349 349 348 347 347 347 347 347 347 348 348 348 349 350 351 351 352 353 352 352 352 354 355 354 354 354 353 353 353 354 355 355 355 356 356 355 354
328 330 331 332 333 334 335 336 338 338 338 339 339 340 341 343 344 345 346 347 348 348 348 348 349 349 349 349 348 348 347 347 347 347 348 348 348 349 349 350 351 351 352 353 353 353 352 352 354 354 354 354 354 354 353 354 354 355 355 355 356 355 355
328 329 331 331 333 334 335 336 336 338 338 339 339 340 342 343 344 345 346 347 348 349 349 349 349 349 349 349 349 349 348 348 348 348 348 349 349 349 349 350 350 351 351 353 354 354 353 352 352 354 354 354 355 354 354 354 354 355 355 355 355 355 355
335 329 330 331 332 333 333 335 336 337 338 339 339 340 342 344 345 345 346 346 348 349 350 351 350 349 349 349 349 349 349 349 349 349 349 350 350 350 350 350 350 350 351 352 352 354 354 353 352 352 353 353 353 354 354 354 354 354 355 355 355 355 355
327 327 329 330 331 332 333 334 335 337 338 339 339 339 341 343 344 346 347 348 349 350 350 351 350 350 350 349 349 349 350 350 351 351 350 351 350 350 350 350 350 350 350 350 350 352 354 355 355 353 352 353 353 353 354 353 353 355 355 354 355 355 355
326 327 328 329 330 332 334 335 336 336 337 338 339 339 340 342 343 345 346 347 349 350 351 351 350 350 350 349 349 350 350 351 351 351 351 350 350 350 350 350 350 350 349 349 350 350 351 352 355 355 354 353 353 353 354 354 354 348 339 342 355 355 356
325 327 328 329 330 332 333 335 336 336 337 338 338 339 340 341 343 345 346 348 349 350 351 352 351 350 350 350 351 351 351 351 351 351 350 351 351 351 351 351 351 350 350 349 349 349 349 350 350 352 354 354 353 352 353 354 354 339 333 333 337 352 355
325 326 327 329 330 331 332 334 334 335 336 337 338 339 340 341 342 344 345 347 348 350 352 352 351 351 350 351 351 351 351 351 351 351 351 351 350 351 351 351 351 350 350 349 349 349 349 348 348 348 350 352 354 354 353 353 342 334 331 331 331 337 355
325 326 328 329 330 331 332 333 334 336 337 338 339 340 341 342 343 343 345 346 348 350 351 352 352 351 351 351 351 351 352 351 351 351 351 351 351 351 351 350 350 350 349 349 350 349 348 348 348 347 348 348 349 351 353 353 339 332 330 330 329 329 338
325 327 328 329 330 331 332 333 335 337 338 339 340 342 343 344 344 345 346 347 349 349 350 351 352 352 352 352 352 352 352 352 351 351 351 352 352 351 351 350 350 350 350 350 350 349 349 348 348 348 347 347 347 348 350 351 340 330 327 327 327 327 331
322 324 326 327 328 330 331 332 334 336 338 339 341 342 344 345 346 346 347 348 348 349 350 351 352 352 352 352 353 353 353 352 352 351 351 352 352 351 351 350 350 350 350 350 349 348 348 348 347 348 348 348 348 347 348 350 335 328 325 324 323 325 327
334 330 329 326 326 327 329 331 333 335 337 341 343 343 345 347 348 348 348 349 349 349 350 351 352 352 353 353 353 353 354 353 352 352 352 352 351 351 350 350 350 350 350 350 350 349 349 348 349 348 348 348 348 347 347 349 332 326 324 322 322 324 336
341 341 341 341 341 341 340 340 340 342 346 343 343 344 345 349 351 350 349 349 350 350 350 351 351 352 353 354 354 355 355 354 353 353 352 352 351 351 351 350 350 350 351 349 349 348 348 347 348 348 348 348 348 347 347 348 337 325 321 321 320 323 339
343 344 346 347 348 346 345 346 349 351 348 347 347 347 348 351 352 351 350 350 350 350 350 350 351 353 354 355 356 357 356 356 355 354 353 353 352 351 351 352 352 351 351 349 348 348 348 348 348 348 348 347 347 348 347 347 339 325 320 319 319 327 341
342 343 344 346 347 348 349 349 350 351 351 350 349 347 349 351 352 351 350 351 351 351 350 350 351 353 354 356 357 358 358 358 357 356 355 354 353 353 352 352 352 352 352 351 350 349 349 349 347 347 347 348 348 343 346 347 341 325 320 318 317 326 342
341 343 344 345 346 348 349 350 349 348 349 350 350 351 349 350 352 353 351 352 352 352 351 352 353 354 355 356 358 358 359 359 358 357 356 355 355 354 354 354 353 352 351 351 351 350 349 349 348 347 347 348 348 349 348 348 348 342 320 317 315 319 341
342 344 345 345 346 351 347 348 348 347 348 348 350 352 353 352 351 350 350 350 350 351 353 354 355 355 355 356 357 358 358 359 359 358 357 357 356 356 355 354 353 352 351 351 351 350 349 349 348 348 347 347 349 349 350 350 349 347 323 316 314 316 326
342 344 345 349 352 349 346 346 346 347 348 350 352 353 352 353 352 350 348 345 345 347 350 350 353 354 353 354 355 357 358 358 359 359 359 358 357 355 354 355 354 353 352 351 351 349 349 348 348 347 347 348 348 349 350 352 346 352 328 318 314 314 316
340 340 342 343 344 348 345 343 343 344 345 348 350 350 350 351 351 349 347 347 346 349 349 350 349 351 352 352 354 356 357 357 357 358 359 359 358 356 355 355 354 353 352 351 350 349 348 348 348 347 346 346 347 348 349 350 350 336 343 319 314 313 313
339 340 341 343 344 344 345 342 342 343 344 346 348 349 349 350 349 350 349 347 348 349 350 350 349 349 350 351 353 355 357 357 358 358 359 358 358 357 355 354 354 354 353 352 350 349 348 348 348 347 346 345 345 346 348 349 350 340 333 332 315 313 312
337 338 339 340 342 344 343 341 340 341 342 343 344 346 347 348 348 349 347 347 351 353 352 350 349 348 349 349 350 353 356 357 358 358 358 358 358 356 355 355 355 353 353 352 351 350 349 349 348 347 347 346 345 346 348 351 350 351 341 331 323 315 313
335 337 338 340 341 342 340 341 341 341 340 340 341 343 346 344 346 345 343 346 350 352 353 351 347 346 347 348 349 351 355 356 357 358 358 358 358 358 357 356 355 354 354 353 352 351 350 350 349 348 347 347 347 347 349 351 350 342 334 334 329 321 314
331 333 335 336 340 342 339 339 339 339 339 339 338 340 342 342 343 342 344 346 348 351 352 351 347 348 346 346 347 349 353 355 356 357 358 358 358 358 358 357 357 355 353 354 354 352 352 351 350 349 348 348 348 348 348 342 338 336 331 329 330 329 324
328 330 333 336 338 339 336 336 335 336 336 336 335 337 339 341 341 341 342 345 348 349 350 353 350 347 347 347 347 349 351 353 362 359 357 357 356 356 356 358 358 356 355 355 355 353 353 353 352 350 350 350 350 349 340 332 331 332 334 331 332 328 324
328 328 330 333 336 339 336 334 335 333 334 334 334 335 337 337 339 341 342 344 347 348 350 351 353 350 346 345 347 349 352 353 357 356 350 326 316 310 310 314 320 330 343 335 335 354 357 356 354 354 354 354 352 346 338 332 330 333 326 333 324 329 330
326 327 329 331 334 334 335 337 335 334 334 333 334 335 337 337 338 340 342 343 346 347 349 350 348 348 345 345 347 349 352 353 353 348 339 332 323 318 314 308 302 305 318 326 319 311 312 323 354 357 357 355 342 337 344 339 337 308 303 303 305 307 309
325 326 328 330 331 333 334 334 337 335 335 333 335 335 335 337 337 338 340 341 343 345 344 345 346 347 345 347 347 348 352 353 347 340 334 331 330 330 327 325 319 301 299 305 307 301 302 313 320 329 336 347 335 316 308 306 301 300 299 299 299 299 298
325 326 329 330 331 331 333 334 334 332 332 332 333 332 333 335 337 336 339 340 341 341 339 341 345 344 342 345 346 349 349 347 341 336 333 331 332 332 331 329 326 324 306 299 301 301 297 297 304 313 317 317 317 315 313 305 300 299 299 298 298 297 296

ECMWFFLT1_sfc_thetae_072.txt.gz
Theta_e
330 331 332 333 333 334 334 335 336 337 337 338 339 340 342 344 345 346 346 346 347 347 348 350 350 351 351 351 351 351 351 350 350 349 349 349 349 349 348 348 348 348 351 352 353 354 356 357 357 357 358 358 359 359 360 360 360 361 361 361 361 360 359
328 330 331 333 333 334 334 335 336 337 337 338 339 340 342 343 345 345 346 346 347 347 348 349 350 350 350 351 351 351 351 350 350 351 350 350 350 350 350 349 348 348 349 352 353 355 356 356 357 357 357 358 358 359 359 360 360 360 360 360 360 359 359
327 329 331 332 333 333 334 335 335 336 337 338 339 340 341 342 344 345 346 346 346 347 348 349 350 350 350 351 351 350 351 350 350 350 349 348 349 349 349 350 349 348 348 351 353 354 356 355 357 357 357 356 357 358 359 360 360 360 360 360 360 359 358
326 328 330 332 334 334 335 335 336 336 337 338 339 339 340 342 344 345 346 346 346 347 346 348 349 349 350 350 350 350 350 350 350 350 350 350 349 350 349 349 349 349 348 348 351 353 355 356 355 356 359 356 356 358 359 359 360 360 360 360 359 359 359
326 328 329 331 332 333 334 335 335 336 336 338 339 341 341 342 344 345 345 346 346 346 347 348 349 350 350 350 350 350 350 350 350 350 350 350 351 350 349 348 348 348 349 349 351 353 354 355 355 355 356 356 356 357 358 359 360 360 360 360 359 358 358
325 326 328 330 331 333 334 335 336 336 336 337 338 339 340 341 343 344 345 346 346 347 348 348 348 350 349 350 350 350 350 350 351 351 350 350 350 349 349 349 348 349 349 349 351 352 353 354 354 354 354 355 356 356 357 357 358 359 360 359 359 358 357
325 327 328 329 331 332 333 335 336 337 337 338 338 340 341 341 342 343 344 345 346 346 346 347 348 349 349 350 350 350 349 349 350 350 350 350 350 349 350 350 350 349 350 351 350 352 352 353 354 354 354 355 355 355 355 356 357 359 359 359 358 358 358
326 326 328 329 331 332 333 335 336 337 337 338 338 338 339 340 342 342 343 344 345 346 346 346 347 348 349 350 349 349 349 349 350 350 350 349 349 349 349 350 350 350 350 350 351 352 352 353 353 354 354 354 354 355 355 356 357 357 358 358 357 357 357
326 327 328 329 331 332 333 335 336 336 337 337 337 338 339 340 341 342 343 344 345 345 346 347 347 348 349 349 349 349 349 349 349 350 349 349 349 348 348 349 351 352 350 350 350 352 352 353 353 354 354 354 354 355 355 355 356 357 357 357 357 357 357
325 326 328 330 331 332 334 335 336 336 336 336 337 337 338 339 341 342 342 343 344 344 346 347 347 348 349 349 349 349 349 349 349 349 349 348 348 348 349 349 349 352 351 351 351 351 353 354 354 354 354 353 354 354 354 355 355 356 357 357 357 356 356
324 326 327 328 330 332 333 334 335 335 336 336 337 337 339 339 340 341 342 343 344 344 346 347 348 347 348 348 348 348 348 348 348 348 348 348 348 348 349 349 349 350 351 352 351 352 352 354 354 354 354 353 353 354 354 354 355 355 356 356 357 357 356
323 325 326 328 330 331 332 334 335 336 336 337 337 337 338 339 340 341 342 343 344 345 345 346 347 347 347 347 347 347 347 347 347 347 348 348 348 349 349 350 350 349 351 352 352 352 352 353 354 354 354 354 354 354 354 355 355 355 356 356 357 357 357
322 324 326 327 329 331 333 334 335 336 336 337 337 337 339 339 340 341 342 343 344 345 346 346 347 347 347 347 347 347 347 347 347 348 348 348 349 349 349 349 350 350 350 351 352 352 352 352 353 355 355 355 355 355 355 355 355 355 356 356 357 357 357
329 323 326 327 329 330 332 334 335 336 336 337 337 338 339 340 341 341 342 342 344 345 346 346 347 347 347 347 347 347 347 347 348 348 348 349 349 349 349 350 350 350 351 352 351 351 352 352 352 353 355 355 355 356 356 355 355 355 356 356 356 356 356
321 323 325 326 328 330 332 333 335 336 336 337 338 338 338 340 341 342 343 344 345 345 346 347 346 346 346 347 347 347 348 348 348 349 349 349 349 349 349 349 350 350 351 351 351 352 352 353 353 352 353 354 355 355 356 355 355 355 355 355 356 357 356
318 323 324 326 328 330 332 334 335 336 337 337 337 338 338 340 341 342 342 343 344 345 347 347 347 346 346 346 347 348 349 349 349 349 349 349 349 349 349 349 350 350 350 350 351 352 353 353 353 353 352 352 353 355 355 355 356 349 338 342 355 356 356
318 323 325 327 329 330 332 334 335 336 337 337 338 338 339 340 341 342 343 344 345 346 347 348 347 346 346 346 348 349 349 349 349 349 348 349 349 349 349 349 350 350 350 350 350 351 352 353 352 353 353 353 352 352 353 354 354 339 332 332 336 352 356
320 323 325 327 329 331 332 333 334 336 337 337 338 339 340 341 342 342 343 344 345 346 348 348 347 347 347 347 348 349 349 349 350 349 349 349 349 350 350 350 350 349 350 349 349 350 351 350 351 352 353 354 354 353 353 353 342 332 330 331 330 336 355
322 324 326 328 330 331 332 333 335 336 337 338 339 339 340 342 342 342 344 345 346 348 348 348 348 348 348 349 349 349 349 350 350 350 350 350 350 350 350 350 350 349 349 349 350 350 350 350 350 350 351 352 353 353 354 354 339 331 329 329 329 328 338
321 324 327 329 330 331 332 334 336 337 338 339 340 341 341 343 343 344 346 347 348 348 349 349 349 349 349 349 349 350 350 350 350 350 350 351 351 351 350 350 350 350 350 350 351 350 349 350 350 350 350 350 351 352 353 354 340 330 327 327 326 327 331
320 324 325 328 329 331 333 334 336 337 338 339 340 341 342 342 344 345 347 348 348 349 349 349 349 349 350 349 350 351 351 351 350 350 351 351 351 351 351 350 351 351 351 351 350 350 349 349 349 349 350 350 350 350 350 351 335 328 325 323 323 324 328
321 324 325 327 329 331 332 334 335 336 337 341 342 341 341 341 343 344 346 348 348 349 349 350 349 349 350 350 350 351 351 351 351 351 351 351 351 351 350 351 351 351 351 352 351 352 352 352 351 350 350 350 350 349 348 350 331 326 324 322 321 323 337
338 324 326 328 330 330 333 335 336 337 341 340 340 341 341 342 343 344 345 346 347 348 349 350 349 350 350 351 351 352 352 352 352 351 351 351 351 351 351 351 351 352 353 351 351 351 351 351 351 351 351 350 350 349 349 349 337 324 321 320 320 323 342
343 341 332 331 332 332 333 335 338 342 339 339 340 341 342 343 344 344 344 345 346 347 348 349 349 350 351 351 352 353 353 353 353 352 352 352 351 351 351 352 352 352 353 351 351 350 351 351 351 352 352 350 350 350 349 350 340 323 319 318 318 327 344
343 344 343 337 335 335 336 338 340 341 341 340 339 342 344 345 345 345 344 345 346 347 347 348 349 351 351 352 354 354 354 354 354 353 352 352 352 352 352 352 352 353 354 353 352 352 352 352 351 351 352 351 351 344 348 350 343 324 319 317 316 326 345
342 343 344 346 345 342 343 346 345 341 340 340 341 345 347 346 346 346 345 345 346 346 346 348 350 352 353 354 355 355 355 355 355 354 353 353 353 354 353 354 354 354 353 353 353 353 353 352 352 351 351 351 351 351 350 350 351 344 319 316 314 318 343
344 345 345 346 348 352 347 347 345 344 343 344 346 347 348 348 346 347 348 347 346 346 347 349 351 353 354 355 355 356 356 356 356 355 355 355 354 354 355 355 354 354 353 353 353 352 352 352 352 351 351 351 351 351 351 351 350 348 321 315 314 315 325
342 343 345 348 351 350 348 348 348 349 350 350 350 349 349 349 348 349 349 348 347 348 350 352 352 353 354 355 356 356 357 357 358 357 356 357 357 355 355 355 356 355 354 354 353 352 351 352 351 351 350 351 351 351 351 352 342 351 327 317 313 313 315
339 339 340 341 342 346 347 346 346 347 348 350 352 352 352 352 351 350 350 348 350 352 352 354 354 354 354 355 355 356 357 358 358 358 358 358 358 356 355 356 356 355 355 354 353 352 351 351 351 350 350 350 351 351 351 352 350 333 343 319 313 312 312
337 339 340 342 342 343 344 343 344 344 346 348 350 352 353 353 352 353 352 352 354 353 353 353 353 355 355 354 355 356 357 358 359 359 360 360 359 358 357 356 356 355 355 354 353 352 351 351 351 350 349 348 349 350 351 352 352 339 330 333 314 312 311
334 336 338 339 340 343 342 341 341 342 342 344 346 348 351 353 353 353 352 351 355 356 355 353 351 351 353 354 355 355 356 358 359 359 360 360 359 358 357 357 356 355 355 354 353 352 351 351 351 350 349 348 348 349 350 351 352 352 340 329 321 313 311
331 334 336 339 340 341 340 340 341 340 340 341 343 344 348 348 351 350 349 351 356 355 355 354 351 350 350 351 353 354 356 356 357 358 359 360 360 359 358 357 356 355 355 354 353 352 351 351 350 349 349 349 349 349 350 351 351 352 351 338 332 322 314
328 330 332 334 338 340 338 338 338 339 340 339 339 341 343 344 345 347 349 350 350 353 353 352 351 352 350 350 351 352 354 355 356 356 358 359 359 360 360 359 357 356 354 354 353 352 352 351 350 349 349 349 349 350 350 350 351 352 350 347 345 342 333
326 328 331 333 336 339 337 336 336 337 337 337 337 339 340 341 342 344 345 348 350 351 354 355 352 351 350 349 349 350 352 354 359 358 356 357 358 358 358 358 358 356 355 354 354 353 352 352 351 350 350 350 351 351 350 350 351 350 347 344 344 344 340
325 327 330 331 333 337 336 336 336 336 336 336 336 338 338 338 340 342 344 346 348 349 353 355 356 352 349 348 349 350 352 353 356 357 356 345 329 316 315 322 343 356 357 353 356 358 356 354 354 353 354 353 353 351 350 350 347 348 333 347 329 339 339
325 325 328 331 333 333 335 337 337 336 336 335 335 337 338 338 338 340 343 345 347 348 351 352 351 349 347 347 349 350 353 353 355 356 348 337 328 323 317 308 300 304 330 339 319 312 315 329 354 357 357 356 354 346 354 351 351 325 317 316 313 314 318
324 325 327 330 331 332 333 335 337 336 337 336 336 337 337 338 338 339 341 342 344 346 347 348 349 349 347 348 349 350 353 353 353 347 341 335 334 335 329 327 319 300 297 304 307 303 303 310 313 317 333 352 347 319 307 317 307 306 308 307 307 306 305
324 325 328 330 330 331 332 333 334 334 334 334 336 336 336 337 338 338 340 341 342 343 344 346 349 348 346 347 348 351 352 351 346 341 338 337 339 338 336 334 332 328 305 297 300 299 295 294 303 314 318 325 326 323 323 308 302 301 300 300 299 299 298

ECMWFFLT1_sfc_thetae_075.txt.gz
Theta_e
338 338 339 340 340 340 341 342 344 344 346 347 348 349 349 351 352 354 354 355 355 356 358 358 358 358 357 357 358 359 359 358 359 357 357 357 358 359 359 359 359 361 360 360 363 363 367 369 368 369 370 369 369 369 370 370 370 369 370 370 368 368 369
336 337 338 339 340 340 342 343 344 344 346 347 347 349 349 350 352 354 354 356 356 357 358 358 359 358 358 358 359 360 359 358 359 358 358 358 360 360 360 360 360 362 363 363 364 367 368 367 368 368 368 369 368 370 369 370 370 370 368 368 366 365 366
335 337 338 338 339 340 342 342 344 344 345 346 347 348 348 351 354 354 355 355 356 357 358 358 359 359 359 359 359 359 359 358 358 357 356 355 357 356 359 361 360 360 361 364 365 365 366 366 368 368 368 368 367 369 369 369 370 369 370 370 367 365 366
334 336 338 339 340 342 342 343 343 343 344 345 346 348 349 353 354 355 355 355 355 356 357 357 358 358 359 360 359 359 359 359 358 357 356 356 356 357 359 360 360 360 361 361 362 363 363 365 366 367 367 367 367 368 368 368 368 369 369 369 366 366 366
335 337 337 338 339 341 341 342 342 343 343 345 347 349 350 352 352 354 355 355 355 355 356 357 357 358 359 360 359 359 359 359 359 358 357 357 359 359 358 356 358 358 359 360 362 364 364 365 363 365 366 367 366 367 367 368 368 369 369 369 365 364 363
333 335 336 338 339 340 340 342 342 342 343 343 345 347 349 349 350 351 352 354 354 356 357 358 357 358 358 359 359 359 360 360 361 360 359 359 359 358 357 357 357 358 357 359 360 361 363 363 362 363 363 363 363 363 365 366 366 367 368 367 365 364 363
332 335 336 338 338 340 340 341 342 343 344 344 345 347 348 348 349 350 351 352 353 354 355 355 356 357 359 359 359 360 360 359 360 359 359 359 359 358 358 358 359 358 359 361 359 360 360 361 362 363 363 362 363 362 364 366 366 367 367 366 364 363 364
334 335 337 338 338 339 340 342 342 343 343 344 344 345 345 347 348 349 350 351 352 353 353 354 355 357 358 359 359 359 359 359 359 359 359 358 358 358 358 358 358 359 360 359 360 360 359 361 361 362 362 362 363 364 365 367 368 366 367 366 364 364 362
334 337 337 336 338 339 340 342 343 342 343 344 344 345 345 346 347 348 350 351 352 352 353 353 354 356 359 358 359 359 359 359 359 359 359 357 357 356 356 357 359 359 359 357 357 360 359 359 360 362 363 362 362 365 365 366 366 366 366 365 365 365 364
333 336 339 338 339 338 340 342 344 345 344 344 345 346 345 346 347 348 349 350 351 351 352 353 354 356 358 358 357 358 359 359 359 357 357 356 356 356 357 357 358 359 358 357 357 357 360 360 360 362 363 362 362 364 364 364 364 364 365 365 366 366 366
332 338 340 337 338 339 341 341 343 345 345 345 346 345 346 346 347 348 349 350 350 351 352 353 355 355 356 356 356 356 357 357 357 356 356 356 356 356 356 356 357 358 357 357 356 358 359 360 361 362 362 360 361 362 363 363 364 364 363 364 365 365 364
331 336 340 339 339 340 339 342 344 345 347 346 345 344 347 348 347 347 349 350 351 351 352 353 354 355 355 355 354 356 356 357 356 356 356 356 356 356 356 356 356 357 357 357 357 357 358 359 359 360 361 361 361 362 363 364 364 365 364 363 364 364 364
328 333 338 337 340 340 344 346 346 347 348 345 344 344 346 346 346 347 350 350 350 351 352 354 354 355 355 354 354 355 356 356 356 356 356 357 356 357 357 356 356 356 356 358 357 357 357 357 359 360 360 362 362 361 363 364 364 365 365 364 364 364 365
334 329 333 338 340 341 342 345 346 347 347 345 344 345 345 346 346 347 350 349 350 351 352 353 354 356 356 355 354 356 355 356 357 357 357 358 359 358 357 357 357 357 357 358 357 356 357 357 357 359 360 361 362 362 364 364 364 365 365 365 364 364 364
322 327 331 333 339 343 343 342 345 347 346 346 345 345 345 346 347 349 350 350 351 351 352 355 356 356 355 355 355 356 357 358 358 358 358 358 359 358 357 357 358 358 358 358 358 357 358 358 358 358 359 360 361 362 363 362 362 363 364 364 364 364 362
316 318 323 330 336 338 343 343 345 348 348 348 345 346 345 346 348 348 348 349 350 351 353 355 356 355 354 354 355 358 359 359 359 358 359 358 358 359 358 357 358 357 357 358 358 358 359 359 359 358 358 359 361 362 362 362 362 355 342 346 362 364 362
320 317 318 325 332 338 341 343 345 347 348 348 347 347 345 348 347 347 347 349 350 353 354 355 355 354 354 354 356 357 359 359 359 359 358 358 358 359 358 358 358 358 358 358 358 358 360 359 358 357 358 358 359 360 360 361 360 341 334 334 338 357 363
332 326 321 320 324 333 340 341 344 346 346 345 345 346 347 349 347 348 346 348 349 350 352 352 353 353 354 355 356 358 359 357 358 358 358 358 358 359 359 358 358 358 359 358 358 359 359 358 358 359 358 357 358 358 359 360 346 334 332 332 331 339 360
340 337 331 326 324 330 334 338 342 346 344 345 345 345 346 348 347 348 348 351 352 352 351 351 351 354 355 355 358 358 358 358 358 358 358 358 358 359 359 359 358 358 357 356 358 358 358 358 358 358 358 358 358 357 357 359 341 332 330 331 330 329 342
341 342 335 330 327 326 333 340 342 345 346 347 347 346 347 349 348 350 352 352 354 352 354 353 352 354 355 356 357 357 358 358 358 357 358 358 358 359 358 357 357 356 356 356 358 358 357 357 358 359 359 359 359 359 359 359 342 329 328 328 327 328 334
342 344 339 332 332 331 337 343 345 348 348 347 346 348 348 348 349 353 354 353 352 353 355 354 353 355 356 356 357 357 357 358 358 357 358 358 358 358 357 357 357 357 356 356 356 357 357 357 357 358 359 359 358 359 358 357 337 326 325 324 323 325 330
342 344 344 338 335 338 343 340 343 343 347 348 347 347 348 348 349 350 351 352 352 351 353 354 356 356 356 355 355 356 357 358 358 358 359 358 358 357 357 357 358 357 357 357 356 358 358 358 357 357 358 358 358 357 357 358 333 326 323 322 322 323 344
344 345 347 345 339 341 348 347 348 346 351 349 348 347 347 348 350 351 351 351 350 352 353 354 355 354 355 355 355 356 358 358 357 358 358 358 357 357 356 357 358 358 359 357 356 356 356 357 357 358 358 357 358 357 357 357 340 323 321 320 320 325 351
346 348 348 342 341 346 349 348 348 352 347 349 348 348 349 351 352 353 353 351 352 353 353 353 353 355 356 355 356 358 359 359 358 358 358 358 357 357 357 358 358 358 359 357 356 355 356 358 357 358 359 357 357 357 357 357 344 321 319 318 318 331 353
346 348 349 344 341 342 344 349 349 349 351 349 347 349 352 352 353 355 353 352 351 351 351 352 353 355 356 357 359 360 359 359 359 358 358 358 358 358 358 358 359 359 360 358 358 357 359 359 358 358 359 358 357 350 353 357 347 321 319 317 316 331 356
345 347 350 349 343 346 351 354 353 348 348 347 349 350 352 352 353 353 351 350 350 350 351 353 355 357 359 360 360 360 359 359 360 359 358 358 359 359 359 360 359 360 359 359 359 358 358 358 359 358 359 359 358 357 356 357 359 350 318 316 314 319 352
345 347 349 350 351 350 349 350 349 346 346 350 354 350 351 351 352 354 355 354 353 352 353 357 360 361 361 362 360 359 359 359 360 359 359 360 360 360 360 361 360 360 360 359 358 359 359 359 359 358 359 359 360 359 359 359 358 357 319 316 314 315 326
342 345 349 351 353 355 352 347 350 349 348 354 352 350 352 354 355 356 356 354 354 356 357 361 362 363 363 362 360 360 360 360 362 362 360 362 363 362 361 362 362 361 360 359 359 360 359 360 359 359 358 360 359 360 360 358 347 360 327 316 313 313 314
336 340 343 346 349 352 353 353 351 349 349 349 350 352 354 354 355 355 355 355 357 359 361 362 361 363 363 362 361 362 361 362 362 361 361 362 363 363 362 362 362 362 362 361 361 360 359 359 358 358 357 359 359 360 361 362 359 335 351 317 313 312 312
333 337 341 344 346 349 351 352 355 355 356 353 356 356 356 355 355 356 355 356 360 362 362 363 363 364 363 363 362 362 362 363 363 363 363 364 364 363 362 362 362 362 362 361 360 359 357 357 357 357 356 356 357 359 360 363 362 343 333 338 313 313 311
329 333 337 341 343 347 350 350 351 354 356 359 360 361 359 358 357 357 355 362 365 363 361 362 362 362 361 361 362 363 362 363 363 363 364 364 364 363 362 363 363 361 362 362 360 359 357 357 357 357 356 356 357 358 360 361 361 361 345 330 321 314 312
328 330 334 338 342 345 348 350 352 353 353 355 360 364 364 363 362 359 363 365 365 365 365 363 362 361 361 361 362 362 362 363 363 364 365 365 364 364 363 363 362 361 362 361 360 360 358 357 357 357 357 357 358 358 360 362 363 361 362 340 333 323 314
326 328 331 335 339 344 346 348 348 349 350 351 355 358 361 365 366 366 366 366 367 368 368 365 363 361 362 361 361 363 363 363 362 363 365 366 365 365 365 363 364 363 361 362 360 359 358 358 357 357 356 356 358 359 361 362 361 361 361 360 354 348 338
325 326 331 334 338 342 344 345 346 347 347 347 351 354 356 358 359 362 364 364 366 366 367 365 365 362 363 363 364 364 364 364 363 363 363 364 364 363 363 364 365 363 362 361 361 360 359 359 357 356 358 357 358 360 361 360 361 362 360 360 359 355 353
324 325 329 331 334 339 340 343 345 347 347 347 350 353 354 355 356 360 363 365 367 368 366 364 362 364 363 363 362 363 366 367 366 364 363 364 367 352 339 355 366 365 366 367 368 365 363 362 361 361 362 361 360 360 360 360 360 362 341 362 338 353 357
323 325 327 330 333 335 338 342 344 346 347 348 350 352 353 354 355 357 358 362 367 369 367 365 363 363 363 363 362 362 361 361 362 364 362 364 358 344 331 309 299 309 351 367 340 332 330 336 361 365 365 363 364 366 362 362 364 339 326 323 321 319 324
323 324 325 328 329 331 334 338 341 345 347 348 350 351 352 352 353 355 357 359 362 368 371 369 366 365 364 363 363 360 361 360 360 363 366 360 353 349 344 342 332 300 295 303 311 311 314 312 313 314 326 358 366 362 336 328 318 320 317 312 312 310 310
324 325 326 327 328 329 331 334 337 339 343 348 349 350 351 351 351 352 353 357 359 362 368 371 369 367 366 366 365 360 364 365 364 364 361 356 354 352 349 350 349 339 306 297 300 298 294 295 297 299 305 308 322 348 361 327 310 308 309 309 310 309 307

ECMWFFLT1_sfc_thetae_078.txt.gz
Theta_e
342 343 346 347 348 348 349 351 353 352 353 355 355 356 356 357 358 360 360 362 362 363 364 365 363 362 361 360 361 362 362 364 364 363 363 362 362 362 362 361 361 361 358 358 362 361 366 368 367 367 369 369 368 369 370 371 370 368 369 370 368 368 367
338 340 343 345 347 348 350 352 353 353 354 355 356 357 356 357 358 359 360 362 363 364 364 364 364 362 361 361 361 363 363 363 363 363 364 363 364 363 364 365 363 363 363 361 361 366 367 368 368 368 368 369 369 369 369 370 370 369 367 369 367 367 368
336 339 342 344 345 347 350 351 353 353 354 354 355 355 356 358 359 360 360 361 363 364 364 364 365 362 363 363 363 362 362 362 362 361 361 361 363 361 364 366 365 363 364 364 365 365 368 369 371 370 369 366 364 367 368 369 369 368 368 369 367 366 368
334 337 341 344 347 349 350 350 351 352 353 354 355 356 357 359 360 361 361 362 362 363 363 364 364 364 363 364 363 363 362 363 363 360 361 362 364 364 364 365 366 364 363 364 363 364 364 368 369 371 371 368 367 365 367 367 366 368 368 369 366 366 368
332 337 339 342 344 347 348 349 350 352 352 354 355 357 358 358 359 360 361 362 362 362 363 363 363 364 365 365 362 362 362 363 362 363 363 364 366 366 364 363 364 363 362 364 365 366 368 368 367 369 370 371 368 368 367 368 366 367 368 368 366 365 364
331 334 337 340 343 345 347 349 350 351 352 352 353 355 357 358 358 358 359 361 361 363 364 365 364 365 364 364 363 363 364 365 365 366 364 366 366 364 363 363 362 363 360 363 364 365 367 367 366 367 367 367 365 362 363 365 365 365 367 367 366 364 362
331 335 337 340 343 345 347 348 349 350 352 352 354 356 356 356 356 357 358 360 360 361 361 362 362 363 365 364 363 364 364 363 364 363 365 366 366 365 365 364 364 364 363 365 364 365 366 367 367 367 367 365 366 363 364 366 365 365 367 367 366 366 366
331 334 339 342 343 345 346 349 349 350 352 352 352 353 354 354 355 356 357 358 360 360 360 361 361 363 365 365 364 364 365 366 365 365 366 366 365 365 364 365 365 365 365 363 365 365 365 367 366 366 366 366 366 367 365 367 370 365 365 365 365 366 365
330 337 341 341 343 342 345 348 349 349 351 351 351 352 353 354 354 355 357 357 358 357 359 360 361 363 366 365 365 366 367 366 365 365 366 364 363 362 363 365 366 366 365 362 363 366 366 365 365 367 367 367 366 368 368 368 369 368 366 365 366 367 364
331 337 343 342 343 343 346 348 351 351 351 350 351 353 353 353 354 356 356 356 357 357 358 359 361 362 364 365 365 366 366 366 366 365 364 362 363 362 363 363 364 365 364 363 362 363 366 365 365 366 369 368 367 368 369 368 367 368 367 367 368 367 367
333 340 345 344 343 345 346 347 349 350 351 352 351 350 353 353 354 355 355 355 355 356 358 359 361 361 364 364 363 364 365 365 365 364 364 363 362 362 362 362 363 365 364 364 361 363 365 366 366 366 368 366 367 368 369 368 369 369 365 366 368 368 366
335 340 345 347 346 346 345 348 351 352 353 353 351 350 353 354 353 353 354 355 356 356 358 359 360 361 363 363 362 363 364 365 364 363 364 363 362 362 362 362 362 364 364 364 362 362 362 365 364 364 366 369 368 368 369 370 369 369 368 363 365 367 366
329 334 339 341 344 345 349 351 351 352 354 352 350 351 352 352 353 353 355 356 356 357 358 359 360 362 362 363 362 363 363 364 363 364 363 364 363 363 363 362 361 362 363 364 363 361 360 362 365 365 366 369 368 367 369 369 369 370 370 367 365 365 367
339 328 335 339 343 345 347 349 352 353 353 352 350 351 352 352 352 353 355 355 356 357 357 358 360 362 363 362 362 363 362 364 364 365 365 365 367 365 363 362 362 363 364 365 363 361 360 360 362 364 365 367 368 368 369 370 369 370 371 370 366 364 366
324 323 331 337 343 346 347 347 353 354 353 352 351 351 351 352 353 354 356 356 357 356 357 360 361 361 361 362 363 363 365 366 366 366 366 366 366 365 364 364 364 364 365 366 364 361 361 361 361 364 365 366 367 368 367 367 368 368 369 369 369 367 364
329 327 324 328 341 344 349 349 353 355 355 355 352 351 350 351 353 353 353 355 355 357 358 360 360 361 362 362 362 364 366 367 367 366 367 366 366 366 365 364 365 363 364 365 365 365 364 364 363 363 364 364 366 367 367 366 368 362 348 354 368 368 364
337 340 341 342 334 341 347 350 351 355 356 356 353 351 350 352 353 353 353 355 355 357 359 360 361 361 362 362 363 365 367 367 367 367 367 367 367 367 366 366 365 365 366 366 366 366 367 365 363 361 362 363 365 365 365 366 366 347 337 338 344 365 368
341 345 346 348 350 347 339 345 349 353 354 354 352 352 352 354 354 354 352 355 355 355 357 359 360 361 362 362 364 366 367 366 367 367 367 367 367 368 368 366 366 366 367 365 365 367 366 364 364 365 363 363 364 364 365 366 352 335 333 335 336 346 365
343 345 347 350 351 353 351 341 340 350 352 353 352 351 352 353 353 354 355 356 357 357 357 357 359 362 363 363 364 367 368 367 367 366 367 368 368 368 368 367 366 366 365 364 366 366 366 367 365 365 365 364 364 363 364 366 345 332 331 333 333 334 348
344 346 348 350 351 352 355 352 344 341 350 354 354 351 353 356 353 355 357 358 359 358 359 360 361 362 362 364 365 367 368 367 367 366 367 368 368 368 368 367 366 365 365 365 366 366 365 365 365 366 367 365 365 365 365 366 345 330 328 329 329 331 339
344 346 348 349 351 352 356 356 349 342 343 350 351 353 353 354 355 357 358 358 357 358 359 360 361 362 363 363 366 367 367 367 367 367 367 368 368 368 367 366 367 366 364 363 364 365 365 365 365 366 367 366 364 364 363 362 336 327 325 325 325 327 334
343 345 346 349 351 353 356 356 351 342 339 349 352 350 352 353 355 356 356 358 357 357 358 360 361 361 363 363 365 366 367 367 366 366 367 367 367 366 366 366 367 366 365 364 363 365 365 366 365 365 365 366 365 362 362 363 334 324 323 323 323 325 349
343 346 348 350 352 354 358 359 355 347 346 347 351 350 351 353 354 355 355 355 356 357 358 360 359 361 363 362 364 365 366 366 366 366 366 366 365 365 364 365 366 366 366 364 363 362 363 364 363 365 365 364 365 364 364 364 343 322 320 320 320 328 357
344 348 349 351 354 356 357 354 350 349 346 349 352 351 351 353 354 356 357 357 357 356 357 357 358 361 363 362 364 366 367 367 366 366 365 365 364 364 364 365 366 366 366 363 361 359 361 364 365 365 365 364 364 364 364 364 347 319 318 318 318 335 359
343 348 351 352 353 354 351 349 350 349 348 352 351 351 353 354 355 356 357 356 354 355 356 356 358 360 362 363 365 366 366 366 366 365 364 364 364 364 364 365 365 366 366 364 363 361 364 364 364 364 366 364 363 357 360 364 350 319 318 316 316 336 361
341 346 350 352 355 357 356 353 353 349 349 351 352 352 354 354 356 358 356 353 354 354 355 357 359 362 364 365 366 366 366 365 366 366 365 365 366 365 365 366 365 365 364 364 364 362 361 362 363 363 364 364 363 363 362 362 366 346 317 316 315 322 359
340 346 348 350 353 357 354 354 352 350 350 352 354 352 355 354 355 356 357 356 354 354 355 359 362 364 365 366 364 364 365 365 366 364 364 366 365 365 365 365 364 364 365 363 363 363 362 361 362 362 364 364 365 364 364 363 363 362 316 316 314 317 331
336 342 348 351 353 355 356 350 352 351 349 355 354 354 353 356 359 359 358 355 354 357 358 361 364 365 365 366 364 364 364 364 366 366 364 366 367 366 365 366 366 365 365 363 364 364 364 365 363 362 362 364 365 366 366 364 352 366 323 317 314 315 318
331 335 341 347 351 353 354 353 350 349 351 353 354 354 357 360 360 360 358 355 358 360 362 362 364 365 366 366 364 364 365 366 366 365 364 365 366 367 366 366 366 366 367 366 365 365 364 365 364 364 362 363 363 365 364 366 365 339 348 318 314 312 314
329 333 337 343 350 353 352 356 359 352 353 356 357 358 359 360 361 361 359 359 364 363 362 365 365 367 366 366 364 365 365 365 365 367 366 366 366 367 367 366 366 366 366 367 364 362 362 362 361 361 359 359 359 362 363 369 368 347 336 335 312 313 312
328 330 333 337 344 349 354 352 356 358 356 356 357 359 362 363 362 362 360 362 364 363 363 366 367 367 366 365 365 366 365 365 366 367 366 367 366 367 366 367 367 365 367 367 364 362 360 360 361 361 360 360 360 362 363 365 365 367 349 331 319 313 311
326 328 332 335 339 345 351 355 354 357 359 362 362 362 363 365 365 364 363 367 367 366 367 368 368 367 366 366 366 365 365 365 365 367 367 367 367 368 368 368 366 365 365 364 362 362 361 360 360 361 361 360 362 362 363 364 365 367 365 341 329 321 314
324 326 328 331 335 340 344 352 354 354 355 358 361 363 362 364 364 366 367 369 369 369 371 370 368 366 366 366 365 367 366 365 364 365 367 368 367 368 368 367 367 367 365 364 362 363 362 361 361 360 359 360 361 363 364 365 365 366 368 365 357 351 339
324 325 328 332 334 336 339 342 349 353 355 355 357 361 363 365 365 367 369 369 367 366 368 367 367 366 366 366 366 365 366 365 363 364 365 366 366 364 365 366 367 366 365 365 364 363 362 362 360 359 361 361 362 364 364 363 364 365 366 366 366 362 359
324 325 327 330 332 334 336 340 344 349 352 355 358 360 361 363 366 368 369 368 367 367 367 365 364 366 367 366 365 365 367 368 367 366 366 366 368 367 374 375 368 367 369 372 372 369 367 366 365 363 365 364 363 362 364 365 364 368 346 378 346 361 364
324 325 325 328 332 333 335 338 341 345 348 352 357 358 359 361 362 364 367 370 371 371 369 367 366 365 366 366 366 367 366 367 367 366 365 366 367 370 345 308 300 316 363 372 331 321 314 326 365 366 370 366 367 371 365 367 369 322 330 329 325 328 331
322 322 324 325 327 330 333 335 339 341 345 348 352 355 357 359 362 365 367 369 371 370 368 369 364 362 362 364 364 363 366 364 365 367 367 368 369 370 360 352 338 300 296 307 314 305 295 294 295 300 310 346 370 365 338 322 309 308 312 316 317 317 315
322 323 325 324 325 328 331 333 335 339 341 347 350 352 354 355 358 361 364 367 371 373 372 371 366 364 364 366 365 364 366 366 366 369 369 368 371 370 365 363 358 348 306 296 299 298 295 294 294 293 296 302 322 350 372 323 307 306 307 307 310 310 308

ECMWFFLT1_sfc_thetae_081.txt.gz
Theta_e
338 344 343 343 345 347 344 352 354 353 354 355 356 355 355 357 358 360 359 362 363 364 365 365 365 366 364 364 364 364 364 364 365 362 362 361 359 359 360 360 359 359 355 355 359 356 361 364 362 364 366 368 368 369 370 370 370 367 368 369 368 367 366
336 338 341 345 344 342 349 355 355 355 355 356 357 357 356 357 359 359 361 364 364 364 366 365 366 365 364 366 363 366 365 365 367 367 365 364 364 362 362 363 361 361 360 357 358 361 362 363 363 363 364 367 368 369 369 370 371 369 366 368 367 367 367
337 336 339 344 344 343 351 355 356 355 356 357 357 357 356 359 360 361 362 363 365 366 367 367 367 366 367 367 365 365 364 365 365 364 364 363 364 361 363 364 362 360 359 358 360 360 362 363 366 365 364 365 364 367 368 369 370 368 368 367 367 366 367
336 338 339 340 344 345 352 355 356 356 356 357 358 358 358 361 361 362 363 365 365 366 366 367 367 367 367 366 364 365 364 364 365 364 363 362 363 364 363 363 364 362 361 358 356 357 359 363 365 366 367 366 365 365 367 367 366 368 368 368 366 366 367
338 335 337 339 342 348 350 353 355 356 356 357 359 361 360 360 361 362 363 365 366 366 366 366 366 367 367 366 364 363 363 364 364 364 363 363 366 366 363 361 363 362 361 361 360 360 363 363 363 365 366 367 365 364 365 366 365 367 367 369 367 364 363
333 337 336 339 342 341 345 352 354 355 355 355 357 359 360 360 360 360 362 364 365 367 368 368 367 367 366 365 363 363 365 366 367 366 364 365 366 365 364 364 363 363 359 361 360 360 361 362 363 364 364 364 362 359 362 364 364 364 366 368 367 364 361
331 336 339 339 341 343 346 350 353 355 356 356 358 360 360 359 359 361 362 363 364 365 365 366 365 366 366 363 364 366 365 364 365 365 365 365 365 366 366 366 365 364 361 363 361 361 361 362 364 365 364 363 363 358 361 366 365 364 365 367 367 366 365
330 331 337 340 339 337 340 349 353 354 355 356 356 357 358 359 359 360 361 362 363 364 364 364 364 366 365 366 365 365 365 365 365 365 365 364 364 365 366 366 366 366 364 360 362 362 361 364 364 364 363 362 361 362 359 364 366 362 363 365 365 366 363
329 333 334 337 340 340 339 346 352 353 355 355 355 357 358 359 359 359 360 361 362 362 363 363 363 365 367 366 366 366 365 365 365 365 365 364 364 364 365 365 366 366 364 360 361 363 363 364 364 365 366 364 363 364 362 365 363 363 363 363 365 365 362
329 332 335 337 338 338 341 343 351 354 354 355 355 357 358 359 359 359 359 360 361 361 362 363 363 364 366 366 366 365 364 365 365 363 364 363 363 363 364 364 365 364 364 363 360 361 364 364 366 366 367 365 365 365 365 364 364 365 362 362 363 364 365
327 335 337 336 338 338 341 341 347 355 355 358 356 355 358 358 358 359 359 360 361 360 362 362 363 363 366 365 364 362 364 363 363 362 363 362 362 364 363 361 362 364 364 363 359 361 364 365 368 368 367 364 365 367 367 365 366 366 363 362 362 364 364
335 335 338 338 339 337 337 346 355 359 359 358 355 354 358 359 359 359 360 360 361 360 362 360 362 363 365 364 362 363 363 362 362 362 363 363 362 362 362 360 359 363 364 363 361 360 363 365 365 365 368 368 367 367 369 370 369 369 366 362 362 362 363
330 339 343 338 343 341 347 357 355 355 359 356 355 355 357 357 358 358 361 361 361 362 361 362 362 364 365 365 362 362 362 362 362 363 363 364 363 361 361 359 357 358 361 363 361 359 359 363 365 366 367 369 368 368 369 371 370 370 370 365 363 363 365
334 331 335 340 343 346 349 353 357 357 357 356 354 355 356 358 357 358 360 360 361 361 361 361 362 365 366 365 362 364 363 364 363 363 365 365 367 363 361 359 356 358 361 363 362 359 359 359 363 363 365 367 369 369 371 371 371 371 372 370 365 362 364
325 326 330 331 339 344 347 348 357 357 355 356 355 354 354 355 357 359 360 361 362 361 361 363 364 364 364 365 364 365 367 368 366 365 365 365 366 363 362 360 359 360 362 365 363 359 359 359 359 363 363 366 369 370 369 369 370 371 371 370 368 363 362
329 329 328 330 336 340 345 349 354 358 358 360 356 355 353 355 358 357 357 359 360 362 362 363 363 365 365 365 365 367 369 370 369 366 367 365 365 366 364 362 361 358 360 363 364 364 362 362 360 361 363 363 367 368 367 367 369 365 352 357 368 365 360
333 333 332 334 337 340 343 348 350 357 360 360 358 356 354 355 357 357 357 359 359 362 362 362 364 364 365 365 366 368 371 371 368 368 369 368 367 367 367 366 363 363 366 366 366 366 368 362 359 359 361 363 364 366 366 366 365 350 340 341 349 365 364
332 333 334 333 341 345 348 348 349 352 356 356 357 356 355 358 356 356 356 358 358 358 360 361 363 363 366 366 368 370 370 370 370 369 369 370 370 370 369 366 366 368 367 364 365 368 364 361 361 363 361 362 364 364 365 365 355 337 337 338 339 351 367
332 333 336 337 337 341 346 346 347 350 354 356 356 354 354 355 355 358 358 360 360 361 359 360 361 364 366 367 369 371 371 371 370 370 370 370 371 372 371 369 367 364 363 363 367 367 367 367 362 362 362 361 364 363 364 364 345 333 334 335 335 337 353
339 337 339 338 340 343 350 354 357 359 356 356 359 356 354 356 355 358 359 359 361 360 363 364 362 364 365 368 369 370 371 371 371 370 371 372 372 372 370 368 367 365 365 365 367 368 367 365 365 365 367 364 365 366 365 366 344 331 330 332 332 334 342
338 340 343 345 346 348 352 356 358 359 359 356 354 358 357 354 354 359 361 360 360 361 364 361 363 365 367 367 369 370 371 372 371 371 372 372 372 372 370 368 369 367 365 364 365 367 368 366 366 366 367 364 362 363 363 363 335 329 327 327 328 331 338
335 338 340 344 347 350 354 355 357 358 361 364 360 350 356 356 354 355 359 360 359 359 360 362 365 364 366 367 368 369 371 371 372 372 372 372 372 371 370 370 370 369 367 365 364 367 369 369 368 367 367 366 364 360 362 362 328 328 326 325 326 328 353
332 337 340 344 346 349 354 356 357 360 363 362 361 355 350 356 355 355 358 358 358 360 359 361 363 364 366 366 368 369 371 371 371 371 371 371 371 370 369 370 370 369 370 366 364 364 366 368 367 369 368 368 368 364 363 363 337 324 323 323 323 331 360
332 336 338 341 347 351 354 356 358 361 360 359 357 356 351 355 357 359 361 360 359 359 358 359 360 364 367 367 368 370 372 372 372 371 370 371 370 369 370 370 371 370 369 366 364 361 364 367 367 368 369 367 367 365 365 364 347 319 320 320 320 338 361
330 334 337 340 344 348 352 355 356 357 358 359 354 353 352 353 357 357 358 358 357 358 357 358 361 364 366 367 370 372 372 372 371 371 370 370 370 369 369 370 371 371 370 367 366 364 364 365 367 368 369 367 367 363 364 364 349 317 319 318 318 339 365
327 332 336 340 345 350 353 356 357 358 358 354 355 354 351 351 356 358 356 355 357 357 357 359 362 366 369 370 370 371 372 371 372 372 370 371 371 371 371 371 370 370 369 369 367 364 362 361 363 365 366 367 366 366 366 365 365 337 316 316 316 325 363
327 331 334 338 342 344 350 354 355 355 357 357 358 352 351 352 355 358 361 361 359 358 358 362 365 369 371 370 369 370 371 371 371 371 370 371 371 370 370 369 369 369 369 367 365 365 363 360 361 361 364 365 366 365 365 365 367 347 315 316 316 319 336
326 331 333 336 339 343 349 353 357 357 355 357 355 353 352 357 361 363 364 360 358 360 361 364 367 369 370 370 368 369 369 370 372 372 370 372 372 370 369 370 370 369 368 367 367 367 365 366 363 361 361 364 365 366 365 366 356 367 319 317 314 317 321
324 326 328 332 336 341 344 349 354 358 355 353 353 356 357 358 363 365 363 360 363 363 365 366 367 369 370 370 369 369 369 370 371 369 368 369 371 370 369 370 369 369 370 369 368 367 365 366 364 363 362 364 365 367 368 372 370 345 338 316 314 314 317
325 326 328 331 333 339 343 349 355 357 359 354 357 358 358 360 364 363 362 362 366 366 367 368 368 370 370 369 368 368 368 368 369 370 370 370 371 370 370 369 369 368 369 369 366 364 365 364 365 363 361 361 361 365 366 372 370 347 334 328 313 313 314
322 325 327 328 331 338 343 350 355 357 360 358 360 360 362 360 362 363 363 365 368 368 366 367 368 368 369 368 367 368 367 368 369 370 368 369 370 369 367 369 368 367 369 369 366 365 364 364 365 364 363 361 362 363 365 366 365 368 343 326 317 314 313
320 326 326 328 331 335 340 349 357 358 360 362 360 362 361 364 364 364 364 366 367 368 368 367 368 368 369 368 367 366 368 367 368 368 368 369 369 370 369 368 366 366 367 366 364 365 365 364 362 360 362 360 362 361 362 366 366 369 363 334 325 320 315
319 325 325 326 329 334 338 345 350 355 357 359 362 361 359 362 364 367 368 368 366 366 369 369 369 367 368 367 366 367 366 367 365 366 366 368 368 369 368 368 367 367 365 365 363 364 363 363 361 360 359 361 361 363 363 365 367 366 366 358 349 344 335
319 325 326 327 329 333 335 340 346 352 356 357 360 363 362 362 363 365 366 364 366 364 369 369 369 367 369 368 367 365 365 366 365 366 364 365 366 365 366 367 368 365 365 364 363 362 361 360 358 358 360 361 362 363 364 364 365 366 365 366 359 355 350
321 325 325 325 328 333 335 339 344 348 350 355 360 364 365 365 365 366 366 367 368 370 369 369 371 369 370 368 366 365 367 367 365 365 364 365 366 366 379 374 366 366 368 369 369 367 365 363 364 363 364 364 364 362 363 365 364 367 346 372 340 356 359
320 324 325 326 328 332 335 337 340 343 345 349 358 362 362 364 367 369 365 367 367 369 369 370 367 368 368 368 367 366 365 365 363 365 364 364 364 358 338 309 299 315 378 371 327 314 309 335 370 373 373 366 369 371 365 365 372 316 314 320 326 329 332
319 322 325 325 326 328 332 333 336 338 340 344 352 358 361 363 363 365 366 368 369 369 368 368 366 363 365 364 364 362 364 364 363 365 367 368 365 366 358 354 340 301 297 308 313 305 298 297 298 303 312 358 370 342 317 318 309 307 309 309 309 309 314
322 324 327 326 326 327 329 331 331 334 337 341 348 350 353 358 360 362 365 369 372 369 368 368 366 363 363 364 364 366 368 365 366 366 366 367 368 370 364 363 357 346 307 297 301 299 295 296 296 296 301 301 317 356 354 317 305 305 306 306 307 308 306

ECMWFFLT1_sfc_thetae_084.txt.gz
Theta_e
338 338 340 342 343 342 344 346 348 348 350 352 353 351 350 352 354 357 359 362 361 361 361 362 363 361 359 358 360 360 360 360 359 357 357 356 354 355 360 360 359 360 358 360 360 360 364 366 368 366 369 370 369 371 374 373 374 371 375 374 372 378 378
335 335 337 341 341 345 347 348 349 348 347 349 352 354 352 353 355 356 358 362 363 362 361 361 363 361 360 358 359 361 361 360 360 360 358 359 359 359 360 362 361 362 362 360 363 363 365 363 367 366 367 369 368 371 370 373 373 372 370 373 373 372 374
336 337 339 341 343 345 348 348 354 356 352 349 348 352 353 355 356 356 359 361 363 363 362 362 363 362 361 361 358 360 361 361 361 360 358 356 358 352 358 362 363 362 360 361 366 363 362 363 365 370 366 366 366 371 371 371 372 371 372 373 371 369 371
334 335 338 340 343 346 350 353 354 353 352 352 351 352 354 357 357 358 359 361 362 363 362 362 362 361 362 361 359 360 360 362 361 358 356 356 357 356 357 360 363 360 361 358 357 360 357 361 363 367 369 368 368 368 368 368 368 370 370 372 370 370 371
338 338 337 341 342 346 349 351 351 350 351 351 353 356 355 358 357 357 359 360 363 362 362 362 360 363 364 362 359 360 360 361 361 359 357 359 361 360 358 355 360 359 359 359 358 361 365 362 363 364 366 368 367 368 368 369 368 370 370 370 369 368 368
335 339 339 340 342 344 346 347 349 351 351 350 349 351 352 355 356 355 356 359 362 363 364 363 362 364 362 361 362 362 362 362 361 363 363 362 362 361 359 359 358 359 356 359 358 358 365 363 362 363 362 363 362 362 363 366 366 368 369 370 369 366 363
337 338 339 339 340 343 344 344 346 349 352 353 354 356 356 353 355 355 357 359 361 362 362 361 361 361 362 364 362 363 362 361 363 362 362 361 363 363 362 361 361 359 358 361 359 358 357 362 362 364 364 361 363 362 362 365 365 365 367 368 369 369 368
337 336 337 338 341 343 344 345 347 349 350 349 350 354 351 352 352 356 357 359 361 362 362 361 360 362 363 363 361 361 361 361 361 362 362 360 361 361 362 362 362 363 363 360 362 360 356 360 361 364 364 363 363 363 363 366 367 364 366 366 367 367 364
337 340 341 339 340 340 340 344 347 347 350 349 349 350 351 352 352 354 357 360 361 361 362 362 362 362 365 363 361 362 362 362 361 361 361 359 359 358 360 361 362 364 363 359 358 361 358 359 359 363 365 364 365 365 364 366 366 364 364 365 366 366 363
335 338 341 341 342 340 342 344 348 348 347 348 348 347 350 351 353 355 358 360 361 362 363 363 363 363 364 363 360 361 362 362 362 359 359 358 358 358 360 362 362 364 363 360 358 358 361 361 360 364 366 365 365 365 363 366 364 363 363 365 366 365 365
338 338 338 337 339 341 344 345 346 349 349 350 351 349 351 355 356 357 358 359 361 362 364 364 364 364 364 362 360 359 361 359 360 359 359 358 358 359 359 362 361 362 362 361 357 358 359 362 363 365 366 363 364 365 362 364 363 363 361 363 364 365 364
335 338 338 338 342 343 342 345 350 350 349 349 352 352 355 358 357 358 359 360 362 363 364 364 364 363 365 364 359 359 361 361 360 359 359 359 358 358 359 360 362 362 362 361 357 358 358 360 362 363 365 363 363 365 364 363 363 363 362 361 362 364 364
338 340 340 340 341 342 344 345 349 351 352 350 350 351 354 356 358 358 360 361 361 363 364 365 364 365 364 362 359 359 361 361 359 361 360 360 358 359 360 360 361 361 360 361 359 356 356 358 361 363 365 364 364 364 366 365 364 365 365 363 361 362 363
343 336 339 340 341 343 347 347 349 351 352 351 349 353 355 357 358 360 362 360 361 362 362 363 364 365 365 363 361 361 361 361 361 361 361 361 362 362 360 360 360 362 362 362 360 356 356 357 359 362 364 365 364 365 367 367 366 367 367 366 364 362 362
328 330 334 335 350 357 353 347 346 350 353 354 353 354 355 356 358 360 363 362 362 361 362 365 365 366 365 364 362 362 363 363 362 363 363 363 363 362 361 361 361 362 363 363 361 358 356 358 360 361 363 365 365 365 366 367 367 367 367 367 366 363 361
328 328 334 338 341 341 349 346 348 359 358 358 355 356 353 356 360 360 360 360 360 362 363 365 365 365 365 364 363 364 364 364 363 363 363 363 363 363 363 363 362 359 362 363 362 361 360 358 362 361 361 364 366 366 365 366 367 362 352 356 365 363 359
331 332 334 335 339 342 346 349 347 346 359 364 359 358 356 358 359 359 358 360 360 364 365 366 364 364 365 364 365 366 366 366 364 364 363 364 364 364 364 363 362 361 361 363 363 362 363 360 360 360 361 361 363 364 364 365 365 351 341 343 350 362 362
332 333 336 338 340 342 342 343 347 348 346 352 359 362 359 362 360 358 357 360 361 361 362 363 364 363 365 366 367 368 367 366 365 364 365 366 365 365 365 364 363 362 362 362 362 363 363 361 360 360 361 361 362 363 364 365 356 339 337 340 341 352 363
335 336 337 341 342 343 343 346 352 356 349 347 346 350 352 357 356 360 360 361 363 363 361 361 361 365 366 366 368 369 368 367 366 365 365 366 366 366 365 364 364 362 361 360 363 365 364 362 360 360 361 361 362 361 364 366 347 334 335 337 337 339 356
333 335 337 339 342 345 348 350 352 354 355 357 360 350 350 354 351 361 362 363 366 364 362 364 363 364 366 367 369 369 369 369 367 366 366 367 367 367 365 363 363 361 360 360 362 364 364 363 361 361 362 362 364 363 363 364 344 331 331 333 334 335 344
330 332 335 338 340 343 346 349 352 354 355 355 357 359 357 350 355 362 363 363 364 363 364 364 364 365 366 367 369 370 370 369 368 367 367 367 367 367 366 364 364 363 359 357 360 364 364 363 361 362 362 361 364 365 361 362 336 328 328 329 329 332 339
328 331 332 336 338 341 344 346 348 350 353 358 358 358 359 360 348 351 362 362 363 362 363 365 366 366 367 368 369 369 370 369 369 368 367 367 367 367 366 365 364 363 362 359 357 362 366 367 363 362 362 362 361 360 362 360 329 327 326 327 327 330 350
328 329 332 336 338 340 344 347 349 352 357 357 358 358 360 360 357 353 356 358 356 360 361 363 365 366 366 367 368 369 370 370 370 369 368 367 366 366 366 365 364 365 364 361 359 360 363 364 362 364 362 361 361 360 361 362 333 324 324 325 325 331 355
328 330 332 335 338 340 343 345 347 349 351 354 355 356 357 360 362 362 359 359 359 360 359 359 363 367 367 366 368 369 371 372 371 369 368 368 366 366 366 366 365 364 365 362 360 358 361 363 364 365 363 360 360 360 361 362 343 319 321 322 322 338 358
326 329 332 334 335 336 338 341 344 348 351 354 356 359 361 358 358 360 362 359 355 355 356 357 360 365 367 367 369 371 372 373 372 370 369 369 368 366 369 367 365 364 365 362 361 360 363 365 365 364 365 362 361 360 361 360 348 315 321 319 319 337 360
323 326 330 332 334 336 338 341 344 346 348 350 355 361 362 360 358 359 360 357 355 354 356 358 360 364 368 369 370 372 372 372 372 371 369 370 371 371 370 370 366 365 364 362 361 359 360 363 365 365 365 363 363 364 364 361 362 331 318 317 317 326 360
323 324 327 330 331 334 336 339 341 343 346 350 357 359 362 360 356 355 359 360 356 356 357 361 363 366 370 370 370 370 371 371 372 370 370 371 371 370 370 369 367 366 365 362 360 359 359 359 362 363 365 364 364 364 365 365 364 341 315 316 317 321 338
322 323 325 329 330 332 334 336 339 343 347 352 356 359 362 360 359 357 362 361 357 358 360 364 366 368 371 371 370 369 370 370 372 372 370 371 373 370 369 370 370 369 366 364 363 362 361 359 359 360 362 364 366 365 365 365 355 352 318 317 315 318 325
319 320 322 325 326 329 331 333 336 341 344 350 356 361 364 361 360 358 363 362 361 362 365 367 367 369 371 371 370 370 370 371 370 370 370 371 373 371 370 371 370 369 369 367 365 364 363 362 360 360 360 363 365 366 367 368 364 339 332 316 314 315 319
320 322 323 325 326 327 329 331 335 338 343 349 356 363 367 367 361 360 366 365 366 366 367 370 369 371 372 370 370 370 370 371 371 371 370 371 372 371 370 370 369 370 369 368 366 364 363 363 362 360 358 359 361 364 365 369 371 341 330 325 313 314 316
319 320 321 323 324 327 328 329 332 338 344 352 359 364 368 368 365 366 369 370 369 367 368 370 369 370 370 371 370 370 370 370 370 371 370 372 372 370 369 369 369 368 370 368 366 365 363 363 362 360 358 358 358 361 364 367 368 358 335 323 317 315 314
319 320 320 323 325 326 328 330 333 337 342 348 356 363 366 369 367 370 375 374 369 369 369 371 370 368 369 370 369 369 368 368 368 370 370 370 372 371 370 369 367 366 368 367 366 365 364 363 361 360 359 358 360 361 364 367 367 366 347 328 322 318 316
319 320 320 321 325 327 327 329 331 333 337 342 353 359 362 365 368 377 379 375 373 370 371 372 371 367 368 369 368 368 368 366 365 366 368 370 369 370 369 368 367 366 365 365 363 363 364 365 362 361 359 358 360 361 363 364 366 367 357 342 337 333 330
319 320 321 324 327 328 327 328 329 330 332 338 349 358 358 362 368 376 372 369 368 365 371 372 369 368 368 369 368 366 367 366 362 363 364 365 366 365 365 367 367 365 365 364 363 363 363 362 361 360 361 360 360 361 361 362 363 364 367 351 346 343 342
320 321 323 324 326 327 326 327 327 329 331 336 347 353 357 358 360 365 371 375 372 370 367 369 366 368 369 369 367 366 364 367 366 366 364 365 367 367 375 368 367 365 366 368 369 366 364 363 364 364 364 363 361 360 360 360 360 363 345 358 335 346 350
319 322 323 323 325 326 327 328 328 329 331 338 345 346 349 355 357 360 364 369 371 372 369 369 369 368 368 368 367 366 364 365 367 366 363 363 365 350 333 310 300 316 368 367 348 343 341 342 365 367 365 363 366 366 363 363 363 340 333 324 322 322 327
320 320 322 323 322 323 324 326 328 328 330 334 340 342 346 350 356 356 357 364 370 371 370 370 368 367 367 365 364 361 364 364 364 366 366 365 363 354 349 346 335 301 296 311 318 309 302 307 313 326 340 363 371 346 320 338 323 315 314 312 317 316 318
320 320 323 323 321 322 324 326 326 326 328 332 337 339 342 344 348 354 358 365 367 365 368 368 367 366 365 365 365 362 360 364 364 365 365 366 365 359 356 355 348 338 307 298 302 301 299 299 300 303 311 329 344 351 345 319 311 310 309 311 313 313 313

ECMWFFLT1_sfc_thetae_087.txt.gz
Theta_e
335 334 335 338 338 340 340 340 340 341 342 343 343 344 345 346 348 350 351 350 349 350 350 353 352 350 348 348 348 348 346 345 347 345 345 345 349 345 346 346 347 349 348 352 353 355 357 358 358 362 362 361 361 363 359 363 361 363 363 362 366 365 360
334 334 336 338 339 340 341 342 342 341 343 344 344 345 346 346 348 349 351 352 351 351 351 352 353 350 349 348 349 349 347 346 348 349 346 346 349 350 349 348 346 350 350 352 352 354 357 358 358 361 362 362 361 362 364 362 361 362 362 361 358 362 363
333 334 335 337 339 340 341 342 343 342 343 345 345 346 346 346 348 350 351 352 351 352 352 351 354 351 349 349 348 349 349 347 347 348 346 345 346 351 351 351 348 349 352 353 354 354 357 356 359 359 361 361 361 361 363 362 362 362 362 362 361 360 359
333 334 335 338 340 341 341 343 343 343 344 345 346 346 347 347 349 351 353 353 352 353 352 351 353 352 350 348 348 349 349 348 348 348 347 346 346 347 353 353 352 352 352 353 355 355 355 355 355 359 366 360 360 362 362 363 363 363 363 362 361 361 360
334 335 337 339 340 340 341 342 344 344 344 346 347 347 347 349 349 352 354 355 354 353 354 353 354 354 352 350 350 350 349 348 348 348 348 347 348 346 349 353 353 353 353 353 355 356 353 354 353 360 361 360 360 362 362 363 363 363 362 362 360 361 360
333 334 335 338 339 340 341 342 343 344 344 346 347 348 348 349 350 351 354 356 355 356 355 354 353 355 352 351 350 350 350 350 349 349 348 347 348 346 346 350 354 354 353 352 353 355 353 353 353 357 358 360 360 361 362 362 362 364 362 362 360 360 361
334 334 334 337 339 340 342 342 343 345 346 346 349 350 349 349 350 350 353 356 357 356 355 354 354 354 354 352 350 349 349 350 350 349 349 348 348 348 347 348 353 354 354 354 351 352 354 352 354 354 358 360 360 361 360 361 361 363 362 361 359 359 359
334 333 334 337 338 340 343 344 345 345 346 347 347 349 349 350 350 350 351 355 357 358 357 356 355 354 355 354 351 349 349 350 351 351 350 348 348 349 348 348 350 353 353 353 352 351 352 354 355 355 357 358 359 359 360 360 360 362 361 361 359 359 361
334 334 335 337 339 341 344 346 346 345 345 345 349 349 349 350 350 350 351 354 357 357 357 357 357 356 356 355 353 350 350 350 350 351 350 349 349 350 350 350 350 353 353 353 353 352 350 355 355 356 356 356 357 357 358 359 359 360 360 360 360 358 360
334 334 334 337 339 342 344 346 347 346 345 346 347 348 349 350 351 352 352 353 356 356 358 358 358 357 356 355 354 353 351 350 350 351 351 349 349 350 352 352 351 354 354 353 354 353 351 353 355 357 356 355 355 356 357 358 359 359 359 359 360 359 359
335 335 335 336 337 339 342 343 344 344 345 345 346 347 348 349 350 351 351 353 354 357 359 359 360 358 357 356 355 354 353 351 351 350 351 351 351 351 353 354 353 354 355 354 353 354 352 351 355 356 357 356 356 356 357 357 358 358 358 359 360 360 359
334 336 335 336 337 338 340 341 342 343 345 346 346 346 346 348 349 349 350 351 353 355 358 360 361 359 357 356 355 354 353 353 351 351 350 351 351 352 353 354 355 354 356 356 354 354 354 351 352 355 357 357 357 358 357 358 358 358 357 358 359 359 360
334 335 335 336 336 337 339 340 341 342 343 345 346 346 346 347 348 348 349 350 352 354 357 360 360 359 358 357 355 355 354 353 352 351 351 351 351 352 353 354 355 355 355 357 355 354 354 353 352 354 356 357 358 358 358 357 358 358 357 357 358 359 359
341 334 335 335 336 336 336 339 340 341 342 343 345 346 346 347 348 348 348 348 351 353 356 360 360 359 358 357 356 354 354 354 354 353 352 352 352 352 353 354 355 356 356 357 356 354 354 353 353 353 356 358 358 359 359 357 357 357 357 356 356 357 358
333 334 335 336 337 339 341 343 342 341 342 343 344 345 345 346 347 348 349 349 350 352 354 359 360 359 359 358 356 355 354 355 355 354 354 354 353 353 353 354 355 357 357 357 356 356 354 354 354 354 355 357 358 358 359 358 356 357 357 356 355 356 357
334 336 336 337 337 340 344 342 343 349 347 346 345 345 345 346 347 348 349 350 351 352 355 359 361 360 359 358 358 357 355 355 355 355 355 354 353 353 354 354 355 357 357 357 357 356 354 353 354 355 355 356 357 357 358 359 358 355 348 350 356 355 356
331 333 336 338 341 341 341 346 345 346 345 343 343 345 346 345 346 349 351 352 352 354 356 360 360 360 359 359 360 358 356 356 355 355 354 354 354 353 354 354 355 356 357 357 357 356 354 353 353 354 356 356 357 356 357 359 359 346 338 340 346 355 355
328 331 333 334 337 339 340 341 345 346 346 349 349 348 347 346 347 346 345 349 355 356 358 360 360 360 360 360 360 359 357 356 356 355 355 355 354 354 354 355 355 355 356 357 356 356 355 352 353 354 355 357 357 357 357 357 352 338 335 337 338 348 357
326 329 330 333 334 337 339 340 341 344 349 346 348 348 347 347 348 346 348 345 344 354 358 359 360 360 360 361 360 359 358 357 357 356 355 355 355 355 355 355 355 354 355 356 356 356 354 353 353 354 355 356 357 357 358 357 346 335 333 335 335 337 351
324 326 329 331 336 336 338 340 341 343 347 353 354 347 347 350 347 347 349 349 350 349 355 358 359 359 360 360 360 359 359 358 357 356 356 356 356 355 355 354 354 355 355 357 357 355 355 354 352 354 355 356 357 358 359 358 346 332 330 331 332 334 342
322 325 327 329 331 332 335 338 340 341 342 344 348 353 353 346 347 348 349 351 350 352 355 357 358 359 360 360 360 360 359 358 358 356 356 356 356 356 355 354 355 355 355 355 356 355 354 354 353 353 355 356 357 358 359 361 340 328 328 328 328 331 338
321 323 325 328 328 330 332 335 336 337 339 344 346 348 352 355 359 352 349 352 353 355 357 357 357 358 359 359 360 360 360 359 358 357 357 357 357 356 355 355 355 355 356 355 355 356 356 355 355 353 354 356 357 357 357 360 333 327 326 326 327 330 345
321 321 323 327 329 329 331 333 334 337 340 342 345 347 350 353 355 355 355 353 354 356 357 356 356 357 359 359 360 360 361 360 359 358 357 357 357 356 356 355 355 356 357 354 353 355 355 355 355 355 354 354 356 356 356 358 336 326 324 325 326 330 350
321 321 322 324 327 328 329 331 335 337 339 340 343 346 349 351 353 355 355 355 355 355 356 356 355 358 359 359 361 361 361 361 360 358 358 357 357 357 357 357 357 356 357 355 352 353 356 356 356 355 355 354 354 357 356 357 339 322 322 323 323 335 352
320 320 322 323 325 325 327 330 333 336 337 338 339 342 346 348 350 352 354 356 355 355 354 355 355 357 359 360 361 362 362 362 361 360 359 358 358 358 358 358 357 357 357 356 354 353 356 358 356 356 356 355 355 356 355 357 342 318 322 321 321 334 353
319 319 321 323 325 327 327 330 329 331 332 334 336 340 343 346 350 353 355 357 357 355 353 355 356 357 360 361 362 363 363 363 362 361 360 359 359 359 359 360 359 357 356 356 355 353 354 357 357 356 356 357 356 356 355 354 355 328 318 318 318 324 353
319 320 320 321 323 328 325 326 328 329 331 333 337 339 342 345 347 351 355 357 357 355 354 355 357 357 360 362 362 363 363 364 363 362 362 361 360 360 360 360 359 358 357 356 356 354 353 356 357 357 357 357 357 356 356 355 354 337 316 316 317 319 335
317 320 321 323 324 325 325 326 327 328 330 333 336 339 342 345 348 351 354 357 357 357 357 355 355 357 359 362 362 363 364 364 364 364 363 363 362 360 360 361 361 359 358 357 355 354 353 354 356 357 357 358 358 357 357 356 348 350 318 316 314 317 322
316 317 318 319 321 324 326 325 325 327 329 332 334 337 339 342 344 349 354 357 359 360 357 355 355 356 359 362 362 363 363 364 364 364 365 364 363 361 360 360 360 359 358 356 355 353 352 352 355 356 357 357 358 357 357 358 355 339 331 316 314 314 317
316 317 319 320 322 324 325 324 326 327 328 330 332 334 336 338 342 348 353 357 362 361 358 356 357 357 358 361 362 363 363 365 366 366 366 365 364 363 361 361 361 360 358 357 355 353 351 351 353 355 356 356 357 358 358 359 360 339 330 326 313 313 314
315 316 318 319 320 322 324 324 324 326 327 328 330 332 335 339 343 348 351 357 361 361 359 357 357 356 357 360 362 362 363 365 366 366 366 366 365 363 363 362 362 360 359 357 355 353 351 351 351 351 353 355 356 357 358 359 360 357 336 325 317 314 313
315 317 318 320 319 321 322 323 324 325 326 327 329 331 334 338 343 346 351 357 358 362 362 358 357 356 356 359 361 362 363 364 365 366 366 366 366 365 365 363 362 361 360 358 356 354 352 351 350 350 350 352 355 356 358 359 359 359 348 331 323 318 315
315 316 318 318 319 322 320 321 322 324 326 326 328 331 333 336 339 343 348 354 357 362 363 358 358 356 357 359 361 362 362 363 363 364 365 365 365 366 366 365 364 362 359 359 358 356 354 352 351 350 349 349 352 355 357 358 358 358 349 341 335 332 328
315 316 316 318 320 321 321 321 322 323 325 326 327 329 332 334 335 338 345 351 356 358 362 359 358 357 358 359 361 361 362 362 360 362 364 364 364 365 365 365 365 363 360 359 359 357 355 353 352 351 350 349 350 351 353 355 357 359 352 344 341 337 335
316 315 315 317 318 321 320 322 322 324 325 325 326 328 330 331 333 336 339 342 348 356 361 360 357 358 359 360 361 361 360 362 361 362 363 363 363 365 366 365 365 363 362 364 364 361 358 356 355 354 354 353 351 350 350 353 355 359 340 347 329 336 339
316 314 315 318 317 318 320 322 323 324 325 324 325 327 329 330 331 334 336 339 343 355 362 363 362 359 359 361 361 361 360 360 361 362 362 363 362 362 343 317 303 314 355 362 350 341 336 336 355 357 357 355 354 354 351 352 356 337 325 320 317 317 321
315 313 316 318 316 317 317 320 324 325 324 324 324 326 328 328 330 332 334 337 340 348 353 357 361 361 360 360 360 358 360 360 360 361 361 362 363 361 349 341 333 305 299 305 329 332 322 320 328 333 337 353 356 350 336 337 333 318 315 314 313 312 313
316 316 318 317 317 319 317 320 322 324 324 322 323 324 326 327 329 330 333 336 337 345 352 355 354 354 358 360 361 357 356 360 360 360 360 360 359 353 348 347 343 335 310 300 301 314 318 319 320 319 323 329 339 348 345 330 321 313 310 312 312 312 311

ECMWFFLT1_sfc_thetae_090.txt.gz
Theta_e
335 335 335 336 336 337 337 337 337 337 336 337 337 336 337 338 338 342 343 343 344 345 346 348 347 346 346 345 344 342 342 342 342 344 341 339 341 341 341 342 345 348 350 351 351 351 355 357 358 359 359 359 359 358 357 359 356 357 358 358 360 361 360
333 334 335 336 336 337 338 338 338 338 337 338 338 337 338 337 340 340 343 343 344 345 346 347 348 345 345 346 345 343 341 342 342 346 344 341 343 341 342 341 344 347 350 351 351 352 354 355 357 358 359 359 358 359 357 357 356 356 358 358 358 358 358
333 334 334 335 336 336 337 338 338 338 338 338 339 338 338 339 341 340 342 343 343 345 347 347 348 346 345 345 345 344 342 341 342 342 343 342 341 341 341 342 343 346 348 351 352 352 355 354 356 358 359 358 358 359 358 356 357 357 357 357 358 358 356
332 333 334 336 336 337 338 339 339 339 339 339 339 340 339 341 342 342 343 344 343 344 346 347 348 347 345 344 344 344 343 341 342 342 343 344 343 343 341 341 341 345 345 349 352 354 356 355 355 356 363 358 357 358 359 358 358 358 357 356 355 356 357
332 333 334 334 335 336 338 338 339 339 339 340 340 342 341 342 343 344 344 345 345 344 346 348 350 349 348 345 344 344 344 342 341 343 342 343 344 345 342 341 341 341 346 347 350 353 353 354 354 355 358 358 357 357 358 359 358 358 357 357 355 356 356
331 332 332 333 335 336 338 339 339 339 340 340 340 341 342 343 344 345 346 346 345 346 346 347 349 350 348 347 345 344 345 344 342 343 343 342 342 344 344 343 343 342 343 347 350 350 351 352 353 355 356 358 358 357 357 359 358 358 357 357 356 357 355
331 332 332 333 335 336 338 339 339 340 341 342 342 343 343 343 344 345 347 347 347 346 346 346 348 350 349 348 346 345 344 344 343 342 343 342 342 342 345 345 346 344 343 346 348 350 349 349 351 353 356 357 357 357 356 357 358 359 358 357 355 356 356
332 332 332 333 335 337 338 340 340 340 341 342 342 343 343 343 345 346 347 348 348 347 347 347 347 349 350 349 347 345 345 344 344 343 343 342 342 342 342 346 347 347 346 345 347 350 350 349 349 351 354 356 356 357 357 357 358 359 358 357 356 355 358
332 333 333 333 335 338 339 340 341 341 341 341 342 343 343 344 344 346 347 349 349 348 348 349 348 349 350 349 348 346 346 345 345 344 343 342 342 342 342 343 347 350 348 347 347 350 351 350 349 349 351 355 356 356 357 357 358 359 358 358 357 356 356
332 332 333 334 336 338 339 340 341 341 340 341 342 342 343 344 345 346 348 349 350 349 349 350 350 350 350 350 349 347 346 345 345 345 344 343 342 342 342 342 344 350 350 349 349 348 350 351 350 350 349 352 355 356 356 357 358 358 359 358 358 357 356
332 332 332 333 335 337 339 339 340 340 341 341 342 343 344 344 345 346 347 350 350 351 351 351 352 350 350 350 349 348 346 345 345 345 344 344 343 342 343 343 342 345 349 350 349 349 348 350 351 350 350 350 352 355 356 357 357 358 359 359 359 358 357
331 332 332 333 335 337 338 339 340 341 341 342 343 344 344 344 345 346 347 350 352 352 352 352 353 352 351 351 350 348 347 346 345 345 345 345 344 343 343 343 343 343 346 349 349 349 349 348 349 351 350 350 351 354 355 356 357 357 358 358 358 358 357
335 335 335 334 337 339 339 339 339 340 341 342 343 344 345 345 345 346 347 349 352 353 353 353 353 352 351 351 350 349 348 347 346 346 345 346 345 345 344 344 344 343 344 347 348 348 349 349 348 350 352 352 352 352 354 355 356 357 357 357 358 357 357
341 337 337 338 339 340 339 339 341 340 341 342 343 345 346 346 346 347 347 348 351 354 355 355 354 353 352 352 351 350 350 349 348 346 346 347 347 346 345 345 345 345 345 347 347 348 348 349 348 348 351 352 352 353 354 354 355 356 356 356 357 357 357
331 332 334 335 335 337 340 341 340 341 341 342 343 343 345 346 347 348 348 349 350 353 354 356 355 354 354 353 352 351 352 351 350 349 348 348 347 346 346 345 346 346 347 347 348 349 349 350 350 349 349 352 353 353 354 354 354 355 356 355 355 356 356
328 330 331 332 333 335 336 339 342 344 341 342 342 343 343 344 346 346 347 348 350 352 355 356 355 355 354 353 353 353 353 353 352 351 349 348 347 347 347 346 347 347 348 348 349 349 350 350 350 349 349 350 352 354 354 355 355 353 346 348 355 355 356
325 326 328 330 331 333 335 336 336 339 341 344 342 343 343 344 345 347 348 348 349 350 353 356 356 356 355 354 355 355 354 354 353 352 350 349 348 348 347 347 348 348 349 349 350 350 351 351 350 350 349 349 351 352 354 355 356 344 337 338 343 353 355
323 324 325 326 329 330 331 334 333 334 336 338 338 343 343 344 345 346 346 347 348 350 352 353 356 356 356 356 356 356 355 354 354 352 352 351 349 348 348 348 348 348 348 350 350 351 352 351 350 350 350 350 350 351 353 355 349 336 334 335 336 344 355
319 321 324 325 326 327 328 331 333 334 336 336 337 338 342 347 346 346 347 348 349 350 350 350 352 355 357 357 357 356 356 355 353 353 352 351 351 350 349 348 348 348 348 349 351 352 351 351 351 350 351 351 349 350 353 353 344 334 331 332 333 334 347
317 319 321 323 324 324 325 329 331 334 335 337 339 340 340 345 347 348 349 350 350 350 350 349 350 352 355 357 358 357 357 356 354 353 352 352 352 351 350 349 348 348 349 351 352 352 352 352 351 351 350 351 350 351 352 353 344 332 329 329 330 331 338
317 318 320 321 322 324 324 327 330 332 335 337 339 340 342 342 343 345 348 349 349 349 350 350 350 351 354 356 358 358 358 356 355 353 353 352 352 351 350 350 349 349 350 351 351 352 352 352 351 351 351 351 352 351 352 354 340 329 327 326 326 329 334
317 318 319 321 323 324 324 325 328 331 333 338 338 339 341 341 343 343 344 347 348 348 349 350 350 351 354 356 357 358 358 357 355 354 354 353 352 351 351 350 350 349 350 351 352 354 354 354 353 351 351 351 352 352 352 354 334 328 326 325 324 327 340
319 318 319 320 322 324 326 327 327 330 333 334 336 337 337 340 342 342 342 344 348 348 348 349 349 350 353 356 358 359 359 358 357 355 354 354 352 351 351 351 351 351 352 351 352 352 353 353 353 353 351 351 352 351 352 354 339 326 324 323 323 327 344
319 319 320 320 322 323 324 327 328 330 331 332 335 336 338 339 341 341 341 343 349 351 349 349 350 351 353 355 358 359 359 359 358 356 355 354 353 352 352 353 353 352 353 351 351 351 353 354 354 353 353 352 352 352 352 353 343 324 322 322 321 332 346
318 319 320 320 321 322 324 325 328 329 330 330 332 333 336 339 341 342 342 343 347 353 355 354 352 352 352 355 358 360 360 360 359 357 356 355 354 354 353 353 353 353 353 353 352 352 353 355 354 353 353 352 353 355 353 354 346 322 322 320 320 331 349
318 319 318 320 321 323 324 327 326 325 328 328 329 332 334 336 336 337 340 345 346 350 354 356 357 357 356 355 358 360 360 360 359 358 357 356 355 355 355 355 354 354 353 353 353 353 353 354 354 353 353 353 353 354 354 354 355 339 320 320 318 322 348
318 319 318 319 321 323 322 324 324 325 326 328 329 331 332 333 333 335 337 340 343 347 353 358 361 360 359 357 357 359 360 360 360 359 358 358 357 356 356 356 355 354 353 353 353 353 352 352 353 353 353 353 353 353 354 356 355 346 320 318 317 318 331
317 318 320 321 322 321 321 322 322 324 325 327 328 329 331 332 332 334 337 340 343 347 352 357 359 360 360 357 357 359 359 360 360 360 360 359 358 356 356 356 356 355 354 354 353 352 351 351 352 352 352 353 353 352 353 355 349 355 324 319 316 317 319
314 314 315 318 318 320 321 320 321 322 324 326 328 329 330 331 332 334 336 337 340 344 347 351 355 357 358 358 356 358 359 360 360 359 361 359 359 357 355 356 356 356 355 354 352 351 351 350 350 351 352 352 352 353 353 353 352 340 340 319 316 315 315
315 315 315 317 319 319 321 320 321 322 324 326 327 328 329 330 330 331 332 332 335 337 342 347 352 355 356 357 356 357 359 360 360 360 360 360 359 357 356 355 356 356 355 354 353 351 350 350 350 350 351 351 351 353 353 353 353 339 332 331 315 315 314
314 315 314 315 317 319 319 319 320 321 323 325 325 325 327 329 329 329 329 331 334 336 338 341 344 348 352 356 357 356 359 360 360 360 360 360 359 357 356 356 356 355 355 355 353 352 350 350 350 349 350 351 351 352 353 354 354 353 337 327 320 315 314
315 315 314 315 315 317 318 318 320 321 323 323 323 323 325 327 328 327 328 331 333 334 336 337 340 344 351 356 357 356 358 359 360 360 361 360 360 359 358 357 356 355 355 354 354 353 351 350 349 349 350 350 351 352 353 354 354 354 350 334 326 318 314
314 314 313 314 315 318 316 316 318 321 322 322 321 321 323 325 326 327 328 330 331 333 334 336 339 344 352 356 357 356 357 358 359 360 361 361 361 360 360 358 358 356 355 355 354 353 352 351 349 349 348 349 351 352 353 354 354 354 354 348 339 333 326
315 315 315 315 316 318 316 315 317 320 321 319 319 320 322 324 324 326 327 328 330 332 334 335 338 341 347 352 356 355 356 358 357 358 360 361 361 360 360 359 359 357 355 355 355 353 352 351 350 348 348 349 351 352 353 353 354 354 354 352 346 340 335
316 315 314 315 315 318 315 316 317 320 322 319 318 320 321 322 324 325 325 326 328 331 332 334 336 340 346 352 356 355 354 357 358 359 360 361 361 361 361 360 359 358 358 360 359 357 355 353 352 351 351 350 350 351 352 353 353 355 339 352 333 340 341
314 314 314 315 316 316 316 317 318 321 320 318 318 320 321 321 323 324 325 325 327 330 331 333 335 340 348 353 355 356 354 356 358 359 360 361 360 360 348 325 320 346 361 359 346 340 335 334 352 355 353 351 351 352 352 353 356 337 325 323 319 319 323
313 314 314 315 314 316 315 315 319 321 318 317 319 319 320 320 322 323 324 325 327 329 330 331 335 342 347 350 352 352 355 356 357 358 359 361 361 360 351 344 332 306 305 324 341 332 321 319 323 328 334 349 352 346 332 332 332 329 319 315 314 315 315
312 314 316 316 314 316 315 316 318 319 316 317 319 319 318 319 321 322 323 325 327 329 330 331 336 341 343 346 348 348 350 355 356 357 358 359 360 357 350 349 347 338 316 304 313 321 316 314 316 318 320 324 334 345 349 329 319 315 312 313 312 312 311

ECMWFFLT1_sfc_thetae_093.txt.gz
Theta_e
334 334 335 335 335 335 333 333 333 333 333 333 333 334 335 336 339 341 342 343 344 343 344 346 346 347 345 345 345 344 343 343 341 340 339 339 340 342 343 344 346 347 349 350 351 351 353 356 357 358 358 358 357 357 356 356 356 358 355 355 354 356 356
333 334 335 335 335 335 334 334 334 334 333 333 333 333 335 336 338 340 341 342 343 343 344 345 347 346 346 345 345 344 343 342 342 343 341 340 341 341 343 343 345 346 347 349 351 351 352 354 356 357 357 358 358 357 357 356 356 355 355 354 354 354 356
333 334 335 335 335 336 335 334 334 334 334 334 334 333 334 335 337 340 341 342 342 343 345 345 347 346 346 346 344 343 342 342 341 341 340 339 338 340 341 342 343 346 347 348 350 350 352 353 355 356 357 357 358 357 357 355 355 355 353 354 354 355 354
333 334 335 336 336 337 337 336 335 335 335 335 334 334 334 335 337 340 341 342 342 343 343 345 346 346 346 345 344 343 342 341 341 341 342 340 338 339 340 340 341 343 345 347 350 351 352 353 353 355 361 356 356 356 356 356 355 354 353 353 354 355 355
333 334 335 335 336 336 336 336 336 336 335 336 335 336 335 336 337 339 341 342 343 343 344 345 346 346 346 346 345 344 342 341 341 341 342 342 340 339 339 339 340 342 344 347 349 351 350 351 352 353 355 356 355 355 356 356 355 354 353 353 353 354 355
332 333 334 335 335 336 337 337 337 336 336 336 335 335 335 335 336 338 340 342 342 343 344 345 345 346 345 345 345 344 343 341 341 342 341 342 340 338 339 339 340 341 343 345 349 350 350 351 351 352 353 355 355 355 355 355 356 355 354 353 353 353 354
332 333 334 334 335 336 337 337 338 338 337 337 337 337 337 336 336 337 339 340 342 342 342 343 345 345 345 344 344 344 342 341 340 340 341 341 341 340 339 339 341 340 342 345 347 349 349 350 351 351 352 354 355 355 354 354 355 355 354 353 352 352 352
332 333 334 335 336 336 337 337 338 338 338 338 337 337 336 336 337 337 338 340 341 342 342 343 344 345 345 344 343 342 342 342 341 340 340 340 340 341 340 339 340 339 339 342 345 348 349 350 351 351 351 352 354 354 354 354 354 355 354 353 352 352 354
332 333 334 335 335 336 337 337 338 338 338 337 337 337 337 337 337 337 337 339 341 341 341 343 344 345 346 344 343 342 342 342 341 340 339 339 339 339 341 341 341 341 339 339 341 346 348 349 350 351 351 352 353 353 354 354 354 355 355 354 353 352 353
331 332 333 334 335 336 337 337 338 338 337 337 337 337 337 337 338 338 338 339 340 341 341 343 344 345 346 345 344 343 342 341 341 341 339 338 339 339 339 340 341 343 341 340 339 342 346 347 348 348 349 351 352 352 353 353 354 354 355 355 354 353 353
329 331 333 333 333 334 335 336 336 337 337 337 337 338 338 338 338 339 339 340 340 341 342 343 344 345 346 346 345 344 343 341 341 341 340 339 339 339 339 339 340 342 343 342 341 340 342 346 346 345 345 348 350 352 352 353 354 354 354 355 355 354 354
332 330 330 330 332 332 333 335 336 337 337 338 338 338 338 339 339 340 340 341 342 342 342 343 344 345 345 346 345 345 344 343 342 341 340 340 340 339 339 339 339 339 342 344 343 342 342 343 346 346 344 345 346 350 352 353 354 354 354 355 356 355 355
327 329 332 335 336 335 334 334 335 336 337 338 339 339 339 339 340 340 341 342 344 344 344 344 344 345 345 346 346 345 345 344 343 343 342 342 341 341 340 339 339 339 339 343 344 344 343 343 344 347 346 346 346 347 349 352 353 354 354 355 355 355 355
326 324 326 328 331 332 335 335 336 336 337 338 339 340 340 341 341 341 342 342 344 346 346 346 346 345 345 345 346 346 346 345 345 344 344 343 343 342 341 340 340 340 340 340 342 344 344 344 344 345 347 347 347 347 349 350 352 353 354 355 355 355 355
318 319 322 323 324 328 331 332 335 336 338 339 339 339 340 341 341 342 343 344 345 347 347 348 347 346 346 345 345 346 347 347 346 346 345 345 344 343 342 342 341 340 340 340 340 343 344 345 345 344 345 347 348 348 348 349 351 353 354 354 354 355 355
317 318 319 321 322 323 327 330 333 334 336 337 339 340 341 341 341 342 343 343 345 347 348 349 348 347 347 346 346 347 348 348 347 346 346 345 344 343 343 342 342 341 340 340 340 340 342 343 345 345 345 345 346 348 349 349 351 351 344 346 354 354 355
316 317 318 320 321 322 323 326 330 332 333 335 336 337 340 343 342 343 344 344 346 347 349 350 349 348 348 347 348 348 348 348 348 347 345 345 345 344 344 343 343 342 341 341 340 340 341 343 342 343 345 345 345 346 348 350 350 342 335 337 341 353 354
316 317 318 319 320 322 322 323 326 330 333 333 335 337 338 341 344 345 344 345 346 348 350 350 350 349 349 349 349 349 349 349 349 348 347 346 345 344 344 344 343 342 341 341 341 341 342 342 342 343 344 345 345 345 347 349 345 334 333 334 335 343 355
317 319 318 319 320 321 321 322 324 327 330 331 334 336 338 340 340 341 344 346 348 348 350 351 351 350 350 350 350 350 350 350 349 349 348 347 346 346 345 344 344 343 342 341 342 343 342 342 342 343 344 344 344 345 346 348 340 332 330 331 332 333 345
317 319 320 320 321 320 322 323 325 326 329 330 333 337 339 340 341 342 344 346 348 347 349 350 351 352 351 352 352 352 351 351 350 350 349 349 348 347 346 345 344 344 344 344 344 343 343 343 343 344 344 345 345 345 346 347 341 331 329 328 329 331 337
316 317 318 319 320 322 322 324 325 326 327 329 332 335 336 337 340 342 343 344 344 346 347 347 347 351 353 353 353 353 352 352 351 351 351 350 350 348 347 346 345 345 345 345 344 344 344 344 344 345 346 346 346 346 346 347 336 328 327 326 325 328 333
316 316 318 319 320 321 322 324 325 326 327 332 332 332 334 335 339 341 342 346 347 346 346 347 347 347 348 352 354 354 354 353 352 352 352 351 351 349 348 348 347 346 346 346 345 345 346 346 347 346 347 347 347 347 346 348 332 327 325 324 324 326 339
317 316 317 320 321 322 323 325 326 328 330 330 331 330 331 334 337 339 341 343 346 346 347 346 345 347 348 349 351 352 354 355 354 353 352 352 351 350 350 349 348 348 348 346 346 345 345 346 347 348 348 348 348 347 347 348 336 325 323 322 322 326 341
317 317 317 320 320 321 322 323 325 327 329 329 330 330 331 332 334 336 338 342 345 347 348 347 345 346 348 349 351 353 351 349 352 354 354 353 352 351 351 351 351 350 350 347 346 346 346 347 348 349 350 349 348 349 348 348 341 323 320 320 320 330 342
317 316 317 318 321 319 320 322 324 325 326 326 327 328 331 333 333 334 336 339 341 344 347 348 348 349 346 346 348 350 354 355 353 353 354 354 353 353 352 351 351 351 351 350 348 348 348 349 348 349 350 350 350 352 349 349 343 323 320 319 319 328 344
317 318 317 317 320 322 322 323 322 322 322 324 325 328 330 333 333 335 335 338 340 343 346 347 350 348 348 348 348 347 349 352 356 357 357 355 355 354 353 353 352 352 351 350 350 349 349 349 349 348 349 351 351 351 350 350 350 341 319 318 317 321 344
319 320 318 317 318 321 320 321 321 321 321 323 325 327 327 330 331 332 333 335 336 335 336 337 341 346 353 352 352 352 352 354 356 358 358 357 356 356 355 354 353 352 351 350 350 349 349 348 349 349 350 351 352 351 351 351 350 347 320 317 316 317 329
319 319 320 319 319 319 318 319 319 321 323 324 325 325 324 326 328 330 331 331 330 331 333 336 338 342 345 349 354 355 356 356 357 359 359 359 358 356 355 355 354 353 352 351 350 349 348 348 348 349 349 350 351 352 351 351 344 352 326 318 315 315 318
315 317 316 317 316 317 319 316 317 319 321 323 324 322 323 324 325 327 329 327 328 330 333 335 337 338 340 342 346 352 355 357 358 358 360 359 359 357 355 355 354 353 353 351 350 349 348 348 348 348 348 349 350 352 352 352 351 336 342 320 315 313 314
315 317 318 318 317 317 319 316 317 319 321 323 323 321 321 323 323 325 325 325 327 329 332 333 334 336 338 340 344 348 353 357 358 358 359 359 359 357 356 355 354 354 353 352 350 349 348 348 348 348 347 347 348 350 351 352 352 340 332 333 315 314 313
314 315 316 315 317 319 318 316 316 318 320 322 321 320 320 322 322 323 323 324 327 328 328 330 333 335 337 340 343 348 354 357 358 358 358 359 359 357 356 355 354 353 353 352 351 350 348 348 348 347 347 347 347 349 350 352 352 352 339 328 321 314 313
314 315 315 315 317 319 319 317 317 318 320 321 321 319 321 322 323 322 323 325 327 327 328 329 331 333 336 339 343 347 351 354 356 357 358 358 359 358 357 355 354 353 353 352 351 350 349 348 348 348 347 347 348 348 349 351 351 351 350 336 329 320 315
313 314 315 314 316 319 317 317 317 318 320 320 319 318 319 320 322 323 324 325 325 328 328 329 331 334 335 338 341 345 350 354 355 356 357 358 358 358 358 356 355 354 352 352 352 351 350 349 348 348 347 347 347 348 349 350 350 351 351 348 343 338 329
312 314 315 315 315 318 317 316 317 318 320 318 317 318 319 319 320 322 323 324 325 326 327 329 331 332 334 336 339 346 352 354 355 355 356 357 357 357 357 356 356 354 353 352 352 351 350 350 348 348 348 347 348 348 348 349 350 350 351 350 346 343 337
312 314 314 314 315 319 316 316 317 318 320 318 316 317 318 319 320 322 322 323 324 326 327 329 331 333 333 336 342 349 351 351 352 354 355 356 357 357 357 356 356 355 355 356 356 355 353 352 351 351 351 350 349 348 347 348 349 351 336 350 333 340 341
311 312 313 315 317 316 315 317 317 319 320 318 316 317 319 319 319 321 321 322 324 325 326 329 331 333 335 339 343 346 346 347 349 352 354 356 356 356 355 348 336 345 356 355 342 336 333 332 351 354 353 351 351 351 349 349 351 335 326 324 320 319 322
309 310 312 315 315 315 314 314 319 321 320 318 318 318 319 319 319 319 320 321 323 325 325 328 330 333 332 334 337 340 342 344 347 350 352 355 356 356 354 354 348 318 319 330 338 330 321 317 321 325 333 348 352 346 332 332 329 323 318 318 315 313 314
310 310 313 315 316 315 315 315 317 318 319 317 318 318 318 318 318 318 319 320 322 324 325 327 327 328 329 330 333 336 340 344 345 346 350 353 355 356 354 353 352 351 327 316 318 320 314 312 313 314 316 322 333 343 349 327 318 316 313 314 313 311 311

ECMWFFLT1_sfc_thetae_096.txt.gz
Theta_e
333 333 334 334 333 333 333 333 334 334 334 335 336 337 337 338 339 340 342 343 344 344 344 345 346 346 346 346 347 347 346 345 344 343 342 342 344 346 348 349 350 350 352 352 353 354 355 358 359 360 361 361 360 359 359 360 360 361 361 361 360 361 359
332 333 334 335 334 334 333 333 334 334 334 334 335 336 337 337 338 339 341 343 344 344 344 345 346 346 346 346 347 347 346 345 345 346 343 343 345 345 348 349 349 349 350 352 354 354 355 356 358 359 359 361 360 360 359 359 360 360 360 359 359 358 359
331 333 334 334 334 334 334 333 334 334 334 334 335 335 336 337 338 339 341 342 343 344 344 345 347 346 347 346 346 346 346 345 344 344 342 341 342 342 345 348 348 349 350 351 353 353 355 355 357 359 359 359 360 360 360 359 360 359 359 359 359 359 358
332 332 334 335 336 336 335 334 334 334 334 334 335 335 336 337 338 340 341 342 342 343 343 344 346 346 346 346 345 345 345 345 345 344 343 342 341 342 343 345 346 348 349 349 351 353 354 355 356 357 362 359 359 360 360 360 359 359 358 358 358 358 358
331 333 334 334 335 335 336 335 334 334 334 335 335 336 336 337 338 339 340 342 343 343 344 344 346 347 347 347 346 346 345 345 344 344 344 344 343 342 342 342 344 345 347 349 351 353 354 354 354 356 357 359 359 359 360 360 359 359 358 358 358 358 358
328 331 333 334 335 336 336 336 335 334 334 334 334 335 336 336 337 338 340 342 343 344 345 345 345 347 346 347 346 346 346 345 345 345 344 344 342 340 340 342 342 344 345 347 351 351 352 353 353 354 355 357 358 358 358 359 359 358 358 357 357 357 357
328 329 333 334 335 336 336 337 336 335 335 335 335 336 336 336 336 337 339 340 342 342 343 344 345 346 346 347 346 346 345 344 344 344 344 343 343 341 341 341 344 343 344 347 348 350 351 351 352 354 355 356 358 357 358 358 358 359 358 357 357 357 358
325 328 333 335 336 337 337 337 338 337 336 336 335 335 335 335 336 337 338 339 341 342 343 343 344 345 346 347 347 346 345 344 344 344 344 343 342 342 340 340 342 343 344 344 346 349 350 351 352 353 354 355 356 358 358 357 358 358 358 357 356 356 356
324 325 330 335 335 337 338 338 338 337 336 335 335 335 335 335 335 336 337 339 340 341 342 343 344 345 346 346 346 346 345 344 343 343 343 342 342 342 341 340 341 343 342 342 344 348 349 350 351 352 353 353 355 356 357 357 357 358 358 358 357 356 356
321 323 324 327 334 338 338 340 339 338 336 336 335 335 335 335 335 336 337 338 339 340 341 343 344 345 346 345 346 346 345 344 343 342 341 341 341 341 342 342 341 342 342 342 343 345 349 350 351 352 352 352 353 355 356 356 357 357 357 358 357 357 356
321 322 322 324 325 330 335 340 338 338 337 336 336 335 335 335 335 335 336 338 339 340 342 343 344 344 345 345 344 344 344 344 343 341 341 340 341 341 341 342 342 342 341 341 341 342 346 349 351 351 351 351 352 353 354 355 356 356 356 357 358 357 357
320 321 322 322 323 325 328 331 335 337 340 338 336 336 336 336 335 335 336 337 339 340 341 342 343 344 344 345 344 344 343 343 343 342 341 340 340 340 341 341 342 342 343 342 340 341 342 345 348 350 350 351 352 353 353 355 356 356 356 356 357 357 357
320 320 321 321 323 323 325 327 331 334 336 337 337 337 337 336 336 336 336 337 338 340 341 342 343 343 343 344 344 343 343 342 342 342 342 341 340 340 340 340 341 341 342 344 342 341 340 342 345 348 348 349 351 351 353 354 355 355 356 356 357 357 357
322 319 320 321 321 322 322 325 328 331 333 335 337 338 337 338 337 337 337 337 338 339 340 342 342 343 343 343 344 344 343 343 343 343 343 343 343 342 340 340 340 340 341 343 343 343 342 341 342 344 347 347 348 349 351 352 354 355 355 356 356 356 357
317 317 318 319 320 321 322 323 325 327 329 331 335 337 338 339 338 338 338 339 339 339 340 342 342 342 343 343 343 344 345 345 345 344 343 344 343 342 341 340 340 340 340 341 342 343 344 344 343 343 344 346 347 347 348 348 350 352 353 354 355 356 356
316 317 317 318 319 320 322 323 324 325 328 329 331 334 337 339 340 339 338 339 339 340 341 342 342 342 342 342 343 345 346 346 346 345 345 344 343 343 342 342 341 340 339 339 340 341 343 344 344 344 343 344 346 347 347 347 348 348 341 344 354 355 355
316 316 317 318 319 320 321 322 324 325 326 327 329 332 334 336 338 341 340 340 340 341 342 342 342 342 342 342 344 345 346 346 346 347 345 345 344 344 343 343 342 342 341 340 340 340 341 342 342 343 343 343 344 345 346 347 347 339 333 334 338 351 355
314 316 317 317 319 321 320 321 322 323 325 326 329 330 331 333 336 339 341 342 342 342 344 343 343 342 342 343 344 345 346 346 347 347 346 346 345 345 345 344 344 343 342 341 340 341 341 340 341 342 343 344 344 344 345 347 342 333 331 332 332 340 354
314 316 316 318 319 320 320 321 322 323 324 326 328 329 330 331 333 335 339 341 346 345 344 344 343 344 344 344 345 345 346 347 347 347 347 347 347 347 346 345 344 343 343 341 342 342 341 341 341 341 342 343 343 344 345 346 338 331 330 330 330 331 342
313 314 315 317 318 320 320 321 322 324 325 326 328 330 330 331 332 334 338 342 345 347 346 345 345 345 345 346 346 347 347 347 347 347 347 348 348 347 346 346 345 345 344 344 344 343 342 341 341 341 342 342 343 344 345 345 338 329 327 327 328 329 334
312 312 314 316 317 319 319 320 322 323 325 326 327 329 329 329 331 333 336 339 344 347 347 346 346 346 347 347 347 348 348 348 348 348 348 348 348 348 347 346 346 345 345 345 344 343 343 342 342 342 343 342 343 343 343 344 334 327 325 324 324 326 331
312 312 312 314 317 318 319 320 321 323 324 328 327 328 328 328 331 333 335 340 344 348 348 348 348 347 348 348 348 349 349 349 349 349 349 349 349 348 347 347 346 346 346 346 345 345 345 345 344 343 343 343 343 342 342 344 330 325 324 323 323 325 338
316 315 314 315 317 319 321 321 322 324 325 325 327 328 328 329 330 332 335 338 341 345 349 348 349 349 349 350 350 351 351 351 350 350 350 350 349 349 348 348 347 347 348 347 346 345 345 344 344 345 344 344 344 343 343 344 335 323 321 321 321 325 341
319 319 318 316 317 319 320 321 323 325 325 324 325 327 328 328 329 330 334 336 339 343 348 349 348 349 351 352 353 353 353 353 352 351 352 351 350 350 350 350 350 349 350 347 346 346 346 346 346 346 347 345 345 345 344 345 338 323 319 319 319 329 342
318 319 320 318 318 318 319 320 322 323 324 324 323 325 326 326 327 329 333 335 335 335 335 337 340 345 349 349 352 355 355 355 354 353 352 351 350 351 351 351 351 351 352 351 349 348 349 349 347 347 348 347 347 348 346 346 341 324 319 318 317 327 344
316 318 319 320 319 319 320 322 321 320 321 321 323 325 323 325 325 328 330 332 332 331 330 331 334 338 343 349 351 351 352 354 354 353 352 351 351 351 351 353 354 350 348 348 349 349 349 349 349 347 348 348 349 348 348 348 349 343 319 317 315 319 344
316 318 319 320 319 322 319 319 319 319 320 322 324 324 322 323 324 325 328 330 329 327 328 331 333 336 338 343 348 352 351 352 353 352 352 352 351 351 352 353 354 352 349 348 350 351 350 350 350 349 349 349 349 350 350 350 349 347 321 316 315 316 327
313 316 319 322 323 321 319 319 319 319 321 323 325 325 322 322 322 324 326 326 326 326 328 331 332 334 335 337 339 342 348 354 355 355 354 353 352 351 351 354 355 354 351 351 350 349 349 350 349 349 349 350 350 350 351 350 342 352 328 318 314 314 317
309 312 314 317 319 321 320 319 317 317 320 323 324 324 322 321 321 322 325 324 325 327 328 329 331 333 334 335 338 341 344 348 353 356 358 357 355 352 352 355 355 355 354 352 350 349 349 349 349 349 349 350 350 351 352 353 352 334 344 321 314 312 313
309 311 313 317 320 320 320 320 319 319 320 322 324 323 322 322 320 322 323 323 325 326 329 329 329 331 333 336 338 340 343 346 350 355 358 359 359 357 355 355 356 356 355 353 351 350 349 349 349 349 349 348 349 351 352 353 354 340 331 335 315 313 312
307 309 311 313 316 319 320 320 319 318 320 321 323 322 320 321 320 320 321 323 325 326 326 328 329 329 331 334 338 340 343 346 350 354 355 357 360 358 357 356 357 355 355 354 352 351 350 350 351 350 349 349 349 350 351 353 354 354 340 327 321 314 312
307 309 310 313 315 317 320 321 320 319 320 321 322 320 322 320 321 320 322 324 325 325 326 326 328 329 331 334 336 339 341 343 346 350 353 355 359 360 359 358 357 355 355 354 353 352 351 351 351 350 350 349 350 350 351 352 353 354 353 336 329 320 314
306 307 308 310 313 318 318 319 318 318 320 320 321 319 319 320 321 322 322 322 322 324 325 326 328 330 332 333 335 337 339 341 345 351 355 356 357 359 360 359 358 357 355 355 354 353 352 352 351 350 350 349 350 351 351 352 352 353 354 353 346 340 332
306 307 308 310 313 317 317 317 316 317 318 320 321 319 318 320 320 321 322 321 321 322 324 326 328 329 331 333 335 337 339 342 348 350 350 352 355 357 358 358 358 357 356 355 355 353 353 352 351 350 350 350 351 351 351 351 351 352 352 353 351 347 343
306 307 308 309 311 317 316 316 318 317 318 320 321 319 318 319 320 321 320 321 321 321 322 324 327 328 330 333 335 336 341 343 344 344 345 347 351 355 358 358 357 357 358 359 359 358 356 354 353 353 354 353 352 351 350 350 350 352 336 351 334 344 346
306 307 307 309 312 314 315 318 319 317 318 320 321 319 319 320 320 320 320 320 321 321 321 323 324 326 327 329 330 332 334 335 338 340 343 346 348 351 355 348 335 347 359 358 341 335 331 332 353 356 356 355 355 355 352 352 353 334 323 321 319 318 322
306 306 307 309 310 312 314 315 318 318 318 320 321 319 319 319 319 319 318 319 320 320 320 320 323 324 323 325 327 329 331 333 334 337 341 344 346 348 351 354 353 318 318 331 339 328 319 314 319 323 330 350 355 350 332 331 328 326 315 314 314 313 314
307 307 309 310 310 311 313 315 317 317 318 319 318 318 318 318 318 318 317 318 318 319 320 320 321 322 322 322 324 328 330 330 330 331 333 338 342 344 348 352 354 356 328 313 316 319 314 313 312 312 313 316 328 345 354 329 317 317 312 312 312 312 311

ECMWFFLT1_sfc_thetae_099.txt.gz
Theta_e
340 340 341 341 341 340 341 342 343 342 343 344 345 346 346 348 349 351 351 353 354 355 356 356 356 356 356 357 358 359 359 358 359 357 356 356 357 359 360 360 362 364 363 363 365 365 369 371 370 369 368 368 369 370 372 372 371 369 371 371 370 369 368
336 340 340 341 341 341 342 343 344 343 343 343 344 347 346 347 349 350 351 354 354 355 355 355 356 355 356 356 357 359 359 358 358 359 357 358 359 361 361 363 363 365 365 365 366 368 369 368 369 369 367 368 368 370 370 371 371 371 369 371 369 369 369
330 333 338 341 341 341 342 343 344 344 344 343 344 345 346 348 350 350 351 351 353 355 355 355 356 355 356 356 356 357 358 357 357 356 355 354 355 354 358 363 363 363 363 365 367 366 367 367 368 369 369 368 368 369 370 370 371 369 370 371 370 368 369
328 330 333 337 342 343 343 343 343 343 344 344 344 344 346 350 350 351 351 351 352 353 354 354 355 354 355 356 356 356 357 358 357 355 355 355 355 355 357 359 362 362 362 362 363 364 363 366 366 368 368 369 369 370 370 369 368 370 370 370 367 369 370
329 330 330 333 337 342 342 342 343 344 343 343 344 346 347 348 348 349 350 350 351 352 353 353 353 354 355 356 354 355 356 356 357 356 356 356 357 357 355 354 356 358 359 361 363 364 365 366 364 366 366 368 368 369 369 370 369 371 370 370 368 367 366
328 329 330 331 335 339 342 343 342 342 343 342 343 344 345 346 346 346 347 349 350 351 353 354 353 355 354 355 354 354 356 357 358 358 356 357 357 354 353 354 355 356 356 359 360 361 363 363 363 364 364 365 364 365 367 368 368 368 369 370 369 366 363
328 330 330 331 334 338 341 343 343 342 343 342 343 344 345 344 345 345 346 347 349 350 351 351 352 353 355 355 355 355 355 355 356 355 356 355 355 354 354 354 356 354 355 359 359 360 360 361 363 364 363 363 365 364 367 369 368 369 370 369 369 369 369
327 329 330 332 333 338 341 343 344 343 342 342 342 343 344 343 344 345 345 346 347 349 349 350 351 353 354 355 355 354 355 355 355 355 355 354 354 353 353 353 354 355 356 355 357 359 358 360 361 363 363 362 364 366 366 369 370 367 368 368 367 368 366
327 329 330 331 332 335 337 343 345 343 342 342 341 342 342 343 343 343 345 346 347 347 348 349 350 352 355 355 355 355 354 354 354 354 354 353 352 351 351 352 353 355 354 352 353 357 357 358 358 362 364 362 364 366 366 368 368 367 367 367 367 366 364
324 326 329 330 332 333 335 338 339 345 344 342 342 343 342 342 343 343 344 345 346 346 348 349 350 351 354 354 354 354 355 354 354 352 352 351 351 351 351 351 352 353 352 352 352 353 357 358 358 361 363 361 363 364 365 366 366 366 367 367 367 367 367
322 325 326 328 329 330 333 333 335 338 340 346 345 342 343 343 343 343 343 344 345 346 348 349 351 351 352 352 352 352 353 353 353 352 351 351 351 351 351 351 350 351 351 351 350 351 353 357 359 360 361 358 360 362 363 364 365 366 364 365 366 366 365
320 322 324 326 327 328 328 330 333 335 337 340 343 343 344 344 343 342 343 344 345 345 347 348 350 351 351 351 350 352 352 353 352 351 351 351 351 351 351 351 350 350 350 351 350 351 351 353 355 356 359 359 359 361 363 365 365 366 365 364 365 366 365
319 320 322 323 325 327 328 328 329 332 336 336 339 341 346 342 342 342 344 344 344 346 347 349 350 351 351 351 350 352 352 352 352 352 351 351 351 351 351 350 350 350 349 350 350 350 349 350 353 356 357 359 359 359 362 364 363 365 366 365 365 365 365
320 319 321 322 323 324 325 327 328 330 332 335 336 338 341 344 344 343 344 344 344 345 346 347 349 351 352 351 351 352 352 352 353 353 353 352 353 352 351 350 350 351 351 351 350 348 349 349 350 354 355 357 358 360 362 363 363 365 366 365 364 364 364
316 317 318 320 321 322 323 324 326 328 330 332 334 336 337 340 343 346 348 345 345 344 345 349 349 351 350 351 351 353 354 354 354 354 354 353 353 352 351 350 351 351 351 352 351 349 349 349 349 351 353 354 357 358 359 359 360 361 363 364 364 363 361
314 315 316 317 319 321 322 323 324 326 328 330 332 334 335 337 339 342 344 348 344 345 346 348 350 349 348 349 351 353 355 356 355 354 355 354 353 353 352 350 350 349 350 350 350 351 352 351 350 349 350 352 355 357 357 357 359 356 346 349 362 363 359
314 314 315 316 319 320 321 322 323 325 326 328 329 331 333 334 337 340 342 345 347 349 347 348 350 348 349 349 351 353 355 356 355 355 354 355 354 354 353 351 350 350 350 350 350 351 353 352 350 349 348 349 350 352 352 354 354 342 335 335 340 356 361
314 314 315 315 317 319 320 321 322 323 324 326 328 330 331 333 335 338 340 343 347 348 352 345 346 347 349 349 352 354 355 354 355 355 355 355 354 354 354 352 351 351 351 349 348 352 350 349 350 351 350 349 349 349 350 352 344 332 331 332 332 340 356
315 315 315 316 316 317 318 320 321 323 324 325 326 328 329 332 332 334 338 343 346 352 352 351 344 347 349 349 352 354 355 355 355 355 355 355 354 355 355 353 352 351 349 347 348 348 349 349 348 349 350 349 350 348 349 350 339 330 328 329 329 329 341
316 317 317 317 317 316 318 320 321 322 324 326 326 327 329 330 330 331 336 342 348 351 354 355 354 347 348 351 353 354 354 355 355 354 355 356 356 355 354 353 352 350 349 349 350 349 348 347 348 348 350 349 349 350 349 349 340 328 326 326 326 327 333
315 316 317 317 318 318 319 319 321 322 323 325 326 327 327 327 328 331 335 341 345 347 350 354 355 354 350 352 352 353 354 355 355 355 355 356 356 355 354 353 353 351 350 349 349 349 350 348 347 348 350 348 348 348 347 346 334 326 324 323 323 325 330
315 317 317 319 319 319 320 320 321 322 323 327 326 326 326 326 328 330 333 340 340 339 341 342 348 354 354 352 351 351 354 354 355 355 356 356 355 355 354 354 355 353 352 351 349 350 350 351 349 349 349 348 348 346 346 347 330 325 323 321 322 324 341
315 316 318 319 320 321 322 322 321 323 324 324 326 326 326 326 327 329 333 335 336 336 335 335 336 337 342 353 352 353 355 355 354 354 354 355 354 354 354 354 355 355 355 352 351 349 349 350 349 351 350 349 349 348 348 348 336 323 320 320 320 325 346
315 315 317 318 320 322 323 322 323 324 324 323 324 326 327 326 327 330 331 332 332 333 332 331 330 333 336 341 351 358 357 357 356 355 354 355 355 354 354 354 355 355 356 353 351 350 350 352 351 352 352 350 349 349 349 349 341 322 318 318 318 330 348
314 314 316 317 318 320 321 323 324 325 324 323 321 324 327 326 327 329 329 330 330 331 330 331 330 332 332 336 343 353 360 358 357 356 354 354 355 354 355 355 355 356 356 355 353 353 354 354 353 352 353 352 351 347 348 350 343 322 319 317 316 329 349
313 314 315 316 317 319 322 325 325 324 322 322 323 325 325 326 326 329 328 329 329 329 328 328 329 331 333 335 339 345 354 361 361 359 356 354 356 356 356 358 358 358 357 356 355 354 353 353 354 353 353 353 352 351 350 350 352 347 318 316 315 318 347
312 313 314 314 315 320 321 323 323 323 323 324 326 325 324 324 326 328 329 328 327 327 327 329 332 331 332 333 335 339 344 352 359 360 359 358 358 358 358 358 358 358 358 355 355 355 354 354 354 353 354 354 354 353 353 352 352 352 319 315 314 315 326
311 312 314 315 317 318 319 320 322 323 324 325 325 326 324 323 324 327 329 329 327 327 328 330 331 331 331 331 333 337 340 345 350 356 358 361 361 360 360 361 360 360 359 357 357 357 356 357 356 354 354 355 355 355 355 353 344 355 327 316 314 313 315
310 311 311 313 314 316 317 318 320 320 323 324 325 327 325 324 324 325 327 328 328 329 329 329 330 330 331 333 335 337 340 343 346 349 354 358 360 359 358 359 359 359 361 361 359 358 358 358 357 356 355 355 356 357 357 358 356 333 348 319 313 312 312
310 311 311 312 313 315 316 318 320 322 323 324 327 328 326 324 323 324 325 326 328 329 329 329 329 330 331 333 335 338 340 342 345 346 349 353 356 358 357 358 359 359 357 359 358 356 356 357 357 356 355 354 355 357 357 360 359 343 331 337 313 313 311
310 310 311 311 312 315 316 316 319 321 323 325 326 327 327 324 323 324 324 326 327 327 327 328 328 329 330 332 334 337 340 342 344 346 348 347 349 352 354 355 350 348 352 357 357 357 355 354 355 354 354 354 354 356 358 359 359 360 344 328 320 313 311
310 311 312 312 313 314 316 317 318 320 322 324 326 326 327 325 325 324 324 325 326 326 326 327 328 328 330 331 332 335 338 340 343 346 348 347 348 348 349 354 355 353 355 358 357 357 357 355 355 354 354 354 355 356 358 360 361 361 362 340 331 321 313
309 310 311 311 313 315 314 316 316 318 320 321 325 325 325 325 325 327 327 326 324 324 324 326 327 328 328 329 330 332 336 339 341 345 348 348 350 349 351 352 352 356 355 355 357 357 355 355 356 355 354 354 355 357 358 360 360 361 361 361 355 348 337
309 310 311 312 314 315 315 315 315 317 320 321 323 325 326 325 325 326 327 325 323 323 323 325 325 326 327 328 329 329 331 335 337 339 341 346 351 349 348 350 354 356 356 355 357 358 357 356 355 355 356 356 356 357 358 358 360 361 361 360 360 357 354
309 309 310 311 312 314 313 314 315 316 318 320 323 325 325 325 325 326 327 325 324 322 322 323 325 325 326 328 328 328 330 332 333 335 337 338 340 344 347 348 350 356 359 362 362 363 362 359 358 359 360 360 359 358 357 359 360 361 340 361 338 354 358
308 309 310 311 312 313 313 315 315 316 318 320 324 324 325 325 325 325 324 324 323 322 321 322 323 324 325 327 326 326 326 327 329 331 333 335 334 335 340 340 327 334 350 354 345 335 331 332 359 363 363 362 362 364 361 360 363 339 324 322 322 320 324
308 308 309 311 311 312 313 314 316 317 317 320 323 325 324 323 324 323 323 322 322 322 321 320 321 323 323 324 326 324 324 326 327 328 329 330 331 333 333 336 341 319 316 320 329 329 320 314 318 322 327 355 363 358 336 334 332 328 318 314 315 314 313
309 310 310 311 311 312 312 313 315 316 317 319 322 324 323 322 322 322 321 320 320 322 321 320 320 320 321 322 323 325 326 326 326 326 325 325 327 328 330 333 336 341 327 320 319 316 313 312 312 313 316 318 331 353 368 335 319 318 312 309 311 311 311

ECMWFFLT1_sfc_thetae_102.txt.gz
Theta_e
342 346 347 347 347 345 346 346 348 347 348 349 351 352 352 354 356 358 359 362 363 364 366 367 366 366 365 364 365 366 365 363 363 361 361 360 360 360 360 360 361 364 363 362 364 361 365 366 367 368 371 371 370 372 375 374 374 373 373 373 369 370 370
338 339 343 347 347 347 348 348 349 348 348 349 351 353 352 354 356 356 359 362 364 365 366 366 367 365 365 365 365 366 366 365 363 363 361 361 362 362 362 363 362 363 365 366 364 366 366 367 366 366 366 369 369 373 375 375 374 373 371 373 371 370 370
336 338 340 341 343 346 349 349 349 349 350 349 350 352 352 355 356 358 359 360 363 364 365 365 366 366 366 366 366 366 366 364 363 361 359 357 360 358 361 363 363 361 362 364 366 366 365 366 367 367 365 365 364 368 371 372 372 372 372 375 372 370 371
336 336 339 341 343 345 348 349 348 349 349 350 350 352 353 355 356 358 359 360 362 363 364 364 365 364 365 365 365 366 366 366 363 360 358 356 358 360 359 361 363 361 359 360 361 362 358 363 366 366 367 365 365 365 367 369 369 371 371 372 370 372 372
335 337 337 339 341 343 345 348 347 349 350 350 351 353 354 354 355 357 358 359 359 361 362 362 362 363 364 365 363 364 365 365 363 360 358 357 359 361 359 358 360 360 358 359 362 364 365 365 362 364 367 367 364 365 367 368 368 369 369 370 369 369 369
332 334 336 337 340 342 344 346 349 350 351 350 350 351 351 353 354 354 356 358 358 359 362 363 362 363 363 364 363 362 365 366 366 364 359 359 359 358 359 359 358 359 356 359 359 360 365 363 360 360 361 362 360 359 362 365 365 365 367 369 368 366 365
332 334 336 338 339 341 344 346 347 349 351 351 352 352 351 351 352 353 354 355 356 357 358 359 360 361 363 363 363 364 364 363 364 362 359 357 358 360 361 361 361 357 357 359 359 360 359 362 362 362 360 357 360 358 362 365 364 365 366 367 367 366 367
331 332 336 338 337 337 340 346 350 349 351 351 349 351 350 350 351 351 352 353 354 355 356 357 358 361 363 364 363 362 362 363 363 362 361 357 356 359 359 359 359 360 360 357 360 361 359 361 360 362 360 358 358 361 360 364 366 363 364 365 365 366 363
330 332 333 335 336 336 338 343 348 348 351 349 350 350 350 351 350 350 351 351 352 353 355 355 358 359 363 362 363 363 362 362 362 362 360 356 355 355 354 356 358 360 359 356 356 362 361 359 358 361 363 361 360 363 362 365 364 362 362 363 364 365 363
328 331 331 332 333 334 336 340 344 346 348 348 350 351 351 350 351 350 350 350 351 351 353 355 356 358 361 362 361 362 362 362 362 360 359 356 354 353 354 353 355 359 359 358 354 354 361 360 359 360 365 364 364 364 364 364 363 362 361 363 363 363 364
326 328 329 328 329 330 333 336 338 342 345 346 348 347 349 350 350 350 350 350 350 350 352 353 357 357 359 361 360 360 361 360 359 359 358 356 354 353 353 352 352 356 358 357 354 352 355 361 361 361 364 362 362 364 365 363 364 364 360 359 361 363 360
324 325 326 326 326 327 328 331 335 340 343 345 345 345 348 349 350 350 351 352 351 350 352 352 354 356 357 359 358 359 360 360 359 358 358 358 356 354 353 353 352 353 356 357 355 354 351 356 359 359 362 364 361 362 364 365 365 366 364 358 358 360 360
322 323 324 325 326 326 327 327 329 333 339 342 343 344 345 347 348 352 350 351 352 352 351 352 354 356 355 357 357 358 359 359 359 359 358 359 357 355 354 353 352 351 352 355 355 353 351 351 357 359 360 363 361 358 362 365 364 365 367 362 358 358 361
322 321 323 324 325 325 324 325 328 329 333 336 340 343 343 344 347 350 352 353 352 352 351 350 352 355 356 356 357 359 358 359 359 360 360 360 362 359 356 355 354 354 353 354 355 352 351 350 351 356 358 360 360 360 361 364 365 366 367 366 361 357 357
320 320 321 321 322 322 323 323 325 328 330 332 335 338 341 341 343 345 350 353 356 350 352 353 353 354 354 355 357 358 360 361 360 361 361 360 361 360 359 357 357 356 356 356 355 352 350 350 349 351 355 357 358 359 358 358 362 363 364 366 365 361 355
319 319 320 320 320 320 321 322 324 326 328 329 331 334 337 339 340 342 345 348 351 356 358 353 353 355 355 355 356 358 361 362 363 361 362 361 361 362 361 359 358 356 357 357 357 357 356 354 351 349 350 354 357 359 358 357 358 361 350 355 363 363 355
320 320 320 321 321 321 322 322 323 325 326 328 329 331 333 336 338 341 343 346 349 353 356 355 352 353 354 355 356 358 361 362 363 363 362 363 362 363 362 361 359 359 360 359 359 359 360 356 353 350 347 348 352 356 355 355 355 347 337 339 344 359 362
318 320 321 320 321 322 323 323 323 324 326 328 329 331 332 332 335 338 340 345 348 350 352 352 353 351 353 355 357 358 360 360 363 363 362 363 364 363 364 361 360 360 361 359 358 361 359 357 356 356 352 348 349 350 351 353 348 334 334 336 336 346 357
319 320 320 321 322 322 323 324 324 325 325 328 329 330 332 333 332 334 339 345 348 351 353 352 352 353 352 352 354 357 359 361 362 363 362 363 364 364 364 363 361 359 358 357 359 359 360 360 358 358 357 354 352 350 349 349 341 331 331 332 332 333 346
320 321 321 321 322 322 324 325 326 326 327 328 330 331 331 334 332 335 339 345 347 348 351 353 354 354 355 355 354 355 358 361 362 361 363 363 363 362 362 361 361 359 358 357 359 358 358 357 359 358 359 358 356 355 353 352 343 328 327 328 328 330 337
318 319 321 322 321 322 324 326 327 327 328 328 328 330 331 332 333 335 339 341 341 343 347 349 352 354 355 357 358 355 356 359 360 361 361 362 362 362 360 360 361 360 358 356 356 357 357 357 357 358 359 357 356 356 353 352 336 326 324 324 324 326 333
316 317 319 320 322 323 325 326 327 327 329 331 330 328 330 332 333 334 337 340 340 339 341 342 345 349 352 353 355 359 356 355 357 357 359 361 362 361 360 359 360 360 359 357 355 357 357 358 357 356 356 356 356 354 354 354 332 326 322 321 322 324 344
316 317 318 320 320 323 325 326 327 329 330 330 330 329 330 331 331 333 336 337 338 339 339 338 339 341 344 348 350 353 357 362 355 357 357 359 359 360 359 359 359 360 360 357 355 353 354 356 356 359 356 356 357 355 355 355 340 323 320 319 320 327 350
316 317 317 318 320 321 323 324 326 329 329 329 329 329 332 332 331 332 334 336 336 337 337 336 335 337 341 343 345 347 349 353 360 357 357 358 358 358 358 358 360 359 360 357 356 353 353 354 356 358 359 357 355 355 355 355 346 322 318 317 318 333 351
315 316 316 317 318 318 320 322 325 327 328 328 327 330 332 331 330 331 332 334 334 335 335 336 335 336 338 340 342 343 345 347 351 357 357 357 357 356 358 358 358 359 360 359 358 357 357 356 355 356 358 357 356 353 354 356 349 323 317 316 316 332 353
314 315 316 317 317 319 320 323 324 324 325 325 328 329 330 331 329 330 331 332 334 334 334 334 335 337 339 339 339 340 342 346 350 354 357 356 358 358 356 358 359 359 358 359 359 358 357 356 356 355 356 358 358 357 356 356 358 356 316 315 314 319 351
315 315 315 316 317 319 318 320 321 321 322 325 327 328 329 330 328 327 330 331 333 333 332 334 335 335 337 338 339 339 341 345 348 350 352 357 358 357 358 358 358 359 360 358 359 358 358 357 357 356 358 357 359 359 359 358 359 362 316 314 313 315 328
314 315 316 317 319 318 317 317 319 321 321 324 325 326 328 329 328 328 328 328 330 332 332 333 334 335 336 337 339 340 341 343 346 350 352 356 358 354 354 357 358 357 359 359 359 361 358 359 358 357 356 358 359 360 360 361 352 361 325 315 313 313 315
314 314 315 316 317 318 317 317 317 318 321 322 324 326 328 328 328 328 328 327 330 331 333 332 332 333 336 337 339 339 341 344 345 348 351 354 354 351 353 357 357 353 352 352 356 359 358 359 360 360 358 359 359 361 362 363 363 337 350 317 313 311 312
315 315 316 316 316 317 318 318 318 318 321 321 324 327 327 328 328 328 328 328 331 331 332 332 332 332 334 337 338 339 339 342 345 347 349 350 352 351 350 354 354 352 350 351 356 358 357 360 360 359 358 358 358 359 359 365 364 348 335 338 312 313 311
313 314 315 315 316 318 318 318 319 319 320 321 323 326 328 328 327 328 328 330 332 332 331 331 331 330 330 333 336 338 339 340 343 346 349 350 352 350 349 352 356 354 355 356 356 357 357 360 359 357 358 360 358 358 359 361 361 363 349 330 319 313 311
313 314 314 315 316 317 318 319 320 320 319 321 323 324 327 327 328 327 329 331 332 333 331 331 331 330 329 331 333 336 337 338 342 345 346 346 349 350 349 350 352 354 356 356 356 357 358 359 358 359 359 358 359 358 359 359 362 363 367 341 330 321 314
312 313 313 314 316 317 316 318 318 318 320 320 322 323 324 327 327 328 330 331 331 331 331 331 331 331 330 329 331 335 337 337 339 341 342 342 347 349 348 349 350 352 353 353 354 355 356 356 356 356 356 354 360 358 357 361 362 363 364 366 357 348 338
311 312 313 314 315 316 316 316 317 317 319 320 322 323 323 325 327 328 329 329 331 331 331 330 331 330 330 329 329 333 335 336 336 336 338 340 339 339 342 345 346 348 350 351 353 355 356 356 355 355 356 359 358 357 359 359 361 363 364 364 365 361 355
311 311 312 313 314 315 314 316 316 317 318 319 322 322 323 324 326 328 330 330 331 331 329 329 329 330 330 330 329 330 333 334 336 336 336 339 336 337 339 340 340 340 341 344 353 355 354 353 354 356 362 363 360 358 357 360 362 363 336 357 339 359 367
311 311 312 313 313 314 315 316 317 317 318 319 321 323 323 324 325 329 329 329 329 329 327 328 328 328 329 329 329 329 329 331 332 335 336 335 334 334 335 333 321 328 337 338 333 327 320 318 342 352 357 357 356 355 353 354 357 335 318 318 322 323 327
310 310 311 312 312 313 314 315 317 317 318 319 321 322 323 323 324 327 328 328 328 327 327 328 325 324 326 327 328 327 327 328 330 332 334 334 333 333 332 332 336 313 309 314 322 319 311 306 306 308 315 338 351 350 332 330 323 316 314 312 313 315 315
311 312 312 312 312 312 313 314 315 316 317 318 318 320 322 323 323 325 325 327 328 328 327 326 324 323 324 326 326 327 328 328 328 329 330 331 331 331 329 330 330 334 321 311 312 312 309 309 310 309 307 307 316 334 351 329 315 312 313 313 311 311 310

ECMWFFLT1_sfc_thetae_105.txt.gz
Theta_e
343 344 345 346 346 345 346 348 350 350 350 351 350 349 347 349 351 353 355 360 363 364 366 366 366 366 363 362 361 362 361 361 362 361 360 359 356 357 356 356 359 363 362 362 364 364 365 369 368 368 370 368 371 372 375 371 374 371 373 371 369 370 367
339 344 346 343 345 348 350 351 349 349 351 352 352 353 351 351 352 352 356 361 364 364 365 365 367 366 364 362 362 364 363 362 362 363 361 360 360 359 357 358 357 361 365 364 364 365 365 364 366 367 367 368 368 373 371 372 374 374 371 371 370 370 370
339 342 342 343 344 345 348 348 349 350 349 351 352 352 352 354 353 355 357 360 364 365 365 365 368 365 366 364 363 363 363 362 361 360 359 355 358 354 358 360 359 357 360 364 366 364 364 364 366 366 366 367 366 369 374 374 373 371 373 375 371 371 373
336 338 340 343 345 348 346 348 349 349 350 350 350 352 353 355 355 356 358 361 364 364 363 365 367 365 366 366 364 363 364 363 362 359 358 355 355 356 356 357 360 357 357 358 361 365 360 362 364 366 366 365 365 367 367 370 369 371 372 376 370 371 375
336 338 339 341 345 347 347 347 349 351 353 350 351 352 353 354 355 356 359 361 362 359 363 364 362 363 364 366 363 363 364 363 361 359 359 356 357 357 355 353 356 355 355 357 360 361 363 363 361 363 364 365 363 364 365 366 369 372 371 372 369 370 371
333 335 337 338 342 344 346 349 352 351 351 350 350 352 352 353 353 355 357 358 356 357 361 363 361 362 363 364 362 360 366 366 364 362 358 358 358 354 355 355 353 355 352 355 355 358 361 361 359 360 361 360 358 358 360 363 364 366 368 369 368 367 363
332 334 336 338 340 343 346 349 349 352 353 353 353 354 353 352 353 354 355 354 357 358 360 359 358 360 365 364 364 363 365 365 365 360 357 356 356 356 356 357 357 353 353 356 355 356 358 360 360 361 360 358 359 355 359 363 363 362 365 367 367 366 366
332 333 336 338 339 342 345 349 349 350 353 355 354 355 352 354 350 354 355 354 356 357 355 356 355 359 364 365 364 362 365 364 365 363 359 354 354 356 355 357 358 357 355 351 355 355 353 359 359 360 359 359 359 360 357 362 364 359 361 363 364 364 360
331 332 334 335 338 340 343 346 349 350 353 353 353 354 353 352 348 351 353 355 357 355 355 356 357 358 364 364 364 365 364 364 364 364 360 354 351 351 351 355 358 359 355 351 351 356 355 354 356 359 361 360 360 361 360 362 362 362 360 361 362 362 360
329 330 332 333 335 337 339 340 342 346 350 349 349 350 351 350 352 350 352 352 353 358 356 356 358 359 363 364 364 365 364 364 361 359 358 353 350 349 350 350 354 358 356 354 350 350 356 355 355 357 362 360 359 360 361 361 361 361 360 360 360 361 362
326 328 329 329 332 334 335 337 338 340 344 349 348 352 353 354 354 353 354 353 354 355 355 357 357 358 362 364 363 363 363 361 359 356 356 354 349 348 348 348 348 352 355 354 350 349 352 356 357 359 360 358 359 359 361 361 361 362 359 358 359 360 359
325 325 325 326 328 330 331 334 336 338 340 345 347 351 353 353 354 354 354 355 356 355 353 356 358 359 357 362 361 363 362 361 359 355 355 354 351 348 347 347 347 347 351 354 352 350 347 353 355 355 358 361 361 360 362 363 362 363 362 357 356 357 357
324 324 323 323 324 327 330 332 334 336 338 339 342 346 347 350 350 349 353 355 357 354 352 354 354 359 356 358 361 363 361 361 360 357 355 355 353 351 349 346 345 345 346 351 352 351 347 347 354 356 356 360 361 359 361 362 361 364 364 362 358 354 357
325 323 322 322 324 325 326 330 332 334 335 335 336 339 342 348 348 348 351 353 354 353 353 353 355 354 356 358 359 362 361 361 361 360 359 357 360 356 351 348 347 347 347 348 350 350 348 346 347 354 355 357 360 360 360 363 363 364 364 364 360 355 354
323 322 321 320 322 324 325 326 329 332 333 334 335 336 338 341 345 349 350 354 356 355 356 358 356 354 354 357 360 361 364 365 363 363 362 360 360 359 355 352 350 351 350 350 349 348 349 347 344 347 352 356 359 359 357 357 361 362 362 362 362 358 353
322 322 322 321 322 323 325 325 327 329 331 333 335 336 337 339 343 346 347 350 352 354 355 357 358 355 356 355 358 360 363 366 367 365 365 363 361 363 362 357 352 349 349 350 349 352 352 352 349 345 347 352 356 358 355 353 355 360 353 355 362 360 351
322 322 323 324 325 324 325 326 326 328 329 331 336 337 337 338 340 343 345 349 351 353 356 354 354 351 350 355 357 360 362 364 365 366 367 367 364 365 366 363 358 356 360 356 354 357 361 354 349 346 345 347 351 354 353 351 349 349 339 340 346 358 357
321 322 323 324 324 325 325 325 326 327 328 330 332 335 336 337 338 340 342 346 349 352 354 354 355 352 354 354 357 360 361 361 362 365 366 367 368 367 367 365 364 363 361 355 353 361 355 353 352 353 347 345 347 349 352 352 348 335 335 337 337 348 358
321 321 323 324 324 324 325 326 327 328 328 329 330 331 334 337 337 339 342 343 347 350 350 352 353 351 351 355 358 358 359 361 360 362 364 366 368 368 367 367 365 362 359 355 356 357 361 362 356 355 352 348 348 345 347 351 342 330 333 335 335 336 349
321 322 323 323 324 324 325 327 328 328 329 331 331 329 332 334 334 338 341 343 345 345 348 348 349 352 352 353 356 359 359 359 360 359 363 365 367 366 365 365 365 362 359 358 359 359 359 359 360 359 361 356 354 352 347 348 344 328 329 331 331 333 341
320 322 322 323 324 323 325 326 328 330 329 330 330 330 330 331 331 335 339 341 341 342 343 345 346 349 351 353 354 356 356 359 358 359 362 362 364 363 363 365 365 363 360 357 357 358 360 359 360 361 361 359 357 355 350 348 335 325 326 327 327 330 336
318 318 320 322 323 324 325 325 327 329 329 333 331 329 331 331 331 333 337 340 339 339 340 341 341 342 345 348 349 353 356 359 360 359 359 361 363 361 360 361 363 363 362 360 356 356 358 361 361 360 360 360 359 357 355 353 333 324 323 324 325 328 348
318 318 319 320 320 323 326 327 326 329 331 331 332 331 331 333 331 332 335 335 337 338 339 339 339 339 340 343 346 348 350 351 352 356 361 360 359 359 359 360 361 362 364 361 358 354 354 358 359 362 360 360 361 359 359 357 343 323 320 321 323 330 353
318 319 319 319 321 321 324 324 324 327 329 330 331 331 332 334 332 332 333 335 334 336 336 337 336 337 339 339 341 343 346 348 351 354 355 359 358 357 359 361 359 359 361 361 360 357 354 355 357 360 361 360 359 359 359 359 348 322 318 318 319 335 354
316 317 318 319 319 320 321 322 323 325 327 327 327 329 331 333 333 332 330 332 333 336 336 336 336 336 336 338 340 341 344 347 351 353 353 355 356 357 352 352 353 358 363 360 357 359 360 359 355 355 358 358 358 359 358 358 351 322 318 317 317 333 356
316 316 316 317 318 321 322 323 323 322 323 323 327 327 329 331 332 332 332 332 332 334 335 336 337 338 338 338 338 340 342 345 347 350 352 354 355 357 351 355 354 353 354 356 356 355 359 357 358 356 355 356 356 357 358 358 360 352 317 316 315 320 355
316 317 317 317 318 321 320 321 322 320 320 323 325 325 326 329 328 329 332 333 332 333 333 334 336 339 339 338 337 339 342 344 345 346 348 351 353 358 352 351 352 353 352 353 353 355 354 354 357 357 356 355 356 356 357 358 359 368 317 315 314 316 330
316 317 318 320 320 320 319 319 321 322 321 323 322 324 325 327 327 329 330 331 331 334 335 335 336 337 338 338 337 338 340 342 344 345 346 350 354 356 354 355 355 354 355 356 355 355 353 355 356 357 356 356 357 357 357 359 357 360 325 316 313 314 317
316 316 317 318 318 319 319 319 319 320 323 323 323 324 324 325 326 328 330 329 331 333 335 336 336 336 336 337 338 338 339 341 342 343 346 348 352 354 355 357 356 354 354 354 355 355 356 357 358 358 356 358 359 361 360 363 364 341 349 317 313 311 313
317 317 317 317 317 319 319 319 320 321 322 322 325 325 325 324 325 327 328 329 333 333 334 335 335 335 335 336 337 337 339 340 341 342 345 348 351 353 354 355 356 354 354 354 352 352 353 353 356 358 358 357 357 358 359 364 363 354 340 333 312 312 311
315 315 316 316 316 319 319 319 319 319 321 322 325 326 326 326 324 326 327 330 332 333 332 333 334 334 333 334 334 336 336 337 340 342 344 346 347 348 351 353 355 354 355 355 354 353 352 353 356 357 357 359 358 360 361 364 366 367 352 327 316 312 310
315 316 316 316 317 318 318 318 319 319 320 322 324 325 326 327 326 324 326 330 332 333 332 332 333 333 333 333 333 334 335 335 338 340 342 342 344 346 349 351 352 352 353 355 353 354 354 355 356 354 353 351 351 352 354 355 357 359 365 348 328 319 313
314 314 314 315 316 317 317 318 316 317 318 319 322 323 324 325 326 327 327 328 330 331 332 332 332 331 332 332 332 333 334 335 335 336 339 342 342 343 346 350 351 350 351 352 352 352 353 351 350 347 347 347 347 347 347 350 357 360 366 367 358 347 337
313 313 314 315 316 317 317 316 316 316 317 317 319 321 323 323 325 326 327 326 326 328 331 330 330 330 330 331 332 333 333 334 334 335 334 337 339 339 341 344 346 346 348 350 351 347 348 349 348 347 346 347 348 349 349 349 353 361 361 360 363 361 356
313 313 314 314 315 316 315 316 315 316 317 317 319 321 322 323 324 326 327 327 328 329 330 329 329 330 330 330 331 331 333 334 335 334 333 334 337 339 341 340 340 341 345 350 350 349 347 348 345 344 347 351 351 348 347 349 352 358 336 349 322 343 358
312 312 313 314 314 315 315 316 316 316 316 317 319 321 322 323 323 325 325 327 327 328 329 328 327 328 328 329 329 330 331 332 332 332 332 333 334 335 337 336 324 332 339 338 338 331 321 321 341 345 348 348 349 351 349 350 355 333 319 314 314 314 320
311 312 312 313 313 314 314 315 316 315 316 317 319 319 320 321 323 324 325 326 327 327 328 328 326 325 325 327 328 328 329 329 330 332 333 333 333 333 332 333 337 315 309 317 322 318 312 306 306 309 314 332 341 342 328 324 318 313 312 312 315 312 309
312 313 313 314 313 314 314 314 315 315 316 317 318 318 319 320 321 322 324 326 327 327 328 328 326 324 324 326 326 328 329 329 330 331 331 331 331 331 330 331 331 334 321 305 310 311 306 304 303 302 303 305 313 328 338 326 315 310 311 310 307 308 308

ECMWFFLT1_sfc_thetae_108.txt.gz
Theta_e
345 343 344 346 343 344 344 344 348 343 344 344 344 343 344 345 351 354 355 361 361 362 363 365 365 364 364 360 362 364 363 364 365 363 362 362 362 362 361 360 360 365 363 362 364 366 372 370 366 367 369 369 371 372 374 373 372 371 374 374 378 378 371
343 344 345 346 344 343 344 349 350 348 347 344 344 347 344 346 352 352 356 361 362 362 361 363 366 365 364 362 361 364 363 364 364 365 363 367 367 365 362 363 364 366 370 365 367 369 370 368 370 369 367 369 368 373 370 372 373 373 371 372 372 373 371
342 344 344 343 348 345 345 348 352 348 350 345 345 344 344 350 351 353 358 358 362 363 361 362 365 365 363 365 362 362 363 362 363 361 360 357 358 353 357 363 361 361 361 364 369 366 364 366 369 370 369 366 367 373 372 372 373 371 374 374 371 370 372
340 341 343 346 346 346 348 351 350 349 349 350 351 351 347 354 350 356 358 359 360 362 362 361 362 362 362 363 362 362 362 362 361 358 356 357 356 356 358 361 361 360 362 361 361 361 360 365 365 369 368 368 368 367 370 370 368 370 373 376 373 372 375
336 339 342 342 346 347 349 350 351 355 352 351 352 358 352 355 349 350 353 358 360 361 361 362 361 362 363 362 358 359 360 360 360 359 358 357 359 358 356 354 356 355 358 358 365 369 371 364 363 366 367 371 367 368 369 370 368 371 372 371 370 370 373
333 336 339 341 344 345 346 348 349 349 352 352 352 353 354 355 352 349 351 356 359 361 364 364 362 363 362 360 359 358 362 364 363 362 360 359 360 355 354 355 354 355 354 357 358 361 365 362 362 363 360 361 360 361 363 365 365 366 371 371 371 368 366
332 334 337 339 341 343 346 348 347 352 354 355 352 352 352 354 354 353 353 356 359 360 359 359 361 360 362 362 361 361 361 360 362 358 359 356 357 356 356 355 357 354 353 358 356 359 359 361 363 363 363 359 361 358 362 367 366 367 369 371 371 371 368
330 332 335 338 340 341 344 347 349 351 353 354 355 353 351 355 352 351 355 356 358 358 357 360 358 356 360 362 360 357 358 359 359 359 358 355 354 354 354 354 355 357 356 353 357 357 357 360 358 361 361 359 360 362 362 366 369 361 364 367 368 366 363
329 331 333 335 337 339 340 343 347 350 352 352 356 352 354 355 351 354 355 355 355 358 354 357 357 355 360 361 361 361 359 361 360 359 356 353 352 350 351 353 353 356 354 350 351 356 358 359 357 361 362 360 362 364 363 366 362 362 363 364 366 364 362
326 328 331 334 337 338 339 341 343 346 349 350 352 355 357 355 354 354 354 354 354 355 354 358 363 358 355 354 356 356 358 361 361 358 355 351 350 350 351 351 353 355 353 350 350 351 356 359 358 362 363 361 365 363 362 365 361 361 362 366 364 364 364
324 327 329 331 334 336 337 337 338 339 341 344 347 348 349 349 352 354 356 356 354 358 359 359 359 359 358 358 355 354 354 355 357 357 356 351 348 348 349 349 351 353 352 350 348 351 352 356 359 361 361 356 360 361 361 362 362 363 360 360 361 362 361
323 324 326 328 330 332 333 334 336 337 340 341 343 347 349 351 352 354 356 356 357 354 354 360 360 360 358 357 356 354 352 353 352 353 354 353 348 346 346 347 349 352 353 352 349 351 351 353 353 358 360 359 359 360 361 362 362 363 363 359 358 360 360
323 324 324 324 326 328 332 334 335 336 337 339 340 342 344 347 349 350 352 354 357 358 354 355 358 358 359 357 358 357 355 352 352 351 351 353 350 346 346 345 346 349 351 352 351 349 347 350 352 354 359 360 360 358 361 362 362 364 364 362 361 360 359
326 324 325 325 325 325 327 329 333 336 338 340 343 344 343 345 346 348 350 351 354 355 354 357 357 357 357 358 356 356 357 357 353 353 352 354 355 352 346 345 345 347 350 352 352 349 346 346 349 353 354 358 359 361 362 363 362 364 365 364 362 359 359
323 323 323 323 324 326 326 327 330 331 333 334 337 339 342 342 343 346 348 351 353 353 353 356 356 354 353 357 358 355 354 357 356 355 352 355 358 356 353 347 347 348 349 352 350 348 348 346 347 351 351 355 358 360 360 360 361 361 363 363 363 361 356
322 323 322 322 324 325 326 327 329 330 331 333 334 335 337 341 342 342 344 346 349 352 353 354 355 354 351 350 354 354 357 357 356 359 358 350 350 358 358 356 351 346 348 349 351 351 352 351 349 350 352 353 357 359 358 358 359 359 352 355 362 361 356
322 322 323 324 325 325 326 327 328 330 330 331 332 332 332 337 343 343 344 345 345 348 352 352 355 355 353 352 356 359 357 355 356 353 354 357 354 350 359 359 357 355 354 352 352 353 357 352 350 346 348 351 352 355 355 355 355 348 339 340 347 359 360
321 322 322 323 324 325 326 325 327 328 329 329 331 333 333 336 338 340 342 345 344 350 354 354 352 351 354 353 356 355 356 358 356 356 354 355 356 355 351 354 362 367 371 354 351 356 357 353 351 351 347 346 350 351 353 354 351 336 336 337 338 349 360
320 321 321 322 323 324 324 325 326 328 329 329 328 331 333 334 337 339 340 344 349 349 347 347 348 347 349 352 354 352 353 355 355 355 354 356 357 359 359 357 355 359 364 360 354 353 353 356 353 353 352 348 351 347 351 354 345 331 333 335 334 336 350
320 321 322 322 322 323 324 325 327 327 329 330 331 329 332 332 332 336 338 341 342 344 344 343 343 345 345 347 351 353 355 354 354 354 355 356 359 362 362 360 361 359 359 360 361 362 356 353 355 356 356 353 352 355 351 352 347 329 328 331 331 333 339
318 320 320 321 321 323 324 324 325 327 328 328 330 330 332 332 331 334 336 337 338 339 340 340 340 341 342 344 344 346 346 347 351 353 354 354 355 356 360 359 359 360 356 353 352 356 363 357 354 357 359 355 353 351 348 344 337 327 325 326 327 330 335
317 318 319 320 321 323 323 322 323 325 329 332 329 327 330 332 333 332 333 335 335 337 337 338 338 337 340 340 341 342 342 344 346 349 352 355 353 351 352 351 352 353 355 355 351 347 348 354 356 356 358 358 355 350 350 346 330 323 323 323 325 328 344
317 317 318 319 319 322 323 323 323 327 329 329 330 328 327 331 334 334 333 331 332 336 336 336 336 337 337 337 338 340 342 344 344 347 349 352 353 351 350 351 353 354 357 357 357 354 351 350 351 356 357 356 357 356 355 353 340 322 319 320 322 328 348
317 317 317 317 319 321 322 322 322 325 325 327 328 329 329 332 331 333 334 333 332 334 334 333 333 336 337 337 337 340 343 344 346 346 347 349 351 352 351 350 352 355 356 356 356 356 352 352 351 351 354 356 357 356 358 358 350 324 316 317 320 332 349
316 315 316 316 317 318 317 320 322 323 323 323 322 326 330 332 331 331 330 331 331 334 334 334 334 334 335 337 338 338 338 342 346 347 347 346 348 351 349 349 351 354 355 355 355 355 355 355 354 354 355 354 356 358 357 357 352 329 316 315 316 328 348
316 315 316 316 318 318 319 323 322 321 320 321 323 323 326 330 330 329 329 330 330 332 333 334 335 337 337 338 338 338 338 338 342 344 345 345 347 353 352 351 352 354 355 355 355 354 356 353 352 352 354 355 355 355 357 357 358 355 318 314 313 318 348
317 317 316 317 317 322 319 320 321 319 319 323 325 323 324 324 324 325 328 330 330 331 332 335 337 338 338 338 336 337 339 338 338 340 341 342 351 355 354 354 354 354 354 354 355 355 354 354 354 353 354 355 356 355 356 356 357 356 320 312 312 314 326
316 317 318 318 320 320 319 318 319 320 320 322 322 323 324 324 325 325 326 326 327 330 333 336 336 338 337 336 335 335 336 338 340 340 341 345 348 349 352 356 354 354 355 355 354 354 352 352 353 353 353 355 357 359 358 354 347 356 331 319 312 310 313
316 315 315 316 317 318 318 318 318 319 320 320 321 323 324 324 325 325 325 324 327 330 332 334 335 337 337 337 335 335 336 339 338 338 341 343 347 347 347 350 352 354 355 354 354 353 352 352 353 353 354 355 357 358 350 353 357 337 352 326 318 315 311
315 316 315 316 316 317 318 318 318 318 319 320 322 323 324 324 324 325 325 325 329 329 333 334 333 335 335 335 336 336 336 337 335 337 340 344 345 344 344 345 347 353 355 353 352 352 353 354 354 354 353 353 359 356 356 353 356 345 342 340 319 315 313
314 314 315 314 315 317 317 315 316 317 318 319 321 322 324 323 323 323 324 327 330 330 329 331 332 333 333 332 332 333 333 333 335 338 342 342 339 340 341 343 346 347 353 355 352 350 350 353 353 353 354 356 356 354 353 354 355 356 352 338 330 318 312
314 315 314 315 315 316 315 316 317 317 317 319 320 321 323 323 322 322 323 326 328 328 327 327 329 331 332 330 330 331 331 331 332 337 341 339 339 339 342 343 342 343 347 350 350 351 351 350 351 351 352 353 355 354 353 354 355 354 355 352 343 327 314
313 313 313 314 315 316 316 316 315 315 316 316 318 319 319 321 321 323 325 326 326 327 329 329 329 330 331 331 328 329 330 331 331 332 337 337 337 337 338 341 341 343 345 344 344 344 347 349 349 348 349 350 352 353 353 353 352 352 353 358 360 350 339
312 313 314 315 315 316 315 315 314 315 316 316 317 318 319 319 320 322 323 323 323 325 327 327 327 325 327 327 328 329 329 330 333 334 332 335 335 334 335 337 338 337 338 337 338 339 340 340 342 344 347 349 349 350 351 350 351 352 353 358 360 358 359
313 313 314 314 314 315 314 314 314 315 315 315 317 318 319 319 320 320 322 323 325 327 326 326 327 328 328 328 328 328 332 332 331 332 330 330 333 335 339 337 335 335 335 337 340 340 338 337 338 339 339 342 345 348 348 349 349 354 340 349 333 347 354
312 312 312 313 314 314 314 315 315 315 315 315 317 317 317 318 319 321 320 322 324 325 325 326 326 325 326 327 327 327 326 329 329 329 329 329 331 332 336 337 323 330 336 335 333 327 318 319 335 339 338 337 337 339 340 344 347 319 309 311 312 313 315
311 311 312 312 312 313 313 314 314 314 314 315 316 316 317 317 317 319 320 322 323 324 324 325 325 324 324 325 325 326 327 326 326 328 331 330 330 333 332 332 337 314 312 316 319 314 307 304 304 306 310 326 332 333 324 322 318 313 311 309 307 304 304
311 312 312 312 311 312 312 312 313 312 313 314 315 315 316 315 317 318 318 320 322 324 324 324 324 324 324 324 325 328 329 327 328 328 329 330 331 331 331 330 330 333 320 313 314 311 306 305 304 303 303 303 308 322 331 322 313 309 306 304 302 303 302

ECMWFFLT1_sfc_thetae_111.txt.gz
Theta_e
342 344 345 344 342 344 341 344 343 346 340 339 340 338 339 345 349 352 351 352 353 351 355 356 354 356 355 355 356 355 356 357 357 356 355 357 356 357 357 360 360 360 359 360 358 356 359 360 360 360 363 365 363 364 367 365 364 367 365 367 364 361 359
342 343 344 345 344 345 346 345 346 347 346 339 341 339 339 344 349 351 352 352 354 352 355 357 356 356 355 355 355 356 356 356 359 359 358 358 359 357 358 358 359 360 359 361 361 358 363 360 360 360 362 365 364 365 365 365 365 365 364 364 365 364 364
336 341 341 344 346 344 346 345 346 348 348 343 341 340 339 344 348 351 354 352 354 354 355 357 358 357 357 355 354 356 356 356 358 358 356 356 357 357 357 357 359 360 361 360 360 364 365 361 361 362 361 363 364 364 364 364 364 365 364 362 362 362 361
340 341 342 347 346 349 351 353 349 348 348 348 351 342 340 345 348 352 356 353 354 356 354 357 359 358 358 355 354 355 356 356 357 357 356 356 356 354 355 356 357 357 359 359 361 364 362 362 364 362 367 361 363 365 364 364 365 365 365 364 361 363 362
339 340 340 342 345 347 350 350 346 343 348 352 355 348 348 348 351 352 356 356 356 356 356 357 359 360 359 358 356 356 356 356 356 356 356 355 355 352 352 355 354 354 356 359 360 360 358 360 361 362 363 361 364 364 363 364 362 364 366 365 361 364 363
335 336 339 341 344 345 346 349 349 349 346 350 350 349 352 354 348 348 348 353 357 358 358 357 358 359 358 358 356 356 356 356 356 356 355 354 353 351 351 352 353 353 355 355 359 358 361 359 359 361 361 361 363 363 363 364 363 364 366 363 361 362 363
334 338 340 341 341 344 344 348 351 351 350 348 349 350 351 353 351 349 351 355 359 358 358 359 357 358 359 358 356 356 354 355 355 355 355 354 354 351 350 351 352 351 354 355 354 357 360 357 357 359 359 359 359 360 360 361 361 363 365 362 360 362 362
332 334 339 338 341 343 345 344 348 353 352 351 350 352 352 351 348 350 352 354 354 351 349 351 350 348 351 355 357 354 355 355 355 355 355 353 353 351 350 350 352 351 351 353 353 355 356 357 358 358 358 356 356 355 358 359 359 362 362 363 361 363 363
330 333 335 336 337 340 342 342 346 349 351 350 352 353 352 350 352 352 353 352 354 352 351 352 353 354 352 347 352 355 356 356 356 355 354 353 351 352 351 350 351 352 351 350 352 354 355 356 356 357 357 356 355 355 356 358 359 360 361 362 361 360 360
327 328 331 332 334 336 338 340 342 343 346 344 346 347 349 351 352 352 351 352 352 352 354 357 355 356 353 354 351 354 355 355 356 356 354 352 351 349 349 350 350 353 351 349 350 352 354 355 355 356 356 355 355 354 355 357 358 358 359 360 361 360 359
323 325 327 329 330 333 334 335 337 338 341 344 345 347 348 350 349 348 350 353 351 353 355 354 353 354 353 351 350 350 353 354 356 355 354 352 351 349 348 347 349 350 350 349 347 349 352 354 355 354 355 355 354 355 353 357 356 355 355 358 360 360 359
323 324 324 326 329 330 333 335 336 338 338 339 341 342 344 347 349 350 351 353 355 351 352 355 358 357 353 351 354 349 353 351 351 355 354 353 350 348 348 347 347 348 350 349 347 346 348 352 354 354 354 354 353 356 353 355 355 354 353 355 357 359 358
323 323 324 325 327 328 328 329 333 337 339 339 341 341 342 344 346 349 351 352 353 355 354 356 355 354 355 354 351 352 355 353 353 352 351 351 351 350 346 345 347 347 349 350 348 346 345 348 352 354 354 354 353 355 355 354 355 355 355 354 354 355 356
324 323 324 325 325 326 326 327 328 330 332 335 339 342 342 343 344 345 348 349 352 353 353 352 351 352 354 352 350 349 352 356 355 354 352 353 353 349 347 346 347 343 348 350 348 347 345 346 348 351 354 354 353 353 355 354 354 354 356 356 355 353 353
319 322 323 323 324 325 325 325 326 328 329 330 333 337 340 341 342 344 345 347 349 351 353 356 352 351 351 350 348 348 350 354 357 357 358 358 355 353 351 351 350 348 347 349 349 349 348 345 347 347 351 354 353 353 354 355 355 356 356 356 355 355 353
319 320 321 321 322 323 325 326 326 326 328 328 328 331 336 339 339 341 343 344 347 349 351 353 352 351 350 352 352 354 353 354 354 356 357 358 354 353 352 351 351 352 350 350 347 348 348 347 344 346 347 351 353 353 354 355 356 357 352 353 356 355 355
318 319 320 321 321 322 324 325 326 326 326 328 328 329 333 337 339 341 343 344 345 349 351 350 348 349 352 352 353 353 354 354 354 353 353 355 356 354 353 354 353 351 352 353 348 347 346 347 345 344 346 347 351 352 353 355 356 349 339 340 346 356 354
317 318 319 320 321 321 322 323 324 325 325 326 328 327 328 332 334 338 342 342 343 345 347 346 345 344 345 347 347 348 350 352 353 353 353 353 352 354 354 355 354 352 350 349 348 350 347 346 344 343 344 346 348 351 353 353 353 338 336 337 338 348 356
316 317 318 319 320 321 321 322 323 324 326 326 326 327 327 329 331 331 336 342 341 342 341 341 342 342 343 344 343 342 343 345 347 351 352 353 354 355 355 356 354 350 349 351 350 348 346 345 347 344 343 344 346 348 351 352 345 335 333 334 335 335 349
317 317 318 319 319 319 319 321 323 325 325 324 325 329 330 331 330 331 333 336 340 338 338 338 338 340 340 341 341 342 342 343 345 346 347 352 353 354 355 354 351 353 352 352 350 349 349 347 346 347 346 343 343 346 349 351 345 332 329 330 331 333 339
316 317 318 317 317 318 318 319 321 323 325 324 325 325 329 330 331 331 330 331 333 335 335 336 336 336 337 337 339 341 342 343 343 344 347 348 352 351 351 350 350 352 354 353 352 349 347 347 347 348 351 349 346 342 345 349 340 330 326 325 326 329 335
315 317 317 318 318 318 317 318 321 321 324 328 323 323 326 330 332 331 330 330 332 333 332 333 334 335 335 335 336 338 341 343 343 344 345 347 349 351 350 350 351 352 353 353 354 353 351 350 350 348 348 349 351 348 342 343 332 328 326 323 324 327 340
313 314 317 319 319 318 320 319 320 323 327 323 321 321 323 329 329 329 330 329 330 332 331 331 330 331 334 335 336 337 338 341 343 344 344 345 348 347 350 349 350 351 353 353 353 353 352 351 351 351 350 349 350 350 350 346 338 326 320 321 321 325 340
313 313 314 315 315 316 318 320 320 322 322 319 320 320 326 328 328 327 327 328 328 331 331 331 330 331 332 333 335 337 337 338 342 343 343 342 343 346 348 350 350 350 353 352 351 353 354 353 352 352 352 350 349 350 351 352 340 323 318 314 318 328 339
313 313 314 314 314 314 318 321 322 321 322 320 319 321 323 323 324 324 324 327 326 330 329 330 331 331 331 332 333 335 337 337 339 340 341 342 343 345 347 347 348 350 351 352 352 351 352 353 352 352 352 352 352 357 356 348 344 331 328 319 313 322 335
312 313 313 314 315 317 320 321 318 317 318 318 319 321 322 323 323 326 325 324 326 328 327 329 331 331 332 332 332 333 334 337 339 338 338 338 343 347 349 351 350 349 350 351 352 351 352 352 352 351 351 352 351 352 350 350 350 347 326 324 315 314 333
314 314 313 314 319 323 316 316 318 316 316 317 319 320 322 323 324 323 324 324 322 325 324 329 332 332 333 332 332 332 332 332 335 336 337 337 342 346 348 351 351 351 350 350 350 352 352 352 352 352 352 352 353 351 350 352 351 350 328 318 315 313 320
313 314 314 322 324 320 316 316 316 315 316 316 318 321 321 321 323 323 324 322 322 323 325 329 331 332 331 332 332 332 331 332 334 336 336 338 342 342 340 343 345 347 349 351 351 350 351 351 351 351 351 352 352 355 351 355 354 354 335 321 316 314 312
311 312 313 313 313 317 317 314 314 314 315 317 319 320 320 320 321 322 323 321 323 324 326 326 328 329 329 331 333 333 332 333 333 332 333 336 343 339 337 338 340 342 345 346 349 348 347 347 350 351 351 351 351 352 353 352 355 343 349 326 313 311 308
313 313 312 313 314 314 317 313 315 314 315 317 318 319 320 319 319 320 321 320 322 324 326 325 323 324 325 330 332 330 332 333 332 330 330 336 338 335 335 336 338 341 342 346 349 347 346 346 347 348 348 349 351 354 351 351 352 349 344 342 319 311 309
311 311 312 312 312 316 315 313 313 315 316 316 317 317 318 318 318 319 319 319 322 324 324 324 325 325 325 325 328 329 330 329 328 329 330 336 334 333 334 335 337 337 340 345 343 340 341 343 344 343 344 346 346 346 349 353 352 353 350 339 332 318 313
311 311 311 312 312 314 315 314 315 314 314 315 316 315 318 317 317 316 317 320 322 321 321 324 324 324 324 324 325 327 328 327 326 327 329 332 332 334 335 334 335 336 337 336 336 338 339 340 340 339 339 338 340 344 348 350 350 351 353 351 348 335 322
310 311 311 311 313 315 313 314 312 313 314 314 315 315 316 315 317 317 318 319 319 319 320 321 323 325 324 322 323 324 326 326 325 326 328 328 332 334 334 333 334 334 335 334 333 334 336 335 336 336 336 336 337 337 339 343 349 351 351 351 351 350 347
309 311 312 313 314 314 312 312 311 312 313 314 314 315 316 316 316 317 317 318 319 319 320 322 323 322 321 322 322 324 325 325 329 328 327 329 327 326 329 332 334 332 331 330 331 331 331 331 332 332 333 334 335 334 334 335 339 346 345 344 342 342 346
310 311 311 311 312 314 310 311 312 312 313 313 313 313 314 314 315 316 315 316 317 317 317 319 322 322 320 321 321 321 326 329 327 327 327 324 325 327 327 328 330 331 331 332 332 332 331 328 327 332 333 334 334 333 332 332 333 338 329 330 317 321 328
309 310 310 310 311 311 311 314 312 312 312 311 312 313 313 313 314 315 316 316 316 317 316 318 318 318 319 320 321 322 324 326 326 324 326 325 324 325 326 333 323 323 329 329 332 327 318 315 325 329 329 328 330 332 331 331 334 323 312 306 303 303 302
308 309 308 310 309 310 311 311 313 312 312 311 312 312 312 312 313 314 315 316 317 318 317 316 317 318 318 320 320 321 323 323 322 323 322 323 324 325 325 325 326 314 311 316 322 317 311 305 303 305 309 321 323 325 321 320 314 307 304 302 302 301 300
309 308 310 310 309 310 310 310 310 310 310 310 311 310 311 312 312 312 313 315 317 318 318 318 317 316 317 318 319 321 322 322 323 325 323 323 324 322 322 321 322 324 316 311 307 307 305 303 303 303 304 305 309 319 323 316 309 304 301 300 299 300 299

ECMWFFLT1_sfc_thetae_114.txt.gz
Theta_e
343 341 339 339 339 341 336 332 333 335 336 337 339 340 343 346 346 346 346 348 347 348 351 348 353 351 352 351 353 352 352 351 352 349 353 352 355 355 355 354 354 356 356 355 355 355 356 359 357 357 358 360 359 357 357 359 359 361 359 361 359 358 355
341 340 338 340 339 337 342 344 339 334 335 337 338 340 344 346 346 346 347 349 347 348 351 348 352 352 353 352 353 352 351 353 353 355 354 354 357 357 357 356 355 356 357 356 357 356 358 358 358 357 357 360 362 358 360 361 359 359 360 360 359 356 356
337 338 339 340 341 340 342 348 344 345 339 337 338 339 344 346 347 346 348 349 347 347 352 350 351 353 353 353 352 352 352 353 354 355 352 353 354 357 357 358 356 357 358 358 359 357 358 358 358 357 358 359 362 360 362 361 361 362 360 359 360 358 356
336 337 341 342 342 344 346 348 345 346 346 344 343 338 344 346 348 348 349 350 349 348 351 352 350 353 353 353 352 352 352 353 355 355 354 354 353 355 355 356 357 358 358 357 360 359 359 360 358 357 364 359 361 361 362 362 362 361 361 359 358 359 358
337 339 339 341 343 344 348 347 345 345 346 347 348 349 348 347 349 349 349 351 351 349 352 354 353 353 354 354 354 354 353 353 354 354 354 355 355 354 354 354 356 357 359 358 359 360 359 359 358 358 359 359 360 361 362 360 360 361 361 359 357 358 358
334 335 337 340 343 344 344 347 348 345 343 344 348 349 349 350 349 350 349 351 351 351 352 355 354 354 354 354 354 354 354 354 354 355 354 354 354 353 353 353 354 355 356 358 359 359 359 358 359 359 358 358 360 361 361 360 360 361 361 360 359 358 360
335 336 337 338 340 341 343 346 347 346 348 348 350 352 349 348 348 351 352 352 354 351 350 351 352 355 355 355 354 353 352 353 354 354 354 353 353 351 351 352 354 353 354 355 357 358 357 357 359 359 359 358 360 361 360 360 359 360 361 361 359 358 359
334 334 336 337 339 340 342 346 348 348 349 349 348 347 346 347 350 352 351 350 351 351 351 350 349 351 354 355 355 353 352 353 354 354 353 353 352 352 350 350 352 352 352 352 353 356 357 357 358 359 359 358 358 359 360 360 360 360 361 361 358 357 361
332 334 334 334 336 338 340 343 345 346 347 347 347 347 350 351 349 349 350 351 350 349 348 349 350 353 351 350 350 351 353 353 353 353 353 353 352 352 351 350 350 351 351 352 352 354 357 356 356 357 358 357 357 357 358 359 359 360 359 360 359 357 359
327 329 332 335 335 338 339 341 344 344 345 346 346 347 349 349 350 350 349 349 350 347 347 350 351 354 353 352 352 350 350 351 353 353 353 352 352 351 352 351 349 351 350 351 352 352 353 356 356 356 356 356 355 354 355 356 358 358 359 359 360 358 358
326 327 329 333 335 336 336 337 337 338 341 343 345 347 347 346 346 346 346 348 348 349 351 354 353 351 351 351 351 350 349 350 352 352 352 352 352 351 351 351 349 349 350 349 350 351 352 353 355 355 355 355 354 353 352 354 356 356 357 359 360 359 359
326 325 326 327 329 333 334 335 337 337 338 339 341 343 346 347 348 349 350 351 351 348 350 351 352 351 350 350 350 348 347 348 347 348 350 351 352 352 350 350 349 348 350 349 348 349 351 351 352 354 354 354 354 353 353 352 354 355 356 357 358 359 358
324 324 325 326 327 329 329 331 333 337 339 340 340 341 342 344 348 348 348 349 350 352 351 351 352 351 349 352 351 349 350 350 349 347 345 345 347 349 348 345 345 347 348 350 348 347 348 350 351 353 353 354 354 353 353 352 353 354 354 354 356 357 357
325 323 324 324 325 325 325 327 327 330 334 338 339 341 342 343 345 346 348 348 350 350 350 351 350 350 350 349 349 348 349 349 351 350 348 351 349 347 348 347 346 348 346 348 348 347 346 347 350 351 352 352 353 353 354 352 352 353 353 352 352 354 355
321 321 322 323 323 325 324 325 326 328 330 335 339 340 341 342 343 344 345 346 347 350 350 352 350 350 349 348 346 346 348 350 351 352 351 352 350 348 349 349 347 347 348 350 348 348 346 346 348 350 351 351 352 352 353 353 352 353 353 352 351 351 351
319 320 321 321 322 323 324 324 325 326 326 327 331 336 340 342 342 343 343 345 347 346 348 351 349 348 348 349 350 351 350 350 352 351 352 352 350 349 349 347 349 350 349 351 350 348 348 345 344 347 350 350 351 351 351 352 353 355 350 352 354 352 352
318 319 320 321 322 322 322 323 324 325 325 326 328 329 332 338 342 343 343 344 344 343 345 346 344 344 343 344 347 350 353 352 351 351 350 349 349 350 350 350 351 351 350 350 348 347 348 347 344 342 345 349 350 350 351 351 353 347 338 339 345 354 352
316 317 318 319 319 320 321 322 322 323 325 327 328 328 329 332 337 340 339 340 340 343 344 344 343 342 342 343 342 343 345 347 350 351 350 351 351 352 352 352 351 349 349 348 348 347 349 345 344 343 342 344 347 350 351 351 350 337 334 336 336 346 353
315 315 316 317 318 319 319 320 321 320 322 326 328 329 330 330 330 335 337 337 338 339 339 340 341 340 340 342 342 342 342 344 345 346 347 350 350 350 352 352 351 349 349 350 350 349 346 345 345 345 343 342 342 345 350 351 343 334 333 333 333 334 347
315 314 314 314 315 315 316 318 320 321 320 322 326 330 330 331 330 331 334 335 334 334 335 336 336 337 339 340 341 341 342 342 343 344 345 348 350 349 350 351 348 351 352 353 350 348 347 347 346 345 345 345 342 343 345 348 345 332 330 330 330 331 336
313 313 313 313 313 314 314 317 319 319 319 321 326 328 329 328 329 329 331 332 331 331 331 331 333 334 335 336 338 339 340 341 342 342 343 345 348 348 348 347 346 348 349 351 351 350 348 347 346 346 348 347 347 344 343 346 339 330 327 326 326 329 333
314 313 313 313 313 313 314 317 319 318 319 325 325 326 327 327 328 328 328 331 331 330 330 330 330 330 332 331 333 335 337 341 342 342 342 342 344 345 346 345 346 347 349 351 351 352 352 351 350 349 348 348 347 348 346 345 333 328 325 324 324 326 339
315 314 314 314 314 314 316 318 318 319 320 320 321 322 323 325 326 326 326 327 330 330 330 329 329 330 330 331 331 333 335 337 338 341 342 341 341 341 343 344 346 347 349 349 350 350 351 351 352 351 350 350 349 347 347 349 337 326 320 320 321 325 339
314 313 312 313 315 316 317 317 317 319 318 318 320 320 322 323 323 322 323 325 328 328 329 329 328 330 330 329 330 331 332 335 337 337 337 337 339 341 343 345 345 346 349 348 349 349 350 351 352 352 352 350 350 349 348 349 339 323 322 316 317 327 337
311 313 314 315 315 315 316 317 318 318 318 317 317 319 321 322 323 323 322 323 324 323 322 325 329 329 329 329 330 331 331 331 334 335 335 335 336 343 344 344 345 348 348 348 349 349 349 351 350 351 351 351 351 355 354 351 345 325 323 320 315 322 332
311 313 314 315 315 316 316 317 315 314 315 315 316 318 320 321 322 326 324 322 322 321 321 322 324 327 330 329 330 330 330 330 332 333 333 333 335 343 343 344 342 343 345 347 348 348 349 351 351 350 351 352 352 352 351 351 350 347 326 317 313 317 335
313 314 314 315 317 321 313 313 313 313 314 315 317 318 319 320 321 321 322 321 318 319 321 322 324 324 324 324 329 330 329 329 330 331 330 331 333 343 339 338 338 340 341 343 345 346 347 349 350 351 351 352 352 352 352 353 350 349 331 323 317 313 325
313 313 316 320 321 317 312 313 312 313 314 315 317 319 318 318 319 319 319 316 316 317 321 322 322 322 322 323 326 331 329 329 329 331 330 332 335 337 332 334 336 338 339 342 344 345 345 344 345 346 348 350 352 352 351 354 354 353 339 327 319 314 313
309 309 309 310 312 317 314 311 311 312 312 314 315 316 317 317 318 318 318 314 315 318 321 321 322 322 322 324 324 326 329 330 329 328 330 331 334 334 331 332 334 335 339 341 340 340 340 341 341 341 341 342 344 348 351 350 351 346 349 336 324 316 311
309 309 310 311 313 314 315 311 312 312 313 313 314 313 315 315 315 318 316 313 316 319 320 319 321 321 322 324 322 323 325 327 329 326 326 328 331 331 330 331 334 335 337 337 337 336 336 338 338 337 336 336 338 341 344 346 349 348 345 342 330 319 311
308 308 308 309 311 315 312 311 311 311 311 312 313 313 314 314 314 315 313 314 318 317 316 318 320 321 322 321 321 322 322 323 323 325 325 325 327 328 330 332 333 334 333 334 332 332 332 334 336 336 336 337 336 337 338 339 342 345 347 341 335 324 319
308 308 309 309 310 312 311 310 311 311 311 312 313 313 315 313 313 312 312 314 316 315 315 317 319 321 322 322 321 320 320 321 321 323 324 325 327 329 330 330 330 330 331 330 329 328 330 331 332 332 332 333 334 336 337 338 339 340 343 349 348 338 325
307 307 307 307 311 313 310 310 310 312 313 312 311 312 313 312 312 313 313 314 314 315 315 316 318 319 319 317 319 319 319 319 321 325 326 324 325 325 328 326 325 326 329 328 327 325 328 328 330 329 328 329 330 332 334 334 335 335 339 345 341 337 334
306 307 308 310 311 310 308 307 307 310 311 310 309 311 311 311 311 312 312 313 314 315 315 317 318 317 315 316 317 319 320 321 328 327 324 324 324 323 322 323 325 325 325 325 325 326 326 326 327 325 326 326 327 328 328 329 331 333 336 338 334 330 329
307 308 308 307 308 309 305 309 311 310 310 309 309 309 310 310 311 312 311 312 314 315 315 316 317 317 315 315 316 316 321 323 322 322 322 321 322 321 321 322 326 325 323 324 326 327 328 327 325 328 325 325 326 325 324 326 327 331 322 319 310 315 321
306 306 306 307 310 307 311 312 310 310 310 307 308 309 310 310 310 310 311 312 314 314 313 315 315 315 315 316 316 317 319 320 318 318 320 320 320 320 321 332 319 317 320 321 326 321 310 311 322 324 323 321 322 324 323 324 327 319 306 301 299 299 299
305 305 305 307 306 307 308 309 311 310 309 307 310 309 310 310 308 308 310 312 313 312 311 312 314 315 314 316 316 318 321 320 318 319 318 318 319 320 321 321 319 309 309 312 315 310 303 301 301 303 307 314 317 320 317 315 309 303 298 298 298 297 297
306 305 306 306 307 308 308 308 308 307 307 306 308 307 308 308 308 308 310 311 310 311 310 310 312 312 313 314 316 319 321 319 318 319 318 318 318 320 319 317 316 318 311 308 308 308 304 302 303 303 304 305 307 314 318 315 309 301 298 298 297 298 297

ECMWFFLT1_sfc_thetae_117.txt.gz
Theta_e
340 338 337 337 335 330 330 331 333 334 335 336 337 338 341 342 342 345 345 344 345 344 346 345 348 348 346 348 348 348 350 348 351 349 350 349 350 350 350 352 352 352 352 352 353 353 355 357 357 358 358 358 357 356 355 356 355 358 356 357 355 356 353
338 338 338 338 337 338 339 338 336 334 335 336 337 338 340 342 342 343 345 345 345 345 346 346 349 348 347 347 349 348 348 349 351 353 351 351 354 352 352 353 353 352 353 353 353 354 355 356 356 355 356 358 358 356 356 356 356 355 356 357 356 353 352
337 338 338 338 338 338 342 341 341 336 335 336 338 338 340 342 343 343 344 345 344 345 347 346 349 348 348 348 348 349 349 350 350 351 350 350 352 353 354 354 353 353 355 355 354 355 357 355 355 355 355 355 357 357 356 356 357 357 357 356 357 355 352
337 338 338 340 340 343 343 343 343 343 335 337 337 339 340 342 344 344 345 346 345 346 346 346 348 349 349 348 348 348 349 349 350 351 351 351 352 354 354 353 354 354 355 355 357 357 357 356 355 354 361 355 356 358 358 358 358 358 358 357 356 357 354
338 339 339 340 340 340 342 344 343 341 342 337 337 340 341 343 344 344 345 347 346 346 348 347 348 350 350 350 350 350 350 349 350 351 351 352 352 353 353 354 354 354 355 356 356 358 355 356 356 355 355 355 355 357 359 358 358 359 358 357 355 355 355
336 337 339 341 341 342 343 344 343 343 343 343 340 338 341 343 345 344 345 347 346 347 349 348 347 350 350 351 351 351 350 350 350 351 352 351 351 352 353 353 355 355 355 355 357 357 357 355 356 356 355 356 356 357 358 358 358 359 358 357 356 355 356
334 336 337 340 341 342 345 344 345 346 347 347 346 346 343 344 344 345 345 347 347 345 347 349 348 349 350 351 351 352 350 350 350 351 352 352 352 351 352 353 355 355 356 356 356 357 357 356 356 356 356 355 356 356 357 357 357 357 357 356 355 355 354
335 334 337 339 341 344 344 344 346 347 347 346 344 344 343 344 345 346 345 347 348 347 348 350 350 349 350 351 352 351 351 351 351 352 352 352 351 352 351 351 352 353 353 354 355 356 356 356 357 357 356 355 355 356 357 357 356 357 357 357 355 355 357
333 334 335 338 341 343 344 345 346 348 347 346 346 345 346 347 347 347 347 348 349 348 348 351 351 351 351 352 351 351 352 352 351 352 352 352 351 351 351 350 350 352 351 351 352 355 356 356 356 357 357 356 355 355 356 357 357 357 357 357 356 356 356
331 333 334 335 337 339 342 344 344 344 344 345 346 346 346 346 347 348 348 349 349 349 348 350 351 352 351 351 351 351 350 351 351 352 352 351 351 351 351 350 349 351 351 351 351 351 353 356 356 356 356 356 355 354 355 356 357 357 357 357 357 357 356
328 331 333 333 334 336 338 338 338 339 341 343 344 345 344 344 345 346 347 348 349 348 350 350 351 350 349 351 349 349 348 350 351 351 351 351 352 351 351 351 350 349 350 349 349 350 350 353 355 354 354 355 355 354 354 355 356 356 357 357 357 358 357
326 327 328 331 333 335 335 336 337 338 339 341 343 344 345 346 347 347 346 346 347 348 350 350 351 348 348 348 348 346 346 346 347 349 350 351 351 352 351 351 350 348 349 349 348 349 349 350 352 354 353 354 355 354 354 354 355 355 356 357 357 357 357
325 325 326 327 328 331 333 334 335 337 338 339 341 342 344 346 346 348 347 346 347 349 348 348 349 348 347 348 347 345 344 345 348 346 346 348 348 348 348 349 350 350 348 349 348 347 348 349 350 353 353 353 354 354 354 353 353 353 354 355 356 356 356
325 324 326 327 327 327 328 330 333 336 337 338 339 340 342 344 346 346 345 346 346 347 348 348 348 348 349 348 347 345 345 345 347 346 346 346 345 345 346 346 345 344 346 348 348 347 347 347 349 350 352 353 353 354 354 353 352 351 352 353 354 355 355
320 321 323 324 325 325 325 326 327 329 334 338 339 339 341 342 343 344 345 345 346 347 347 350 348 347 347 347 345 345 345 346 347 347 348 350 348 346 345 346 346 345 346 346 346 348 347 347 347 348 349 351 352 353 353 353 352 352 352 351 351 352 353
319 320 320 323 324 325 325 326 327 328 330 333 337 339 340 340 340 341 341 342 343 343 346 348 346 346 346 346 345 347 348 347 349 349 349 348 347 346 346 346 346 346 346 347 348 346 346 345 345 346 347 348 349 351 352 352 353 355 348 350 353 351 352
318 318 319 320 323 324 324 326 327 328 329 331 334 336 336 337 337 339 340 340 341 341 343 343 342 342 343 343 346 349 351 349 350 349 348 348 347 347 347 346 347 347 347 346 346 345 345 347 343 343 344 346 347 348 349 351 353 346 337 337 342 353 350
317 317 318 319 320 322 323 324 326 326 328 328 331 333 334 334 335 336 336 338 339 341 342 341 340 339 340 342 343 344 344 346 348 349 348 347 347 347 347 348 348 348 348 347 346 345 347 345 344 343 342 343 345 347 349 350 349 336 334 335 335 344 352
316 315 315 317 318 319 318 320 322 325 326 327 329 330 333 334 333 332 334 334 336 338 338 338 338 338 338 339 340 342 343 344 345 345 346 348 350 350 351 349 348 346 346 347 348 349 344 343 343 342 342 342 341 343 346 349 342 334 332 332 332 332 344
313 313 313 314 316 316 317 319 321 324 326 326 327 329 332 332 333 331 331 332 332 332 333 333 334 335 335 337 338 339 341 343 343 343 343 344 345 347 348 349 348 349 349 350 350 347 346 347 344 343 342 343 342 341 342 344 344 332 329 328 328 330 333
311 313 313 314 315 317 318 319 320 321 323 324 326 326 326 326 329 330 330 330 329 330 330 330 331 332 332 333 335 337 338 340 341 341 342 343 343 344 344 345 345 347 349 350 350 349 348 348 346 345 347 346 346 345 344 344 338 330 327 325 325 327 331
311 312 312 313 314 314 315 316 317 318 319 323 321 322 322 323 326 327 328 330 329 329 330 330 330 330 332 331 333 333 335 337 338 339 340 341 342 343 343 343 344 344 347 348 348 349 350 350 350 348 347 347 347 346 345 347 333 328 325 322 322 325 336
311 312 313 314 315 315 316 317 317 318 319 319 320 321 321 322 323 324 324 324 324 324 325 327 328 329 330 330 330 332 332 334 335 337 337 338 339 341 342 342 343 344 347 347 347 347 346 346 349 350 349 349 349 347 345 347 339 326 323 319 319 323 335
313 314 314 314 314 315 315 315 316 318 317 317 318 319 321 323 322 321 321 321 321 321 321 322 322 325 327 326 331 330 331 332 332 333 335 335 335 339 342 342 342 343 347 346 346 346 347 347 347 348 350 349 349 349 348 348 343 325 322 320 316 326 335
313 313 313 314 314 314 315 315 317 317 317 316 316 317 320 321 322 319 318 319 319 319 319 320 322 322 323 323 326 330 330 330 331 330 330 331 332 338 341 338 339 342 343 344 346 347 347 349 348 349 349 351 351 354 352 350 347 329 320 320 320 324 333
311 312 312 313 313 314 315 317 316 314 314 314 315 317 319 319 319 321 318 316 316 317 318 319 320 322 322 323 325 328 330 329 330 330 329 328 330 336 339 339 337 337 339 342 344 346 347 347 347 346 347 349 350 352 351 350 350 347 328 319 317 318 335
312 312 312 313 315 319 312 312 313 313 313 313 315 316 318 318 317 316 317 315 314 315 317 318 320 322 322 323 323 324 325 327 327 328 327 328 330 335 336 334 334 337 340 341 342 343 342 341 341 341 342 344 345 346 348 349 349 348 328 323 319 316 321
312 313 314 318 318 315 311 312 311 312 312 313 315 316 316 317 317 315 313 312 313 314 316 317 318 319 320 322 322 323 323 324 326 328 328 330 332 329 329 330 333 336 338 338 337 336 336 336 337 337 337 340 342 343 343 345 346 346 336 327 321 319 312
310 310 310 310 312 315 313 310 310 310 311 312 313 314 314 316 315 313 312 310 312 314 315 316 316 318 319 322 322 323 322 323 323 324 326 328 330 328 328 330 332 333 336 333 333 333 333 333 333 333 333 335 337 339 340 341 343 339 342 331 320 316 315
308 309 309 311 312 312 315 310 310 310 311 312 312 312 312 313 313 314 312 310 313 314 316 315 316 317 319 321 319 320 321 322 324 322 323 326 327 328 327 328 331 331 332 329 329 328 328 329 331 330 329 329 331 334 336 338 339 341 339 337 317 313 313
308 308 309 310 311 314 311 309 308 309 310 310 311 311 311 311 312 313 310 310 315 314 314 315 317 318 318 316 316 318 318 319 319 321 323 324 325 325 328 326 326 325 326 327 325 325 326 327 330 328 328 328 328 329 331 333 335 337 339 338 330 319 314
307 308 309 310 310 310 309 309 309 309 309 308 309 310 312 310 310 310 309 312 314 314 314 316 317 318 317 316 316 315 317 317 318 321 323 323 324 327 327 325 325 326 324 322 322 323 325 327 329 328 327 326 325 327 328 329 330 331 334 340 335 328 320
306 307 307 307 309 310 308 309 309 309 309 307 307 308 310 308 310 310 310 312 313 313 313 315 316 317 315 314 314 315 316 316 319 321 321 320 320 321 324 324 323 323 324 322 319 321 324 326 328 326 326 325 324 325 326 325 326 327 330 331 327 326 328
305 306 307 308 308 308 307 307 307 308 308 308 305 308 309 308 308 308 309 311 312 311 312 314 315 314 312 313 314 316 317 317 324 323 317 317 318 318 318 319 323 321 320 319 319 320 321 322 323 323 323 321 322 321 321 321 322 325 324 322 321 321 322
306 306 306 306 307 309 307 308 308 308 308 306 306 307 307 307 307 308 308 309 309 308 310 312 313 314 312 313 314 314 319 319 318 317 317 315 316 316 316 317 321 320 318 317 319 323 321 319 319 322 318 319 318 318 318 320 320 323 309 313 306 309 313
305 305 304 305 308 308 309 310 308 307 308 305 306 307 307 306 306 307 309 308 308 308 309 310 311 311 310 312 313 314 318 319 318 317 318 316 315 315 317 325 319 314 318 318 324 316 312 314 318 319 316 313 315 318 318 318 322 308 299 297 296 297 297
304 304 304 305 306 305 307 307 309 309 308 306 308 308 308 306 305 305 307 307 307 307 307 306 309 310 309 313 312 317 321 319 317 317 315 315 315 315 316 318 319 310 309 313 315 310 303 300 301 303 308 316 314 317 315 313 305 298 297 296 296 295 295
305 304 305 306 306 307 307 306 307 306 307 306 307 305 305 306 305 304 306 306 307 307 306 306 307 307 307 309 313 318 318 317 316 318 316 315 315 316 316 315 314 316 309 306 307 305 301 301 301 301 301 302 307 313 314 310 303 297 296 296 296 296 295